<?xml version="1.0" encoding="UTF-8" standalone="no" ?>
<gpx xmlns="http://www.topografix.com/GPX/1/1" xmlns:xsi="http://www.w3.org/2001/XMLSchema-instance" xsi:schemaLocation="http://www.topografix.com/GPX/1/1 http://www.topografix.com/GPX/1/1/gpx.xsd" version="1.1" creator="VisuGPX - https://www.visugpx.com">
  <metadata>
    <name>04 - Seyne : 3 circuits</name>
    <desc><![CDATA[Cet itinéraire fait partie de la collection de EquiLiberté : www.equiliberte.org Circuit NON ACCESSIBLE aux attelages
]]></desc>
  </metadata>
  <trk>
    <name><![CDATA[04 - Seyne nord : vers le Col Bas]]></name>
    <extensions>
      <line xmlns="http://www.topografix.com/GPX/gpx_style/0/2">
        <color>00FF00</color>
        <width>4</width>
      </line>
    </extensions>
    <trkseg>
      <trkpt lat="44.34534" lon="6.34543">
        <ele>1137.8000488281</ele>
        <time>2016-07-18T06:52:09.000Z</time>
      </trkpt>
      <trkpt lat="44.34534" lon="6.34543">
        <ele>1137.8000488281</ele>
        <time>2016-07-18T06:52:09.000Z</time>
      </trkpt>
      <trkpt lat="44.34538" lon="6.34548">
        <ele>1137.8000488281</ele>
        <time>2016-07-18T06:52:12.000Z</time>
      </trkpt>
      <trkpt lat="44.34537" lon="6.34555">
        <ele>1137.8000488281</ele>
        <time>2016-07-18T06:52:16.000Z</time>
      </trkpt>
      <trkpt lat="44.34536" lon="6.34574">
        <ele>1138</ele>
        <time>2016-07-18T06:52:25.000Z</time>
      </trkpt>
      <trkpt lat="44.34537" lon="6.34576">
        <ele>1138</ele>
        <time>2016-07-18T06:52:32.000Z</time>
      </trkpt>
      <trkpt lat="44.34537" lon="6.34574">
        <ele>1138</ele>
        <time>2016-07-18T06:52:40.000Z</time>
      </trkpt>
      <trkpt lat="44.34534" lon="6.34573">
        <ele>1138</ele>
        <time>2016-07-18T06:52:47.000Z</time>
      </trkpt>
      <trkpt lat="44.34528" lon="6.34574">
        <ele>1138</ele>
        <time>2016-07-18T06:52:56.000Z</time>
      </trkpt>
      <trkpt lat="44.34521" lon="6.34571">
        <ele>1138</ele>
        <time>2016-07-18T06:53:06.000Z</time>
      </trkpt>
      <trkpt lat="44.34516" lon="6.34573">
        <ele>1138</ele>
        <time>2016-07-18T06:53:11.000Z</time>
      </trkpt>
      <trkpt lat="44.34513" lon="6.34578">
        <ele>1138</ele>
        <time>2016-07-18T06:53:17.000Z</time>
      </trkpt>
      <trkpt lat="44.3451" lon="6.34586">
        <ele>1138</ele>
        <time>2016-07-18T06:53:24.000Z</time>
      </trkpt>
      <trkpt lat="44.3451" lon="6.34594">
        <ele>1138</ele>
        <time>2016-07-18T06:53:29.000Z</time>
      </trkpt>
      <trkpt lat="44.34509" lon="6.34604">
        <ele>1138</ele>
        <time>2016-07-18T06:53:36.000Z</time>
      </trkpt>
      <trkpt lat="44.34509" lon="6.34612">
        <ele>1138</ele>
        <time>2016-07-18T06:53:43.000Z</time>
      </trkpt>
      <trkpt lat="44.34512" lon="6.34611">
        <ele>1138</ele>
        <time>2016-07-18T06:53:53.000Z</time>
      </trkpt>
      <trkpt lat="44.34515" lon="6.34611">
        <ele>1138</ele>
        <time>2016-07-18T06:53:59.000Z</time>
      </trkpt>
      <trkpt lat="44.34514" lon="6.34613">
        <ele>1138</ele>
        <time>2016-07-18T06:54:03.000Z</time>
      </trkpt>
      <trkpt lat="44.34511" lon="6.34617">
        <ele>1138</ele>
        <time>2016-07-18T06:54:10.000Z</time>
      </trkpt>
      <trkpt lat="44.34507" lon="6.34624">
        <ele>1138</ele>
        <time>2016-07-18T06:54:16.000Z</time>
      </trkpt>
      <trkpt lat="44.345" lon="6.3463">
        <ele>1138.1999511719</ele>
        <time>2016-07-18T06:54:24.000Z</time>
      </trkpt>
      <trkpt lat="44.34494" lon="6.34632">
        <ele>1138.1999511719</ele>
        <time>2016-07-18T06:54:29.000Z</time>
      </trkpt>
      <trkpt lat="44.34483" lon="6.34632">
        <ele>1138.4000244141</ele>
        <time>2016-07-18T06:54:38.000Z</time>
      </trkpt>
      <trkpt lat="44.3447" lon="6.34631">
        <ele>1138.5999755859</ele>
        <time>2016-07-18T06:54:49.000Z</time>
      </trkpt>
      <trkpt lat="44.34466" lon="6.34635">
        <ele>1138.5999755859</ele>
        <time>2016-07-18T06:54:53.000Z</time>
      </trkpt>
      <trkpt lat="44.34463" lon="6.34645">
        <ele>1138.8000488281</ele>
        <time>2016-07-18T06:54:58.000Z</time>
      </trkpt>
      <trkpt lat="44.34466" lon="6.34662">
        <ele>1139.1999511719</ele>
        <time>2016-07-18T06:55:07.000Z</time>
      </trkpt>
      <trkpt lat="44.34471" lon="6.34679">
        <ele>1139.1999511719</ele>
        <time>2016-07-18T06:55:16.000Z</time>
      </trkpt>
      <trkpt lat="44.34476" lon="6.34695">
        <ele>1139.1999511719</ele>
        <time>2016-07-18T06:55:25.000Z</time>
      </trkpt>
      <trkpt lat="44.3448" lon="6.3471">
        <ele>1139</ele>
        <time>2016-07-18T06:55:33.000Z</time>
      </trkpt>
      <trkpt lat="44.34486" lon="6.34723">
        <ele>1139</ele>
        <time>2016-07-18T06:55:41.000Z</time>
      </trkpt>
      <trkpt lat="44.34493" lon="6.34735">
        <ele>1139.1999511719</ele>
        <time>2016-07-18T06:55:49.000Z</time>
      </trkpt>
      <trkpt lat="44.34491" lon="6.34761">
        <ele>1140.1999511719</ele>
        <time>2016-07-18T06:56:06.000Z</time>
      </trkpt>
      <trkpt lat="44.34489" lon="6.34766">
        <ele>1140.1999511719</ele>
        <time>2016-07-18T06:56:10.000Z</time>
      </trkpt>
      <trkpt lat="44.34488" lon="6.34769">
        <ele>1140.4000244141</ele>
        <time>2016-07-18T06:56:12.000Z</time>
      </trkpt>
      <trkpt lat="44.34487" lon="6.34776">
        <ele>1140.4000244141</ele>
        <time>2016-07-18T06:56:16.000Z</time>
      </trkpt>
      <trkpt lat="44.34486" lon="6.34789">
        <ele>1140.4000244141</ele>
        <time>2016-07-18T06:56:23.000Z</time>
      </trkpt>
      <trkpt lat="44.34489" lon="6.34798">
        <ele>1140.4000244141</ele>
        <time>2016-07-18T06:56:29.000Z</time>
      </trkpt>
      <trkpt lat="44.3449" lon="6.34809">
        <ele>1140.5999755859</ele>
        <time>2016-07-18T06:56:35.000Z</time>
      </trkpt>
      <trkpt lat="44.3449" lon="6.34811">
        <ele>1140.5999755859</ele>
        <time>2016-07-18T06:56:36.000Z</time>
      </trkpt>
      <trkpt lat="44.34493" lon="6.34822">
        <ele>1140.8000488281</ele>
        <time>2016-07-18T06:56:42.000Z</time>
      </trkpt>
      <trkpt lat="44.34503" lon="6.34845">
        <ele>1141.5999755859</ele>
        <time>2016-07-18T06:56:57.000Z</time>
      </trkpt>
      <trkpt lat="44.34508" lon="6.34855">
        <ele>1142.1999511719</ele>
        <time>2016-07-18T06:57:03.000Z</time>
      </trkpt>
      <trkpt lat="44.3451" lon="6.34859">
        <ele>1142.4000244141</ele>
        <time>2016-07-18T06:57:06.000Z</time>
      </trkpt>
      <trkpt lat="44.34514" lon="6.34872">
        <ele>1142.5999755859</ele>
        <time>2016-07-18T06:57:14.000Z</time>
      </trkpt>
      <trkpt lat="44.34514" lon="6.34878">
        <ele>1142.8000488281</ele>
        <time>2016-07-18T06:57:17.000Z</time>
      </trkpt>
      <trkpt lat="44.34514" lon="6.34881">
        <ele>1142.8000488281</ele>
        <time>2016-07-18T06:57:19.000Z</time>
      </trkpt>
      <trkpt lat="44.34512" lon="6.349">
        <ele>1142.8000488281</ele>
        <time>2016-07-18T06:57:30.000Z</time>
      </trkpt>
      <trkpt lat="44.34509" lon="6.34911">
        <ele>1142.4000244141</ele>
        <time>2016-07-18T06:57:37.000Z</time>
      </trkpt>
      <trkpt lat="44.34506" lon="6.34923">
        <ele>1142</ele>
        <time>2016-07-18T06:57:44.000Z</time>
      </trkpt>
      <trkpt lat="44.34501" lon="6.3497">
        <ele>1141</ele>
        <time>2016-07-18T06:58:06.000Z</time>
      </trkpt>
      <trkpt lat="44.345" lon="6.34986">
        <ele>1141</ele>
        <time>2016-07-18T06:58:13.000Z</time>
      </trkpt>
      <trkpt lat="44.34498" lon="6.35006">
        <ele>1141.1999511719</ele>
        <time>2016-07-18T06:58:22.000Z</time>
      </trkpt>
      <trkpt lat="44.34497" lon="6.35023">
        <ele>1141.1999511719</ele>
        <time>2016-07-18T06:58:30.000Z</time>
      </trkpt>
      <trkpt lat="44.34497" lon="6.35025">
        <ele>1141.4000244141</ele>
        <time>2016-07-18T06:58:31.000Z</time>
      </trkpt>
      <trkpt lat="44.34495" lon="6.3504">
        <ele>1141.5999755859</ele>
        <time>2016-07-18T06:58:38.000Z</time>
      </trkpt>
      <trkpt lat="44.34495" lon="6.35042">
        <ele>1141.5999755859</ele>
        <time>2016-07-18T06:58:37.000Z</time>
      </trkpt>
      <trkpt lat="44.34491" lon="6.35051">
        <ele>1141.8000488281</ele>
        <time>2016-07-18T06:58:42.000Z</time>
      </trkpt>
      <trkpt lat="44.34483" lon="6.35072">
        <ele>1142.1999511719</ele>
        <time>2016-07-18T06:58:56.000Z</time>
      </trkpt>
      <trkpt lat="44.34474" lon="6.35084">
        <ele>1142.4000244141</ele>
        <time>2016-07-18T06:59:06.000Z</time>
      </trkpt>
      <trkpt lat="44.34472" lon="6.35094">
        <ele>1142.5999755859</ele>
        <time>2016-07-18T06:59:13.000Z</time>
      </trkpt>
      <trkpt lat="44.34473" lon="6.35109">
        <ele>1143.1999511719</ele>
        <time>2016-07-18T06:59:21.000Z</time>
      </trkpt>
      <trkpt lat="44.34479" lon="6.35122">
        <ele>1143.8000488281</ele>
        <time>2016-07-18T06:59:29.000Z</time>
      </trkpt>
      <trkpt lat="44.3448" lon="6.35126">
        <ele>1144</ele>
        <time>2016-07-18T06:59:33.000Z</time>
      </trkpt>
      <trkpt lat="44.34485" lon="6.35127">
        <ele>1144.1999511719</ele>
        <time>2016-07-18T06:59:40.000Z</time>
      </trkpt>
      <trkpt lat="44.34485" lon="6.35128">
        <ele>1144.1999511719</ele>
        <time>2016-07-18T06:59:48.000Z</time>
      </trkpt>
      <trkpt lat="44.34486" lon="6.35128">
        <ele>1144.1999511719</ele>
        <time>2016-07-18T06:59:55.000Z</time>
      </trkpt>
      <trkpt lat="44.34486" lon="6.35127">
        <ele>1144.1999511719</ele>
        <time>2016-07-18T07:00:00.000Z</time>
      </trkpt>
      <trkpt lat="44.34491" lon="6.35128">
        <ele>1144.4000244141</ele>
        <time>2016-07-18T07:00:06.000Z</time>
      </trkpt>
      <trkpt lat="44.34493" lon="6.35131">
        <ele>1144.4000244141</ele>
        <time>2016-07-18T07:00:13.000Z</time>
      </trkpt>
      <trkpt lat="44.34499" lon="6.35134">
        <ele>1144.8000488281</ele>
        <time>2016-07-18T07:00:20.000Z</time>
      </trkpt>
      <trkpt lat="44.34502" lon="6.35135">
        <ele>1144.8000488281</ele>
        <time>2016-07-18T07:00:23.000Z</time>
      </trkpt>
      <trkpt lat="44.34507" lon="6.35139">
        <ele>1145.1999511719</ele>
        <time>2016-07-18T07:00:29.000Z</time>
      </trkpt>
      <trkpt lat="44.34512" lon="6.35145">
        <ele>1145.4000244141</ele>
        <time>2016-07-18T07:00:35.000Z</time>
      </trkpt>
      <trkpt lat="44.34514" lon="6.35147">
        <ele>1145.5999755859</ele>
        <time>2016-07-18T07:00:41.000Z</time>
      </trkpt>
      <trkpt lat="44.34518" lon="6.35148">
        <ele>1145.8000488281</ele>
        <time>2016-07-18T07:00:46.000Z</time>
      </trkpt>
      <trkpt lat="44.34524" lon="6.35152">
        <ele>1146</ele>
        <time>2016-07-18T07:00:51.000Z</time>
      </trkpt>
      <trkpt lat="44.34535" lon="6.35157">
        <ele>1146.1999511719</ele>
        <time>2016-07-18T07:01:00.000Z</time>
      </trkpt>
      <trkpt lat="44.34544" lon="6.35161">
        <ele>1145.8000488281</ele>
        <time>2016-07-18T07:01:07.000Z</time>
      </trkpt>
      <trkpt lat="44.34554" lon="6.35167">
        <ele>1145.5999755859</ele>
        <time>2016-07-18T07:01:15.000Z</time>
      </trkpt>
      <trkpt lat="44.34564" lon="6.35173">
        <ele>1145.5999755859</ele>
        <time>2016-07-18T07:01:23.000Z</time>
      </trkpt>
      <trkpt lat="44.34575" lon="6.3518">
        <ele>1145.4000244141</ele>
        <time>2016-07-18T07:01:33.000Z</time>
      </trkpt>
      <trkpt lat="44.34581" lon="6.35185">
        <ele>1145.1999511719</ele>
        <time>2016-07-18T07:01:38.000Z</time>
      </trkpt>
      <trkpt lat="44.3459" lon="6.35194">
        <ele>1145.1999511719</ele>
        <time>2016-07-18T07:01:46.000Z</time>
      </trkpt>
      <trkpt lat="44.34591" lon="6.35194">
        <ele>1145.1999511719</ele>
        <time>2016-07-18T07:01:47.000Z</time>
      </trkpt>
      <trkpt lat="44.34603" lon="6.35196">
        <ele>1144.8000488281</ele>
        <time>2016-07-18T07:01:55.000Z</time>
      </trkpt>
      <trkpt lat="44.34614" lon="6.35203">
        <ele>1144.5999755859</ele>
        <time>2016-07-18T07:02:03.000Z</time>
      </trkpt>
      <trkpt lat="44.34624" lon="6.3521">
        <ele>1144.5999755859</ele>
        <time>2016-07-18T07:02:10.000Z</time>
      </trkpt>
      <trkpt lat="44.34635" lon="6.35221">
        <ele>1144.4000244141</ele>
        <time>2016-07-18T07:02:19.000Z</time>
      </trkpt>
      <trkpt lat="44.3464" lon="6.35232">
        <ele>1144.4000244141</ele>
        <time>2016-07-18T07:02:26.000Z</time>
      </trkpt>
      <trkpt lat="44.34642" lon="6.35239">
        <ele>1144.5999755859</ele>
        <time>2016-07-18T07:02:30.000Z</time>
      </trkpt>
      <trkpt lat="44.34643" lon="6.35247">
        <ele>1144.8000488281</ele>
        <time>2016-07-18T07:02:34.000Z</time>
      </trkpt>
      <trkpt lat="44.34648" lon="6.3526">
        <ele>1145.1999511719</ele>
        <time>2016-07-18T07:02:41.000Z</time>
      </trkpt>
      <trkpt lat="44.34649" lon="6.35261">
        <ele>1145.1999511719</ele>
        <time>2016-07-18T07:02:42.000Z</time>
      </trkpt>
      <trkpt lat="44.34661" lon="6.35289">
        <ele>1145.5999755859</ele>
        <time>2016-07-18T07:02:57.000Z</time>
      </trkpt>
      <trkpt lat="44.34668" lon="6.35303">
        <ele>1145.5999755859</ele>
        <time>2016-07-18T07:03:05.000Z</time>
      </trkpt>
      <trkpt lat="44.34675" lon="6.35316">
        <ele>1145.8000488281</ele>
        <time>2016-07-18T07:03:12.000Z</time>
      </trkpt>
      <trkpt lat="44.34681" lon="6.3533">
        <ele>1146.1999511719</ele>
        <time>2016-07-18T07:03:20.000Z</time>
      </trkpt>
      <trkpt lat="44.3469" lon="6.3534">
        <ele>1146.5999755859</ele>
        <time>2016-07-18T07:03:27.000Z</time>
      </trkpt>
      <trkpt lat="44.34699" lon="6.35345">
        <ele>1146.5999755859</ele>
        <time>2016-07-18T07:03:34.000Z</time>
      </trkpt>
      <trkpt lat="44.34709" lon="6.35345">
        <ele>1146.4000244141</ele>
        <time>2016-07-18T07:03:41.000Z</time>
      </trkpt>
      <trkpt lat="44.3472" lon="6.35344">
        <ele>1145.8000488281</ele>
        <time>2016-07-18T07:03:48.000Z</time>
      </trkpt>
      <trkpt lat="44.34731" lon="6.35344">
        <ele>1145.5999755859</ele>
        <time>2016-07-18T07:03:55.000Z</time>
      </trkpt>
      <trkpt lat="44.34743" lon="6.35344">
        <ele>1145</ele>
        <time>2016-07-18T07:04:03.000Z</time>
      </trkpt>
      <trkpt lat="44.34754" lon="6.35341">
        <ele>1144.5999755859</ele>
        <time>2016-07-18T07:04:11.000Z</time>
      </trkpt>
      <trkpt lat="44.34766" lon="6.35342">
        <ele>1144.1999511719</ele>
        <time>2016-07-18T07:04:18.000Z</time>
      </trkpt>
      <trkpt lat="44.34779" lon="6.35341">
        <ele>1143.8000488281</ele>
        <time>2016-07-18T07:04:26.000Z</time>
      </trkpt>
      <trkpt lat="44.34787" lon="6.35341">
        <ele>1143.8000488281</ele>
        <time>2016-07-18T07:04:32.000Z</time>
      </trkpt>
      <trkpt lat="44.34796" lon="6.35342">
        <ele>1144.1999511719</ele>
        <time>2016-07-18T07:04:38.000Z</time>
      </trkpt>
      <trkpt lat="44.34799" lon="6.35343">
        <ele>1144.4000244141</ele>
        <time>2016-07-18T07:04:40.000Z</time>
      </trkpt>
      <trkpt lat="44.34808" lon="6.35345">
        <ele>1144.5999755859</ele>
        <time>2016-07-18T07:04:46.000Z</time>
      </trkpt>
      <trkpt lat="44.34813" lon="6.35342">
        <ele>1145</ele>
        <time>2016-07-18T07:04:52.000Z</time>
      </trkpt>
      <trkpt lat="44.3482" lon="6.35332">
        <ele>1145.4000244141</ele>
        <time>2016-07-18T07:04:59.000Z</time>
      </trkpt>
      <trkpt lat="44.34826" lon="6.35319">
        <ele>1145.8000488281</ele>
        <time>2016-07-18T07:05:06.000Z</time>
      </trkpt>
      <trkpt lat="44.34826" lon="6.35318">
        <ele>1145.8000488281</ele>
        <time>2016-07-18T07:05:07.000Z</time>
      </trkpt>
      <trkpt lat="44.34831" lon="6.35309">
        <ele>1145.8000488281</ele>
        <time>2016-07-18T07:05:13.000Z</time>
      </trkpt>
      <trkpt lat="44.34834" lon="6.35311">
        <ele>1146</ele>
        <time>2016-07-18T07:05:17.000Z</time>
      </trkpt>
      <trkpt lat="44.34837" lon="6.3532">
        <ele>1146.4000244141</ele>
        <time>2016-07-18T07:05:23.000Z</time>
      </trkpt>
      <trkpt lat="44.3484" lon="6.35329">
        <ele>1146.5999755859</ele>
        <time>2016-07-18T07:05:28.000Z</time>
      </trkpt>
      <trkpt lat="44.3485" lon="6.35345">
        <ele>1147.1999511719</ele>
        <time>2016-07-18T07:05:40.000Z</time>
      </trkpt>
      <trkpt lat="44.34857" lon="6.35348">
        <ele>1147.5999755859</ele>
        <time>2016-07-18T07:05:45.000Z</time>
      </trkpt>
      <trkpt lat="44.3486" lon="6.35349">
        <ele>1147.8000488281</ele>
        <time>2016-07-18T07:05:48.000Z</time>
      </trkpt>
      <trkpt lat="44.34866" lon="6.3535">
        <ele>1148.4000244141</ele>
        <time>2016-07-18T07:05:52.000Z</time>
      </trkpt>
      <trkpt lat="44.34867" lon="6.3535">
        <ele>1148.5999755859</ele>
        <time>2016-07-18T07:05:53.000Z</time>
      </trkpt>
      <trkpt lat="44.34875" lon="6.3535">
        <ele>1149.5999755859</ele>
        <time>2016-07-18T07:05:58.000Z</time>
      </trkpt>
      <trkpt lat="44.34879" lon="6.35353">
        <ele>1150.4000244141</ele>
        <time>2016-07-18T07:06:02.000Z</time>
      </trkpt>
      <trkpt lat="44.34884" lon="6.35355">
        <ele>1151.1999511719</ele>
        <time>2016-07-18T07:06:06.000Z</time>
      </trkpt>
      <trkpt lat="44.3489" lon="6.35357">
        <ele>1152</ele>
        <time>2016-07-18T07:06:10.000Z</time>
      </trkpt>
      <trkpt lat="44.34893" lon="6.35361">
        <ele>1152.5999755859</ele>
        <time>2016-07-18T07:06:13.000Z</time>
      </trkpt>
      <trkpt lat="44.34897" lon="6.35364">
        <ele>1153</ele>
        <time>2016-07-18T07:06:17.000Z</time>
      </trkpt>
      <trkpt lat="44.34902" lon="6.35362">
        <ele>1154</ele>
        <time>2016-07-18T07:06:24.000Z</time>
      </trkpt>
      <trkpt lat="44.34909" lon="6.35364">
        <ele>1155</ele>
        <time>2016-07-18T07:06:36.000Z</time>
      </trkpt>
      <trkpt lat="44.3491" lon="6.35365">
        <ele>1155.1999511719</ele>
        <time>2016-07-18T07:06:37.000Z</time>
      </trkpt>
      <trkpt lat="44.34916" lon="6.35375">
        <ele>1156</ele>
        <time>2016-07-18T07:06:44.000Z</time>
      </trkpt>
      <trkpt lat="44.34917" lon="6.35377">
        <ele>1156.1999511719</ele>
        <time>2016-07-18T07:06:46.000Z</time>
      </trkpt>
      <trkpt lat="44.34922" lon="6.35385">
        <ele>1157</ele>
        <time>2016-07-18T07:06:52.000Z</time>
      </trkpt>
      <trkpt lat="44.34929" lon="6.35389">
        <ele>1158</ele>
        <time>2016-07-18T07:06:56.000Z</time>
      </trkpt>
      <trkpt lat="44.3493" lon="6.3539">
        <ele>1158.1999511719</ele>
        <time>2016-07-18T07:06:57.000Z</time>
      </trkpt>
      <trkpt lat="44.34935" lon="6.35391">
        <ele>1159</ele>
        <time>2016-07-18T07:07:02.000Z</time>
      </trkpt>
      <trkpt lat="44.3494" lon="6.35396">
        <ele>1159.8000488281</ele>
        <time>2016-07-18T07:07:06.000Z</time>
      </trkpt>
      <trkpt lat="44.34942" lon="6.35399">
        <ele>1160.1999511719</ele>
        <time>2016-07-18T07:07:08.000Z</time>
      </trkpt>
      <trkpt lat="44.34949" lon="6.35407">
        <ele>1161.4000244141</ele>
        <time>2016-07-18T07:07:14.000Z</time>
      </trkpt>
      <trkpt lat="44.34952" lon="6.35413">
        <ele>1162.4000244141</ele>
        <time>2016-07-18T07:07:18.000Z</time>
      </trkpt>
      <trkpt lat="44.34963" lon="6.35421">
        <ele>1165.4000244141</ele>
        <time>2016-07-18T07:07:26.000Z</time>
      </trkpt>
      <trkpt lat="44.34969" lon="6.35426">
        <ele>1167</ele>
        <time>2016-07-18T07:07:31.000Z</time>
      </trkpt>
      <trkpt lat="44.3497" lon="6.35427">
        <ele>1167.1999511719</ele>
        <time>2016-07-18T07:07:32.000Z</time>
      </trkpt>
      <trkpt lat="44.34974" lon="6.3543">
        <ele>1168.4000244141</ele>
        <time>2016-07-18T07:07:37.000Z</time>
      </trkpt>
      <trkpt lat="44.34975" lon="6.35439">
        <ele>1168.5999755859</ele>
        <time>2016-07-18T07:07:42.000Z</time>
      </trkpt>
      <trkpt lat="44.34974" lon="6.35441">
        <ele>1168.5999755859</ele>
        <time>2016-07-18T07:07:44.000Z</time>
      </trkpt>
      <trkpt lat="44.34972" lon="6.35451">
        <ele>1168</ele>
        <time>2016-07-18T07:07:50.000Z</time>
      </trkpt>
      <trkpt lat="44.34968" lon="6.35464">
        <ele>1167.4000244141</ele>
        <time>2016-07-18T07:07:57.000Z</time>
      </trkpt>
      <trkpt lat="44.34968" lon="6.35474">
        <ele>1167.4000244141</ele>
        <time>2016-07-18T07:08:02.000Z</time>
      </trkpt>
      <trkpt lat="44.34975" lon="6.3548">
        <ele>1169.1999511719</ele>
        <time>2016-07-18T07:08:08.000Z</time>
      </trkpt>
      <trkpt lat="44.34979" lon="6.35488">
        <ele>1171</ele>
        <time>2016-07-18T07:08:14.000Z</time>
      </trkpt>
      <trkpt lat="44.34979" lon="6.35494">
        <ele>1171.5999755859</ele>
        <time>2016-07-18T07:08:18.000Z</time>
      </trkpt>
      <trkpt lat="44.34973" lon="6.355">
        <ele>1170.8000488281</ele>
        <time>2016-07-18T07:08:23.000Z</time>
      </trkpt>
      <trkpt lat="44.34974" lon="6.35505">
        <ele>1171.1999511719</ele>
        <time>2016-07-18T07:08:25.000Z</time>
      </trkpt>
      <trkpt lat="44.34975" lon="6.35512">
        <ele>1172.1999511719</ele>
        <time>2016-07-18T07:08:28.000Z</time>
      </trkpt>
      <trkpt lat="44.3497" lon="6.35526">
        <ele>1171.8000488281</ele>
        <time>2016-07-18T07:08:34.000Z</time>
      </trkpt>
      <trkpt lat="44.34972" lon="6.35532">
        <ele>1172.5999755859</ele>
        <time>2016-07-18T07:08:39.000Z</time>
      </trkpt>
      <trkpt lat="44.3498" lon="6.35541">
        <ele>1175.8000488281</ele>
        <time>2016-07-18T07:09:07.000Z</time>
      </trkpt>
      <trkpt lat="44.34983" lon="6.35543">
        <ele>1176.5999755859</ele>
        <time>2016-07-18T07:09:09.000Z</time>
      </trkpt>
      <trkpt lat="44.34986" lon="6.35552">
        <ele>1178.1999511719</ele>
        <time>2016-07-18T07:09:15.000Z</time>
      </trkpt>
      <trkpt lat="44.34988" lon="6.35551">
        <ele>1178.5999755859</ele>
        <time>2016-07-18T07:09:18.000Z</time>
      </trkpt>
      <trkpt lat="44.3499" lon="6.35543">
        <ele>1178.5999755859</ele>
        <time>2016-07-18T07:09:23.000Z</time>
      </trkpt>
      <trkpt lat="44.34994" lon="6.35544">
        <ele>1180</ele>
        <time>2016-07-18T07:09:28.000Z</time>
      </trkpt>
      <trkpt lat="44.34995" lon="6.3555">
        <ele>1180.5999755859</ele>
        <time>2016-07-18T07:09:31.000Z</time>
      </trkpt>
      <trkpt lat="44.35002" lon="6.35553">
        <ele>1183</ele>
        <time>2016-07-18T07:09:37.000Z</time>
      </trkpt>
      <trkpt lat="44.35007" lon="6.35554">
        <ele>1184.4000244141</ele>
        <time>2016-07-18T07:09:41.000Z</time>
      </trkpt>
      <trkpt lat="44.35015" lon="6.35556">
        <ele>1187</ele>
        <time>2016-07-18T07:09:47.000Z</time>
      </trkpt>
      <trkpt lat="44.35017" lon="6.35556">
        <ele>1187.4000244141</ele>
        <time>2016-07-18T07:09:48.000Z</time>
      </trkpt>
      <trkpt lat="44.35028" lon="6.35549">
        <ele>1189.8000488281</ele>
        <time>2016-07-18T07:09:55.000Z</time>
      </trkpt>
      <trkpt lat="44.35029" lon="6.35548">
        <ele>1190</ele>
        <time>2016-07-18T07:09:56.000Z</time>
      </trkpt>
      <trkpt lat="44.35034" lon="6.3554">
        <ele>1190.4000244141</ele>
        <time>2016-07-18T07:10:02.000Z</time>
      </trkpt>
      <trkpt lat="44.35041" lon="6.35533">
        <ele>1191</ele>
        <time>2016-07-18T07:10:08.000Z</time>
      </trkpt>
      <trkpt lat="44.35048" lon="6.35503">
        <ele>1189.8000488281</ele>
        <time>2016-07-18T07:10:22.000Z</time>
      </trkpt>
      <trkpt lat="44.35052" lon="6.35488">
        <ele>1190.8000488281</ele>
        <time>2016-07-18T07:10:30.000Z</time>
      </trkpt>
      <trkpt lat="44.35056" lon="6.35474">
        <ele>1192.4000244141</ele>
        <time>2016-07-18T07:10:37.000Z</time>
      </trkpt>
      <trkpt lat="44.3506" lon="6.35455">
        <ele>1193.1999511719</ele>
        <time>2016-07-18T07:10:47.000Z</time>
      </trkpt>
      <trkpt lat="44.35065" lon="6.35434">
        <ele>1194.4000244141</ele>
        <time>2016-07-18T07:10:57.000Z</time>
      </trkpt>
      <trkpt lat="44.35069" lon="6.35423">
        <ele>1195</ele>
        <time>2016-07-18T07:11:05.000Z</time>
      </trkpt>
      <trkpt lat="44.35077" lon="6.35416">
        <ele>1197</ele>
        <time>2016-07-18T07:11:12.000Z</time>
      </trkpt>
      <trkpt lat="44.35086" lon="6.35418">
        <ele>1199.5999755859</ele>
        <time>2016-07-18T07:11:19.000Z</time>
      </trkpt>
      <trkpt lat="44.35087" lon="6.3543">
        <ele>1201</ele>
        <time>2016-07-18T07:11:25.000Z</time>
      </trkpt>
      <trkpt lat="44.35087" lon="6.35431">
        <ele>1201</ele>
        <time>2016-07-18T07:11:26.000Z</time>
      </trkpt>
      <trkpt lat="44.35085" lon="6.35438">
        <ele>1200.5999755859</ele>
        <time>2016-07-18T07:11:31.000Z</time>
      </trkpt>
      <trkpt lat="44.35085" lon="6.35443">
        <ele>1200.8000488281</ele>
        <time>2016-07-18T07:11:34.000Z</time>
      </trkpt>
      <trkpt lat="44.35091" lon="6.35441">
        <ele>1202.5999755859</ele>
        <time>2016-07-18T07:11:40.000Z</time>
      </trkpt>
      <trkpt lat="44.35093" lon="6.35437">
        <ele>1203</ele>
        <time>2016-07-18T07:11:42.000Z</time>
      </trkpt>
      <trkpt lat="44.35098" lon="6.35425">
        <ele>1203.5999755859</ele>
        <time>2016-07-18T07:11:50.000Z</time>
      </trkpt>
      <trkpt lat="44.35102" lon="6.35411">
        <ele>1204.1999511719</ele>
        <time>2016-07-18T07:11:58.000Z</time>
      </trkpt>
      <trkpt lat="44.35104" lon="6.3541">
        <ele>1204.5999755859</ele>
        <time>2016-07-18T07:12:00.000Z</time>
      </trkpt>
      <trkpt lat="44.35105" lon="6.35414">
        <ele>1205.4000244141</ele>
        <time>2016-07-18T07:12:03.000Z</time>
      </trkpt>
      <trkpt lat="44.35106" lon="6.35426">
        <ele>1206.1999511719</ele>
        <time>2016-07-18T07:12:09.000Z</time>
      </trkpt>
      <trkpt lat="44.35109" lon="6.35424">
        <ele>1207</ele>
        <time>2016-07-18T07:12:13.000Z</time>
      </trkpt>
      <trkpt lat="44.3511" lon="6.3542">
        <ele>1207</ele>
        <time>2016-07-18T07:12:16.000Z</time>
      </trkpt>
      <trkpt lat="44.35115" lon="6.35421">
        <ele>1208.4000244141</ele>
        <time>2016-07-18T07:12:22.000Z</time>
      </trkpt>
      <trkpt lat="44.35114" lon="6.35423">
        <ele>1208.5999755859</ele>
        <time>2016-07-18T07:12:23.000Z</time>
      </trkpt>
      <trkpt lat="44.35114" lon="6.3544">
        <ele>1209.5999755859</ele>
        <time>2016-07-18T07:12:32.000Z</time>
      </trkpt>
      <trkpt lat="44.35117" lon="6.35453">
        <ele>1210.8000488281</ele>
        <time>2016-07-18T07:12:39.000Z</time>
      </trkpt>
      <trkpt lat="44.35118" lon="6.35463">
        <ele>1211.8000488281</ele>
        <time>2016-07-18T07:12:45.000Z</time>
      </trkpt>
      <trkpt lat="44.35118" lon="6.35475">
        <ele>1212.1999511719</ele>
        <time>2016-07-18T07:12:52.000Z</time>
      </trkpt>
      <trkpt lat="44.35115" lon="6.35483">
        <ele>1212</ele>
        <time>2016-07-18T07:13:13.000Z</time>
      </trkpt>
      <trkpt lat="44.35114" lon="6.35492">
        <ele>1211.4000244141</ele>
        <time>2016-07-18T07:13:19.000Z</time>
      </trkpt>
      <trkpt lat="44.35117" lon="6.35504">
        <ele>1211.1999511719</ele>
        <time>2016-07-18T07:13:25.000Z</time>
      </trkpt>
      <trkpt lat="44.35119" lon="6.35512">
        <ele>1210.8000488281</ele>
        <time>2016-07-18T07:13:29.000Z</time>
      </trkpt>
      <trkpt lat="44.35124" lon="6.35527">
        <ele>1210.4000244141</ele>
        <time>2016-07-18T07:13:37.000Z</time>
      </trkpt>
      <trkpt lat="44.35126" lon="6.35531">
        <ele>1210.1999511719</ele>
        <time>2016-07-18T07:13:40.000Z</time>
      </trkpt>
      <trkpt lat="44.35132" lon="6.35532">
        <ele>1210.1999511719</ele>
        <time>2016-07-18T07:13:44.000Z</time>
      </trkpt>
      <trkpt lat="44.35146" lon="6.35524">
        <ele>1210.4000244141</ele>
        <time>2016-07-18T07:13:54.000Z</time>
      </trkpt>
      <trkpt lat="44.35148" lon="6.35524">
        <ele>1210.4000244141</ele>
        <time>2016-07-18T07:13:55.000Z</time>
      </trkpt>
      <trkpt lat="44.35152" lon="6.35526">
        <ele>1210.4000244141</ele>
        <time>2016-07-18T07:14:02.000Z</time>
      </trkpt>
      <trkpt lat="44.35154" lon="6.35526">
        <ele>1210.4000244141</ele>
        <time>2016-07-18T07:14:11.000Z</time>
      </trkpt>
      <trkpt lat="44.35161" lon="6.35524">
        <ele>1211</ele>
        <time>2016-07-18T07:14:16.000Z</time>
      </trkpt>
      <trkpt lat="44.35169" lon="6.35526">
        <ele>1212.1999511719</ele>
        <time>2016-07-18T07:14:23.000Z</time>
      </trkpt>
      <trkpt lat="44.35178" lon="6.35527">
        <ele>1213.5999755859</ele>
        <time>2016-07-18T07:14:29.000Z</time>
      </trkpt>
      <trkpt lat="44.35187" lon="6.35523">
        <ele>1216</ele>
        <time>2016-07-18T07:14:36.000Z</time>
      </trkpt>
      <trkpt lat="44.3519" lon="6.35521">
        <ele>1216.8000488281</ele>
        <time>2016-07-18T07:14:39.000Z</time>
      </trkpt>
      <trkpt lat="44.35197" lon="6.35519">
        <ele>1218.5999755859</ele>
        <time>2016-07-18T07:14:45.000Z</time>
      </trkpt>
      <trkpt lat="44.35199" lon="6.3552">
        <ele>1218.5999755859</ele>
        <time>2016-07-18T07:14:46.000Z</time>
      </trkpt>
      <trkpt lat="44.35202" lon="6.35521">
        <ele>1218.4000244141</ele>
        <time>2016-07-18T07:14:48.000Z</time>
      </trkpt>
      <trkpt lat="44.35211" lon="6.35527">
        <ele>1217.1999511719</ele>
        <time>2016-07-18T07:14:55.000Z</time>
      </trkpt>
      <trkpt lat="44.35225" lon="6.3553">
        <ele>1217</ele>
        <time>2016-07-18T07:15:04.000Z</time>
      </trkpt>
      <trkpt lat="44.35237" lon="6.35534">
        <ele>1216.4000244141</ele>
        <time>2016-07-18T07:15:12.000Z</time>
      </trkpt>
      <trkpt lat="44.35244" lon="6.35544">
        <ele>1214.5999755859</ele>
        <time>2016-07-18T07:15:19.000Z</time>
      </trkpt>
      <trkpt lat="44.35248" lon="6.35551">
        <ele>1213.1999511719</ele>
        <time>2016-07-18T07:15:23.000Z</time>
      </trkpt>
      <trkpt lat="44.35255" lon="6.3556">
        <ele>1211.4000244141</ele>
        <time>2016-07-18T07:15:30.000Z</time>
      </trkpt>
      <trkpt lat="44.35265" lon="6.3557">
        <ele>1210.1999511719</ele>
        <time>2016-07-18T07:15:39.000Z</time>
      </trkpt>
      <trkpt lat="44.35275" lon="6.35585">
        <ele>1209.1999511719</ele>
        <time>2016-07-18T07:15:50.000Z</time>
      </trkpt>
      <trkpt lat="44.3528" lon="6.35596">
        <ele>1208.1999511719</ele>
        <time>2016-07-18T07:15:57.000Z</time>
      </trkpt>
      <trkpt lat="44.35281" lon="6.35605">
        <ele>1207.5999755859</ele>
        <time>2016-07-18T07:16:02.000Z</time>
      </trkpt>
      <trkpt lat="44.35278" lon="6.35619">
        <ele>1206.4000244141</ele>
        <time>2016-07-18T07:16:10.000Z</time>
      </trkpt>
      <trkpt lat="44.35273" lon="6.35629">
        <ele>1205.4000244141</ele>
        <time>2016-07-18T07:16:16.000Z</time>
      </trkpt>
      <trkpt lat="44.35269" lon="6.35647">
        <ele>1203</ele>
        <time>2016-07-18T07:16:26.000Z</time>
      </trkpt>
      <trkpt lat="44.35268" lon="6.35656">
        <ele>1203</ele>
        <time>2016-07-18T07:16:30.000Z</time>
      </trkpt>
      <trkpt lat="44.35268" lon="6.35664">
        <ele>1203.4000244141</ele>
        <time>2016-07-18T07:16:34.000Z</time>
      </trkpt>
      <trkpt lat="44.3527" lon="6.35678">
        <ele>1203.8000488281</ele>
        <time>2016-07-18T07:16:40.000Z</time>
      </trkpt>
      <trkpt lat="44.35269" lon="6.35695">
        <ele>1204.1999511719</ele>
        <time>2016-07-18T07:16:48.000Z</time>
      </trkpt>
      <trkpt lat="44.35269" lon="6.35715">
        <ele>1204.5999755859</ele>
        <time>2016-07-18T07:16:56.000Z</time>
      </trkpt>
      <trkpt lat="44.35268" lon="6.35722">
        <ele>1204.4000244141</ele>
        <time>2016-07-18T07:16:59.000Z</time>
      </trkpt>
      <trkpt lat="44.35267" lon="6.35726">
        <ele>1204</ele>
        <time>2016-07-18T07:17:01.000Z</time>
      </trkpt>
      <trkpt lat="44.35264" lon="6.35732">
        <ele>1203.1999511719</ele>
        <time>2016-07-18T07:17:05.000Z</time>
      </trkpt>
      <trkpt lat="44.35258" lon="6.3575">
        <ele>1203.8000488281</ele>
        <time>2016-07-18T07:17:14.000Z</time>
      </trkpt>
      <trkpt lat="44.35254" lon="6.35762">
        <ele>1204.5999755859</ele>
        <time>2016-07-18T07:17:20.000Z</time>
      </trkpt>
      <trkpt lat="44.35256" lon="6.35776">
        <ele>1206</ele>
        <time>2016-07-18T07:17:27.000Z</time>
      </trkpt>
      <trkpt lat="44.35262" lon="6.35785">
        <ele>1208</ele>
        <time>2016-07-18T07:17:34.000Z</time>
      </trkpt>
      <trkpt lat="44.35263" lon="6.35787">
        <ele>1208.4000244141</ele>
        <time>2016-07-18T07:17:35.000Z</time>
      </trkpt>
      <trkpt lat="44.35264" lon="6.35792">
        <ele>1209</ele>
        <time>2016-07-18T07:17:39.000Z</time>
      </trkpt>
      <trkpt lat="44.35267" lon="6.3579">
        <ele>1209.4000244141</ele>
        <time>2016-07-18T07:18:10.000Z</time>
      </trkpt>
      <trkpt lat="44.35261" lon="6.35803">
        <ele>1209.4000244141</ele>
        <time>2016-07-18T07:18:18.000Z</time>
      </trkpt>
      <trkpt lat="44.3526" lon="6.35809">
        <ele>1209.5999755859</ele>
        <time>2016-07-18T07:18:23.000Z</time>
      </trkpt>
      <trkpt lat="44.35257" lon="6.35827">
        <ele>1210.8000488281</ele>
        <time>2016-07-18T07:18:32.000Z</time>
      </trkpt>
      <trkpt lat="44.35254" lon="6.35844">
        <ele>1212</ele>
        <time>2016-07-18T07:18:40.000Z</time>
      </trkpt>
      <trkpt lat="44.35257" lon="6.35871">
        <ele>1215.4000244141</ele>
        <time>2016-07-18T07:18:54.000Z</time>
      </trkpt>
      <trkpt lat="44.35254" lon="6.3589">
        <ele>1217.4000244141</ele>
        <time>2016-07-18T07:19:04.000Z</time>
      </trkpt>
      <trkpt lat="44.35253" lon="6.35905">
        <ele>1219</ele>
        <time>2016-07-18T07:19:12.000Z</time>
      </trkpt>
      <trkpt lat="44.35253" lon="6.35918">
        <ele>1220.1999511719</ele>
        <time>2016-07-18T07:19:19.000Z</time>
      </trkpt>
      <trkpt lat="44.35253" lon="6.35919">
        <ele>1220.4000244141</ele>
        <time>2016-07-18T07:19:20.000Z</time>
      </trkpt>
      <trkpt lat="44.35255" lon="6.35933">
        <ele>1222.1999511719</ele>
        <time>2016-07-18T07:19:28.000Z</time>
      </trkpt>
      <trkpt lat="44.35255" lon="6.35949">
        <ele>1223.5999755859</ele>
        <time>2016-07-18T07:19:36.000Z</time>
      </trkpt>
      <trkpt lat="44.35255" lon="6.35971">
        <ele>1224.5999755859</ele>
        <time>2016-07-18T07:19:48.000Z</time>
      </trkpt>
      <trkpt lat="44.35254" lon="6.35988">
        <ele>1225.4000244141</ele>
        <time>2016-07-18T07:19:57.000Z</time>
      </trkpt>
      <trkpt lat="44.35255" lon="6.36001">
        <ele>1226.4000244141</ele>
        <time>2016-07-18T07:20:05.000Z</time>
      </trkpt>
      <trkpt lat="44.35254" lon="6.36016">
        <ele>1227.4000244141</ele>
        <time>2016-07-18T07:20:13.000Z</time>
      </trkpt>
      <trkpt lat="44.35255" lon="6.3603">
        <ele>1228.5999755859</ele>
        <time>2016-07-18T07:20:21.000Z</time>
      </trkpt>
      <trkpt lat="44.35255" lon="6.36042">
        <ele>1229</ele>
        <time>2016-07-18T07:20:28.000Z</time>
      </trkpt>
      <trkpt lat="44.35254" lon="6.36057">
        <ele>1228.5999755859</ele>
        <time>2016-07-18T07:20:36.000Z</time>
      </trkpt>
      <trkpt lat="44.35253" lon="6.36071">
        <ele>1228.4000244141</ele>
        <time>2016-07-18T07:20:44.000Z</time>
      </trkpt>
      <trkpt lat="44.35254" lon="6.36084">
        <ele>1229</ele>
        <time>2016-07-18T07:20:51.000Z</time>
      </trkpt>
      <trkpt lat="44.35255" lon="6.36101">
        <ele>1229.8000488281</ele>
        <time>2016-07-18T07:21:00.000Z</time>
      </trkpt>
      <trkpt lat="44.35254" lon="6.36115">
        <ele>1230.1999511719</ele>
        <time>2016-07-18T07:21:07.000Z</time>
      </trkpt>
      <trkpt lat="44.35255" lon="6.36126">
        <ele>1230.8000488281</ele>
        <time>2016-07-18T07:21:12.000Z</time>
      </trkpt>
      <trkpt lat="44.35262" lon="6.36139">
        <ele>1233.1999511719</ele>
        <time>2016-07-18T07:21:21.000Z</time>
      </trkpt>
      <trkpt lat="44.35271" lon="6.36148">
        <ele>1236.5999755859</ele>
        <time>2016-07-18T07:21:29.000Z</time>
      </trkpt>
      <trkpt lat="44.35277" lon="6.36158">
        <ele>1239.5999755859</ele>
        <time>2016-07-18T07:21:36.000Z</time>
      </trkpt>
      <trkpt lat="44.3528" lon="6.36172">
        <ele>1242</ele>
        <time>2016-07-18T07:21:43.000Z</time>
      </trkpt>
      <trkpt lat="44.3528" lon="6.36189">
        <ele>1243.8000488281</ele>
        <time>2016-07-18T07:21:52.000Z</time>
      </trkpt>
      <trkpt lat="44.35279" lon="6.36206">
        <ele>1245</ele>
        <time>2016-07-18T07:22:01.000Z</time>
      </trkpt>
      <trkpt lat="44.35277" lon="6.36219">
        <ele>1245.5999755859</ele>
        <time>2016-07-18T07:22:08.000Z</time>
      </trkpt>
      <trkpt lat="44.35277" lon="6.36231">
        <ele>1246.8000488281</ele>
        <time>2016-07-18T07:22:14.000Z</time>
      </trkpt>
      <trkpt lat="44.35277" lon="6.36248">
        <ele>1247.5999755859</ele>
        <time>2016-07-18T07:22:23.000Z</time>
      </trkpt>
      <trkpt lat="44.35278" lon="6.36267">
        <ele>1248.5999755859</ele>
        <time>2016-07-18T07:22:33.000Z</time>
      </trkpt>
      <trkpt lat="44.35279" lon="6.3628">
        <ele>1249.8000488281</ele>
        <time>2016-07-18T07:22:40.000Z</time>
      </trkpt>
      <trkpt lat="44.35289" lon="6.36309">
        <ele>1253.5999755859</ele>
        <time>2016-07-18T07:22:57.000Z</time>
      </trkpt>
      <trkpt lat="44.35295" lon="6.36321">
        <ele>1255.8000488281</ele>
        <time>2016-07-18T07:23:05.000Z</time>
      </trkpt>
      <trkpt lat="44.35299" lon="6.36329">
        <ele>1257.1999511719</ele>
        <time>2016-07-18T07:23:11.000Z</time>
      </trkpt>
      <trkpt lat="44.35302" lon="6.36345">
        <ele>1258</ele>
        <time>2016-07-18T07:23:19.000Z</time>
      </trkpt>
      <trkpt lat="44.353" lon="6.36355">
        <ele>1257.1999511719</ele>
        <time>2016-07-18T07:23:25.000Z</time>
      </trkpt>
      <trkpt lat="44.35297" lon="6.36368">
        <ele>1256</ele>
        <time>2016-07-18T07:23:32.000Z</time>
      </trkpt>
      <trkpt lat="44.35298" lon="6.36381">
        <ele>1256</ele>
        <time>2016-07-18T07:23:39.000Z</time>
      </trkpt>
      <trkpt lat="44.35305" lon="6.36395">
        <ele>1257.8000488281</ele>
        <time>2016-07-18T07:23:48.000Z</time>
      </trkpt>
      <trkpt lat="44.35314" lon="6.3641">
        <ele>1260.4000244141</ele>
        <time>2016-07-18T07:23:59.000Z</time>
      </trkpt>
      <trkpt lat="44.35326" lon="6.36416">
        <ele>1264</ele>
        <time>2016-07-18T07:24:08.000Z</time>
      </trkpt>
      <trkpt lat="44.35336" lon="6.36419">
        <ele>1267.4000244141</ele>
        <time>2016-07-18T07:24:16.000Z</time>
      </trkpt>
      <trkpt lat="44.35346" lon="6.3642">
        <ele>1270.5999755859</ele>
        <time>2016-07-18T07:24:24.000Z</time>
      </trkpt>
      <trkpt lat="44.35357" lon="6.36416">
        <ele>1274.4000244141</ele>
        <time>2016-07-18T07:24:33.000Z</time>
      </trkpt>
      <trkpt lat="44.35367" lon="6.36414">
        <ele>1277</ele>
        <time>2016-07-18T07:24:42.000Z</time>
      </trkpt>
      <trkpt lat="44.35379" lon="6.36415">
        <ele>1278.4000244141</ele>
        <time>2016-07-18T07:24:50.000Z</time>
      </trkpt>
      <trkpt lat="44.3539" lon="6.36418">
        <ele>1279.5999755859</ele>
        <time>2016-07-18T07:24:59.000Z</time>
      </trkpt>
      <trkpt lat="44.35392" lon="6.36418">
        <ele>1279.8000488281</ele>
        <time>2016-07-18T07:25:01.000Z</time>
      </trkpt>
      <trkpt lat="44.35395" lon="6.36421">
        <ele>1280.1999511719</ele>
        <time>2016-07-18T07:25:08.000Z</time>
      </trkpt>
      <trkpt lat="44.35404" lon="6.36421">
        <ele>1281.4000244141</ele>
        <time>2016-07-18T07:25:38.000Z</time>
      </trkpt>
      <trkpt lat="44.35412" lon="6.36422">
        <ele>1282.4000244141</ele>
        <time>2016-07-18T07:25:45.000Z</time>
      </trkpt>
      <trkpt lat="44.35423" lon="6.36424">
        <ele>1283.8000488281</ele>
        <time>2016-07-18T07:25:54.000Z</time>
      </trkpt>
      <trkpt lat="44.35433" lon="6.36427">
        <ele>1285</ele>
        <time>2016-07-18T07:26:03.000Z</time>
      </trkpt>
      <trkpt lat="44.35435" lon="6.36428">
        <ele>1285.1999511719</ele>
        <time>2016-07-18T07:26:05.000Z</time>
      </trkpt>
      <trkpt lat="44.35443" lon="6.3643">
        <ele>1286.1999511719</ele>
        <time>2016-07-18T07:26:12.000Z</time>
      </trkpt>
      <trkpt lat="44.3545" lon="6.3643">
        <ele>1287.1999511719</ele>
        <time>2016-07-18T07:26:18.000Z</time>
      </trkpt>
      <trkpt lat="44.35452" lon="6.3643">
        <ele>1287.5999755859</ele>
        <time>2016-07-18T07:26:20.000Z</time>
      </trkpt>
      <trkpt lat="44.35461" lon="6.36433">
        <ele>1288.8000488281</ele>
        <time>2016-07-18T07:26:27.000Z</time>
      </trkpt>
      <trkpt lat="44.35468" lon="6.36434">
        <ele>1289.8000488281</ele>
        <time>2016-07-18T07:26:32.000Z</time>
      </trkpt>
      <trkpt lat="44.35477" lon="6.36434">
        <ele>1291.1999511719</ele>
        <time>2016-07-18T07:26:38.000Z</time>
      </trkpt>
      <trkpt lat="44.35489" lon="6.36432">
        <ele>1293.5999755859</ele>
        <time>2016-07-18T07:26:47.000Z</time>
      </trkpt>
      <trkpt lat="44.35498" lon="6.36428">
        <ele>1295.8000488281</ele>
        <time>2016-07-18T07:26:54.000Z</time>
      </trkpt>
      <trkpt lat="44.35507" lon="6.36426">
        <ele>1297.8000488281</ele>
        <time>2016-07-18T07:27:01.000Z</time>
      </trkpt>
      <trkpt lat="44.3552" lon="6.36423">
        <ele>1300.5999755859</ele>
        <time>2016-07-18T07:27:09.000Z</time>
      </trkpt>
      <trkpt lat="44.35529" lon="6.36419">
        <ele>1303</ele>
        <time>2016-07-18T07:27:16.000Z</time>
      </trkpt>
      <trkpt lat="44.35539" lon="6.36418">
        <ele>1304.8000488281</ele>
        <time>2016-07-18T07:27:23.000Z</time>
      </trkpt>
      <trkpt lat="44.35548" lon="6.36417">
        <ele>1306.4000244141</ele>
        <time>2016-07-18T07:27:30.000Z</time>
      </trkpt>
      <trkpt lat="44.3556" lon="6.3642">
        <ele>1307.4000244141</ele>
        <time>2016-07-18T07:27:38.000Z</time>
      </trkpt>
      <trkpt lat="44.35572" lon="6.36426">
        <ele>1308.1999511719</ele>
        <time>2016-07-18T07:27:47.000Z</time>
      </trkpt>
      <trkpt lat="44.35582" lon="6.36433">
        <ele>1309.1999511719</ele>
        <time>2016-07-18T07:27:54.000Z</time>
      </trkpt>
      <trkpt lat="44.35595" lon="6.36438">
        <ele>1310</ele>
        <time>2016-07-18T07:28:02.000Z</time>
      </trkpt>
      <trkpt lat="44.35609" lon="6.36444">
        <ele>1311.1999511719</ele>
        <time>2016-07-18T07:28:11.000Z</time>
      </trkpt>
      <trkpt lat="44.35627" lon="6.36452">
        <ele>1312.5999755859</ele>
        <time>2016-07-18T07:28:22.000Z</time>
      </trkpt>
      <trkpt lat="44.35641" lon="6.36461">
        <ele>1314</ele>
        <time>2016-07-18T07:28:32.000Z</time>
      </trkpt>
      <trkpt lat="44.35644" lon="6.36462">
        <ele>1314.1999511719</ele>
        <time>2016-07-18T07:28:34.000Z</time>
      </trkpt>
      <trkpt lat="44.35651" lon="6.36466">
        <ele>1314.8000488281</ele>
        <time>2016-07-18T07:28:39.000Z</time>
      </trkpt>
      <trkpt lat="44.35656" lon="6.36477">
        <ele>1315.4000244141</ele>
        <time>2016-07-18T07:28:46.000Z</time>
      </trkpt>
      <trkpt lat="44.35653" lon="6.36488">
        <ele>1315.5999755859</ele>
        <time>2016-07-18T07:28:58.000Z</time>
      </trkpt>
      <trkpt lat="44.35653" lon="6.3649">
        <ele>1315.8000488281</ele>
        <time>2016-07-18T07:29:15.000Z</time>
      </trkpt>
      <trkpt lat="44.35654" lon="6.36489">
        <ele>1315.8000488281</ele>
        <time>2016-07-18T07:29:35.000Z</time>
      </trkpt>
      <trkpt lat="44.35658" lon="6.36492">
        <ele>1316.1999511719</ele>
        <time>2016-07-18T07:29:41.000Z</time>
      </trkpt>
      <trkpt lat="44.35658" lon="6.36493">
        <ele>1316.4000244141</ele>
        <time>2016-07-18T07:29:52.000Z</time>
      </trkpt>
      <trkpt lat="44.3564" lon="6.36528">
        <ele>1317.4000244141</ele>
        <time>2016-07-18T07:30:20.000Z</time>
      </trkpt>
      <trkpt lat="44.35627" lon="6.36543">
        <ele>1318</ele>
        <time>2016-07-18T07:30:31.000Z</time>
      </trkpt>
      <trkpt lat="44.35618" lon="6.3655">
        <ele>1318</ele>
        <time>2016-07-18T07:30:38.000Z</time>
      </trkpt>
      <trkpt lat="44.3561" lon="6.36555">
        <ele>1317.4000244141</ele>
        <time>2016-07-18T07:30:44.000Z</time>
      </trkpt>
      <trkpt lat="44.35597" lon="6.36564">
        <ele>1316.4000244141</ele>
        <time>2016-07-18T07:30:52.000Z</time>
      </trkpt>
      <trkpt lat="44.35588" lon="6.3657">
        <ele>1316</ele>
        <time>2016-07-18T07:30:58.000Z</time>
      </trkpt>
      <trkpt lat="44.35575" lon="6.3658">
        <ele>1315.5999755859</ele>
        <time>2016-07-18T07:31:08.000Z</time>
      </trkpt>
      <trkpt lat="44.35566" lon="6.36593">
        <ele>1316.1999511719</ele>
        <time>2016-07-18T07:31:17.000Z</time>
      </trkpt>
      <trkpt lat="44.3556" lon="6.36607">
        <ele>1317.4000244141</ele>
        <time>2016-07-18T07:31:25.000Z</time>
      </trkpt>
      <trkpt lat="44.35556" lon="6.36618">
        <ele>1318.4000244141</ele>
        <time>2016-07-18T07:31:31.000Z</time>
      </trkpt>
      <trkpt lat="44.35553" lon="6.36638">
        <ele>1320.8000488281</ele>
        <time>2016-07-18T07:31:41.000Z</time>
      </trkpt>
      <trkpt lat="44.35552" lon="6.36655">
        <ele>1322.4000244141</ele>
        <time>2016-07-18T07:31:50.000Z</time>
      </trkpt>
      <trkpt lat="44.35549" lon="6.36675">
        <ele>1323.4000244141</ele>
        <time>2016-07-18T07:32:00.000Z</time>
      </trkpt>
      <trkpt lat="44.35546" lon="6.3669">
        <ele>1324.4000244141</ele>
        <time>2016-07-18T07:32:08.000Z</time>
      </trkpt>
      <trkpt lat="44.3554" lon="6.36704">
        <ele>1324.8000488281</ele>
        <time>2016-07-18T07:32:16.000Z</time>
      </trkpt>
      <trkpt lat="44.35534" lon="6.36716">
        <ele>1325.1999511719</ele>
        <time>2016-07-18T07:32:23.000Z</time>
      </trkpt>
      <trkpt lat="44.35529" lon="6.36726">
        <ele>1325.1999511719</ele>
        <time>2016-07-18T07:32:29.000Z</time>
      </trkpt>
      <trkpt lat="44.35523" lon="6.36741">
        <ele>1324.1999511719</ele>
        <time>2016-07-18T07:32:38.000Z</time>
      </trkpt>
      <trkpt lat="44.35517" lon="6.36757">
        <ele>1323.4000244141</ele>
        <time>2016-07-18T07:32:47.000Z</time>
      </trkpt>
      <trkpt lat="44.35511" lon="6.36776">
        <ele>1322.5999755859</ele>
        <time>2016-07-18T07:32:57.000Z</time>
      </trkpt>
      <trkpt lat="44.35508" lon="6.36788">
        <ele>1322</ele>
        <time>2016-07-18T07:33:03.000Z</time>
      </trkpt>
      <trkpt lat="44.35502" lon="6.36805">
        <ele>1321.8000488281</ele>
        <time>2016-07-18T07:33:12.000Z</time>
      </trkpt>
      <trkpt lat="44.35497" lon="6.36822">
        <ele>1321.4000244141</ele>
        <time>2016-07-18T07:33:21.000Z</time>
      </trkpt>
      <trkpt lat="44.35492" lon="6.36833">
        <ele>1320.5999755859</ele>
        <time>2016-07-18T07:33:27.000Z</time>
      </trkpt>
      <trkpt lat="44.35485" lon="6.36852">
        <ele>1319.5999755859</ele>
        <time>2016-07-18T07:33:37.000Z</time>
      </trkpt>
      <trkpt lat="44.35476" lon="6.36876">
        <ele>1320</ele>
        <time>2016-07-18T07:33:50.000Z</time>
      </trkpt>
      <trkpt lat="44.35472" lon="6.36889">
        <ele>1320.4000244141</ele>
        <time>2016-07-18T07:33:57.000Z</time>
      </trkpt>
      <trkpt lat="44.35466" lon="6.36912">
        <ele>1320.4000244141</ele>
        <time>2016-07-18T07:34:09.000Z</time>
      </trkpt>
      <trkpt lat="44.35461" lon="6.36935">
        <ele>1321.4000244141</ele>
        <time>2016-07-18T07:34:21.000Z</time>
      </trkpt>
      <trkpt lat="44.3546" lon="6.3695">
        <ele>1322.5999755859</ele>
        <time>2016-07-18T07:34:28.000Z</time>
      </trkpt>
      <trkpt lat="44.35461" lon="6.36971">
        <ele>1324.4000244141</ele>
        <time>2016-07-18T07:34:38.000Z</time>
      </trkpt>
      <trkpt lat="44.35463" lon="6.36984">
        <ele>1325.8000488281</ele>
        <time>2016-07-18T07:34:45.000Z</time>
      </trkpt>
      <trkpt lat="44.35463" lon="6.37008">
        <ele>1327.5999755859</ele>
        <time>2016-07-18T07:34:56.000Z</time>
      </trkpt>
      <trkpt lat="44.35458" lon="6.3702">
        <ele>1328</ele>
        <time>2016-07-18T07:35:03.000Z</time>
      </trkpt>
      <trkpt lat="44.3545" lon="6.37033">
        <ele>1328.1999511719</ele>
        <time>2016-07-18T07:35:11.000Z</time>
      </trkpt>
      <trkpt lat="44.35441" lon="6.37049">
        <ele>1328.1999511719</ele>
        <time>2016-07-18T07:35:21.000Z</time>
      </trkpt>
      <trkpt lat="44.35433" lon="6.37069">
        <ele>1329</ele>
        <time>2016-07-18T07:35:32.000Z</time>
      </trkpt>
      <trkpt lat="44.35427" lon="6.37091">
        <ele>1329.5999755859</ele>
        <time>2016-07-18T07:35:43.000Z</time>
      </trkpt>
      <trkpt lat="44.35408" lon="6.37138">
        <ele>1330</ele>
        <time>2016-07-18T07:36:10.000Z</time>
      </trkpt>
      <trkpt lat="44.35399" lon="6.37155">
        <ele>1329.8000488281</ele>
        <time>2016-07-18T07:36:20.000Z</time>
      </trkpt>
      <trkpt lat="44.3539" lon="6.37167">
        <ele>1329.1999511719</ele>
        <time>2016-07-18T07:36:29.000Z</time>
      </trkpt>
      <trkpt lat="44.3538" lon="6.3718">
        <ele>1329.4000244141</ele>
        <time>2016-07-18T07:36:39.000Z</time>
      </trkpt>
      <trkpt lat="44.35377" lon="6.37185">
        <ele>1329.5999755859</ele>
        <time>2016-07-18T07:36:44.000Z</time>
      </trkpt>
      <trkpt lat="44.35375" lon="6.37189">
        <ele>1330</ele>
        <time>2016-07-18T07:37:02.000Z</time>
      </trkpt>
      <trkpt lat="44.35364" lon="6.3721">
        <ele>1331.4000244141</ele>
        <time>2016-07-18T07:37:15.000Z</time>
      </trkpt>
      <trkpt lat="44.35356" lon="6.37229">
        <ele>1333</ele>
        <time>2016-07-18T07:37:26.000Z</time>
      </trkpt>
      <trkpt lat="44.35347" lon="6.37243">
        <ele>1333.8000488281</ele>
        <time>2016-07-18T07:37:35.000Z</time>
      </trkpt>
      <trkpt lat="44.35342" lon="6.37249">
        <ele>1334</ele>
        <time>2016-07-18T07:37:40.000Z</time>
      </trkpt>
      <trkpt lat="44.35334" lon="6.37248">
        <ele>1333.1999511719</ele>
        <time>2016-07-18T07:37:46.000Z</time>
      </trkpt>
      <trkpt lat="44.35328" lon="6.3725">
        <ele>1333</ele>
        <time>2016-07-18T07:37:53.000Z</time>
      </trkpt>
      <trkpt lat="44.35327" lon="6.37249">
        <ele>1332.8000488281</ele>
        <time>2016-07-18T07:38:08.000Z</time>
      </trkpt>
      <trkpt lat="44.3533" lon="6.37245">
        <ele>1332.5999755859</ele>
        <time>2016-07-18T07:38:13.000Z</time>
      </trkpt>
      <trkpt lat="44.35331" lon="6.37246">
        <ele>1332.8000488281</ele>
        <time>2016-07-18T07:38:14.000Z</time>
      </trkpt>
      <trkpt lat="44.35339" lon="6.3725">
        <ele>1333.8000488281</ele>
        <time>2016-07-18T07:38:20.000Z</time>
      </trkpt>
      <trkpt lat="44.35338" lon="6.37254">
        <ele>1334.1999511719</ele>
        <time>2016-07-18T07:38:24.000Z</time>
      </trkpt>
      <trkpt lat="44.35327" lon="6.37265">
        <ele>1334.5999755859</ele>
        <time>2016-07-18T07:38:33.000Z</time>
      </trkpt>
      <trkpt lat="44.35315" lon="6.37278">
        <ele>1335</ele>
        <time>2016-07-18T07:38:43.000Z</time>
      </trkpt>
      <trkpt lat="44.35295" lon="6.373">
        <ele>1335.5999755859</ele>
        <time>2016-07-18T07:39:01.000Z</time>
      </trkpt>
      <trkpt lat="44.35281" lon="6.37316">
        <ele>1336.1999511719</ele>
        <time>2016-07-18T07:39:12.000Z</time>
      </trkpt>
      <trkpt lat="44.3527" lon="6.3733">
        <ele>1336.8000488281</ele>
        <time>2016-07-18T07:39:22.000Z</time>
      </trkpt>
      <trkpt lat="44.35262" lon="6.37339">
        <ele>1337.4000244141</ele>
        <time>2016-07-18T07:39:29.000Z</time>
      </trkpt>
      <trkpt lat="44.35258" lon="6.37343">
        <ele>1337.4000244141</ele>
        <time>2016-07-18T07:39:32.000Z</time>
      </trkpt>
      <trkpt lat="44.35252" lon="6.3735">
        <ele>1337.5999755859</ele>
        <time>2016-07-18T07:39:37.000Z</time>
      </trkpt>
      <trkpt lat="44.35251" lon="6.3735">
        <ele>1337.5999755859</ele>
        <time>2016-07-18T07:39:38.000Z</time>
      </trkpt>
      <trkpt lat="44.35232" lon="6.37375">
        <ele>1338.4000244141</ele>
        <time>2016-07-18T07:39:55.000Z</time>
      </trkpt>
      <trkpt lat="44.3522" lon="6.3739">
        <ele>1338.4000244141</ele>
        <time>2016-07-18T07:40:06.000Z</time>
      </trkpt>
      <trkpt lat="44.35213" lon="6.37399">
        <ele>1338.5999755859</ele>
        <time>2016-07-18T07:40:13.000Z</time>
      </trkpt>
      <trkpt lat="44.35208" lon="6.37405">
        <ele>1338.4000244141</ele>
        <time>2016-07-18T07:40:17.000Z</time>
      </trkpt>
      <trkpt lat="44.35202" lon="6.37412">
        <ele>1338.5999755859</ele>
        <time>2016-07-18T07:40:22.000Z</time>
      </trkpt>
      <trkpt lat="44.35194" lon="6.37423">
        <ele>1339.4000244141</ele>
        <time>2016-07-18T07:40:30.000Z</time>
      </trkpt>
      <trkpt lat="44.35185" lon="6.37435">
        <ele>1340.4000244141</ele>
        <time>2016-07-18T07:40:39.000Z</time>
      </trkpt>
      <trkpt lat="44.35177" lon="6.37446">
        <ele>1341.4000244141</ele>
        <time>2016-07-18T07:40:47.000Z</time>
      </trkpt>
      <trkpt lat="44.35167" lon="6.3746">
        <ele>1342.4000244141</ele>
        <time>2016-07-18T07:40:57.000Z</time>
      </trkpt>
      <trkpt lat="44.35159" lon="6.3747">
        <ele>1342.8000488281</ele>
        <time>2016-07-18T07:41:04.000Z</time>
      </trkpt>
      <trkpt lat="44.3515" lon="6.37485">
        <ele>1343.4000244141</ele>
        <time>2016-07-18T07:41:14.000Z</time>
      </trkpt>
      <trkpt lat="44.35144" lon="6.37502">
        <ele>1343.4000244141</ele>
        <time>2016-07-18T07:41:24.000Z</time>
      </trkpt>
      <trkpt lat="44.35139" lon="6.37518">
        <ele>1343.8000488281</ele>
        <time>2016-07-18T07:41:33.000Z</time>
      </trkpt>
      <trkpt lat="44.35136" lon="6.3753">
        <ele>1344.4000244141</ele>
        <time>2016-07-18T07:41:40.000Z</time>
      </trkpt>
      <trkpt lat="44.3513" lon="6.37536">
        <ele>1344.5999755859</ele>
        <time>2016-07-18T07:41:45.000Z</time>
      </trkpt>
      <trkpt lat="44.35104" lon="6.37558">
        <ele>1345.8000488281</ele>
        <time>2016-07-18T07:42:06.000Z</time>
      </trkpt>
      <trkpt lat="44.35082" lon="6.37571">
        <ele>1345.8000488281</ele>
        <time>2016-07-18T07:42:23.000Z</time>
      </trkpt>
      <trkpt lat="44.35071" lon="6.37583">
        <ele>1346.1999511719</ele>
        <time>2016-07-18T07:42:33.000Z</time>
      </trkpt>
      <trkpt lat="44.35064" lon="6.37597">
        <ele>1346.5999755859</ele>
        <time>2016-07-18T07:42:42.000Z</time>
      </trkpt>
      <trkpt lat="44.3506" lon="6.37612">
        <ele>1346.5999755859</ele>
        <time>2016-07-18T07:42:50.000Z</time>
      </trkpt>
      <trkpt lat="44.35059" lon="6.37625">
        <ele>1346.8000488281</ele>
        <time>2016-07-18T07:42:56.000Z</time>
      </trkpt>
      <trkpt lat="44.35056" lon="6.37651">
        <ele>1346.8000488281</ele>
        <time>2016-07-18T07:43:09.000Z</time>
      </trkpt>
      <trkpt lat="44.35056" lon="6.37665">
        <ele>1346.8000488281</ele>
        <time>2016-07-18T07:43:17.000Z</time>
      </trkpt>
      <trkpt lat="44.35054" lon="6.37675">
        <ele>1346.8000488281</ele>
        <time>2016-07-18T07:43:22.000Z</time>
      </trkpt>
      <trkpt lat="44.35052" lon="6.37686">
        <ele>1346.8000488281</ele>
        <time>2016-07-18T07:43:28.000Z</time>
      </trkpt>
      <trkpt lat="44.35049" lon="6.37703">
        <ele>1346.5999755859</ele>
        <time>2016-07-18T07:43:37.000Z</time>
      </trkpt>
      <trkpt lat="44.35047" lon="6.37723">
        <ele>1346.5999755859</ele>
        <time>2016-07-18T07:43:47.000Z</time>
      </trkpt>
      <trkpt lat="44.35044" lon="6.37747">
        <ele>1346.8000488281</ele>
        <time>2016-07-18T07:44:00.000Z</time>
      </trkpt>
      <trkpt lat="44.35042" lon="6.37757">
        <ele>1346.5999755859</ele>
        <time>2016-07-18T07:44:07.000Z</time>
      </trkpt>
      <trkpt lat="44.35038" lon="6.37779">
        <ele>1346.4000244141</ele>
        <time>2016-07-18T07:44:19.000Z</time>
      </trkpt>
      <trkpt lat="44.35034" lon="6.37802">
        <ele>1346.1999511719</ele>
        <time>2016-07-18T07:44:31.000Z</time>
      </trkpt>
      <trkpt lat="44.35033" lon="6.37808">
        <ele>1346.1999511719</ele>
        <time>2016-07-18T07:44:37.000Z</time>
      </trkpt>
      <trkpt lat="44.35031" lon="6.37817">
        <ele>1346</ele>
        <time>2016-07-18T07:44:50.000Z</time>
      </trkpt>
      <trkpt lat="44.3503" lon="6.37836">
        <ele>1346.4000244141</ele>
        <time>2016-07-18T07:45:00.000Z</time>
      </trkpt>
      <trkpt lat="44.35029" lon="6.37847">
        <ele>1346.5999755859</ele>
        <time>2016-07-18T07:45:06.000Z</time>
      </trkpt>
      <trkpt lat="44.35027" lon="6.37862">
        <ele>1346.8000488281</ele>
        <time>2016-07-18T07:45:14.000Z</time>
      </trkpt>
      <trkpt lat="44.35023" lon="6.37881">
        <ele>1347.1999511719</ele>
        <time>2016-07-18T07:45:24.000Z</time>
      </trkpt>
      <trkpt lat="44.35022" lon="6.37894">
        <ele>1347.4000244141</ele>
        <time>2016-07-18T07:45:31.000Z</time>
      </trkpt>
      <trkpt lat="44.35018" lon="6.37911">
        <ele>1348.4000244141</ele>
        <time>2016-07-18T07:45:40.000Z</time>
      </trkpt>
      <trkpt lat="44.35017" lon="6.37923">
        <ele>1349.5999755859</ele>
        <time>2016-07-18T07:45:47.000Z</time>
      </trkpt>
      <trkpt lat="44.35014" lon="6.37957">
        <ele>1352.5999755859</ele>
        <time>2016-07-18T07:46:05.000Z</time>
      </trkpt>
      <trkpt lat="44.3501" lon="6.37967">
        <ele>1353.4000244141</ele>
        <time>2016-07-18T07:46:12.000Z</time>
      </trkpt>
      <trkpt lat="44.35008" lon="6.37977">
        <ele>1354.4000244141</ele>
        <time>2016-07-18T07:46:18.000Z</time>
      </trkpt>
      <trkpt lat="44.35008" lon="6.37993">
        <ele>1355.4000244141</ele>
        <time>2016-07-18T07:46:26.000Z</time>
      </trkpt>
      <trkpt lat="44.35008" lon="6.38005">
        <ele>1355.8000488281</ele>
        <time>2016-07-18T07:46:33.000Z</time>
      </trkpt>
      <trkpt lat="44.35009" lon="6.38023">
        <ele>1356.4000244141</ele>
        <time>2016-07-18T07:46:42.000Z</time>
      </trkpt>
      <trkpt lat="44.35004" lon="6.38035">
        <ele>1356.5999755859</ele>
        <time>2016-07-18T07:46:50.000Z</time>
      </trkpt>
      <trkpt lat="44.34997" lon="6.38044">
        <ele>1356.5999755859</ele>
        <time>2016-07-18T07:46:58.000Z</time>
      </trkpt>
      <trkpt lat="44.34989" lon="6.38055">
        <ele>1356.5999755859</ele>
        <time>2016-07-18T07:47:06.000Z</time>
      </trkpt>
      <trkpt lat="44.34986" lon="6.38058">
        <ele>1356.5999755859</ele>
        <time>2016-07-18T07:47:08.000Z</time>
      </trkpt>
      <trkpt lat="44.34982" lon="6.38064">
        <ele>1356.5999755859</ele>
        <time>2016-07-18T07:47:12.000Z</time>
      </trkpt>
      <trkpt lat="44.34978" lon="6.38076">
        <ele>1356.4000244141</ele>
        <time>2016-07-18T07:47:19.000Z</time>
      </trkpt>
      <trkpt lat="44.34978" lon="6.38078">
        <ele>1356.1999511719</ele>
        <time>2016-07-18T07:47:20.000Z</time>
      </trkpt>
      <trkpt lat="44.34971" lon="6.38093">
        <ele>1355.8000488281</ele>
        <time>2016-07-18T07:47:29.000Z</time>
      </trkpt>
      <trkpt lat="44.34963" lon="6.38108">
        <ele>1354.8000488281</ele>
        <time>2016-07-18T07:47:39.000Z</time>
      </trkpt>
      <trkpt lat="44.34956" lon="6.38118">
        <ele>1354.1999511719</ele>
        <time>2016-07-18T07:47:46.000Z</time>
      </trkpt>
      <trkpt lat="44.34943" lon="6.38135">
        <ele>1352.8000488281</ele>
        <time>2016-07-18T07:47:59.000Z</time>
      </trkpt>
      <trkpt lat="44.34938" lon="6.38151">
        <ele>1352.4000244141</ele>
        <time>2016-07-18T07:48:08.000Z</time>
      </trkpt>
      <trkpt lat="44.34934" lon="6.38164">
        <ele>1352.1999511719</ele>
        <time>2016-07-18T07:48:15.000Z</time>
      </trkpt>
      <trkpt lat="44.3493" lon="6.38182">
        <ele>1352</ele>
        <time>2016-07-18T07:48:25.000Z</time>
      </trkpt>
      <trkpt lat="44.34927" lon="6.38203">
        <ele>1351.8000488281</ele>
        <time>2016-07-18T07:48:36.000Z</time>
      </trkpt>
      <trkpt lat="44.34925" lon="6.38219">
        <ele>1351.5999755859</ele>
        <time>2016-07-18T07:48:45.000Z</time>
      </trkpt>
      <trkpt lat="44.34923" lon="6.38236">
        <ele>1351.4000244141</ele>
        <time>2016-07-18T07:48:54.000Z</time>
      </trkpt>
      <trkpt lat="44.34924" lon="6.38255">
        <ele>1352.1999511719</ele>
        <time>2016-07-18T07:49:05.000Z</time>
      </trkpt>
      <trkpt lat="44.34925" lon="6.38264">
        <ele>1352.5999755859</ele>
        <time>2016-07-18T07:49:10.000Z</time>
      </trkpt>
      <trkpt lat="44.34924" lon="6.38279">
        <ele>1353</ele>
        <time>2016-07-18T07:49:19.000Z</time>
      </trkpt>
      <trkpt lat="44.34921" lon="6.38292">
        <ele>1353.1999511719</ele>
        <time>2016-07-18T07:49:27.000Z</time>
      </trkpt>
      <trkpt lat="44.34917" lon="6.38307">
        <ele>1352.4000244141</ele>
        <time>2016-07-18T07:49:36.000Z</time>
      </trkpt>
      <trkpt lat="44.34913" lon="6.38323">
        <ele>1352.4000244141</ele>
        <time>2016-07-18T07:49:45.000Z</time>
      </trkpt>
      <trkpt lat="44.34911" lon="6.38339">
        <ele>1353</ele>
        <time>2016-07-18T07:49:54.000Z</time>
      </trkpt>
      <trkpt lat="44.34907" lon="6.38351">
        <ele>1353.4000244141</ele>
        <time>2016-07-18T07:50:01.000Z</time>
      </trkpt>
      <trkpt lat="44.34903" lon="6.38359">
        <ele>1353.4000244141</ele>
        <time>2016-07-18T07:50:06.000Z</time>
      </trkpt>
      <trkpt lat="44.34897" lon="6.38371">
        <ele>1353.5999755859</ele>
        <time>2016-07-18T07:50:13.000Z</time>
      </trkpt>
      <trkpt lat="44.34892" lon="6.38382">
        <ele>1353.8000488281</ele>
        <time>2016-07-18T07:50:20.000Z</time>
      </trkpt>
      <trkpt lat="44.34886" lon="6.38395">
        <ele>1354.1999511719</ele>
        <time>2016-07-18T07:50:28.000Z</time>
      </trkpt>
      <trkpt lat="44.34882" lon="6.38404">
        <ele>1354.1999511719</ele>
        <time>2016-07-18T07:50:34.000Z</time>
      </trkpt>
      <trkpt lat="44.34875" lon="6.38416">
        <ele>1354.4000244141</ele>
        <time>2016-07-18T07:50:42.000Z</time>
      </trkpt>
      <trkpt lat="44.34869" lon="6.38429">
        <ele>1354.4000244141</ele>
        <time>2016-07-18T07:50:50.000Z</time>
      </trkpt>
      <trkpt lat="44.34863" lon="6.38456">
        <ele>1355.4000244141</ele>
        <time>2016-07-18T07:51:06.000Z</time>
      </trkpt>
      <trkpt lat="44.34864" lon="6.38477">
        <ele>1356.8000488281</ele>
        <time>2016-07-18T07:51:16.000Z</time>
      </trkpt>
      <trkpt lat="44.34866" lon="6.38485">
        <ele>1357.4000244141</ele>
        <time>2016-07-18T07:51:20.000Z</time>
      </trkpt>
      <trkpt lat="44.34866" lon="6.38491">
        <ele>1357.8000488281</ele>
        <time>2016-07-18T07:51:23.000Z</time>
      </trkpt>
      <trkpt lat="44.34867" lon="6.38498">
        <ele>1358.1999511719</ele>
        <time>2016-07-18T07:51:27.000Z</time>
      </trkpt>
      <trkpt lat="44.34866" lon="6.38501">
        <ele>1358.4000244141</ele>
        <time>2016-07-18T07:51:32.000Z</time>
      </trkpt>
      <trkpt lat="44.34863" lon="6.38507">
        <ele>1358.4000244141</ele>
        <time>2016-07-18T07:51:38.000Z</time>
      </trkpt>
      <trkpt lat="44.34862" lon="6.38508">
        <ele>1358.4000244141</ele>
        <time>2016-07-18T07:51:48.000Z</time>
      </trkpt>
      <trkpt lat="44.3486" lon="6.38507">
        <ele>1358</ele>
        <time>2016-07-18T07:51:56.000Z</time>
      </trkpt>
      <trkpt lat="44.34865" lon="6.38502">
        <ele>1358.4000244141</ele>
        <time>2016-07-18T07:52:01.000Z</time>
      </trkpt>
      <trkpt lat="44.3487" lon="6.38506">
        <ele>1359</ele>
        <time>2016-07-18T07:52:06.000Z</time>
      </trkpt>
      <trkpt lat="44.34875" lon="6.38517">
        <ele>1360.1999511719</ele>
        <time>2016-07-18T07:52:13.000Z</time>
      </trkpt>
      <trkpt lat="44.34879" lon="6.38527">
        <ele>1361.1999511719</ele>
        <time>2016-07-18T07:52:19.000Z</time>
      </trkpt>
      <trkpt lat="44.34885" lon="6.3854">
        <ele>1362.4000244141</ele>
        <time>2016-07-18T07:52:27.000Z</time>
      </trkpt>
      <trkpt lat="44.34889" lon="6.38548">
        <ele>1363.4000244141</ele>
        <time>2016-07-18T07:52:33.000Z</time>
      </trkpt>
      <trkpt lat="44.34895" lon="6.38559">
        <ele>1364.5999755859</ele>
        <time>2016-07-18T07:52:42.000Z</time>
      </trkpt>
      <trkpt lat="44.349" lon="6.38571">
        <ele>1365.5999755859</ele>
        <time>2016-07-18T07:52:50.000Z</time>
      </trkpt>
      <trkpt lat="44.34904" lon="6.38583">
        <ele>1366.1999511719</ele>
        <time>2016-07-18T07:52:58.000Z</time>
      </trkpt>
      <trkpt lat="44.3491" lon="6.38592">
        <ele>1367</ele>
        <time>2016-07-18T07:53:06.000Z</time>
      </trkpt>
      <trkpt lat="44.34919" lon="6.38599">
        <ele>1368</ele>
        <time>2016-07-18T07:53:14.000Z</time>
      </trkpt>
      <trkpt lat="44.34925" lon="6.38604">
        <ele>1368.8000488281</ele>
        <time>2016-07-18T07:53:21.000Z</time>
      </trkpt>
      <trkpt lat="44.34931" lon="6.38608">
        <ele>1369.5999755859</ele>
        <time>2016-07-18T07:53:28.000Z</time>
      </trkpt>
      <trkpt lat="44.34937" lon="6.38612">
        <ele>1370</ele>
        <time>2016-07-18T07:53:34.000Z</time>
      </trkpt>
      <trkpt lat="44.34946" lon="6.38618">
        <ele>1371.1999511719</ele>
        <time>2016-07-18T07:53:42.000Z</time>
      </trkpt>
      <trkpt lat="44.34956" lon="6.38623">
        <ele>1372.5999755859</ele>
        <time>2016-07-18T07:53:51.000Z</time>
      </trkpt>
      <trkpt lat="44.34962" lon="6.38626">
        <ele>1373.5999755859</ele>
        <time>2016-07-18T07:53:56.000Z</time>
      </trkpt>
      <trkpt lat="44.3497" lon="6.38631">
        <ele>1374.8000488281</ele>
        <time>2016-07-18T07:54:03.000Z</time>
      </trkpt>
      <trkpt lat="44.34979" lon="6.38638">
        <ele>1376.1999511719</ele>
        <time>2016-07-18T07:54:11.000Z</time>
      </trkpt>
      <trkpt lat="44.34988" lon="6.38646">
        <ele>1377.8000488281</ele>
        <time>2016-07-18T07:54:20.000Z</time>
      </trkpt>
      <trkpt lat="44.34993" lon="6.38651">
        <ele>1378.5999755859</ele>
        <time>2016-07-18T07:54:25.000Z</time>
      </trkpt>
      <trkpt lat="44.34997" lon="6.38654">
        <ele>1379.1999511719</ele>
        <time>2016-07-18T07:54:29.000Z</time>
      </trkpt>
      <trkpt lat="44.35006" lon="6.38664">
        <ele>1380.8000488281</ele>
        <time>2016-07-18T07:54:39.000Z</time>
      </trkpt>
      <trkpt lat="44.35012" lon="6.38672">
        <ele>1381.8000488281</ele>
        <time>2016-07-18T07:54:46.000Z</time>
      </trkpt>
      <trkpt lat="44.3502" lon="6.38688">
        <ele>1383.4000244141</ele>
        <time>2016-07-18T07:54:58.000Z</time>
      </trkpt>
      <trkpt lat="44.35028" lon="6.38702">
        <ele>1384.8000488281</ele>
        <time>2016-07-18T07:55:08.000Z</time>
      </trkpt>
      <trkpt lat="44.35029" lon="6.38704">
        <ele>1385</ele>
        <time>2016-07-18T07:55:09.000Z</time>
      </trkpt>
      <trkpt lat="44.35029" lon="6.38709">
        <ele>1385.1999511719</ele>
        <time>2016-07-18T07:55:13.000Z</time>
      </trkpt>
      <trkpt lat="44.35029" lon="6.3872">
        <ele>1385.5999755859</ele>
        <time>2016-07-18T07:55:20.000Z</time>
      </trkpt>
      <trkpt lat="44.3503" lon="6.38721">
        <ele>1385.5999755859</ele>
        <time>2016-07-18T07:55:21.000Z</time>
      </trkpt>
      <trkpt lat="44.35031" lon="6.38727">
        <ele>1386</ele>
        <time>2016-07-18T07:55:24.000Z</time>
      </trkpt>
      <trkpt lat="44.35032" lon="6.38742">
        <ele>1387.1999511719</ele>
        <time>2016-07-18T07:55:33.000Z</time>
      </trkpt>
      <trkpt lat="44.35033" lon="6.38755">
        <ele>1388.1999511719</ele>
        <time>2016-07-18T07:55:41.000Z</time>
      </trkpt>
      <trkpt lat="44.35034" lon="6.38762">
        <ele>1388.8000488281</ele>
        <time>2016-07-18T07:55:45.000Z</time>
      </trkpt>
      <trkpt lat="44.35034" lon="6.38781">
        <ele>1390.4000244141</ele>
        <time>2016-07-18T07:55:57.000Z</time>
      </trkpt>
      <trkpt lat="44.35035" lon="6.38784">
        <ele>1390.5999755859</ele>
        <time>2016-07-18T07:55:59.000Z</time>
      </trkpt>
      <trkpt lat="44.35035" lon="6.38786">
        <ele>1390.8000488281</ele>
        <time>2016-07-18T07:56:01.000Z</time>
      </trkpt>
      <trkpt lat="44.35034" lon="6.38793">
        <ele>1391</ele>
        <time>2016-07-18T07:56:05.000Z</time>
      </trkpt>
      <trkpt lat="44.35033" lon="6.38803">
        <ele>1391.5999755859</ele>
        <time>2016-07-18T07:56:12.000Z</time>
      </trkpt>
      <trkpt lat="44.35032" lon="6.38806">
        <ele>1391.8000488281</ele>
        <time>2016-07-18T07:56:14.000Z</time>
      </trkpt>
      <trkpt lat="44.3503" lon="6.38815">
        <ele>1392</ele>
        <time>2016-07-18T07:56:19.000Z</time>
      </trkpt>
      <trkpt lat="44.35027" lon="6.38831">
        <ele>1393.4000244141</ele>
        <time>2016-07-18T07:56:27.000Z</time>
      </trkpt>
      <trkpt lat="44.35025" lon="6.38838">
        <ele>1394</ele>
        <time>2016-07-18T07:56:31.000Z</time>
      </trkpt>
      <trkpt lat="44.35019" lon="6.38853">
        <ele>1395</ele>
        <time>2016-07-18T07:56:40.000Z</time>
      </trkpt>
      <trkpt lat="44.35015" lon="6.38863">
        <ele>1395.4000244141</ele>
        <time>2016-07-18T07:56:46.000Z</time>
      </trkpt>
      <trkpt lat="44.35012" lon="6.38871">
        <ele>1395.8000488281</ele>
        <time>2016-07-18T07:56:51.000Z</time>
      </trkpt>
      <trkpt lat="44.35007" lon="6.38884">
        <ele>1396.4000244141</ele>
        <time>2016-07-18T07:56:58.000Z</time>
      </trkpt>
      <trkpt lat="44.35003" lon="6.38895">
        <ele>1396.1999511719</ele>
        <time>2016-07-18T07:57:04.000Z</time>
      </trkpt>
      <trkpt lat="44.35001" lon="6.38904">
        <ele>1397</ele>
        <time>2016-07-18T07:57:09.000Z</time>
      </trkpt>
      <trkpt lat="44.35" lon="6.38905">
        <ele>1397.1999511719</ele>
        <time>2016-07-18T07:57:10.000Z</time>
      </trkpt>
      <trkpt lat="44.34997" lon="6.3891">
        <ele>1397.5999755859</ele>
        <time>2016-07-18T07:57:13.000Z</time>
      </trkpt>
      <trkpt lat="44.34993" lon="6.38922">
        <ele>1399.4000244141</ele>
        <time>2016-07-18T07:57:20.000Z</time>
      </trkpt>
      <trkpt lat="44.34989" lon="6.38934">
        <ele>1401.1999511719</ele>
        <time>2016-07-18T07:57:27.000Z</time>
      </trkpt>
      <trkpt lat="44.34985" lon="6.38945">
        <ele>1402.5999755859</ele>
        <time>2016-07-18T07:57:34.000Z</time>
      </trkpt>
      <trkpt lat="44.34981" lon="6.38956">
        <ele>1403.5999755859</ele>
        <time>2016-07-18T07:57:41.000Z</time>
      </trkpt>
      <trkpt lat="44.34976" lon="6.38971">
        <ele>1405.1999511719</ele>
        <time>2016-07-18T07:57:50.000Z</time>
      </trkpt>
      <trkpt lat="44.34972" lon="6.38985">
        <ele>1406.8000488281</ele>
        <time>2016-07-18T07:57:58.000Z</time>
      </trkpt>
      <trkpt lat="44.34968" lon="6.39003">
        <ele>1407.5999755859</ele>
        <time>2016-07-18T07:58:08.000Z</time>
      </trkpt>
      <trkpt lat="44.34966" lon="6.39012">
        <ele>1407.8000488281</ele>
        <time>2016-07-18T07:58:13.000Z</time>
      </trkpt>
      <trkpt lat="44.34965" lon="6.39025">
        <ele>1408.8000488281</ele>
        <time>2016-07-18T07:58:20.000Z</time>
      </trkpt>
      <trkpt lat="44.34964" lon="6.39038">
        <ele>1409.5999755859</ele>
        <time>2016-07-18T07:58:27.000Z</time>
      </trkpt>
      <trkpt lat="44.34964" lon="6.39051">
        <ele>1410.5999755859</ele>
        <time>2016-07-18T07:58:34.000Z</time>
      </trkpt>
      <trkpt lat="44.34967" lon="6.39065">
        <ele>1412.5999755859</ele>
        <time>2016-07-18T07:58:42.000Z</time>
      </trkpt>
      <trkpt lat="44.34971" lon="6.39073">
        <ele>1414.4000244141</ele>
        <time>2016-07-18T07:58:51.000Z</time>
      </trkpt>
      <trkpt lat="44.34973" lon="6.39078">
        <ele>1415.4000244141</ele>
        <time>2016-07-18T07:59:02.000Z</time>
      </trkpt>
      <trkpt lat="44.34978" lon="6.39089">
        <ele>1417.8000488281</ele>
        <time>2016-07-18T07:59:09.000Z</time>
      </trkpt>
      <trkpt lat="44.34978" lon="6.39091">
        <ele>1417.8000488281</ele>
        <time>2016-07-18T07:59:10.000Z</time>
      </trkpt>
      <trkpt lat="44.34978" lon="6.39097">
        <ele>1418.4000244141</ele>
        <time>2016-07-18T07:59:14.000Z</time>
      </trkpt>
      <trkpt lat="44.34978" lon="6.39113">
        <ele>1419.1999511719</ele>
        <time>2016-07-18T07:59:24.000Z</time>
      </trkpt>
      <trkpt lat="44.34976" lon="6.39126">
        <ele>1419.1999511719</ele>
        <time>2016-07-18T07:59:33.000Z</time>
      </trkpt>
      <trkpt lat="44.34975" lon="6.39136">
        <ele>1419.1999511719</ele>
        <time>2016-07-18T07:59:39.000Z</time>
      </trkpt>
      <trkpt lat="44.34975" lon="6.39141">
        <ele>1419.4000244141</ele>
        <time>2016-07-18T07:59:42.000Z</time>
      </trkpt>
      <trkpt lat="44.34982" lon="6.39161">
        <ele>1423</ele>
        <time>2016-07-18T08:00:00.000Z</time>
      </trkpt>
      <trkpt lat="44.34984" lon="6.39168">
        <ele>1424</ele>
        <time>2016-07-18T08:00:05.000Z</time>
      </trkpt>
      <trkpt lat="44.34988" lon="6.39174">
        <ele>1425.5999755859</ele>
        <time>2016-07-18T08:00:10.000Z</time>
      </trkpt>
      <trkpt lat="44.34992" lon="6.39183">
        <ele>1427.4000244141</ele>
        <time>2016-07-18T08:00:18.000Z</time>
      </trkpt>
      <trkpt lat="44.34995" lon="6.3919">
        <ele>1429</ele>
        <time>2016-07-18T08:00:24.000Z</time>
      </trkpt>
      <trkpt lat="44.35001" lon="6.39188">
        <ele>1430.8000488281</ele>
        <time>2016-07-18T08:00:29.000Z</time>
      </trkpt>
      <trkpt lat="44.35002" lon="6.39188">
        <ele>1431</ele>
        <time>2016-07-18T08:00:30.000Z</time>
      </trkpt>
      <trkpt lat="44.3501" lon="6.39182">
        <ele>1433.1999511719</ele>
        <time>2016-07-18T08:00:38.000Z</time>
      </trkpt>
      <trkpt lat="44.35015" lon="6.39178">
        <ele>1434.8000488281</ele>
        <time>2016-07-18T08:00:44.000Z</time>
      </trkpt>
      <trkpt lat="44.35025" lon="6.39173">
        <ele>1437.5999755859</ele>
        <time>2016-07-18T08:00:52.000Z</time>
      </trkpt>
      <trkpt lat="44.35026" lon="6.39172">
        <ele>1437.8000488281</ele>
        <time>2016-07-18T08:00:53.000Z</time>
      </trkpt>
      <trkpt lat="44.35032" lon="6.39168">
        <ele>1439.5999755859</ele>
        <time>2016-07-18T08:01:00.000Z</time>
      </trkpt>
      <trkpt lat="44.35033" lon="6.39167">
        <ele>1439.8000488281</ele>
        <time>2016-07-18T08:01:01.000Z</time>
      </trkpt>
      <trkpt lat="44.35036" lon="6.39165">
        <ele>1440.5999755859</ele>
        <time>2016-07-18T08:01:04.000Z</time>
      </trkpt>
      <trkpt lat="44.35042" lon="6.39161">
        <ele>1442.1999511719</ele>
        <time>2016-07-18T08:01:10.000Z</time>
      </trkpt>
      <trkpt lat="44.35044" lon="6.3916">
        <ele>1442.5999755859</ele>
        <time>2016-07-18T08:01:12.000Z</time>
      </trkpt>
      <trkpt lat="44.35048" lon="6.39158">
        <ele>1443.1999511719</ele>
        <time>2016-07-18T08:01:18.000Z</time>
      </trkpt>
      <trkpt lat="44.35049" lon="6.39164">
        <ele>1444.4000244141</ele>
        <time>2016-07-18T08:01:22.000Z</time>
      </trkpt>
      <trkpt lat="44.35049" lon="6.39171">
        <ele>1445</ele>
        <time>2016-07-18T08:01:26.000Z</time>
      </trkpt>
      <trkpt lat="44.35048" lon="6.39179">
        <ele>1445</ele>
        <time>2016-07-18T08:01:32.000Z</time>
      </trkpt>
      <trkpt lat="44.35048" lon="6.39181">
        <ele>1445</ele>
        <time>2016-07-18T08:01:33.000Z</time>
      </trkpt>
      <trkpt lat="44.35046" lon="6.39188">
        <ele>1445</ele>
        <time>2016-07-18T08:01:37.000Z</time>
      </trkpt>
      <trkpt lat="44.35045" lon="6.39193">
        <ele>1445</ele>
        <time>2016-07-18T08:01:41.000Z</time>
      </trkpt>
      <trkpt lat="44.35044" lon="6.39201">
        <ele>1445</ele>
        <time>2016-07-18T08:01:47.000Z</time>
      </trkpt>
      <trkpt lat="44.35042" lon="6.39204">
        <ele>1444.8000488281</ele>
        <time>2016-07-18T08:01:49.000Z</time>
      </trkpt>
      <trkpt lat="44.35045" lon="6.39236">
        <ele>1447.8000488281</ele>
        <time>2016-07-18T08:02:07.000Z</time>
      </trkpt>
      <trkpt lat="44.35051" lon="6.3925">
        <ele>1451</ele>
        <time>2016-07-18T08:02:16.000Z</time>
      </trkpt>
      <trkpt lat="44.35055" lon="6.39262">
        <ele>1453.4000244141</ele>
        <time>2016-07-18T08:02:24.000Z</time>
      </trkpt>
      <trkpt lat="44.35057" lon="6.39273">
        <ele>1455</ele>
        <time>2016-07-18T08:02:31.000Z</time>
      </trkpt>
      <trkpt lat="44.35058" lon="6.3928">
        <ele>1456</ele>
        <time>2016-07-18T08:02:37.000Z</time>
      </trkpt>
      <trkpt lat="44.3506" lon="6.3929">
        <ele>1457.4000244141</ele>
        <time>2016-07-18T08:02:43.000Z</time>
      </trkpt>
      <trkpt lat="44.3506" lon="6.39296">
        <ele>1458</ele>
        <time>2016-07-18T08:02:46.000Z</time>
      </trkpt>
      <trkpt lat="44.35062" lon="6.39312">
        <ele>1460</ele>
        <time>2016-07-18T08:02:56.000Z</time>
      </trkpt>
      <trkpt lat="44.35065" lon="6.3933">
        <ele>1462</ele>
        <time>2016-07-18T08:03:08.000Z</time>
      </trkpt>
      <trkpt lat="44.35066" lon="6.39332">
        <ele>1462.4000244141</ele>
        <time>2016-07-18T08:03:14.000Z</time>
      </trkpt>
      <trkpt lat="44.35067" lon="6.39333">
        <ele>1462.8000488281</ele>
        <time>2016-07-18T08:03:24.000Z</time>
      </trkpt>
      <trkpt lat="44.35069" lon="6.39336">
        <ele>1463.5999755859</ele>
        <time>2016-07-18T08:03:48.000Z</time>
      </trkpt>
      <trkpt lat="44.35072" lon="6.39331">
        <ele>1464.1999511719</ele>
        <time>2016-07-18T08:04:13.000Z</time>
      </trkpt>
      <trkpt lat="44.35076" lon="6.39323">
        <ele>1465</ele>
        <time>2016-07-18T08:04:19.000Z</time>
      </trkpt>
      <trkpt lat="44.35079" lon="6.3931">
        <ele>1465.4000244141</ele>
        <time>2016-07-18T08:04:27.000Z</time>
      </trkpt>
      <trkpt lat="44.35082" lon="6.393">
        <ele>1465.1999511719</ele>
        <time>2016-07-18T08:04:33.000Z</time>
      </trkpt>
      <trkpt lat="44.35084" lon="6.39285">
        <ele>1464.8000488281</ele>
        <time>2016-07-18T08:04:41.000Z</time>
      </trkpt>
      <trkpt lat="44.3509" lon="6.39268">
        <ele>1464.5999755859</ele>
        <time>2016-07-18T08:04:51.000Z</time>
      </trkpt>
      <trkpt lat="44.35099" lon="6.39255">
        <ele>1466</ele>
        <time>2016-07-18T08:05:01.000Z</time>
      </trkpt>
      <trkpt lat="44.35109" lon="6.39249">
        <ele>1468.4000244141</ele>
        <time>2016-07-18T08:05:10.000Z</time>
      </trkpt>
      <trkpt lat="44.35111" lon="6.39255">
        <ele>1469.4000244141</ele>
        <time>2016-07-18T08:05:16.000Z</time>
      </trkpt>
      <trkpt lat="44.35109" lon="6.39258">
        <ele>1469.4000244141</ele>
        <time>2016-07-18T08:05:19.000Z</time>
      </trkpt>
      <trkpt lat="44.35105" lon="6.39267">
        <ele>1469</ele>
        <time>2016-07-18T08:05:25.000Z</time>
      </trkpt>
      <trkpt lat="44.35102" lon="6.39272">
        <ele>1468.8000488281</ele>
        <time>2016-07-18T08:05:29.000Z</time>
      </trkpt>
      <trkpt lat="44.35102" lon="6.39282">
        <ele>1470</ele>
        <time>2016-07-18T08:05:34.000Z</time>
      </trkpt>
      <trkpt lat="44.35102" lon="6.39289">
        <ele>1470.5999755859</ele>
        <time>2016-07-18T08:05:38.000Z</time>
      </trkpt>
      <trkpt lat="44.35105" lon="6.39304">
        <ele>1473</ele>
        <time>2016-07-18T08:05:47.000Z</time>
      </trkpt>
      <trkpt lat="44.35109" lon="6.39319">
        <ele>1475.4000244141</ele>
        <time>2016-07-18T08:05:56.000Z</time>
      </trkpt>
      <trkpt lat="44.35112" lon="6.39329">
        <ele>1477</ele>
        <time>2016-07-18T08:06:02.000Z</time>
      </trkpt>
      <trkpt lat="44.35113" lon="6.39336">
        <ele>1477.8000488281</ele>
        <time>2016-07-18T08:06:07.000Z</time>
      </trkpt>
      <trkpt lat="44.35116" lon="6.39348">
        <ele>1479.4000244141</ele>
        <time>2016-07-18T08:06:15.000Z</time>
      </trkpt>
      <trkpt lat="44.35119" lon="6.39362">
        <ele>1481.1999511719</ele>
        <time>2016-07-18T08:06:24.000Z</time>
      </trkpt>
      <trkpt lat="44.35121" lon="6.39373">
        <ele>1482.4000244141</ele>
        <time>2016-07-18T08:06:31.000Z</time>
      </trkpt>
      <trkpt lat="44.35121" lon="6.39378">
        <ele>1483</ele>
        <time>2016-07-18T08:06:36.000Z</time>
      </trkpt>
      <trkpt lat="44.35125" lon="6.3938">
        <ele>1484.1999511719</ele>
        <time>2016-07-18T08:06:42.000Z</time>
      </trkpt>
      <trkpt lat="44.35128" lon="6.3938">
        <ele>1485</ele>
        <time>2016-07-18T08:06:46.000Z</time>
      </trkpt>
      <trkpt lat="44.35134" lon="6.3938">
        <ele>1486.8000488281</ele>
        <time>2016-07-18T08:06:51.000Z</time>
      </trkpt>
      <trkpt lat="44.35144" lon="6.39382">
        <ele>1490.1999511719</ele>
        <time>2016-07-18T08:07:00.000Z</time>
      </trkpt>
      <trkpt lat="44.35152" lon="6.39384">
        <ele>1492.4000244141</ele>
        <time>2016-07-18T08:07:07.000Z</time>
      </trkpt>
      <trkpt lat="44.3516" lon="6.39385">
        <ele>1494.8000488281</ele>
        <time>2016-07-18T08:07:13.000Z</time>
      </trkpt>
      <trkpt lat="44.3517" lon="6.39386">
        <ele>1497.8000488281</ele>
        <time>2016-07-18T08:07:21.000Z</time>
      </trkpt>
      <trkpt lat="44.3518" lon="6.39391">
        <ele>1501.1999511719</ele>
        <time>2016-07-18T08:07:30.000Z</time>
      </trkpt>
      <trkpt lat="44.35193" lon="6.39395">
        <ele>1505.5999755859</ele>
        <time>2016-07-18T08:07:38.000Z</time>
      </trkpt>
      <trkpt lat="44.35204" lon="6.39395">
        <ele>1507.5999755859</ele>
        <time>2016-07-18T08:07:46.000Z</time>
      </trkpt>
      <trkpt lat="44.35214" lon="6.39397">
        <ele>1509.4000244141</ele>
        <time>2016-07-18T08:07:54.000Z</time>
      </trkpt>
      <trkpt lat="44.35225" lon="6.39405">
        <ele>1511.5999755859</ele>
        <time>2016-07-18T08:08:03.000Z</time>
      </trkpt>
      <trkpt lat="44.35233" lon="6.39415">
        <ele>1513.4000244141</ele>
        <time>2016-07-18T08:08:12.000Z</time>
      </trkpt>
      <trkpt lat="44.35234" lon="6.39416">
        <ele>1513.4000244141</ele>
        <time>2016-07-18T08:08:13.000Z</time>
      </trkpt>
      <trkpt lat="44.35241" lon="6.39421">
        <ele>1514.8000488281</ele>
        <time>2016-07-18T08:08:20.000Z</time>
      </trkpt>
      <trkpt lat="44.35244" lon="6.39425">
        <ele>1515.4000244141</ele>
        <time>2016-07-18T08:08:23.000Z</time>
      </trkpt>
      <trkpt lat="44.35246" lon="6.39429">
        <ele>1516</ele>
        <time>2016-07-18T08:08:26.000Z</time>
      </trkpt>
      <trkpt lat="44.35248" lon="6.39435">
        <ele>1516.5999755859</ele>
        <time>2016-07-18T08:08:31.000Z</time>
      </trkpt>
      <trkpt lat="44.35253" lon="6.39447">
        <ele>1518</ele>
        <time>2016-07-18T08:08:39.000Z</time>
      </trkpt>
      <trkpt lat="44.35253" lon="6.39449">
        <ele>1518.1999511719</ele>
        <time>2016-07-18T08:08:40.000Z</time>
      </trkpt>
      <trkpt lat="44.35258" lon="6.39456">
        <ele>1519.1999511719</ele>
        <time>2016-07-18T08:08:46.000Z</time>
      </trkpt>
      <trkpt lat="44.35264" lon="6.39467">
        <ele>1520.4000244141</ele>
        <time>2016-07-18T08:08:54.000Z</time>
      </trkpt>
      <trkpt lat="44.35265" lon="6.3947">
        <ele>1520.5999755859</ele>
        <time>2016-07-18T08:08:56.000Z</time>
      </trkpt>
      <trkpt lat="44.35275" lon="6.3948">
        <ele>1522.5999755859</ele>
        <time>2016-07-18T08:09:06.000Z</time>
      </trkpt>
      <trkpt lat="44.35276" lon="6.39481">
        <ele>1523</ele>
        <time>2016-07-18T08:09:07.000Z</time>
      </trkpt>
      <trkpt lat="44.35287" lon="6.39485">
        <ele>1525</ele>
        <time>2016-07-18T08:09:15.000Z</time>
      </trkpt>
      <trkpt lat="44.35294" lon="6.39487">
        <ele>1526.4000244141</ele>
        <time>2016-07-18T08:09:21.000Z</time>
      </trkpt>
      <trkpt lat="44.35301" lon="6.39487">
        <ele>1528.1999511719</ele>
        <time>2016-07-18T08:09:26.000Z</time>
      </trkpt>
      <trkpt lat="44.35308" lon="6.39483">
        <ele>1531</ele>
        <time>2016-07-18T08:09:32.000Z</time>
      </trkpt>
      <trkpt lat="44.35315" lon="6.39476">
        <ele>1532.8000488281</ele>
        <time>2016-07-18T08:09:40.000Z</time>
      </trkpt>
      <trkpt lat="44.35321" lon="6.39468">
        <ele>1534</ele>
        <time>2016-07-18T08:09:46.000Z</time>
      </trkpt>
      <trkpt lat="44.35329" lon="6.39461">
        <ele>1535.5999755859</ele>
        <time>2016-07-18T08:09:55.000Z</time>
      </trkpt>
      <trkpt lat="44.35335" lon="6.39456">
        <ele>1537</ele>
        <time>2016-07-18T08:10:00.000Z</time>
      </trkpt>
      <trkpt lat="44.3534" lon="6.39451">
        <ele>1538.4000244141</ele>
        <time>2016-07-18T08:10:05.000Z</time>
      </trkpt>
      <trkpt lat="44.3535" lon="6.39439">
        <ele>1541.1999511719</ele>
        <time>2016-07-18T08:10:15.000Z</time>
      </trkpt>
      <trkpt lat="44.35356" lon="6.39432">
        <ele>1542.8000488281</ele>
        <time>2016-07-18T08:10:21.000Z</time>
      </trkpt>
      <trkpt lat="44.35365" lon="6.39423">
        <ele>1545.5999755859</ele>
        <time>2016-07-18T08:10:31.000Z</time>
      </trkpt>
      <trkpt lat="44.35371" lon="6.39416">
        <ele>1547.1999511719</ele>
        <time>2016-07-18T08:10:36.000Z</time>
      </trkpt>
      <trkpt lat="44.35373" lon="6.39413">
        <ele>1547.8000488281</ele>
        <time>2016-07-18T08:10:39.000Z</time>
      </trkpt>
      <trkpt lat="44.35381" lon="6.39407">
        <ele>1550.1999511719</ele>
        <time>2016-07-18T08:10:46.000Z</time>
      </trkpt>
      <trkpt lat="44.35384" lon="6.39405">
        <ele>1551.1999511719</ele>
        <time>2016-07-18T08:10:50.000Z</time>
      </trkpt>
      <trkpt lat="44.35387" lon="6.39402">
        <ele>1552.1999511719</ele>
        <time>2016-07-18T08:10:53.000Z</time>
      </trkpt>
      <trkpt lat="44.35397" lon="6.39399">
        <ele>1555.5999755859</ele>
        <time>2016-07-18T08:11:01.000Z</time>
      </trkpt>
      <trkpt lat="44.354" lon="6.39396">
        <ele>1556.1999511719</ele>
        <time>2016-07-18T08:11:04.000Z</time>
      </trkpt>
      <trkpt lat="44.35404" lon="6.39394">
        <ele>1557.4000244141</ele>
        <time>2016-07-18T08:11:07.000Z</time>
      </trkpt>
      <trkpt lat="44.35412" lon="6.39386">
        <ele>1558.8000488281</ele>
        <time>2016-07-18T08:11:16.000Z</time>
      </trkpt>
      <trkpt lat="44.35412" lon="6.39385">
        <ele>1558.8000488281</ele>
        <time>2016-07-18T08:11:18.000Z</time>
      </trkpt>
      <trkpt lat="44.35413" lon="6.39382">
        <ele>1558.5999755859</ele>
        <time>2016-07-18T08:11:27.000Z</time>
      </trkpt>
      <trkpt lat="44.35416" lon="6.39376">
        <ele>1558.8000488281</ele>
        <time>2016-07-18T08:11:34.000Z</time>
      </trkpt>
      <trkpt lat="44.3542" lon="6.39371">
        <ele>1559.5999755859</ele>
        <time>2016-07-18T08:11:39.000Z</time>
      </trkpt>
      <trkpt lat="44.35429" lon="6.39362">
        <ele>1559.8000488281</ele>
        <time>2016-07-18T08:11:46.000Z</time>
      </trkpt>
      <trkpt lat="44.3544" lon="6.39351">
        <ele>1560.5999755859</ele>
        <time>2016-07-18T08:11:56.000Z</time>
      </trkpt>
      <trkpt lat="44.35453" lon="6.39343">
        <ele>1561.8000488281</ele>
        <time>2016-07-18T08:12:07.000Z</time>
      </trkpt>
      <trkpt lat="44.35462" lon="6.39334">
        <ele>1561.8000488281</ele>
        <time>2016-07-18T08:12:16.000Z</time>
      </trkpt>
      <trkpt lat="44.35469" lon="6.39329">
        <ele>1562.5999755859</ele>
        <time>2016-07-18T08:12:23.000Z</time>
      </trkpt>
      <trkpt lat="44.35476" lon="6.39325">
        <ele>1563.5999755859</ele>
        <time>2016-07-18T08:12:28.000Z</time>
      </trkpt>
      <trkpt lat="44.35486" lon="6.39322">
        <ele>1565</ele>
        <time>2016-07-18T08:12:36.000Z</time>
      </trkpt>
      <trkpt lat="44.35498" lon="6.39314">
        <ele>1566.5999755859</ele>
        <time>2016-07-18T08:12:46.000Z</time>
      </trkpt>
      <trkpt lat="44.35502" lon="6.39307">
        <ele>1565.4000244141</ele>
        <time>2016-07-18T08:12:50.000Z</time>
      </trkpt>
      <trkpt lat="44.35514" lon="6.39276">
        <ele>1561.1999511719</ele>
        <time>2016-07-18T08:13:10.000Z</time>
      </trkpt>
      <trkpt lat="44.35516" lon="6.39272">
        <ele>1560.8000488281</ele>
        <time>2016-07-18T08:13:13.000Z</time>
      </trkpt>
      <trkpt lat="44.35524" lon="6.39263">
        <ele>1560.5999755859</ele>
        <time>2016-07-18T08:13:20.000Z</time>
      </trkpt>
      <trkpt lat="44.35528" lon="6.39261">
        <ele>1561</ele>
        <time>2016-07-18T08:13:23.000Z</time>
      </trkpt>
      <trkpt lat="44.35529" lon="6.3926">
        <ele>1561</ele>
        <time>2016-07-18T08:13:25.000Z</time>
      </trkpt>
      <trkpt lat="44.35533" lon="6.39257">
        <ele>1561</ele>
        <time>2016-07-18T08:13:30.000Z</time>
      </trkpt>
      <trkpt lat="44.35538" lon="6.39257">
        <ele>1561.5999755859</ele>
        <time>2016-07-18T08:13:35.000Z</time>
      </trkpt>
      <trkpt lat="44.35539" lon="6.39257">
        <ele>1561.8000488281</ele>
        <time>2016-07-18T08:13:36.000Z</time>
      </trkpt>
      <trkpt lat="44.35545" lon="6.39258">
        <ele>1562.8000488281</ele>
        <time>2016-07-18T08:13:40.000Z</time>
      </trkpt>
      <trkpt lat="44.35554" lon="6.39262">
        <ele>1564.8000488281</ele>
        <time>2016-07-18T08:13:47.000Z</time>
      </trkpt>
      <trkpt lat="44.3556" lon="6.39265">
        <ele>1566.1999511719</ele>
        <time>2016-07-18T08:13:52.000Z</time>
      </trkpt>
      <trkpt lat="44.35566" lon="6.39263">
        <ele>1566.8000488281</ele>
        <time>2016-07-18T08:13:57.000Z</time>
      </trkpt>
      <trkpt lat="44.35567" lon="6.39262">
        <ele>1566.8000488281</ele>
        <time>2016-07-18T08:13:58.000Z</time>
      </trkpt>
      <trkpt lat="44.35569" lon="6.39261">
        <ele>1567</ele>
        <time>2016-07-18T08:14:00.000Z</time>
      </trkpt>
      <trkpt lat="44.35577" lon="6.39247">
        <ele>1566.5999755859</ele>
        <time>2016-07-18T08:14:08.000Z</time>
      </trkpt>
      <trkpt lat="44.35577" lon="6.39245">
        <ele>1566.4000244141</ele>
        <time>2016-07-18T08:14:10.000Z</time>
      </trkpt>
      <trkpt lat="44.35578" lon="6.39241">
        <ele>1566</ele>
        <time>2016-07-18T08:14:11.000Z</time>
      </trkpt>
      <trkpt lat="44.35582" lon="6.39226">
        <ele>1564.5999755859</ele>
        <time>2016-07-18T08:14:19.000Z</time>
      </trkpt>
      <trkpt lat="44.35581" lon="6.3921">
        <ele>1562</ele>
        <time>2016-07-18T08:14:28.000Z</time>
      </trkpt>
      <trkpt lat="44.35582" lon="6.3919">
        <ele>1559.1999511719</ele>
        <time>2016-07-18T08:14:40.000Z</time>
      </trkpt>
      <trkpt lat="44.35586" lon="6.3918">
        <ele>1558.4000244141</ele>
        <time>2016-07-18T08:14:46.000Z</time>
      </trkpt>
      <trkpt lat="44.35588" lon="6.39178">
        <ele>1558.5999755859</ele>
        <time>2016-07-18T08:14:48.000Z</time>
      </trkpt>
      <trkpt lat="44.35594" lon="6.39176">
        <ele>1559.8000488281</ele>
        <time>2016-07-18T08:14:53.000Z</time>
      </trkpt>
      <trkpt lat="44.35607" lon="6.39176">
        <ele>1562.4000244141</ele>
        <time>2016-07-18T08:15:04.000Z</time>
      </trkpt>
      <trkpt lat="44.3561" lon="6.39176">
        <ele>1563</ele>
        <time>2016-07-18T08:15:06.000Z</time>
      </trkpt>
      <trkpt lat="44.35618" lon="6.39173">
        <ele>1564.1999511719</ele>
        <time>2016-07-18T08:15:13.000Z</time>
      </trkpt>
      <trkpt lat="44.35627" lon="6.39172">
        <ele>1565.4000244141</ele>
        <time>2016-07-18T08:15:21.000Z</time>
      </trkpt>
      <trkpt lat="44.35637" lon="6.39178">
        <ele>1568</ele>
        <time>2016-07-18T08:15:30.000Z</time>
      </trkpt>
      <trkpt lat="44.35647" lon="6.39185">
        <ele>1570.8000488281</ele>
        <time>2016-07-18T08:15:39.000Z</time>
      </trkpt>
      <trkpt lat="44.35654" lon="6.39194">
        <ele>1573.1999511719</ele>
        <time>2016-07-18T08:15:46.000Z</time>
      </trkpt>
      <trkpt lat="44.35661" lon="6.39199">
        <ele>1575.1999511719</ele>
        <time>2016-07-18T08:15:53.000Z</time>
      </trkpt>
      <trkpt lat="44.35667" lon="6.39203">
        <ele>1576.8000488281</ele>
        <time>2016-07-18T08:15:57.000Z</time>
      </trkpt>
      <trkpt lat="44.35681" lon="6.39201">
        <ele>1579.4000244141</ele>
        <time>2016-07-18T08:16:06.000Z</time>
      </trkpt>
      <trkpt lat="44.35682" lon="6.392">
        <ele>1579.5999755859</ele>
        <time>2016-07-18T08:16:07.000Z</time>
      </trkpt>
      <trkpt lat="44.35691" lon="6.3919">
        <ele>1580.5999755859</ele>
        <time>2016-07-18T08:16:16.000Z</time>
      </trkpt>
      <trkpt lat="44.35696" lon="6.39179">
        <ele>1580.5999755859</ele>
        <time>2016-07-18T08:16:24.000Z</time>
      </trkpt>
      <trkpt lat="44.35703" lon="6.39173">
        <ele>1581.4000244141</ele>
        <time>2016-07-18T08:16:30.000Z</time>
      </trkpt>
      <trkpt lat="44.35708" lon="6.39166">
        <ele>1582</ele>
        <time>2016-07-18T08:16:36.000Z</time>
      </trkpt>
      <trkpt lat="44.35711" lon="6.39163">
        <ele>1582.4000244141</ele>
        <time>2016-07-18T08:16:41.000Z</time>
      </trkpt>
      <trkpt lat="44.35728" lon="6.3916">
        <ele>1585.5999755859</ele>
        <time>2016-07-18T08:16:55.000Z</time>
      </trkpt>
      <trkpt lat="44.35737" lon="6.39159">
        <ele>1587.4000244141</ele>
        <time>2016-07-18T08:17:01.000Z</time>
      </trkpt>
      <trkpt lat="44.35745" lon="6.3916">
        <ele>1589.4000244141</ele>
        <time>2016-07-18T08:17:07.000Z</time>
      </trkpt>
      <trkpt lat="44.35746" lon="6.3916">
        <ele>1589.5999755859</ele>
        <time>2016-07-18T08:17:09.000Z</time>
      </trkpt>
      <trkpt lat="44.35755" lon="6.39161">
        <ele>1591.8000488281</ele>
        <time>2016-07-18T08:17:16.000Z</time>
      </trkpt>
      <trkpt lat="44.35757" lon="6.39162">
        <ele>1592.1999511719</ele>
        <time>2016-07-18T08:17:17.000Z</time>
      </trkpt>
      <trkpt lat="44.35764" lon="6.39163">
        <ele>1593.8000488281</ele>
        <time>2016-07-18T08:17:23.000Z</time>
      </trkpt>
      <trkpt lat="44.35765" lon="6.39163">
        <ele>1594</ele>
        <time>2016-07-18T08:17:24.000Z</time>
      </trkpt>
      <trkpt lat="44.35769" lon="6.39164">
        <ele>1595</ele>
        <time>2016-07-18T08:17:27.000Z</time>
      </trkpt>
      <trkpt lat="44.35773" lon="6.39162">
        <ele>1595.5999755859</ele>
        <time>2016-07-18T08:17:31.000Z</time>
      </trkpt>
      <trkpt lat="44.35785" lon="6.39157">
        <ele>1597.8000488281</ele>
        <time>2016-07-18T08:17:39.000Z</time>
      </trkpt>
      <trkpt lat="44.35785" lon="6.39156">
        <ele>1597.8000488281</ele>
        <time>2016-07-18T08:17:40.000Z</time>
      </trkpt>
      <trkpt lat="44.35797" lon="6.39142">
        <ele>1597.4000244141</ele>
        <time>2016-07-18T08:17:50.000Z</time>
      </trkpt>
      <trkpt lat="44.35804" lon="6.3913">
        <ele>1597</ele>
        <time>2016-07-18T08:17:58.000Z</time>
      </trkpt>
      <trkpt lat="44.35806" lon="6.39127">
        <ele>1597</ele>
        <time>2016-07-18T08:18:00.000Z</time>
      </trkpt>
      <trkpt lat="44.35815" lon="6.39122">
        <ele>1597.5999755859</ele>
        <time>2016-07-18T08:18:07.000Z</time>
      </trkpt>
      <trkpt lat="44.35825" lon="6.39122">
        <ele>1599</ele>
        <time>2016-07-18T08:18:14.000Z</time>
      </trkpt>
      <trkpt lat="44.35835" lon="6.39124">
        <ele>1600.5999755859</ele>
        <time>2016-07-18T08:18:23.000Z</time>
      </trkpt>
      <trkpt lat="44.35844" lon="6.39116">
        <ele>1601</ele>
        <time>2016-07-18T08:18:30.000Z</time>
      </trkpt>
      <trkpt lat="44.35849" lon="6.39112">
        <ele>1601.5999755859</ele>
        <time>2016-07-18T08:18:37.000Z</time>
      </trkpt>
      <trkpt lat="44.35852" lon="6.39109">
        <ele>1601.8000488281</ele>
        <time>2016-07-18T08:18:43.000Z</time>
      </trkpt>
      <trkpt lat="44.35862" lon="6.39103">
        <ele>1603</ele>
        <time>2016-07-18T08:19:30.000Z</time>
      </trkpt>
      <trkpt lat="44.35866" lon="6.39103">
        <ele>1603.5999755859</ele>
        <time>2016-07-18T08:19:34.000Z</time>
      </trkpt>
      <trkpt lat="44.35871" lon="6.39101">
        <ele>1604.1999511719</ele>
        <time>2016-07-18T08:19:40.000Z</time>
      </trkpt>
      <trkpt lat="44.35879" lon="6.39098">
        <ele>1605</ele>
        <time>2016-07-18T08:19:46.000Z</time>
      </trkpt>
      <trkpt lat="44.35882" lon="6.39098">
        <ele>1605.4000244141</ele>
        <time>2016-07-18T08:19:48.000Z</time>
      </trkpt>
      <trkpt lat="44.35892" lon="6.39091">
        <ele>1606.4000244141</ele>
        <time>2016-07-18T08:19:56.000Z</time>
      </trkpt>
      <trkpt lat="44.35893" lon="6.39096">
        <ele>1607</ele>
        <time>2016-07-18T08:20:02.000Z</time>
      </trkpt>
      <trkpt lat="44.35897" lon="6.39095">
        <ele>1607.5999755859</ele>
        <time>2016-07-18T08:20:14.000Z</time>
      </trkpt>
      <trkpt lat="44.359" lon="6.39092">
        <ele>1607.4000244141</ele>
        <time>2016-07-18T08:20:17.000Z</time>
      </trkpt>
      <trkpt lat="44.35906" lon="6.39089">
        <ele>1607.5999755859</ele>
        <time>2016-07-18T08:20:23.000Z</time>
      </trkpt>
      <trkpt lat="44.35912" lon="6.39087">
        <ele>1608</ele>
        <time>2016-07-18T08:20:29.000Z</time>
      </trkpt>
      <trkpt lat="44.35916" lon="6.39088">
        <ele>1608.5999755859</ele>
        <time>2016-07-18T08:20:33.000Z</time>
      </trkpt>
      <trkpt lat="44.35921" lon="6.39088">
        <ele>1609.1999511719</ele>
        <time>2016-07-18T08:20:37.000Z</time>
      </trkpt>
      <trkpt lat="44.35929" lon="6.39089">
        <ele>1610.1999511719</ele>
        <time>2016-07-18T08:20:44.000Z</time>
      </trkpt>
      <trkpt lat="44.35939" lon="6.39093">
        <ele>1611.5999755859</ele>
        <time>2016-07-18T08:20:50.000Z</time>
      </trkpt>
      <trkpt lat="44.35943" lon="6.39095">
        <ele>1612.4000244141</ele>
        <time>2016-07-18T08:20:54.000Z</time>
      </trkpt>
      <trkpt lat="44.35955" lon="6.39104">
        <ele>1614.8000488281</ele>
        <time>2016-07-18T08:21:03.000Z</time>
      </trkpt>
      <trkpt lat="44.35968" lon="6.39105">
        <ele>1616.5999755859</ele>
        <time>2016-07-18T08:21:12.000Z</time>
      </trkpt>
      <trkpt lat="44.35975" lon="6.39104">
        <ele>1617</ele>
        <time>2016-07-18T08:21:17.000Z</time>
      </trkpt>
      <trkpt lat="44.35981" lon="6.39101">
        <ele>1617.4000244141</ele>
        <time>2016-07-18T08:21:23.000Z</time>
      </trkpt>
      <trkpt lat="44.3599" lon="6.39098">
        <ele>1617.8000488281</ele>
        <time>2016-07-18T08:21:30.000Z</time>
      </trkpt>
      <trkpt lat="44.35997" lon="6.39095">
        <ele>1618.1999511719</ele>
        <time>2016-07-18T08:21:37.000Z</time>
      </trkpt>
      <trkpt lat="44.36004" lon="6.39091">
        <ele>1618.1999511719</ele>
        <time>2016-07-18T08:21:43.000Z</time>
      </trkpt>
      <trkpt lat="44.36015" lon="6.39084">
        <ele>1618.1999511719</ele>
        <time>2016-07-18T08:21:51.000Z</time>
      </trkpt>
      <trkpt lat="44.36023" lon="6.3908">
        <ele>1618.4000244141</ele>
        <time>2016-07-18T08:21:57.000Z</time>
      </trkpt>
      <trkpt lat="44.36024" lon="6.3908">
        <ele>1618.4000244141</ele>
        <time>2016-07-18T08:21:59.000Z</time>
      </trkpt>
      <trkpt lat="44.36029" lon="6.3908">
        <ele>1619</ele>
        <time>2016-07-18T08:22:03.000Z</time>
      </trkpt>
      <trkpt lat="44.36039" lon="6.3908">
        <ele>1620.5999755859</ele>
        <time>2016-07-18T08:22:10.000Z</time>
      </trkpt>
      <trkpt lat="44.36048" lon="6.39079">
        <ele>1622.1999511719</ele>
        <time>2016-07-18T08:22:18.000Z</time>
      </trkpt>
      <trkpt lat="44.36056" lon="6.39076">
        <ele>1623.4000244141</ele>
        <time>2016-07-18T08:22:25.000Z</time>
      </trkpt>
      <trkpt lat="44.36059" lon="6.39073">
        <ele>1623.8000488281</ele>
        <time>2016-07-18T08:22:28.000Z</time>
      </trkpt>
      <trkpt lat="44.36063" lon="6.39059">
        <ele>1622.5999755859</ele>
        <time>2016-07-18T08:22:37.000Z</time>
      </trkpt>
      <trkpt lat="44.36063" lon="6.39058">
        <ele>1622.8000488281</ele>
        <time>2016-07-18T08:22:38.000Z</time>
      </trkpt>
      <trkpt lat="44.36066" lon="6.39052">
        <ele>1622.5999755859</ele>
        <time>2016-07-18T08:22:43.000Z</time>
      </trkpt>
      <trkpt lat="44.36066" lon="6.39051">
        <ele>1622.4000244141</ele>
        <time>2016-07-18T08:22:44.000Z</time>
      </trkpt>
      <trkpt lat="44.36069" lon="6.39041">
        <ele>1621.5999755859</ele>
        <time>2016-07-18T08:22:50.000Z</time>
      </trkpt>
      <trkpt lat="44.36075" lon="6.39032">
        <ele>1621.5999755859</ele>
        <time>2016-07-18T08:22:57.000Z</time>
      </trkpt>
      <trkpt lat="44.36083" lon="6.39025">
        <ele>1622.1999511719</ele>
        <time>2016-07-18T08:23:04.000Z</time>
      </trkpt>
      <trkpt lat="44.36092" lon="6.39026">
        <ele>1624.1999511719</ele>
        <time>2016-07-18T08:23:11.000Z</time>
      </trkpt>
      <trkpt lat="44.36101" lon="6.39025">
        <ele>1625.8000488281</ele>
        <time>2016-07-18T08:23:18.000Z</time>
      </trkpt>
      <trkpt lat="44.3611" lon="6.39028">
        <ele>1628</ele>
        <time>2016-07-18T08:23:25.000Z</time>
      </trkpt>
      <trkpt lat="44.36123" lon="6.39035">
        <ele>1631.4000244141</ele>
        <time>2016-07-18T08:23:35.000Z</time>
      </trkpt>
      <trkpt lat="44.36134" lon="6.39031">
        <ele>1632.8000488281</ele>
        <time>2016-07-18T08:23:42.000Z</time>
      </trkpt>
      <trkpt lat="44.36146" lon="6.39029">
        <ele>1634.8000488281</ele>
        <time>2016-07-18T08:23:50.000Z</time>
      </trkpt>
      <trkpt lat="44.36154" lon="6.39031">
        <ele>1636.8000488281</ele>
        <time>2016-07-18T08:23:57.000Z</time>
      </trkpt>
      <trkpt lat="44.36162" lon="6.39029">
        <ele>1638</ele>
        <time>2016-07-18T08:24:03.000Z</time>
      </trkpt>
      <trkpt lat="44.36171" lon="6.39023">
        <ele>1638.4000244141</ele>
        <time>2016-07-18T08:24:10.000Z</time>
      </trkpt>
      <trkpt lat="44.36181" lon="6.39018">
        <ele>1639</ele>
        <time>2016-07-18T08:24:19.000Z</time>
      </trkpt>
      <trkpt lat="44.3619" lon="6.39019">
        <ele>1640.5999755859</ele>
        <time>2016-07-18T08:24:25.000Z</time>
      </trkpt>
      <trkpt lat="44.36201" lon="6.39024">
        <ele>1642.8000488281</ele>
        <time>2016-07-18T08:24:34.000Z</time>
      </trkpt>
      <trkpt lat="44.36213" lon="6.39033">
        <ele>1644.5999755859</ele>
        <time>2016-07-18T08:24:44.000Z</time>
      </trkpt>
      <trkpt lat="44.36214" lon="6.39035">
        <ele>1645</ele>
        <time>2016-07-18T08:24:46.000Z</time>
      </trkpt>
      <trkpt lat="44.36219" lon="6.3904">
        <ele>1646</ele>
        <time>2016-07-18T08:24:50.000Z</time>
      </trkpt>
      <trkpt lat="44.36226" lon="6.39049">
        <ele>1647.8000488281</ele>
        <time>2016-07-18T08:24:57.000Z</time>
      </trkpt>
      <trkpt lat="44.36234" lon="6.39057">
        <ele>1649.5999755859</ele>
        <time>2016-07-18T08:25:04.000Z</time>
      </trkpt>
      <trkpt lat="44.36241" lon="6.39063">
        <ele>1650.8000488281</ele>
        <time>2016-07-18T08:25:10.000Z</time>
      </trkpt>
      <trkpt lat="44.36252" lon="6.39071">
        <ele>1652.1999511719</ele>
        <time>2016-07-18T08:25:19.000Z</time>
      </trkpt>
      <trkpt lat="44.36257" lon="6.39077">
        <ele>1653</ele>
        <time>2016-07-18T08:25:24.000Z</time>
      </trkpt>
      <trkpt lat="44.36266" lon="6.39084">
        <ele>1654.1999511719</ele>
        <time>2016-07-18T08:25:32.000Z</time>
      </trkpt>
      <trkpt lat="44.36271" lon="6.39091">
        <ele>1655.1999511719</ele>
        <time>2016-07-18T08:25:37.000Z</time>
      </trkpt>
      <trkpt lat="44.36276" lon="6.39094">
        <ele>1655.5999755859</ele>
        <time>2016-07-18T08:25:41.000Z</time>
      </trkpt>
      <trkpt lat="44.36286" lon="6.39103">
        <ele>1657</ele>
        <time>2016-07-18T08:25:49.000Z</time>
      </trkpt>
      <trkpt lat="44.363" lon="6.39113">
        <ele>1658.5999755859</ele>
        <time>2016-07-18T08:26:00.000Z</time>
      </trkpt>
      <trkpt lat="44.36309" lon="6.39122">
        <ele>1659.8000488281</ele>
        <time>2016-07-18T08:26:07.000Z</time>
      </trkpt>
      <trkpt lat="44.3632" lon="6.39133">
        <ele>1661.4000244141</ele>
        <time>2016-07-18T08:26:18.000Z</time>
      </trkpt>
      <trkpt lat="44.36326" lon="6.39139">
        <ele>1662.4000244141</ele>
        <time>2016-07-18T08:26:24.000Z</time>
      </trkpt>
      <trkpt lat="44.36327" lon="6.3914">
        <ele>1662.5999755859</ele>
        <time>2016-07-18T08:26:25.000Z</time>
      </trkpt>
      <trkpt lat="44.36334" lon="6.39147">
        <ele>1663.4000244141</ele>
        <time>2016-07-18T08:26:30.000Z</time>
      </trkpt>
      <trkpt lat="44.36335" lon="6.39147">
        <ele>1663.5999755859</ele>
        <time>2016-07-18T08:26:31.000Z</time>
      </trkpt>
      <trkpt lat="44.36342" lon="6.39153">
        <ele>1665.1999511719</ele>
        <time>2016-07-18T08:26:38.000Z</time>
      </trkpt>
      <trkpt lat="44.36349" lon="6.39159">
        <ele>1666.5999755859</ele>
        <time>2016-07-18T08:26:44.000Z</time>
      </trkpt>
      <trkpt lat="44.36354" lon="6.39163">
        <ele>1667.8000488281</ele>
        <time>2016-07-18T08:26:50.000Z</time>
      </trkpt>
      <trkpt lat="44.36355" lon="6.39163">
        <ele>1667.8000488281</ele>
        <time>2016-07-18T08:26:51.000Z</time>
      </trkpt>
      <trkpt lat="44.36358" lon="6.39165">
        <ele>1668.4000244141</ele>
        <time>2016-07-18T08:26:54.000Z</time>
      </trkpt>
      <trkpt lat="44.36368" lon="6.3917">
        <ele>1669.8000488281</ele>
        <time>2016-07-18T08:27:01.000Z</time>
      </trkpt>
      <trkpt lat="44.36369" lon="6.3917">
        <ele>1670</ele>
        <time>2016-07-18T08:27:02.000Z</time>
      </trkpt>
      <trkpt lat="44.36377" lon="6.39173">
        <ele>1671</ele>
        <time>2016-07-18T08:27:09.000Z</time>
      </trkpt>
      <trkpt lat="44.36388" lon="6.39172">
        <ele>1671.4000244141</ele>
        <time>2016-07-18T08:27:16.000Z</time>
      </trkpt>
      <trkpt lat="44.36395" lon="6.39173">
        <ele>1672</ele>
        <time>2016-07-18T08:27:21.000Z</time>
      </trkpt>
      <trkpt lat="44.36405" lon="6.39173">
        <ele>1672.1999511719</ele>
        <time>2016-07-18T08:27:28.000Z</time>
      </trkpt>
      <trkpt lat="44.36414" lon="6.39177">
        <ele>1673.5999755859</ele>
        <time>2016-07-18T08:27:35.000Z</time>
      </trkpt>
      <trkpt lat="44.36423" lon="6.39185">
        <ele>1676.1999511719</ele>
        <time>2016-07-18T08:27:43.000Z</time>
      </trkpt>
      <trkpt lat="44.36434" lon="6.39193">
        <ele>1678.8000488281</ele>
        <time>2016-07-18T08:27:52.000Z</time>
      </trkpt>
      <trkpt lat="44.36442" lon="6.39204">
        <ele>1682.1999511719</ele>
        <time>2016-07-18T08:28:02.000Z</time>
      </trkpt>
      <trkpt lat="44.36446" lon="6.39211">
        <ele>1684.4000244141</ele>
        <time>2016-07-18T08:28:06.000Z</time>
      </trkpt>
      <trkpt lat="44.36448" lon="6.39216">
        <ele>1685.8000488281</ele>
        <time>2016-07-18T08:28:10.000Z</time>
      </trkpt>
      <trkpt lat="44.36456" lon="6.39223">
        <ele>1687.5999755859</ele>
        <time>2016-07-18T08:28:17.000Z</time>
      </trkpt>
      <trkpt lat="44.36465" lon="6.39223">
        <ele>1687.4000244141</ele>
        <time>2016-07-18T08:28:24.000Z</time>
      </trkpt>
      <trkpt lat="44.36473" lon="6.39219">
        <ele>1686.1999511719</ele>
        <time>2016-07-18T08:28:30.000Z</time>
      </trkpt>
      <trkpt lat="44.36482" lon="6.39212">
        <ele>1684.1999511719</ele>
        <time>2016-07-18T08:28:38.000Z</time>
      </trkpt>
      <trkpt lat="44.36491" lon="6.39207">
        <ele>1682.5999755859</ele>
        <time>2016-07-18T08:28:45.000Z</time>
      </trkpt>
      <trkpt lat="44.36503" lon="6.39207">
        <ele>1682.4000244141</ele>
        <time>2016-07-18T08:28:54.000Z</time>
      </trkpt>
      <trkpt lat="44.36509" lon="6.39212">
        <ele>1683.8000488281</ele>
        <time>2016-07-18T08:28:59.000Z</time>
      </trkpt>
      <trkpt lat="44.36513" lon="6.39225">
        <ele>1687.4000244141</ele>
        <time>2016-07-18T08:29:08.000Z</time>
      </trkpt>
      <trkpt lat="44.36517" lon="6.39228">
        <ele>1688.1999511719</ele>
        <time>2016-07-18T08:29:12.000Z</time>
      </trkpt>
      <trkpt lat="44.36524" lon="6.39225">
        <ele>1687.1999511719</ele>
        <time>2016-07-18T08:29:19.000Z</time>
      </trkpt>
      <trkpt lat="44.36531" lon="6.39218">
        <ele>1686</ele>
        <time>2016-07-18T08:29:26.000Z</time>
      </trkpt>
      <trkpt lat="44.36537" lon="6.39213">
        <ele>1685</ele>
        <time>2016-07-18T08:29:32.000Z</time>
      </trkpt>
      <trkpt lat="44.36545" lon="6.39209">
        <ele>1684.4000244141</ele>
        <time>2016-07-18T08:29:40.000Z</time>
      </trkpt>
      <trkpt lat="44.36551" lon="6.39209">
        <ele>1684.5999755859</ele>
        <time>2016-07-18T08:29:45.000Z</time>
      </trkpt>
      <trkpt lat="44.36554" lon="6.3921">
        <ele>1685</ele>
        <time>2016-07-18T08:29:47.000Z</time>
      </trkpt>
      <trkpt lat="44.3656" lon="6.39219">
        <ele>1687</ele>
        <time>2016-07-18T08:29:54.000Z</time>
      </trkpt>
      <trkpt lat="44.36565" lon="6.39228">
        <ele>1689.4000244141</ele>
        <time>2016-07-18T08:29:59.000Z</time>
      </trkpt>
      <trkpt lat="44.3657" lon="6.39238">
        <ele>1691.5999755859</ele>
        <time>2016-07-18T08:30:06.000Z</time>
      </trkpt>
      <trkpt lat="44.36572" lon="6.39245">
        <ele>1692.8000488281</ele>
        <time>2016-07-18T08:30:10.000Z</time>
      </trkpt>
      <trkpt lat="44.36574" lon="6.39256">
        <ele>1694.8000488281</ele>
        <time>2016-07-18T08:30:17.000Z</time>
      </trkpt>
      <trkpt lat="44.36574" lon="6.39259">
        <ele>1695.5999755859</ele>
        <time>2016-07-18T08:30:19.000Z</time>
      </trkpt>
      <trkpt lat="44.36576" lon="6.39267">
        <ele>1697</ele>
        <time>2016-07-18T08:30:26.000Z</time>
      </trkpt>
      <trkpt lat="44.36576" lon="6.39268">
        <ele>1697.1999511719</ele>
        <time>2016-07-18T08:30:27.000Z</time>
      </trkpt>
      <trkpt lat="44.36577" lon="6.39269">
        <ele>1697.4000244141</ele>
        <time>2016-07-18T08:30:28.000Z</time>
      </trkpt>
      <trkpt lat="44.36586" lon="6.39281">
        <ele>1699.8000488281</ele>
        <time>2016-07-18T08:30:35.000Z</time>
      </trkpt>
      <trkpt lat="44.36593" lon="6.39283">
        <ele>1700.5999755859</ele>
        <time>2016-07-18T08:30:41.000Z</time>
      </trkpt>
      <trkpt lat="44.36601" lon="6.39271">
        <ele>1698.5999755859</ele>
        <time>2016-07-18T08:30:52.000Z</time>
      </trkpt>
      <trkpt lat="44.36605" lon="6.39274">
        <ele>1699.1999511719</ele>
        <time>2016-07-18T08:30:56.000Z</time>
      </trkpt>
      <trkpt lat="44.3661" lon="6.39282">
        <ele>1701</ele>
        <time>2016-07-18T08:31:03.000Z</time>
      </trkpt>
      <trkpt lat="44.36611" lon="6.39282">
        <ele>1701</ele>
        <time>2016-07-18T08:31:04.000Z</time>
      </trkpt>
      <trkpt lat="44.3662" lon="6.3928">
        <ele>1701.5999755859</ele>
        <time>2016-07-18T08:31:11.000Z</time>
      </trkpt>
      <trkpt lat="44.36625" lon="6.39276">
        <ele>1701.8000488281</ele>
        <time>2016-07-18T08:31:16.000Z</time>
      </trkpt>
      <trkpt lat="44.36633" lon="6.39271">
        <ele>1702.1999511719</ele>
        <time>2016-07-18T08:31:24.000Z</time>
      </trkpt>
      <trkpt lat="44.3664" lon="6.39264">
        <ele>1702.1999511719</ele>
        <time>2016-07-18T08:31:31.000Z</time>
      </trkpt>
      <trkpt lat="44.36642" lon="6.39262">
        <ele>1702</ele>
        <time>2016-07-18T08:31:33.000Z</time>
      </trkpt>
      <trkpt lat="44.36646" lon="6.39258">
        <ele>1702.1999511719</ele>
        <time>2016-07-18T08:31:37.000Z</time>
      </trkpt>
      <trkpt lat="44.36656" lon="6.39243">
        <ele>1702.1999511719</ele>
        <time>2016-07-18T08:31:46.000Z</time>
      </trkpt>
      <trkpt lat="44.36665" lon="6.39234">
        <ele>1702.8000488281</ele>
        <time>2016-07-18T08:31:55.000Z</time>
      </trkpt>
      <trkpt lat="44.36673" lon="6.39229">
        <ele>1703.5999755859</ele>
        <time>2016-07-18T08:32:01.000Z</time>
      </trkpt>
      <trkpt lat="44.36684" lon="6.39213">
        <ele>1703.8000488281</ele>
        <time>2016-07-18T08:32:15.000Z</time>
      </trkpt>
      <trkpt lat="44.36687" lon="6.39204">
        <ele>1704</ele>
        <time>2016-07-18T08:32:21.000Z</time>
      </trkpt>
      <trkpt lat="44.3669" lon="6.39196">
        <ele>1704.1999511719</ele>
        <time>2016-07-18T08:32:27.000Z</time>
      </trkpt>
      <trkpt lat="44.36695" lon="6.39196">
        <ele>1705.4000244141</ele>
        <time>2016-07-18T08:32:30.000Z</time>
      </trkpt>
      <trkpt lat="44.36704" lon="6.39194">
        <ele>1706.5999755859</ele>
        <time>2016-07-18T08:32:38.000Z</time>
      </trkpt>
      <trkpt lat="44.36713" lon="6.39195">
        <ele>1707.5999755859</ele>
        <time>2016-07-18T08:32:45.000Z</time>
      </trkpt>
      <trkpt lat="44.36718" lon="6.39196">
        <ele>1708.1999511719</ele>
        <time>2016-07-18T08:32:49.000Z</time>
      </trkpt>
      <trkpt lat="44.36727" lon="6.392">
        <ele>1709.5999755859</ele>
        <time>2016-07-18T08:32:56.000Z</time>
      </trkpt>
      <trkpt lat="44.36741" lon="6.39202">
        <ele>1711.1999511719</ele>
        <time>2016-07-18T08:33:06.000Z</time>
      </trkpt>
      <trkpt lat="44.36754" lon="6.39206">
        <ele>1713</ele>
        <time>2016-07-18T08:33:15.000Z</time>
      </trkpt>
      <trkpt lat="44.36765" lon="6.39213">
        <ele>1714.8000488281</ele>
        <time>2016-07-18T08:33:23.000Z</time>
      </trkpt>
      <trkpt lat="44.36776" lon="6.3922">
        <ele>1716.5999755859</ele>
        <time>2016-07-18T08:33:33.000Z</time>
      </trkpt>
      <trkpt lat="44.36788" lon="6.39227">
        <ele>1718.1999511719</ele>
        <time>2016-07-18T08:33:42.000Z</time>
      </trkpt>
      <trkpt lat="44.36813" lon="6.39243">
        <ele>1722.1999511719</ele>
        <time>2016-07-18T08:34:02.000Z</time>
      </trkpt>
      <trkpt lat="44.36827" lon="6.3925">
        <ele>1724.1999511719</ele>
        <time>2016-07-18T08:34:13.000Z</time>
      </trkpt>
      <trkpt lat="44.36839" lon="6.39251">
        <ele>1725.4000244141</ele>
        <time>2016-07-18T08:34:21.000Z</time>
      </trkpt>
      <trkpt lat="44.36847" lon="6.39251">
        <ele>1726.1999511719</ele>
        <time>2016-07-18T08:34:27.000Z</time>
      </trkpt>
      <trkpt lat="44.36848" lon="6.39251">
        <ele>1726.1999511719</ele>
        <time>2016-07-18T08:34:32.000Z</time>
      </trkpt>
      <trkpt lat="44.36856" lon="6.39249">
        <ele>1726.5999755859</ele>
        <time>2016-07-18T08:34:39.000Z</time>
      </trkpt>
      <trkpt lat="44.36869" lon="6.39248">
        <ele>1727.8000488281</ele>
        <time>2016-07-18T08:34:49.000Z</time>
      </trkpt>
      <trkpt lat="44.3688" lon="6.39253">
        <ele>1729.5999755859</ele>
        <time>2016-07-18T08:34:57.000Z</time>
      </trkpt>
      <trkpt lat="44.36884" lon="6.39256">
        <ele>1730.5999755859</ele>
        <time>2016-07-18T08:35:03.000Z</time>
      </trkpt>
      <trkpt lat="44.36893" lon="6.39261">
        <ele>1732.4000244141</ele>
        <time>2016-07-18T08:35:11.000Z</time>
      </trkpt>
      <trkpt lat="44.36905" lon="6.39265">
        <ele>1734.4000244141</ele>
        <time>2016-07-18T08:35:20.000Z</time>
      </trkpt>
      <trkpt lat="44.36911" lon="6.39265">
        <ele>1735.1999511719</ele>
        <time>2016-07-18T08:35:26.000Z</time>
      </trkpt>
      <trkpt lat="44.3692" lon="6.39261">
        <ele>1736.1999511719</ele>
        <time>2016-07-18T08:35:33.000Z</time>
      </trkpt>
      <trkpt lat="44.3693" lon="6.39255">
        <ele>1737</ele>
        <time>2016-07-18T08:35:41.000Z</time>
      </trkpt>
      <trkpt lat="44.36939" lon="6.39252">
        <ele>1738</ele>
        <time>2016-07-18T08:35:48.000Z</time>
      </trkpt>
      <trkpt lat="44.3694" lon="6.39253">
        <ele>1738.1999511719</ele>
        <time>2016-07-18T08:35:49.000Z</time>
      </trkpt>
      <trkpt lat="44.36947" lon="6.39249">
        <ele>1738.5999755859</ele>
        <time>2016-07-18T08:35:56.000Z</time>
      </trkpt>
      <trkpt lat="44.36948" lon="6.39248">
        <ele>1738.8000488281</ele>
        <time>2016-07-18T08:35:57.000Z</time>
      </trkpt>
      <trkpt lat="44.36956" lon="6.39236">
        <ele>1739</ele>
        <time>2016-07-18T08:36:05.000Z</time>
      </trkpt>
      <trkpt lat="44.36961" lon="6.39225">
        <ele>1738.1999511719</ele>
        <time>2016-07-18T08:36:12.000Z</time>
      </trkpt>
      <trkpt lat="44.36972" lon="6.39212">
        <ele>1737.8000488281</ele>
        <time>2016-07-18T08:36:22.000Z</time>
      </trkpt>
      <trkpt lat="44.36981" lon="6.39207">
        <ele>1738.5999755859</ele>
        <time>2016-07-18T08:36:29.000Z</time>
      </trkpt>
      <trkpt lat="44.3699" lon="6.39203">
        <ele>1739.4000244141</ele>
        <time>2016-07-18T08:36:36.000Z</time>
      </trkpt>
      <trkpt lat="44.37001" lon="6.39198">
        <ele>1740.5999755859</ele>
        <time>2016-07-18T08:36:44.000Z</time>
      </trkpt>
      <trkpt lat="44.37013" lon="6.39192">
        <ele>1742.8000488281</ele>
        <time>2016-07-18T08:36:53.000Z</time>
      </trkpt>
      <trkpt lat="44.3702" lon="6.39186">
        <ele>1743.8000488281</ele>
        <time>2016-07-18T08:37:00.000Z</time>
      </trkpt>
      <trkpt lat="44.37028" lon="6.3918">
        <ele>1745.1999511719</ele>
        <time>2016-07-18T08:37:07.000Z</time>
      </trkpt>
      <trkpt lat="44.37037" lon="6.39176">
        <ele>1746.5999755859</ele>
        <time>2016-07-18T08:37:15.000Z</time>
      </trkpt>
      <trkpt lat="44.37038" lon="6.39174">
        <ele>1746.5999755859</ele>
        <time>2016-07-18T08:37:16.000Z</time>
      </trkpt>
      <trkpt lat="44.37042" lon="6.39171">
        <ele>1747</ele>
        <time>2016-07-18T08:37:20.000Z</time>
      </trkpt>
      <trkpt lat="44.37053" lon="6.39166">
        <ele>1748.4000244141</ele>
        <time>2016-07-18T08:37:29.000Z</time>
      </trkpt>
      <trkpt lat="44.37061" lon="6.39163">
        <ele>1749.5999755859</ele>
        <time>2016-07-18T08:37:36.000Z</time>
      </trkpt>
      <trkpt lat="44.37069" lon="6.39161">
        <ele>1750.8000488281</ele>
        <time>2016-07-18T08:37:42.000Z</time>
      </trkpt>
      <trkpt lat="44.3708" lon="6.39158">
        <ele>1752.8000488281</ele>
        <time>2016-07-18T08:37:50.000Z</time>
      </trkpt>
      <trkpt lat="44.3709" lon="6.39151">
        <ele>1753.8000488281</ele>
        <time>2016-07-18T08:37:57.000Z</time>
      </trkpt>
      <trkpt lat="44.37101" lon="6.39146">
        <ele>1755.1999511719</ele>
        <time>2016-07-18T08:38:05.000Z</time>
      </trkpt>
      <trkpt lat="44.37108" lon="6.39141">
        <ele>1755.8000488281</ele>
        <time>2016-07-18T08:38:11.000Z</time>
      </trkpt>
      <trkpt lat="44.37117" lon="6.39138">
        <ele>1757</ele>
        <time>2016-07-18T08:38:17.000Z</time>
      </trkpt>
      <trkpt lat="44.37127" lon="6.39136">
        <ele>1758.4000244141</ele>
        <time>2016-07-18T08:38:24.000Z</time>
      </trkpt>
      <trkpt lat="44.37138" lon="6.39134">
        <ele>1760</ele>
        <time>2016-07-18T08:38:32.000Z</time>
      </trkpt>
      <trkpt lat="44.37148" lon="6.3913">
        <ele>1761.1999511719</ele>
        <time>2016-07-18T08:38:40.000Z</time>
      </trkpt>
      <trkpt lat="44.37161" lon="6.39131">
        <ele>1763.5999755859</ele>
        <time>2016-07-18T08:38:49.000Z</time>
      </trkpt>
      <trkpt lat="44.37169" lon="6.39136">
        <ele>1765.5999755859</ele>
        <time>2016-07-18T08:38:56.000Z</time>
      </trkpt>
      <trkpt lat="44.3717" lon="6.39137">
        <ele>1765.8000488281</ele>
        <time>2016-07-18T08:38:57.000Z</time>
      </trkpt>
      <trkpt lat="44.37174" lon="6.39139">
        <ele>1766.8000488281</ele>
        <time>2016-07-18T08:39:00.000Z</time>
      </trkpt>
      <trkpt lat="44.37187" lon="6.39148">
        <ele>1770.1999511719</ele>
        <time>2016-07-18T08:39:12.000Z</time>
      </trkpt>
      <trkpt lat="44.37192" lon="6.39155">
        <ele>1772.4000244141</ele>
        <time>2016-07-18T08:39:18.000Z</time>
      </trkpt>
      <trkpt lat="44.37201" lon="6.39163">
        <ele>1775.1999511719</ele>
        <time>2016-07-18T08:39:26.000Z</time>
      </trkpt>
      <trkpt lat="44.37212" lon="6.39165">
        <ele>1776.4000244141</ele>
        <time>2016-07-18T08:39:35.000Z</time>
      </trkpt>
      <trkpt lat="44.37219" lon="6.39167">
        <ele>1777</ele>
        <time>2016-07-18T08:39:41.000Z</time>
      </trkpt>
      <trkpt lat="44.3722" lon="6.39167">
        <ele>1777</ele>
        <time>2016-07-18T08:39:49.000Z</time>
      </trkpt>
      <trkpt lat="44.37224" lon="6.39167">
        <ele>1777.1999511719</ele>
        <time>2016-07-18T08:40:06.000Z</time>
      </trkpt>
      <trkpt lat="44.37239" lon="6.39169">
        <ele>1777.8000488281</ele>
        <time>2016-07-18T08:40:17.000Z</time>
      </trkpt>
      <trkpt lat="44.37248" lon="6.3917">
        <ele>1778.4000244141</ele>
        <time>2016-07-18T08:40:24.000Z</time>
      </trkpt>
      <trkpt lat="44.37257" lon="6.39171">
        <ele>1779</ele>
        <time>2016-07-18T08:40:31.000Z</time>
      </trkpt>
      <trkpt lat="44.37264" lon="6.39172">
        <ele>1779.1999511719</ele>
        <time>2016-07-18T08:40:38.000Z</time>
      </trkpt>
      <trkpt lat="44.37273" lon="6.39168">
        <ele>1778.4000244141</ele>
        <time>2016-07-18T08:40:46.000Z</time>
      </trkpt>
      <trkpt lat="44.37275" lon="6.39167">
        <ele>1778.4000244141</ele>
        <time>2016-07-18T08:40:47.000Z</time>
      </trkpt>
      <trkpt lat="44.37281" lon="6.39162">
        <ele>1777.1999511719</ele>
        <time>2016-07-18T08:40:52.000Z</time>
      </trkpt>
      <trkpt lat="44.37289" lon="6.39156">
        <ele>1778</ele>
        <time>2016-07-18T08:40:59.000Z</time>
      </trkpt>
      <trkpt lat="44.3729" lon="6.39155">
        <ele>1778.1999511719</ele>
        <time>2016-07-18T08:41:00.000Z</time>
      </trkpt>
      <trkpt lat="44.37291" lon="6.39154">
        <ele>1778</ele>
        <time>2016-07-18T08:41:01.000Z</time>
      </trkpt>
      <trkpt lat="44.37301" lon="6.39144">
        <ele>1778.5999755859</ele>
        <time>2016-07-18T08:41:10.000Z</time>
      </trkpt>
      <trkpt lat="44.37303" lon="6.39142">
        <ele>1778.8000488281</ele>
        <time>2016-07-18T08:41:12.000Z</time>
      </trkpt>
      <trkpt lat="44.37308" lon="6.39135">
        <ele>1779.4000244141</ele>
        <time>2016-07-18T08:41:19.000Z</time>
      </trkpt>
      <trkpt lat="44.3731" lon="6.39134">
        <ele>1779.5999755859</ele>
        <time>2016-07-18T08:41:20.000Z</time>
      </trkpt>
      <trkpt lat="44.37318" lon="6.39126">
        <ele>1781</ele>
        <time>2016-07-18T08:41:28.000Z</time>
      </trkpt>
      <trkpt lat="44.37327" lon="6.39119">
        <ele>1782.1999511719</ele>
        <time>2016-07-18T08:41:35.000Z</time>
      </trkpt>
      <trkpt lat="44.37332" lon="6.39115">
        <ele>1783.1999511719</ele>
        <time>2016-07-18T08:41:40.000Z</time>
      </trkpt>
      <trkpt lat="44.37334" lon="6.39113">
        <ele>1783</ele>
        <time>2016-07-18T08:41:42.000Z</time>
      </trkpt>
      <trkpt lat="44.37341" lon="6.39108">
        <ele>1782.8000488281</ele>
        <time>2016-07-18T08:41:49.000Z</time>
      </trkpt>
      <trkpt lat="44.37351" lon="6.39102">
        <ele>1782.8000488281</ele>
        <time>2016-07-18T08:41:59.000Z</time>
      </trkpt>
      <trkpt lat="44.3736" lon="6.39099">
        <ele>1783.1999511719</ele>
        <time>2016-07-18T08:42:05.000Z</time>
      </trkpt>
      <trkpt lat="44.37369" lon="6.39095">
        <ele>1784.1999511719</ele>
        <time>2016-07-18T08:42:12.000Z</time>
      </trkpt>
      <trkpt lat="44.3738" lon="6.39092">
        <ele>1786.1999511719</ele>
        <time>2016-07-18T08:42:20.000Z</time>
      </trkpt>
      <trkpt lat="44.37386" lon="6.39091">
        <ele>1787.5999755859</ele>
        <time>2016-07-18T08:42:26.000Z</time>
      </trkpt>
      <trkpt lat="44.37396" lon="6.39089">
        <ele>1789.1999511719</ele>
        <time>2016-07-18T08:42:34.000Z</time>
      </trkpt>
      <trkpt lat="44.37407" lon="6.39088">
        <ele>1790.5999755859</ele>
        <time>2016-07-18T08:42:42.000Z</time>
      </trkpt>
      <trkpt lat="44.37413" lon="6.39088">
        <ele>1791.8000488281</ele>
        <time>2016-07-18T08:42:47.000Z</time>
      </trkpt>
      <trkpt lat="44.3742" lon="6.39088">
        <ele>1793.1999511719</ele>
        <time>2016-07-18T08:42:52.000Z</time>
      </trkpt>
      <trkpt lat="44.37431" lon="6.39099">
        <ele>1798.5999755859</ele>
        <time>2016-07-18T08:43:03.000Z</time>
      </trkpt>
      <trkpt lat="44.37438" lon="6.39113">
        <ele>1804.1999511719</ele>
        <time>2016-07-18T08:43:13.000Z</time>
      </trkpt>
      <trkpt lat="44.37441" lon="6.39118">
        <ele>1806.4000244141</ele>
        <time>2016-07-18T08:43:17.000Z</time>
      </trkpt>
      <trkpt lat="44.37452" lon="6.3913">
        <ele>1811.1999511719</ele>
        <time>2016-07-18T08:43:26.000Z</time>
      </trkpt>
      <trkpt lat="44.37453" lon="6.39133">
        <ele>1811.8000488281</ele>
        <time>2016-07-18T08:43:28.000Z</time>
      </trkpt>
      <trkpt lat="44.37457" lon="6.39141">
        <ele>1814.1999511719</ele>
        <time>2016-07-18T08:43:34.000Z</time>
      </trkpt>
      <trkpt lat="44.37464" lon="6.3915">
        <ele>1816.4000244141</ele>
        <time>2016-07-18T08:43:40.000Z</time>
      </trkpt>
      <trkpt lat="44.37465" lon="6.39151">
        <ele>1816.8000488281</ele>
        <time>2016-07-18T08:43:41.000Z</time>
      </trkpt>
      <trkpt lat="44.37476" lon="6.39162">
        <ele>1819.5999755859</ele>
        <time>2016-07-18T08:43:51.000Z</time>
      </trkpt>
      <trkpt lat="44.37481" lon="6.39166">
        <ele>1820.4000244141</ele>
        <time>2016-07-18T08:43:59.000Z</time>
      </trkpt>
      <trkpt lat="44.37481" lon="6.39167">
        <ele>1820.8000488281</ele>
        <time>2016-07-18T08:44:03.000Z</time>
      </trkpt>
      <trkpt lat="44.37483" lon="6.39165">
        <ele>1820.1999511719</ele>
        <time>2016-07-18T08:44:10.000Z</time>
      </trkpt>
      <trkpt lat="44.37484" lon="6.39167">
        <ele>1820.5999755859</ele>
        <time>2016-07-18T08:44:17.000Z</time>
      </trkpt>
      <trkpt lat="44.37478" lon="6.39172">
        <ele>1822.5999755859</ele>
        <time>2016-07-18T08:45:04.000Z</time>
      </trkpt>
      <trkpt lat="44.37481" lon="6.39167">
        <ele>1821</ele>
        <time>2016-07-18T08:45:14.000Z</time>
      </trkpt>
      <trkpt lat="44.37481" lon="6.39166">
        <ele>1820.5999755859</ele>
        <time>2016-07-18T08:45:20.000Z</time>
      </trkpt>
      <trkpt lat="44.37478" lon="6.3917">
        <ele>1822</ele>
        <time>2016-07-18T08:45:26.000Z</time>
      </trkpt>
      <trkpt lat="44.37475" lon="6.39172">
        <ele>1822.8000488281</ele>
        <time>2016-07-18T08:45:32.000Z</time>
      </trkpt>
      <trkpt lat="44.37476" lon="6.39172">
        <ele>1822.5999755859</ele>
        <time>2016-07-18T08:45:45.000Z</time>
      </trkpt>
      <trkpt lat="44.37479" lon="6.3917">
        <ele>1822</ele>
        <time>2016-07-18T08:45:51.000Z</time>
      </trkpt>
      <trkpt lat="44.3748" lon="6.39173">
        <ele>1822.8000488281</ele>
        <time>2016-07-18T08:46:16.000Z</time>
      </trkpt>
      <trkpt lat="44.37478" lon="6.39174">
        <ele>1823.1999511719</ele>
        <time>2016-07-18T08:46:50.000Z</time>
      </trkpt>
      <trkpt lat="44.37481" lon="6.39176">
        <ele>1823.5999755859</ele>
        <time>2016-07-18T08:47:36.000Z</time>
      </trkpt>
      <trkpt lat="44.37483" lon="6.39172">
        <ele>1822.4000244141</ele>
        <time>2016-07-18T08:47:45.000Z</time>
      </trkpt>
      <trkpt lat="44.37498" lon="6.39157">
        <ele>1816.8000488281</ele>
        <time>2016-07-18T08:48:01.000Z</time>
      </trkpt>
      <trkpt lat="44.37502" lon="6.39151">
        <ele>1814.5999755859</ele>
        <time>2016-07-18T08:48:06.000Z</time>
      </trkpt>
      <trkpt lat="44.37507" lon="6.39141">
        <ele>1811.4000244141</ele>
        <time>2016-07-18T08:48:13.000Z</time>
      </trkpt>
      <trkpt lat="44.37512" lon="6.39129">
        <ele>1807</ele>
        <time>2016-07-18T08:48:22.000Z</time>
      </trkpt>
      <trkpt lat="44.37517" lon="6.39117">
        <ele>1804</ele>
        <time>2016-07-18T08:48:30.000Z</time>
      </trkpt>
      <trkpt lat="44.37523" lon="6.39108">
        <ele>1801.5999755859</ele>
        <time>2016-07-18T08:48:38.000Z</time>
      </trkpt>
      <trkpt lat="44.37526" lon="6.39105">
        <ele>1800.8000488281</ele>
        <time>2016-07-18T08:48:41.000Z</time>
      </trkpt>
      <trkpt lat="44.37533" lon="6.39099">
        <ele>1799.4000244141</ele>
        <time>2016-07-18T08:48:48.000Z</time>
      </trkpt>
      <trkpt lat="44.37545" lon="6.39092">
        <ele>1801.8000488281</ele>
        <time>2016-07-18T08:48:59.000Z</time>
      </trkpt>
      <trkpt lat="44.37552" lon="6.39088">
        <ele>1802.5999755859</ele>
        <time>2016-07-18T08:49:05.000Z</time>
      </trkpt>
      <trkpt lat="44.37552" lon="6.39087">
        <ele>1802.5999755859</ele>
        <time>2016-07-18T08:49:06.000Z</time>
      </trkpt>
      <trkpt lat="44.37558" lon="6.39087">
        <ele>1804.1999511719</ele>
        <time>2016-07-18T08:49:12.000Z</time>
      </trkpt>
      <trkpt lat="44.37569" lon="6.39087">
        <ele>1807.8000488281</ele>
        <time>2016-07-18T08:49:22.000Z</time>
      </trkpt>
      <trkpt lat="44.37572" lon="6.39088">
        <ele>1808.8000488281</ele>
        <time>2016-07-18T08:49:24.000Z</time>
      </trkpt>
      <trkpt lat="44.37576" lon="6.39085">
        <ele>1809.4000244141</ele>
        <time>2016-07-18T08:49:29.000Z</time>
      </trkpt>
      <trkpt lat="44.37582" lon="6.39076">
        <ele>1808.4000244141</ele>
        <time>2016-07-18T08:49:36.000Z</time>
      </trkpt>
      <trkpt lat="44.37584" lon="6.39071">
        <ele>1807.5999755859</ele>
        <time>2016-07-18T08:49:40.000Z</time>
      </trkpt>
      <trkpt lat="44.37588" lon="6.39065">
        <ele>1807.1999511719</ele>
        <time>2016-07-18T08:49:45.000Z</time>
      </trkpt>
      <trkpt lat="44.37595" lon="6.3906">
        <ele>1808.1999511719</ele>
        <time>2016-07-18T08:49:52.000Z</time>
      </trkpt>
      <trkpt lat="44.37602" lon="6.39057">
        <ele>1809.8000488281</ele>
        <time>2016-07-18T08:49:58.000Z</time>
      </trkpt>
      <trkpt lat="44.3761" lon="6.39057">
        <ele>1812</ele>
        <time>2016-07-18T08:50:05.000Z</time>
      </trkpt>
      <trkpt lat="44.37611" lon="6.39057">
        <ele>1812.1999511719</ele>
        <time>2016-07-18T08:50:06.000Z</time>
      </trkpt>
      <trkpt lat="44.37612" lon="6.39058">
        <ele>1812.8000488281</ele>
        <time>2016-07-18T08:50:08.000Z</time>
      </trkpt>
      <trkpt lat="44.37615" lon="6.39057">
        <ele>1813.1999511719</ele>
        <time>2016-07-18T08:50:12.000Z</time>
      </trkpt>
      <trkpt lat="44.37618" lon="6.39056">
        <ele>1813.5999755859</ele>
        <time>2016-07-18T08:50:21.000Z</time>
      </trkpt>
      <trkpt lat="44.3762" lon="6.39055">
        <ele>1813.8000488281</ele>
        <time>2016-07-18T08:50:26.000Z</time>
      </trkpt>
      <trkpt lat="44.37626" lon="6.39053">
        <ele>1814.8000488281</ele>
        <time>2016-07-18T08:50:32.000Z</time>
      </trkpt>
      <trkpt lat="44.37635" lon="6.39051">
        <ele>1816</ele>
        <time>2016-07-18T08:50:39.000Z</time>
      </trkpt>
      <trkpt lat="44.37641" lon="6.39051">
        <ele>1817.1999511719</ele>
        <time>2016-07-18T08:50:44.000Z</time>
      </trkpt>
      <trkpt lat="44.3765" lon="6.39051">
        <ele>1819.4000244141</ele>
        <time>2016-07-18T08:50:52.000Z</time>
      </trkpt>
      <trkpt lat="44.37652" lon="6.39051">
        <ele>1819.5999755859</ele>
        <time>2016-07-18T08:50:53.000Z</time>
      </trkpt>
      <trkpt lat="44.37659" lon="6.39048">
        <ele>1820.4000244141</ele>
        <time>2016-07-18T08:50:59.000Z</time>
      </trkpt>
      <trkpt lat="44.37668" lon="6.39042">
        <ele>1821</ele>
        <time>2016-07-18T08:51:06.000Z</time>
      </trkpt>
      <trkpt lat="44.37676" lon="6.39039">
        <ele>1822.4000244141</ele>
        <time>2016-07-18T08:51:14.000Z</time>
      </trkpt>
      <trkpt lat="44.37677" lon="6.39039">
        <ele>1822.4000244141</ele>
        <time>2016-07-18T08:51:15.000Z</time>
      </trkpt>
      <trkpt lat="44.37682" lon="6.39038">
        <ele>1823.1999511719</ele>
        <time>2016-07-18T08:51:19.000Z</time>
      </trkpt>
      <trkpt lat="44.37692" lon="6.39038">
        <ele>1825.5999755859</ele>
        <time>2016-07-18T08:51:28.000Z</time>
      </trkpt>
      <trkpt lat="44.377" lon="6.39037">
        <ele>1827.1999511719</ele>
        <time>2016-07-18T08:51:36.000Z</time>
      </trkpt>
      <trkpt lat="44.37701" lon="6.39037">
        <ele>1827.1999511719</ele>
        <time>2016-07-18T08:51:37.000Z</time>
      </trkpt>
      <trkpt lat="44.37707" lon="6.39038">
        <ele>1827.8000488281</ele>
        <time>2016-07-18T08:51:43.000Z</time>
      </trkpt>
      <trkpt lat="44.37709" lon="6.39038">
        <ele>1828</ele>
        <time>2016-07-18T08:51:45.000Z</time>
      </trkpt>
      <trkpt lat="44.37715" lon="6.39041">
        <ele>1828.8000488281</ele>
        <time>2016-07-18T08:51:52.000Z</time>
      </trkpt>
      <trkpt lat="44.37721" lon="6.39045">
        <ele>1830</ele>
        <time>2016-07-18T08:51:57.000Z</time>
      </trkpt>
      <trkpt lat="44.37723" lon="6.39046">
        <ele>1830.5999755859</ele>
        <time>2016-07-18T08:52:00.000Z</time>
      </trkpt>
      <trkpt lat="44.37727" lon="6.39048">
        <ele>1831.1999511719</ele>
        <time>2016-07-18T08:52:03.000Z</time>
      </trkpt>
      <trkpt lat="44.37729" lon="6.3905">
        <ele>1831.5999755859</ele>
        <time>2016-07-18T08:52:05.000Z</time>
      </trkpt>
      <trkpt lat="44.37733" lon="6.39055">
        <ele>1833</ele>
        <time>2016-07-18T08:52:11.000Z</time>
      </trkpt>
      <trkpt lat="44.3774" lon="6.39058">
        <ele>1834</ele>
        <time>2016-07-18T08:52:18.000Z</time>
      </trkpt>
      <trkpt lat="44.37746" lon="6.39059">
        <ele>1834.5999755859</ele>
        <time>2016-07-18T08:52:23.000Z</time>
      </trkpt>
      <trkpt lat="44.37752" lon="6.39063">
        <ele>1835.8000488281</ele>
        <time>2016-07-18T08:52:29.000Z</time>
      </trkpt>
      <trkpt lat="44.37753" lon="6.39064">
        <ele>1836</ele>
        <time>2016-07-18T08:52:30.000Z</time>
      </trkpt>
      <trkpt lat="44.37757" lon="6.39071">
        <ele>1838</ele>
        <time>2016-07-18T08:52:36.000Z</time>
      </trkpt>
      <trkpt lat="44.37758" lon="6.39076">
        <ele>1839.4000244141</ele>
        <time>2016-07-18T08:52:41.000Z</time>
      </trkpt>
      <trkpt lat="44.3776" lon="6.39083">
        <ele>1841.1999511719</ele>
        <time>2016-07-18T08:52:46.000Z</time>
      </trkpt>
      <trkpt lat="44.37761" lon="6.39084">
        <ele>1841.5999755859</ele>
        <time>2016-07-18T08:52:47.000Z</time>
      </trkpt>
      <trkpt lat="44.37761" lon="6.39086">
        <ele>1842.1999511719</ele>
        <time>2016-07-18T08:52:49.000Z</time>
      </trkpt>
      <trkpt lat="44.37764" lon="6.39093">
        <ele>1844</ele>
        <time>2016-07-18T08:52:55.000Z</time>
      </trkpt>
      <trkpt lat="44.37766" lon="6.39097">
        <ele>1845.1999511719</ele>
        <time>2016-07-18T08:52:59.000Z</time>
      </trkpt>
      <trkpt lat="44.37769" lon="6.391">
        <ele>1846</ele>
        <time>2016-07-18T08:53:01.000Z</time>
      </trkpt>
      <trkpt lat="44.37774" lon="6.39106">
        <ele>1847.8000488281</ele>
        <time>2016-07-18T08:53:07.000Z</time>
      </trkpt>
      <trkpt lat="44.37781" lon="6.39114">
        <ele>1850.4000244141</ele>
        <time>2016-07-18T08:53:14.000Z</time>
      </trkpt>
      <trkpt lat="44.37783" lon="6.39117">
        <ele>1850.8000488281</ele>
        <time>2016-07-18T08:53:16.000Z</time>
      </trkpt>
      <trkpt lat="44.37789" lon="6.39123">
        <ele>1851.1999511719</ele>
        <time>2016-07-18T08:53:21.000Z</time>
      </trkpt>
      <trkpt lat="44.37794" lon="6.39128">
        <ele>1851.8000488281</ele>
        <time>2016-07-18T08:53:27.000Z</time>
      </trkpt>
      <trkpt lat="44.37795" lon="6.39128">
        <ele>1851.5999755859</ele>
        <time>2016-07-18T08:53:36.000Z</time>
      </trkpt>
      <trkpt lat="44.37796" lon="6.39125">
        <ele>1850.5999755859</ele>
        <time>2016-07-18T08:53:55.000Z</time>
      </trkpt>
      <trkpt lat="44.37799" lon="6.39128">
        <ele>1850.8000488281</ele>
        <time>2016-07-18T08:54:08.000Z</time>
      </trkpt>
      <trkpt lat="44.37798" lon="6.39129">
        <ele>1851.4000244141</ele>
        <time>2016-07-18T08:54:09.000Z</time>
      </trkpt>
      <trkpt lat="44.37798" lon="6.39134">
        <ele>1852.5999755859</ele>
        <time>2016-07-18T08:54:13.000Z</time>
      </trkpt>
      <trkpt lat="44.37799" lon="6.39142">
        <ele>1854.4000244141</ele>
        <time>2016-07-18T08:54:19.000Z</time>
      </trkpt>
      <trkpt lat="44.37801" lon="6.39148">
        <ele>1855.5999755859</ele>
        <time>2016-07-18T08:54:24.000Z</time>
      </trkpt>
      <trkpt lat="44.37806" lon="6.39155">
        <ele>1857.1999511719</ele>
        <time>2016-07-18T08:54:31.000Z</time>
      </trkpt>
      <trkpt lat="44.37807" lon="6.3916">
        <ele>1858.4000244141</ele>
        <time>2016-07-18T08:54:35.000Z</time>
      </trkpt>
      <trkpt lat="44.37812" lon="6.39167">
        <ele>1859.8000488281</ele>
        <time>2016-07-18T08:54:41.000Z</time>
      </trkpt>
      <trkpt lat="44.37818" lon="6.39174">
        <ele>1861.1999511719</ele>
        <time>2016-07-18T08:54:47.000Z</time>
      </trkpt>
      <trkpt lat="44.37825" lon="6.39181">
        <ele>1862.4000244141</ele>
        <time>2016-07-18T08:54:53.000Z</time>
      </trkpt>
      <trkpt lat="44.37829" lon="6.39186">
        <ele>1863.1999511719</ele>
        <time>2016-07-18T08:54:57.000Z</time>
      </trkpt>
      <trkpt lat="44.37842" lon="6.39194">
        <ele>1863.8000488281</ele>
        <time>2016-07-18T08:55:08.000Z</time>
      </trkpt>
      <trkpt lat="44.37853" lon="6.39199">
        <ele>1863.5999755859</ele>
        <time>2016-07-18T08:55:16.000Z</time>
      </trkpt>
      <trkpt lat="44.37857" lon="6.39203">
        <ele>1864.1999511719</ele>
        <time>2016-07-18T08:55:21.000Z</time>
      </trkpt>
      <trkpt lat="44.37867" lon="6.39207">
        <ele>1864</ele>
        <time>2016-07-18T08:55:29.000Z</time>
      </trkpt>
      <trkpt lat="44.37876" lon="6.39207">
        <ele>1863</ele>
        <time>2016-07-18T08:55:37.000Z</time>
      </trkpt>
      <trkpt lat="44.37883" lon="6.39206">
        <ele>1862</ele>
        <time>2016-07-18T08:55:43.000Z</time>
      </trkpt>
      <trkpt lat="44.37892" lon="6.39204">
        <ele>1860.8000488281</ele>
        <time>2016-07-18T08:55:51.000Z</time>
      </trkpt>
      <trkpt lat="44.37907" lon="6.39204">
        <ele>1859.4000244141</ele>
        <time>2016-07-18T08:56:02.000Z</time>
      </trkpt>
      <trkpt lat="44.37921" lon="6.39202">
        <ele>1858</ele>
        <time>2016-07-18T08:56:13.000Z</time>
      </trkpt>
      <trkpt lat="44.37927" lon="6.392">
        <ele>1857.5999755859</ele>
        <time>2016-07-18T08:56:21.000Z</time>
      </trkpt>
      <trkpt lat="44.3793" lon="6.392">
        <ele>1857.5999755859</ele>
        <time>2016-07-18T08:57:10.000Z</time>
      </trkpt>
      <trkpt lat="44.37933" lon="6.39208">
        <ele>1859.4000244141</ele>
        <time>2016-07-18T08:58:10.000Z</time>
      </trkpt>
      <trkpt lat="44.37934" lon="6.39212">
        <ele>1860.1999511719</ele>
        <time>2016-07-18T08:58:40.000Z</time>
      </trkpt>
      <trkpt lat="44.37934" lon="6.39213">
        <ele>1860.5999755859</ele>
        <time>2016-07-18T08:58:51.000Z</time>
      </trkpt>
      <trkpt lat="44.37933" lon="6.39215">
        <ele>1861.1999511719</ele>
        <time>2016-07-18T08:59:10.000Z</time>
      </trkpt>
      <trkpt lat="44.37938" lon="6.39219">
        <ele>1862</ele>
        <time>2016-07-18T08:59:27.000Z</time>
      </trkpt>
      <trkpt lat="44.3795" lon="6.39214">
        <ele>1861.4000244141</ele>
        <time>2016-07-18T08:59:36.000Z</time>
      </trkpt>
      <trkpt lat="44.37963" lon="6.39211">
        <ele>1862.5999755859</ele>
        <time>2016-07-18T08:59:46.000Z</time>
      </trkpt>
      <trkpt lat="44.37964" lon="6.39211">
        <ele>1862.8000488281</ele>
        <time>2016-07-18T08:59:47.000Z</time>
      </trkpt>
      <trkpt lat="44.37971" lon="6.39214">
        <ele>1864.4000244141</ele>
        <time>2016-07-18T08:59:54.000Z</time>
      </trkpt>
      <trkpt lat="44.37977" lon="6.39218">
        <ele>1866.4000244141</ele>
        <time>2016-07-18T09:00:00.000Z</time>
      </trkpt>
      <trkpt lat="44.37989" lon="6.39225">
        <ele>1869.8000488281</ele>
        <time>2016-07-18T09:00:10.000Z</time>
      </trkpt>
      <trkpt lat="44.37996" lon="6.39225">
        <ele>1871.1999511719</ele>
        <time>2016-07-18T09:00:16.000Z</time>
      </trkpt>
      <trkpt lat="44.38003" lon="6.39223">
        <ele>1871.5999755859</ele>
        <time>2016-07-18T09:00:22.000Z</time>
      </trkpt>
      <trkpt lat="44.38009" lon="6.39215">
        <ele>1870.5999755859</ele>
        <time>2016-07-18T09:00:29.000Z</time>
      </trkpt>
      <trkpt lat="44.38016" lon="6.39203">
        <ele>1869</ele>
        <time>2016-07-18T09:00:37.000Z</time>
      </trkpt>
      <trkpt lat="44.38023" lon="6.39194">
        <ele>1867.8000488281</ele>
        <time>2016-07-18T09:00:45.000Z</time>
      </trkpt>
      <trkpt lat="44.3804" lon="6.39179">
        <ele>1867</ele>
        <time>2016-07-18T09:01:00.000Z</time>
      </trkpt>
      <trkpt lat="44.38046" lon="6.39174">
        <ele>1867.5999755859</ele>
        <time>2016-07-18T09:01:06.000Z</time>
      </trkpt>
      <trkpt lat="44.38053" lon="6.39171">
        <ele>1868.1999511719</ele>
        <time>2016-07-18T09:01:12.000Z</time>
      </trkpt>
      <trkpt lat="44.38062" lon="6.39168">
        <ele>1869.5999755859</ele>
        <time>2016-07-18T09:01:19.000Z</time>
      </trkpt>
      <trkpt lat="44.38065" lon="6.39167">
        <ele>1870</ele>
        <time>2016-07-18T09:01:21.000Z</time>
      </trkpt>
      <trkpt lat="44.38072" lon="6.39166">
        <ele>1871.1999511719</ele>
        <time>2016-07-18T09:01:27.000Z</time>
      </trkpt>
      <trkpt lat="44.38077" lon="6.39163">
        <ele>1871.8000488281</ele>
        <time>2016-07-18T09:01:31.000Z</time>
      </trkpt>
      <trkpt lat="44.38088" lon="6.39157">
        <ele>1872.8000488281</ele>
        <time>2016-07-18T09:01:40.000Z</time>
      </trkpt>
      <trkpt lat="44.38098" lon="6.3915">
        <ele>1873.5999755859</ele>
        <time>2016-07-18T09:01:48.000Z</time>
      </trkpt>
      <trkpt lat="44.38104" lon="6.39148">
        <ele>1874.5999755859</ele>
        <time>2016-07-18T09:01:53.000Z</time>
      </trkpt>
      <trkpt lat="44.38113" lon="6.39143">
        <ele>1875.4000244141</ele>
        <time>2016-07-18T09:02:01.000Z</time>
      </trkpt>
      <trkpt lat="44.3812" lon="6.39137">
        <ele>1876</ele>
        <time>2016-07-18T09:02:08.000Z</time>
      </trkpt>
      <trkpt lat="44.38121" lon="6.39136">
        <ele>1876.1999511719</ele>
        <time>2016-07-18T09:02:09.000Z</time>
      </trkpt>
      <trkpt lat="44.38126" lon="6.39132">
        <ele>1876.4000244141</ele>
        <time>2016-07-18T09:02:13.000Z</time>
      </trkpt>
      <trkpt lat="44.38132" lon="6.39128">
        <ele>1877</ele>
        <time>2016-07-18T09:02:17.000Z</time>
      </trkpt>
      <trkpt lat="44.38136" lon="6.39124">
        <ele>1877.1999511719</ele>
        <time>2016-07-18T09:02:21.000Z</time>
      </trkpt>
      <trkpt lat="44.38137" lon="6.39123">
        <ele>1877.1999511719</ele>
        <time>2016-07-18T09:02:22.000Z</time>
      </trkpt>
      <trkpt lat="44.38147" lon="6.39115">
        <ele>1878</ele>
        <time>2016-07-18T09:02:30.000Z</time>
      </trkpt>
      <trkpt lat="44.38157" lon="6.39112">
        <ele>1879.8000488281</ele>
        <time>2016-07-18T09:02:38.000Z</time>
      </trkpt>
      <trkpt lat="44.38168" lon="6.3911">
        <ele>1881.4000244141</ele>
        <time>2016-07-18T09:02:46.000Z</time>
      </trkpt>
      <trkpt lat="44.38177" lon="6.39107">
        <ele>1882.5999755859</ele>
        <time>2016-07-18T09:02:53.000Z</time>
      </trkpt>
      <trkpt lat="44.38186" lon="6.39102">
        <ele>1883</ele>
        <time>2016-07-18T09:03:01.000Z</time>
      </trkpt>
      <trkpt lat="44.38197" lon="6.39094">
        <ele>1883.1999511719</ele>
        <time>2016-07-18T09:03:10.000Z</time>
      </trkpt>
      <trkpt lat="44.38205" lon="6.39087">
        <ele>1883.8000488281</ele>
        <time>2016-07-18T09:03:18.000Z</time>
      </trkpt>
      <trkpt lat="44.38214" lon="6.39084">
        <ele>1885.8000488281</ele>
        <time>2016-07-18T09:03:25.000Z</time>
      </trkpt>
      <trkpt lat="44.38221" lon="6.3908">
        <ele>1886.4000244141</ele>
        <time>2016-07-18T09:03:31.000Z</time>
      </trkpt>
      <trkpt lat="44.38226" lon="6.39079">
        <ele>1887</ele>
        <time>2016-07-18T09:03:35.000Z</time>
      </trkpt>
      <trkpt lat="44.38232" lon="6.39078">
        <ele>1888.1999511719</ele>
        <time>2016-07-18T09:03:39.000Z</time>
      </trkpt>
      <trkpt lat="44.38234" lon="6.39077">
        <ele>1888.1999511719</ele>
        <time>2016-07-18T09:03:40.000Z</time>
      </trkpt>
      <trkpt lat="44.38246" lon="6.39076">
        <ele>1890.5999755859</ele>
        <time>2016-07-18T09:03:49.000Z</time>
      </trkpt>
      <trkpt lat="44.38262" lon="6.39074">
        <ele>1893.5999755859</ele>
        <time>2016-07-18T09:04:01.000Z</time>
      </trkpt>
      <trkpt lat="44.38273" lon="6.39075">
        <ele>1896.5999755859</ele>
        <time>2016-07-18T09:04:09.000Z</time>
      </trkpt>
      <trkpt lat="44.38287" lon="6.39079">
        <ele>1899.5999755859</ele>
        <time>2016-07-18T09:04:19.000Z</time>
      </trkpt>
      <trkpt lat="44.38298" lon="6.39083">
        <ele>1901</ele>
        <time>2016-07-18T09:04:28.000Z</time>
      </trkpt>
      <trkpt lat="44.38313" lon="6.39087">
        <ele>1902.1999511719</ele>
        <time>2016-07-18T09:04:38.000Z</time>
      </trkpt>
      <trkpt lat="44.38325" lon="6.39091">
        <ele>1903.5999755859</ele>
        <time>2016-07-18T09:04:47.000Z</time>
      </trkpt>
      <trkpt lat="44.38335" lon="6.39093">
        <ele>1904.1999511719</ele>
        <time>2016-07-18T09:04:55.000Z</time>
      </trkpt>
      <trkpt lat="44.38351" lon="6.39091">
        <ele>1903.5999755859</ele>
        <time>2016-07-18T09:05:07.000Z</time>
      </trkpt>
      <trkpt lat="44.38362" lon="6.3909">
        <ele>1903</ele>
        <time>2016-07-18T09:05:16.000Z</time>
      </trkpt>
      <trkpt lat="44.38371" lon="6.39091">
        <ele>1903.5999755859</ele>
        <time>2016-07-18T09:05:22.000Z</time>
      </trkpt>
      <trkpt lat="44.38381" lon="6.39095">
        <ele>1905</ele>
        <time>2016-07-18T09:05:30.000Z</time>
      </trkpt>
      <trkpt lat="44.38389" lon="6.39101">
        <ele>1907</ele>
        <time>2016-07-18T09:05:38.000Z</time>
      </trkpt>
      <trkpt lat="44.38396" lon="6.39104">
        <ele>1908.1999511719</ele>
        <time>2016-07-18T09:05:45.000Z</time>
      </trkpt>
      <trkpt lat="44.38403" lon="6.39105">
        <ele>1908.4000244141</ele>
        <time>2016-07-18T09:05:51.000Z</time>
      </trkpt>
      <trkpt lat="44.38411" lon="6.39102">
        <ele>1907.4000244141</ele>
        <time>2016-07-18T09:05:57.000Z</time>
      </trkpt>
      <trkpt lat="44.38426" lon="6.39099">
        <ele>1906.1999511719</ele>
        <time>2016-07-18T09:06:08.000Z</time>
      </trkpt>
      <trkpt lat="44.38442" lon="6.39098">
        <ele>1905.5999755859</ele>
        <time>2016-07-18T09:06:19.000Z</time>
      </trkpt>
      <trkpt lat="44.38458" lon="6.39097">
        <ele>1905.8000488281</ele>
        <time>2016-07-18T09:06:31.000Z</time>
      </trkpt>
      <trkpt lat="44.38473" lon="6.39099">
        <ele>1907.5999755859</ele>
        <time>2016-07-18T09:06:42.000Z</time>
      </trkpt>
      <trkpt lat="44.38486" lon="6.39103">
        <ele>1910.1999511719</ele>
        <time>2016-07-18T09:06:52.000Z</time>
      </trkpt>
      <trkpt lat="44.38496" lon="6.39107">
        <ele>1912.4000244141</ele>
        <time>2016-07-18T09:07:00.000Z</time>
      </trkpt>
      <trkpt lat="44.3851" lon="6.39104">
        <ele>1913.4000244141</ele>
        <time>2016-07-18T09:07:10.000Z</time>
      </trkpt>
      <trkpt lat="44.38515" lon="6.39101">
        <ele>1913.1999511719</ele>
        <time>2016-07-18T09:07:15.000Z</time>
      </trkpt>
      <trkpt lat="44.3852" lon="6.39097">
        <ele>1912.5999755859</ele>
        <time>2016-07-18T09:07:22.000Z</time>
      </trkpt>
      <trkpt lat="44.38527" lon="6.39095">
        <ele>1913.1999511719</ele>
        <time>2016-07-18T09:07:28.000Z</time>
      </trkpt>
      <trkpt lat="44.38528" lon="6.39094">
        <ele>1913</ele>
        <time>2016-07-18T09:07:29.000Z</time>
      </trkpt>
      <trkpt lat="44.38532" lon="6.39092">
        <ele>1913</ele>
        <time>2016-07-18T09:07:34.000Z</time>
      </trkpt>
      <trkpt lat="44.38533" lon="6.39091">
        <ele>1913</ele>
        <time>2016-07-18T09:07:35.000Z</time>
      </trkpt>
      <trkpt lat="44.38539" lon="6.39086">
        <ele>1913</ele>
        <time>2016-07-18T09:07:42.000Z</time>
      </trkpt>
      <trkpt lat="44.3854" lon="6.39085">
        <ele>1913</ele>
        <time>2016-07-18T09:07:43.000Z</time>
      </trkpt>
      <trkpt lat="44.38545" lon="6.39079">
        <ele>1912.8000488281</ele>
        <time>2016-07-18T09:07:48.000Z</time>
      </trkpt>
      <trkpt lat="44.38552" lon="6.39071">
        <ele>1911.5999755859</ele>
        <time>2016-07-18T09:07:55.000Z</time>
      </trkpt>
      <trkpt lat="44.3856" lon="6.39062">
        <ele>1910.8000488281</ele>
        <time>2016-07-18T09:08:04.000Z</time>
      </trkpt>
      <trkpt lat="44.38568" lon="6.39057">
        <ele>1911.8000488281</ele>
        <time>2016-07-18T09:08:11.000Z</time>
      </trkpt>
      <trkpt lat="44.38575" lon="6.39053">
        <ele>1912.4000244141</ele>
        <time>2016-07-18T09:08:17.000Z</time>
      </trkpt>
      <trkpt lat="44.38581" lon="6.39052">
        <ele>1913.8000488281</ele>
        <time>2016-07-18T09:08:22.000Z</time>
      </trkpt>
      <trkpt lat="44.38589" lon="6.39057">
        <ele>1916.1999511719</ele>
        <time>2016-07-18T09:08:29.000Z</time>
      </trkpt>
      <trkpt lat="44.38592" lon="6.39067">
        <ele>1918.5999755859</ele>
        <time>2016-07-18T09:08:36.000Z</time>
      </trkpt>
      <trkpt lat="44.38586" lon="6.39071">
        <ele>1918.8000488281</ele>
        <time>2016-07-18T09:08:42.000Z</time>
      </trkpt>
      <trkpt lat="44.38578" lon="6.39078">
        <ele>1919.5999755859</ele>
        <time>2016-07-18T09:08:50.000Z</time>
      </trkpt>
      <trkpt lat="44.3857" lon="6.39087">
        <ele>1920.8000488281</ele>
        <time>2016-07-18T09:08:59.000Z</time>
      </trkpt>
      <trkpt lat="44.38563" lon="6.39098">
        <ele>1923</ele>
        <time>2016-07-18T09:09:08.000Z</time>
      </trkpt>
      <trkpt lat="44.38561" lon="6.39103">
        <ele>1923.5999755859</ele>
        <time>2016-07-18T09:09:11.000Z</time>
      </trkpt>
      <trkpt lat="44.38555" lon="6.39112">
        <ele>1924.8000488281</ele>
        <time>2016-07-18T09:09:18.000Z</time>
      </trkpt>
      <trkpt lat="44.38549" lon="6.3912">
        <ele>1925.4000244141</ele>
        <time>2016-07-18T09:09:24.000Z</time>
      </trkpt>
      <trkpt lat="44.38543" lon="6.39128">
        <ele>1926</ele>
        <time>2016-07-18T09:09:31.000Z</time>
      </trkpt>
      <trkpt lat="44.38536" lon="6.39134">
        <ele>1926</ele>
        <time>2016-07-18T09:09:38.000Z</time>
      </trkpt>
      <trkpt lat="44.38528" lon="6.39139">
        <ele>1926</ele>
        <time>2016-07-18T09:09:45.000Z</time>
      </trkpt>
      <trkpt lat="44.38521" lon="6.39143">
        <ele>1926.5999755859</ele>
        <time>2016-07-18T09:09:52.000Z</time>
      </trkpt>
      <trkpt lat="44.3852" lon="6.39144">
        <ele>1926.8000488281</ele>
        <time>2016-07-18T09:09:53.000Z</time>
      </trkpt>
      <trkpt lat="44.3851" lon="6.39152">
        <ele>1929.4000244141</ele>
        <time>2016-07-18T09:10:02.000Z</time>
      </trkpt>
      <trkpt lat="44.38505" lon="6.39155">
        <ele>1930.4000244141</ele>
        <time>2016-07-18T09:10:06.000Z</time>
      </trkpt>
      <trkpt lat="44.38494" lon="6.3916">
        <ele>1932.1999511719</ele>
        <time>2016-07-18T09:10:15.000Z</time>
      </trkpt>
      <trkpt lat="44.38484" lon="6.39164">
        <ele>1933.5999755859</ele>
        <time>2016-07-18T09:10:23.000Z</time>
      </trkpt>
      <trkpt lat="44.38475" lon="6.39168">
        <ele>1934.8000488281</ele>
        <time>2016-07-18T09:10:30.000Z</time>
      </trkpt>
      <trkpt lat="44.38462" lon="6.39173">
        <ele>1935.1999511719</ele>
        <time>2016-07-18T09:10:40.000Z</time>
      </trkpt>
      <trkpt lat="44.38453" lon="6.39176">
        <ele>1934.5999755859</ele>
        <time>2016-07-18T09:10:48.000Z</time>
      </trkpt>
      <trkpt lat="44.38445" lon="6.39182">
        <ele>1935.8000488281</ele>
        <time>2016-07-18T09:10:56.000Z</time>
      </trkpt>
      <trkpt lat="44.38442" lon="6.39185">
        <ele>1937</ele>
        <time>2016-07-18T09:11:00.000Z</time>
      </trkpt>
      <trkpt lat="44.38435" lon="6.3919">
        <ele>1939</ele>
        <time>2016-07-18T09:11:06.000Z</time>
      </trkpt>
      <trkpt lat="44.38425" lon="6.39196">
        <ele>1941.1999511719</ele>
        <time>2016-07-18T09:11:14.000Z</time>
      </trkpt>
      <trkpt lat="44.38424" lon="6.39197">
        <ele>1941.4000244141</ele>
        <time>2016-07-18T09:11:15.000Z</time>
      </trkpt>
      <trkpt lat="44.38413" lon="6.392">
        <ele>1942.4000244141</ele>
        <time>2016-07-18T09:11:24.000Z</time>
      </trkpt>
      <trkpt lat="44.384" lon="6.39204">
        <ele>1943.1999511719</ele>
        <time>2016-07-18T09:11:34.000Z</time>
      </trkpt>
      <trkpt lat="44.38392" lon="6.39206">
        <ele>1943.5999755859</ele>
        <time>2016-07-18T09:11:40.000Z</time>
      </trkpt>
      <trkpt lat="44.3838" lon="6.39209">
        <ele>1944.4000244141</ele>
        <time>2016-07-18T09:11:49.000Z</time>
      </trkpt>
      <trkpt lat="44.38364" lon="6.39214">
        <ele>1945.8000488281</ele>
        <time>2016-07-18T09:12:01.000Z</time>
      </trkpt>
      <trkpt lat="44.38352" lon="6.39214">
        <ele>1945.5999755859</ele>
        <time>2016-07-18T09:12:10.000Z</time>
      </trkpt>
      <trkpt lat="44.38341" lon="6.39212">
        <ele>1945.1999511719</ele>
        <time>2016-07-18T09:12:19.000Z</time>
      </trkpt>
      <trkpt lat="44.38329" lon="6.39212">
        <ele>1944.5999755859</ele>
        <time>2016-07-18T09:12:28.000Z</time>
      </trkpt>
      <trkpt lat="44.38319" lon="6.39212">
        <ele>1944.4000244141</ele>
        <time>2016-07-18T09:12:37.000Z</time>
      </trkpt>
      <trkpt lat="44.38313" lon="6.39213">
        <ele>1944.4000244141</ele>
        <time>2016-07-18T09:12:42.000Z</time>
      </trkpt>
      <trkpt lat="44.38301" lon="6.39216">
        <ele>1944.8000488281</ele>
        <time>2016-07-18T09:12:51.000Z</time>
      </trkpt>
      <trkpt lat="44.38289" lon="6.39221">
        <ele>1945.8000488281</ele>
        <time>2016-07-18T09:13:00.000Z</time>
      </trkpt>
      <trkpt lat="44.38283" lon="6.39225">
        <ele>1947</ele>
        <time>2016-07-18T09:13:05.000Z</time>
      </trkpt>
      <trkpt lat="44.3828" lon="6.39228">
        <ele>1947.1999511719</ele>
        <time>2016-07-18T09:13:08.000Z</time>
      </trkpt>
      <trkpt lat="44.38269" lon="6.39235">
        <ele>1946</ele>
        <time>2016-07-18T09:13:17.000Z</time>
      </trkpt>
      <trkpt lat="44.38263" lon="6.39238">
        <ele>1945</ele>
        <time>2016-07-18T09:13:22.000Z</time>
      </trkpt>
      <trkpt lat="44.38255" lon="6.39241">
        <ele>1943.4000244141</ele>
        <time>2016-07-18T09:13:29.000Z</time>
      </trkpt>
      <trkpt lat="44.38248" lon="6.39245">
        <ele>1942.5999755859</ele>
        <time>2016-07-18T09:13:35.000Z</time>
      </trkpt>
      <trkpt lat="44.38241" lon="6.3925">
        <ele>1941.8000488281</ele>
        <time>2016-07-18T09:13:41.000Z</time>
      </trkpt>
      <trkpt lat="44.38234" lon="6.39255">
        <ele>1941.1999511719</ele>
        <time>2016-07-18T09:13:47.000Z</time>
      </trkpt>
      <trkpt lat="44.38213" lon="6.39276">
        <ele>1939</ele>
        <time>2016-07-18T09:14:07.000Z</time>
      </trkpt>
      <trkpt lat="44.38204" lon="6.39285">
        <ele>1937.4000244141</ele>
        <time>2016-07-18T09:14:16.000Z</time>
      </trkpt>
      <trkpt lat="44.38199" lon="6.39291">
        <ele>1936.8000488281</ele>
        <time>2016-07-18T09:14:22.000Z</time>
      </trkpt>
      <trkpt lat="44.38195" lon="6.39297">
        <ele>1937</ele>
        <time>2016-07-18T09:14:28.000Z</time>
      </trkpt>
      <trkpt lat="44.38193" lon="6.393">
        <ele>1937.5999755859</ele>
        <time>2016-07-18T09:14:30.000Z</time>
      </trkpt>
      <trkpt lat="44.38191" lon="6.39304">
        <ele>1937.8000488281</ele>
        <time>2016-07-18T09:14:32.000Z</time>
      </trkpt>
      <trkpt lat="44.38187" lon="6.39318">
        <ele>1940.4000244141</ele>
        <time>2016-07-18T09:14:40.000Z</time>
      </trkpt>
      <trkpt lat="44.38179" lon="6.3933">
        <ele>1943</ele>
        <time>2016-07-18T09:14:49.000Z</time>
      </trkpt>
      <trkpt lat="44.3817" lon="6.39344">
        <ele>1945.4000244141</ele>
        <time>2016-07-18T09:14:58.000Z</time>
      </trkpt>
      <trkpt lat="44.38161" lon="6.39362">
        <ele>1949.4000244141</ele>
        <time>2016-07-18T09:15:09.000Z</time>
      </trkpt>
      <trkpt lat="44.38153" lon="6.39374">
        <ele>1949</ele>
        <time>2016-07-18T09:15:18.000Z</time>
      </trkpt>
      <trkpt lat="44.38145" lon="6.39384">
        <ele>1948</ele>
        <time>2016-07-18T09:15:26.000Z</time>
      </trkpt>
      <trkpt lat="44.38138" lon="6.39395">
        <ele>1947.5999755859</ele>
        <time>2016-07-18T09:15:34.000Z</time>
      </trkpt>
      <trkpt lat="44.38131" lon="6.39407">
        <ele>1948.4000244141</ele>
        <time>2016-07-18T09:15:43.000Z</time>
      </trkpt>
      <trkpt lat="44.38125" lon="6.39416">
        <ele>1949.5999755859</ele>
        <time>2016-07-18T09:15:49.000Z</time>
      </trkpt>
      <trkpt lat="44.38117" lon="6.39431">
        <ele>1951.1999511719</ele>
        <time>2016-07-18T09:16:00.000Z</time>
      </trkpt>
      <trkpt lat="44.38111" lon="6.3944">
        <ele>1953.5999755859</ele>
        <time>2016-07-18T09:16:07.000Z</time>
      </trkpt>
      <trkpt lat="44.38107" lon="6.39449">
        <ele>1956.1999511719</ele>
        <time>2016-07-18T09:16:14.000Z</time>
      </trkpt>
      <trkpt lat="44.38104" lon="6.39454">
        <ele>1957.5999755859</ele>
        <time>2016-07-18T09:16:18.000Z</time>
      </trkpt>
      <trkpt lat="44.38097" lon="6.39461">
        <ele>1959.4000244141</ele>
        <time>2016-07-18T09:16:24.000Z</time>
      </trkpt>
      <trkpt lat="44.38095" lon="6.39466">
        <ele>1960.4000244141</ele>
        <time>2016-07-18T09:16:27.000Z</time>
      </trkpt>
      <trkpt lat="44.3809" lon="6.39473">
        <ele>1961.5999755859</ele>
        <time>2016-07-18T09:16:32.000Z</time>
      </trkpt>
      <trkpt lat="44.3808" lon="6.39488">
        <ele>1964.1999511719</ele>
        <time>2016-07-18T09:16:44.000Z</time>
      </trkpt>
      <trkpt lat="44.38071" lon="6.395">
        <ele>1966</ele>
        <time>2016-07-18T09:16:54.000Z</time>
      </trkpt>
      <trkpt lat="44.38061" lon="6.39509">
        <ele>1966.8000488281</ele>
        <time>2016-07-18T09:17:03.000Z</time>
      </trkpt>
      <trkpt lat="44.38049" lon="6.39518">
        <ele>1968</ele>
        <time>2016-07-18T09:17:13.000Z</time>
      </trkpt>
      <trkpt lat="44.38041" lon="6.39523">
        <ele>1968</ele>
        <time>2016-07-18T09:17:20.000Z</time>
      </trkpt>
      <trkpt lat="44.38028" lon="6.39532">
        <ele>1969.4000244141</ele>
        <time>2016-07-18T09:17:31.000Z</time>
      </trkpt>
      <trkpt lat="44.38019" lon="6.39536">
        <ele>1971.8000488281</ele>
        <time>2016-07-18T09:17:38.000Z</time>
      </trkpt>
      <trkpt lat="44.38009" lon="6.3954">
        <ele>1973.5999755859</ele>
        <time>2016-07-18T09:17:46.000Z</time>
      </trkpt>
      <trkpt lat="44.37997" lon="6.39543">
        <ele>1976</ele>
        <time>2016-07-18T09:17:56.000Z</time>
      </trkpt>
      <trkpt lat="44.37985" lon="6.39547">
        <ele>1979.1999511719</ele>
        <time>2016-07-18T09:18:06.000Z</time>
      </trkpt>
      <trkpt lat="44.37976" lon="6.39551">
        <ele>1982</ele>
        <time>2016-07-18T09:18:13.000Z</time>
      </trkpt>
      <trkpt lat="44.37967" lon="6.39554">
        <ele>1984</ele>
        <time>2016-07-18T09:18:20.000Z</time>
      </trkpt>
      <trkpt lat="44.37958" lon="6.39553">
        <ele>1984.5999755859</ele>
        <time>2016-07-18T09:18:27.000Z</time>
      </trkpt>
      <trkpt lat="44.37946" lon="6.3955">
        <ele>1984.4000244141</ele>
        <time>2016-07-18T09:18:36.000Z</time>
      </trkpt>
      <trkpt lat="44.37934" lon="6.39545">
        <ele>1986</ele>
        <time>2016-07-18T09:18:45.000Z</time>
      </trkpt>
      <trkpt lat="44.37924" lon="6.39544">
        <ele>1988.8000488281</ele>
        <time>2016-07-18T09:18:54.000Z</time>
      </trkpt>
      <trkpt lat="44.37921" lon="6.39546">
        <ele>1990.5999755859</ele>
        <time>2016-07-18T09:19:08.000Z</time>
      </trkpt>
      <trkpt lat="44.37925" lon="6.3955">
        <ele>1991.1999511719</ele>
        <time>2016-07-18T09:20:08.000Z</time>
      </trkpt>
      <trkpt lat="44.37931" lon="6.39554">
        <ele>1991.4000244141</ele>
        <time>2016-07-18T09:20:15.000Z</time>
      </trkpt>
      <trkpt lat="44.37934" lon="6.39559">
        <ele>1992.5999755859</ele>
        <time>2016-07-18T09:20:21.000Z</time>
      </trkpt>
      <trkpt lat="44.37943" lon="6.39565">
        <ele>1992.5999755859</ele>
        <time>2016-07-18T09:20:29.000Z</time>
      </trkpt>
      <trkpt lat="44.37951" lon="6.39571">
        <ele>1993.5999755859</ele>
        <time>2016-07-18T09:20:37.000Z</time>
      </trkpt>
      <trkpt lat="44.37962" lon="6.39575">
        <ele>1994.4000244141</ele>
        <time>2016-07-18T09:20:46.000Z</time>
      </trkpt>
      <trkpt lat="44.37971" lon="6.39576">
        <ele>1994</ele>
        <time>2016-07-18T09:20:54.000Z</time>
      </trkpt>
      <trkpt lat="44.37982" lon="6.39577">
        <ele>1993.4000244141</ele>
        <time>2016-07-18T09:21:03.000Z</time>
      </trkpt>
      <trkpt lat="44.37993" lon="6.39578">
        <ele>1992.5999755859</ele>
        <time>2016-07-18T09:21:12.000Z</time>
      </trkpt>
      <trkpt lat="44.38005" lon="6.39579">
        <ele>1991.8000488281</ele>
        <time>2016-07-18T09:21:22.000Z</time>
      </trkpt>
      <trkpt lat="44.38017" lon="6.3958">
        <ele>1991.4000244141</ele>
        <time>2016-07-18T09:21:32.000Z</time>
      </trkpt>
      <trkpt lat="44.38026" lon="6.3958">
        <ele>1990.5999755859</ele>
        <time>2016-07-18T09:21:39.000Z</time>
      </trkpt>
      <trkpt lat="44.38036" lon="6.39582">
        <ele>1990.5999755859</ele>
        <time>2016-07-18T09:21:47.000Z</time>
      </trkpt>
      <trkpt lat="44.38045" lon="6.39581">
        <ele>1990.1999511719</ele>
        <time>2016-07-18T09:21:55.000Z</time>
      </trkpt>
      <trkpt lat="44.38046" lon="6.3958">
        <ele>1989.5999755859</ele>
        <time>2016-07-18T09:22:04.000Z</time>
      </trkpt>
      <trkpt lat="44.38049" lon="6.39583">
        <ele>1990.8000488281</ele>
        <time>2016-07-18T09:22:13.000Z</time>
      </trkpt>
      <trkpt lat="44.38054" lon="6.39585">
        <ele>1992.4000244141</ele>
        <time>2016-07-18T09:22:18.000Z</time>
      </trkpt>
      <trkpt lat="44.38059" lon="6.39586">
        <ele>1994</ele>
        <time>2016-07-18T09:22:22.000Z</time>
      </trkpt>
      <trkpt lat="44.38061" lon="6.39592">
        <ele>1995.5999755859</ele>
        <time>2016-07-18T09:22:28.000Z</time>
      </trkpt>
      <trkpt lat="44.38063" lon="6.39594">
        <ele>1996.4000244141</ele>
        <time>2016-07-18T09:22:30.000Z</time>
      </trkpt>
      <trkpt lat="44.38067" lon="6.39599">
        <ele>1998.4000244141</ele>
        <time>2016-07-18T09:22:35.000Z</time>
      </trkpt>
      <trkpt lat="44.38075" lon="6.39605">
        <ele>2001.5999755859</ele>
        <time>2016-07-18T09:22:43.000Z</time>
      </trkpt>
      <trkpt lat="44.38078" lon="6.3961">
        <ele>2003.4000244141</ele>
        <time>2016-07-18T09:22:48.000Z</time>
      </trkpt>
      <trkpt lat="44.38079" lon="6.39611">
        <ele>2003.8000488281</ele>
        <time>2016-07-18T09:22:49.000Z</time>
      </trkpt>
      <trkpt lat="44.38079" lon="6.39616">
        <ele>2005.5999755859</ele>
        <time>2016-07-18T09:22:54.000Z</time>
      </trkpt>
      <trkpt lat="44.38081" lon="6.39618">
        <ele>2006.8000488281</ele>
        <time>2016-07-18T09:22:57.000Z</time>
      </trkpt>
      <trkpt lat="44.3809" lon="6.39615">
        <ele>2007</ele>
        <time>2016-07-18T09:23:06.000Z</time>
      </trkpt>
      <trkpt lat="44.38097" lon="6.39608">
        <ele>2007.1999511719</ele>
        <time>2016-07-18T09:23:14.000Z</time>
      </trkpt>
      <trkpt lat="44.381" lon="6.39607">
        <ele>2007.8000488281</ele>
        <time>2016-07-18T09:23:17.000Z</time>
      </trkpt>
      <trkpt lat="44.38105" lon="6.39609">
        <ele>2009.4000244141</ele>
        <time>2016-07-18T09:23:22.000Z</time>
      </trkpt>
      <trkpt lat="44.38107" lon="6.39608">
        <ele>2009.5999755859</ele>
        <time>2016-07-18T09:23:24.000Z</time>
      </trkpt>
      <trkpt lat="44.38111" lon="6.39604">
        <ele>2009.5999755859</ele>
        <time>2016-07-18T09:23:28.000Z</time>
      </trkpt>
      <trkpt lat="44.38119" lon="6.39607">
        <ele>2012.1999511719</ele>
        <time>2016-07-18T09:23:36.000Z</time>
      </trkpt>
      <trkpt lat="44.38121" lon="6.39607">
        <ele>2012.8000488281</ele>
        <time>2016-07-18T09:23:38.000Z</time>
      </trkpt>
      <trkpt lat="44.38124" lon="6.3961">
        <ele>2014.4000244141</ele>
        <time>2016-07-18T09:23:42.000Z</time>
      </trkpt>
      <trkpt lat="44.38126" lon="6.39612">
        <ele>2015.4000244141</ele>
        <time>2016-07-18T09:23:46.000Z</time>
      </trkpt>
      <trkpt lat="44.3813" lon="6.3961">
        <ele>2016.4000244141</ele>
        <time>2016-07-18T09:23:50.000Z</time>
      </trkpt>
      <trkpt lat="44.38133" lon="6.39614">
        <ele>2018</ele>
        <time>2016-07-18T09:23:54.000Z</time>
      </trkpt>
      <trkpt lat="44.38136" lon="6.39617">
        <ele>2019.1999511719</ele>
        <time>2016-07-18T09:23:58.000Z</time>
      </trkpt>
      <trkpt lat="44.38138" lon="6.3962">
        <ele>2020.4000244141</ele>
        <time>2016-07-18T09:24:01.000Z</time>
      </trkpt>
      <trkpt lat="44.38143" lon="6.39627">
        <ele>2023.5999755859</ele>
        <time>2016-07-18T09:24:08.000Z</time>
      </trkpt>
      <trkpt lat="44.38147" lon="6.39639">
        <ele>2027.1999511719</ele>
        <time>2016-07-18T09:24:16.000Z</time>
      </trkpt>
      <trkpt lat="44.38152" lon="6.39643">
        <ele>2029.4000244141</ele>
        <time>2016-07-18T09:24:22.000Z</time>
      </trkpt>
      <trkpt lat="44.38154" lon="6.39646">
        <ele>2031</ele>
        <time>2016-07-18T09:24:26.000Z</time>
      </trkpt>
      <trkpt lat="44.38155" lon="6.3965">
        <ele>2031.8000488281</ele>
        <time>2016-07-18T09:24:28.000Z</time>
      </trkpt>
      <trkpt lat="44.38154" lon="6.39655">
        <ele>2032.4000244141</ele>
        <time>2016-07-18T09:24:32.000Z</time>
      </trkpt>
      <trkpt lat="44.38155" lon="6.39662">
        <ele>2033.8000488281</ele>
        <time>2016-07-18T09:24:37.000Z</time>
      </trkpt>
      <trkpt lat="44.38154" lon="6.39668">
        <ele>2034.8000488281</ele>
        <time>2016-07-18T09:24:42.000Z</time>
      </trkpt>
      <trkpt lat="44.38155" lon="6.39673">
        <ele>2035.5999755859</ele>
        <time>2016-07-18T09:24:46.000Z</time>
      </trkpt>
      <trkpt lat="44.38157" lon="6.39674">
        <ele>2036.4000244141</ele>
        <time>2016-07-18T09:24:49.000Z</time>
      </trkpt>
      <trkpt lat="44.38163" lon="6.39671">
        <ele>2037.8000488281</ele>
        <time>2016-07-18T09:24:56.000Z</time>
      </trkpt>
      <trkpt lat="44.38165" lon="6.39673">
        <ele>2038.5999755859</ele>
        <time>2016-07-18T09:24:58.000Z</time>
      </trkpt>
      <trkpt lat="44.38167" lon="6.39678">
        <ele>2040</ele>
        <time>2016-07-18T09:25:03.000Z</time>
      </trkpt>
      <trkpt lat="44.38174" lon="6.3968">
        <ele>2042.4000244141</ele>
        <time>2016-07-18T09:25:11.000Z</time>
      </trkpt>
      <trkpt lat="44.38176" lon="6.39681">
        <ele>2043.1999511719</ele>
        <time>2016-07-18T09:25:13.000Z</time>
      </trkpt>
      <trkpt lat="44.38177" lon="6.39683">
        <ele>2043.8000488281</ele>
        <time>2016-07-18T09:25:15.000Z</time>
      </trkpt>
      <trkpt lat="44.38182" lon="6.39685">
        <ele>2045.4000244141</ele>
        <time>2016-07-18T09:25:20.000Z</time>
      </trkpt>
      <trkpt lat="44.38187" lon="6.39692">
        <ele>2048.1999511719</ele>
        <time>2016-07-18T09:25:28.000Z</time>
      </trkpt>
      <trkpt lat="44.38188" lon="6.39692">
        <ele>2048.6000976562</ele>
        <time>2016-07-18T09:25:29.000Z</time>
      </trkpt>
      <trkpt lat="44.38192" lon="6.39698">
        <ele>2050.8000488281</ele>
        <time>2016-07-18T09:25:35.000Z</time>
      </trkpt>
      <trkpt lat="44.38195" lon="6.39703">
        <ele>2052.1999511719</ele>
        <time>2016-07-18T09:25:40.000Z</time>
      </trkpt>
      <trkpt lat="44.382" lon="6.39704">
        <ele>2053.8000488281</ele>
        <time>2016-07-18T09:25:45.000Z</time>
      </trkpt>
      <trkpt lat="44.382" lon="6.39703">
        <ele>2054</ele>
        <time>2016-07-18T09:25:46.000Z</time>
      </trkpt>
      <trkpt lat="44.38205" lon="6.39704">
        <ele>2055.3999023438</ele>
        <time>2016-07-18T09:25:52.000Z</time>
      </trkpt>
      <trkpt lat="44.38204" lon="6.39705">
        <ele>2055.3999023438</ele>
        <time>2016-07-18T09:25:54.000Z</time>
      </trkpt>
      <trkpt lat="44.38202" lon="6.39711">
        <ele>2055.8000488281</ele>
        <time>2016-07-18T09:25:59.000Z</time>
      </trkpt>
      <trkpt lat="44.38201" lon="6.39716">
        <ele>2056.3999023438</ele>
        <time>2016-07-18T09:26:02.000Z</time>
      </trkpt>
      <trkpt lat="44.38206" lon="6.3972">
        <ele>2058.3999023438</ele>
        <time>2016-07-18T09:26:09.000Z</time>
      </trkpt>
      <trkpt lat="44.38207" lon="6.39722">
        <ele>2059.1999511719</ele>
        <time>2016-07-18T09:26:12.000Z</time>
      </trkpt>
      <trkpt lat="44.38211" lon="6.39726">
        <ele>2061</ele>
        <time>2016-07-18T09:26:18.000Z</time>
      </trkpt>
      <trkpt lat="44.38212" lon="6.39727">
        <ele>2061.3999023438</ele>
        <time>2016-07-18T09:26:19.000Z</time>
      </trkpt>
      <trkpt lat="44.38217" lon="6.3973">
        <ele>2063.8000488281</ele>
        <time>2016-07-18T09:26:26.000Z</time>
      </trkpt>
      <trkpt lat="44.38224" lon="6.39734">
        <ele>2066.1999511719</ele>
        <time>2016-07-18T09:26:33.000Z</time>
      </trkpt>
      <trkpt lat="44.38229" lon="6.3974">
        <ele>2068</ele>
        <time>2016-07-18T09:26:40.000Z</time>
      </trkpt>
      <trkpt lat="44.3823" lon="6.39743">
        <ele>2068.1999511719</ele>
        <time>2016-07-18T09:26:45.000Z</time>
      </trkpt>
      <trkpt lat="44.38231" lon="6.39745">
        <ele>2068.8000488281</ele>
        <time>2016-07-18T09:26:47.000Z</time>
      </trkpt>
      <trkpt lat="44.38236" lon="6.39752">
        <ele>2070.8000488281</ele>
        <time>2016-07-18T09:26:54.000Z</time>
      </trkpt>
      <trkpt lat="44.38238" lon="6.39753">
        <ele>2071.1999511719</ele>
        <time>2016-07-18T09:26:55.000Z</time>
      </trkpt>
      <trkpt lat="44.3824" lon="6.39756">
        <ele>2072</ele>
        <time>2016-07-18T09:26:58.000Z</time>
      </trkpt>
      <trkpt lat="44.38243" lon="6.39756">
        <ele>2073</ele>
        <time>2016-07-18T09:27:01.000Z</time>
      </trkpt>
      <trkpt lat="44.3825" lon="6.39762">
        <ele>2075.1999511719</ele>
        <time>2016-07-18T09:27:08.000Z</time>
      </trkpt>
      <trkpt lat="44.38256" lon="6.39768">
        <ele>2077.1999511719</ele>
        <time>2016-07-18T09:27:15.000Z</time>
      </trkpt>
      <trkpt lat="44.38258" lon="6.39771">
        <ele>2078.1999511719</ele>
        <time>2016-07-18T09:27:20.000Z</time>
      </trkpt>
      <trkpt lat="44.38262" lon="6.39781">
        <ele>2079.8000488281</ele>
        <time>2016-07-18T09:27:28.000Z</time>
      </trkpt>
      <trkpt lat="44.38263" lon="6.39782">
        <ele>2080</ele>
        <time>2016-07-18T09:27:29.000Z</time>
      </trkpt>
      <trkpt lat="44.38267" lon="6.39787">
        <ele>2081.6000976562</ele>
        <time>2016-07-18T09:27:34.000Z</time>
      </trkpt>
      <trkpt lat="44.38269" lon="6.39794">
        <ele>2082.3999023438</ele>
        <time>2016-07-18T09:27:40.000Z</time>
      </trkpt>
      <trkpt lat="44.3827" lon="6.39796">
        <ele>2082.6000976562</ele>
        <time>2016-07-18T09:27:42.000Z</time>
      </trkpt>
      <trkpt lat="44.38271" lon="6.39805">
        <ele>2083.3999023438</ele>
        <time>2016-07-18T09:27:48.000Z</time>
      </trkpt>
      <trkpt lat="44.38274" lon="6.39817">
        <ele>2086.8000488281</ele>
        <time>2016-07-18T09:27:57.000Z</time>
      </trkpt>
      <trkpt lat="44.38275" lon="6.39818">
        <ele>2087</ele>
        <time>2016-07-18T09:27:58.000Z</time>
      </trkpt>
      <trkpt lat="44.38278" lon="6.39824">
        <ele>2088.8000488281</ele>
        <time>2016-07-18T09:28:05.000Z</time>
      </trkpt>
      <trkpt lat="44.38278" lon="6.39831">
        <ele>2090.3999023438</ele>
        <time>2016-07-18T09:28:10.000Z</time>
      </trkpt>
      <trkpt lat="44.38275" lon="6.39835">
        <ele>2091.1999511719</ele>
        <time>2016-07-18T09:28:15.000Z</time>
      </trkpt>
      <trkpt lat="44.38272" lon="6.39845">
        <ele>2093.1999511719</ele>
        <time>2016-07-18T09:28:22.000Z</time>
      </trkpt>
      <trkpt lat="44.38272" lon="6.39847">
        <ele>2093.6000976562</ele>
        <time>2016-07-18T09:28:24.000Z</time>
      </trkpt>
      <trkpt lat="44.38265" lon="6.39852">
        <ele>2094.1999511719</ele>
        <time>2016-07-18T09:28:30.000Z</time>
      </trkpt>
      <trkpt lat="44.38259" lon="6.39858">
        <ele>2095.1999511719</ele>
        <time>2016-07-18T09:28:36.000Z</time>
      </trkpt>
      <trkpt lat="44.38253" lon="6.39868">
        <ele>2097</ele>
        <time>2016-07-18T09:28:43.000Z</time>
      </trkpt>
      <trkpt lat="44.38252" lon="6.39871">
        <ele>2097.6000976562</ele>
        <time>2016-07-18T09:28:45.000Z</time>
      </trkpt>
      <trkpt lat="44.38251" lon="6.39873">
        <ele>2098.3999023438</ele>
        <time>2016-07-18T09:28:47.000Z</time>
      </trkpt>
      <trkpt lat="44.38258" lon="6.39878">
        <ele>2100</ele>
        <time>2016-07-18T09:28:56.000Z</time>
      </trkpt>
      <trkpt lat="44.3826" lon="6.39878">
        <ele>2100</ele>
        <time>2016-07-18T09:28:59.000Z</time>
      </trkpt>
      <trkpt lat="44.38265" lon="6.39876">
        <ele>2100</ele>
        <time>2016-07-18T09:29:05.000Z</time>
      </trkpt>
      <trkpt lat="44.38268" lon="6.3988">
        <ele>2101.1999511719</ele>
        <time>2016-07-18T09:29:10.000Z</time>
      </trkpt>
      <trkpt lat="44.38275" lon="6.39881">
        <ele>2102.1999511719</ele>
        <time>2016-07-18T09:29:16.000Z</time>
      </trkpt>
      <trkpt lat="44.3828" lon="6.39885">
        <ele>2103.6000976562</ele>
        <time>2016-07-18T09:29:21.000Z</time>
      </trkpt>
      <trkpt lat="44.38285" lon="6.39887">
        <ele>2104.1999511719</ele>
        <time>2016-07-18T09:29:26.000Z</time>
      </trkpt>
      <trkpt lat="44.38296" lon="6.3989">
        <ele>2105</ele>
        <time>2016-07-18T09:29:36.000Z</time>
      </trkpt>
      <trkpt lat="44.38303" lon="6.39894">
        <ele>2106</ele>
        <time>2016-07-18T09:29:41.000Z</time>
      </trkpt>
      <trkpt lat="44.38308" lon="6.39895">
        <ele>2106.1999511719</ele>
        <time>2016-07-18T09:29:45.000Z</time>
      </trkpt>
      <trkpt lat="44.3832" lon="6.39898">
        <ele>2106.8000488281</ele>
        <time>2016-07-18T09:29:54.000Z</time>
      </trkpt>
      <trkpt lat="44.38327" lon="6.399">
        <ele>2107</ele>
        <time>2016-07-18T09:30:00.000Z</time>
      </trkpt>
      <trkpt lat="44.38329" lon="6.39908">
        <ele>2107.1999511719</ele>
        <time>2016-07-18T09:30:06.000Z</time>
      </trkpt>
      <trkpt lat="44.38327" lon="6.3991">
        <ele>2107.1999511719</ele>
        <time>2016-07-18T09:30:21.000Z</time>
      </trkpt>
      <trkpt lat="44.38322" lon="6.39907">
        <ele>2107.1999511719</ele>
        <time>2016-07-18T09:30:27.000Z</time>
      </trkpt>
      <trkpt lat="44.38321" lon="6.39907">
        <ele>2107.1999511719</ele>
        <time>2016-07-18T09:30:34.000Z</time>
      </trkpt>
      <trkpt lat="44.3832" lon="6.39907">
        <ele>2107.1999511719</ele>
        <time>2016-07-18T09:30:42.000Z</time>
      </trkpt>
      <trkpt lat="44.38323" lon="6.39911">
        <ele>2107.3999023438</ele>
        <time>2016-07-18T09:30:52.000Z</time>
      </trkpt>
      <trkpt lat="44.38325" lon="6.3991">
        <ele>2107.1999511719</ele>
        <time>2016-07-18T09:30:59.000Z</time>
      </trkpt>
      <trkpt lat="44.3832" lon="6.39905">
        <ele>2107.1999511719</ele>
        <time>2016-07-18T09:31:06.000Z</time>
      </trkpt>
      <trkpt lat="44.38317" lon="6.39902">
        <ele>2107</ele>
        <time>2016-07-18T09:31:10.000Z</time>
      </trkpt>
      <trkpt lat="44.3832" lon="6.399">
        <ele>2107</ele>
        <time>2016-07-18T09:31:16.000Z</time>
      </trkpt>
      <trkpt lat="44.38321" lon="6.39901">
        <ele>2107</ele>
        <time>2016-07-18T09:31:17.000Z</time>
      </trkpt>
      <trkpt lat="44.38322" lon="6.39903">
        <ele>2107.1999511719</ele>
        <time>2016-07-18T09:31:24.000Z</time>
      </trkpt>
      <trkpt lat="44.38321" lon="6.39905">
        <ele>2107.1999511719</ele>
        <time>2016-07-18T09:31:26.000Z</time>
      </trkpt>
      <trkpt lat="44.3832" lon="6.39906">
        <ele>2107.1999511719</ele>
        <time>2016-07-18T09:31:33.000Z</time>
      </trkpt>
      <trkpt lat="44.38321" lon="6.39906">
        <ele>2107.1999511719</ele>
        <time>2016-07-18T09:31:45.000Z</time>
      </trkpt>
      <trkpt lat="44.38326" lon="6.39911">
        <ele>2107.3999023438</ele>
        <time>2016-07-18T09:32:32.000Z</time>
      </trkpt>
      <trkpt lat="44.38328" lon="6.39921">
        <ele>2107.6000976562</ele>
        <time>2016-07-18T09:32:39.000Z</time>
      </trkpt>
      <trkpt lat="44.38327" lon="6.39932">
        <ele>2107.8000488281</ele>
        <time>2016-07-18T09:32:47.000Z</time>
      </trkpt>
      <trkpt lat="44.38331" lon="6.39927">
        <ele>2107.6000976562</ele>
        <time>2016-07-18T09:33:00.000Z</time>
      </trkpt>
      <trkpt lat="44.38332" lon="6.39923">
        <ele>2107.6000976562</ele>
        <time>2016-07-18T09:33:03.000Z</time>
      </trkpt>
      <trkpt lat="44.38332" lon="6.39921">
        <ele>2107.6000976562</ele>
        <time>2016-07-18T09:33:05.000Z</time>
      </trkpt>
      <trkpt lat="44.38333" lon="6.39922">
        <ele>2107.6000976562</ele>
        <time>2016-07-18T09:33:10.000Z</time>
      </trkpt>
      <trkpt lat="44.38333" lon="6.39925">
        <ele>2107.6000976562</ele>
        <time>2016-07-18T09:33:17.000Z</time>
      </trkpt>
      <trkpt lat="44.38332" lon="6.39923">
        <ele>2107.6000976562</ele>
        <time>2016-07-18T09:35:57.000Z</time>
      </trkpt>
      <trkpt lat="44.38331" lon="6.39922">
        <ele>2107.6000976562</ele>
        <time>2016-07-18T09:36:08.000Z</time>
      </trkpt>
      <trkpt lat="44.38331" lon="6.39923">
        <ele>2107.6000976562</ele>
        <time>2016-07-18T09:36:14.000Z</time>
      </trkpt>
      <trkpt lat="44.38337" lon="6.3993">
        <ele>2107.8000488281</ele>
        <time>2016-07-18T09:36:22.000Z</time>
      </trkpt>
      <trkpt lat="44.38346" lon="6.39938">
        <ele>2108</ele>
        <time>2016-07-18T09:36:30.000Z</time>
      </trkpt>
      <trkpt lat="44.38354" lon="6.39947">
        <ele>2108.1999511719</ele>
        <time>2016-07-18T09:36:38.000Z</time>
      </trkpt>
      <trkpt lat="44.38361" lon="6.39953">
        <ele>2108.3999023438</ele>
        <time>2016-07-18T09:36:45.000Z</time>
      </trkpt>
      <trkpt lat="44.3837" lon="6.39957">
        <ele>2108.3999023438</ele>
        <time>2016-07-18T09:36:52.000Z</time>
      </trkpt>
      <trkpt lat="44.38378" lon="6.39961">
        <ele>2108.6000976562</ele>
        <time>2016-07-18T09:36:58.000Z</time>
      </trkpt>
      <trkpt lat="44.38388" lon="6.39966">
        <ele>2108.8000488281</ele>
        <time>2016-07-18T09:37:06.000Z</time>
      </trkpt>
      <trkpt lat="44.38398" lon="6.39971">
        <ele>2109.1999511719</ele>
        <time>2016-07-18T09:37:14.000Z</time>
      </trkpt>
      <trkpt lat="44.38406" lon="6.39976">
        <ele>2109.3999023438</ele>
        <time>2016-07-18T09:37:21.000Z</time>
      </trkpt>
      <trkpt lat="44.38417" lon="6.39981">
        <ele>2109.6000976562</ele>
        <time>2016-07-18T09:37:30.000Z</time>
      </trkpt>
      <trkpt lat="44.38422" lon="6.39981">
        <ele>2109.6000976562</ele>
        <time>2016-07-18T09:37:34.000Z</time>
      </trkpt>
      <trkpt lat="44.38434" lon="6.39986">
        <ele>2109.6000976562</ele>
        <time>2016-07-18T09:37:43.000Z</time>
      </trkpt>
      <trkpt lat="44.38446" lon="6.39991">
        <ele>2109.6000976562</ele>
        <time>2016-07-18T09:37:53.000Z</time>
      </trkpt>
      <trkpt lat="44.38456" lon="6.39997">
        <ele>2109.8000488281</ele>
        <time>2016-07-18T09:38:02.000Z</time>
      </trkpt>
      <trkpt lat="44.38466" lon="6.40004">
        <ele>2110</ele>
        <time>2016-07-18T09:38:11.000Z</time>
      </trkpt>
      <trkpt lat="44.38474" lon="6.40008">
        <ele>2110.1999511719</ele>
        <time>2016-07-18T09:38:18.000Z</time>
      </trkpt>
      <trkpt lat="44.38484" lon="6.40013">
        <ele>2110.3999023438</ele>
        <time>2016-07-18T09:38:26.000Z</time>
      </trkpt>
      <trkpt lat="44.38495" lon="6.40021">
        <ele>2110.6000976562</ele>
        <time>2016-07-18T09:38:35.000Z</time>
      </trkpt>
      <trkpt lat="44.38503" lon="6.40027">
        <ele>2110.8000488281</ele>
        <time>2016-07-18T09:38:42.000Z</time>
      </trkpt>
      <trkpt lat="44.38511" lon="6.40032">
        <ele>2111</ele>
        <time>2016-07-18T09:38:49.000Z</time>
      </trkpt>
      <trkpt lat="44.38522" lon="6.40035">
        <ele>2111.1999511719</ele>
        <time>2016-07-18T09:38:58.000Z</time>
      </trkpt>
      <trkpt lat="44.38533" lon="6.40042">
        <ele>2111.1999511719</ele>
        <time>2016-07-18T09:39:07.000Z</time>
      </trkpt>
      <trkpt lat="44.3854" lon="6.40053">
        <ele>2111.1999511719</ele>
        <time>2016-07-18T09:39:16.000Z</time>
      </trkpt>
      <trkpt lat="44.38548" lon="6.40064">
        <ele>2111</ele>
        <time>2016-07-18T09:39:25.000Z</time>
      </trkpt>
      <trkpt lat="44.38554" lon="6.40072">
        <ele>2110.6000976562</ele>
        <time>2016-07-18T09:39:32.000Z</time>
      </trkpt>
      <trkpt lat="44.38558" lon="6.40074">
        <ele>2110.6000976562</ele>
        <time>2016-07-18T09:39:38.000Z</time>
      </trkpt>
      <trkpt lat="44.38558" lon="6.40076">
        <ele>2110.3999023438</ele>
        <time>2016-07-18T09:39:45.000Z</time>
      </trkpt>
      <trkpt lat="44.38559" lon="6.40086">
        <ele>2110</ele>
        <time>2016-07-18T09:39:52.000Z</time>
      </trkpt>
      <trkpt lat="44.38565" lon="6.40097">
        <ele>2109.3999023438</ele>
        <time>2016-07-18T09:40:01.000Z</time>
      </trkpt>
      <trkpt lat="44.38571" lon="6.40106">
        <ele>2109</ele>
        <time>2016-07-18T09:40:08.000Z</time>
      </trkpt>
      <trkpt lat="44.38579" lon="6.40113">
        <ele>2108.8000488281</ele>
        <time>2016-07-18T09:40:16.000Z</time>
      </trkpt>
      <trkpt lat="44.3859" lon="6.4012">
        <ele>2108.3999023438</ele>
        <time>2016-07-18T09:40:26.000Z</time>
      </trkpt>
      <trkpt lat="44.38596" lon="6.40125">
        <ele>2108.1999511719</ele>
        <time>2016-07-18T09:40:32.000Z</time>
      </trkpt>
      <trkpt lat="44.38603" lon="6.40129">
        <ele>2108</ele>
        <time>2016-07-18T09:40:39.000Z</time>
      </trkpt>
      <trkpt lat="44.38605" lon="6.40128">
        <ele>2108</ele>
        <time>2016-07-18T09:40:46.000Z</time>
      </trkpt>
      <trkpt lat="44.38604" lon="6.40128">
        <ele>2108</ele>
        <time>2016-07-18T09:40:50.000Z</time>
      </trkpt>
      <trkpt lat="44.38609" lon="6.40128">
        <ele>2108</ele>
        <time>2016-07-18T09:40:57.000Z</time>
      </trkpt>
      <trkpt lat="44.38618" lon="6.40132">
        <ele>2107.3999023438</ele>
        <time>2016-07-18T09:41:04.000Z</time>
      </trkpt>
      <trkpt lat="44.38629" lon="6.40139">
        <ele>2105.6000976562</ele>
        <time>2016-07-18T09:41:12.000Z</time>
      </trkpt>
      <trkpt lat="44.38641" lon="6.40144">
        <ele>2103.8000488281</ele>
        <time>2016-07-18T09:41:21.000Z</time>
      </trkpt>
      <trkpt lat="44.38651" lon="6.40147">
        <ele>2102.3999023438</ele>
        <time>2016-07-18T09:41:27.000Z</time>
      </trkpt>
      <trkpt lat="44.38662" lon="6.40157">
        <ele>2100.6000976562</ele>
        <time>2016-07-18T09:41:36.000Z</time>
      </trkpt>
      <trkpt lat="44.38671" lon="6.40159">
        <ele>2099.1999511719</ele>
        <time>2016-07-18T09:41:43.000Z</time>
      </trkpt>
      <trkpt lat="44.38681" lon="6.40161">
        <ele>2097.8000488281</ele>
        <time>2016-07-18T09:41:50.000Z</time>
      </trkpt>
      <trkpt lat="44.38697" lon="6.40161">
        <ele>2095.8000488281</ele>
        <time>2016-07-18T09:42:01.000Z</time>
      </trkpt>
      <trkpt lat="44.38711" lon="6.40159">
        <ele>2095.6000976562</ele>
        <time>2016-07-18T09:42:11.000Z</time>
      </trkpt>
      <trkpt lat="44.38723" lon="6.40162">
        <ele>2095.3999023438</ele>
        <time>2016-07-18T09:42:20.000Z</time>
      </trkpt>
      <trkpt lat="44.38734" lon="6.40164">
        <ele>2095.3999023438</ele>
        <time>2016-07-18T09:42:28.000Z</time>
      </trkpt>
      <trkpt lat="44.38748" lon="6.40165">
        <ele>2095.3999023438</ele>
        <time>2016-07-18T09:42:38.000Z</time>
      </trkpt>
      <trkpt lat="44.38753" lon="6.40166">
        <ele>2095.3999023438</ele>
        <time>2016-07-18T09:42:58.000Z</time>
      </trkpt>
      <trkpt lat="44.38762" lon="6.40165">
        <ele>2095.3999023438</ele>
        <time>2016-07-18T09:43:05.000Z</time>
      </trkpt>
      <trkpt lat="44.38773" lon="6.40161">
        <ele>2095.6000976562</ele>
        <time>2016-07-18T09:43:13.000Z</time>
      </trkpt>
      <trkpt lat="44.38782" lon="6.4016">
        <ele>2095.6000976562</ele>
        <time>2016-07-18T09:43:20.000Z</time>
      </trkpt>
      <trkpt lat="44.38788" lon="6.40159">
        <ele>2095.3999023438</ele>
        <time>2016-07-18T09:43:25.000Z</time>
      </trkpt>
      <trkpt lat="44.38793" lon="6.40159">
        <ele>2095.3999023438</ele>
        <time>2016-07-18T09:43:29.000Z</time>
      </trkpt>
      <trkpt lat="44.38801" lon="6.40153">
        <ele>2095.8000488281</ele>
        <time>2016-07-18T09:43:36.000Z</time>
      </trkpt>
      <trkpt lat="44.38814" lon="6.4015">
        <ele>2096.3999023438</ele>
        <time>2016-07-18T09:43:45.000Z</time>
      </trkpt>
      <trkpt lat="44.38822" lon="6.40148">
        <ele>2096.3999023438</ele>
        <time>2016-07-18T09:43:52.000Z</time>
      </trkpt>
      <trkpt lat="44.38833" lon="6.40148">
        <ele>2096.6000976562</ele>
        <time>2016-07-18T09:44:00.000Z</time>
      </trkpt>
      <trkpt lat="44.38842" lon="6.40142">
        <ele>2097.3999023438</ele>
        <time>2016-07-18T09:44:07.000Z</time>
      </trkpt>
      <trkpt lat="44.38855" lon="6.40138">
        <ele>2098</ele>
        <time>2016-07-18T09:44:16.000Z</time>
      </trkpt>
      <trkpt lat="44.38857" lon="6.40137">
        <ele>2098.1999511719</ele>
        <time>2016-07-18T09:44:18.000Z</time>
      </trkpt>
      <trkpt lat="44.38862" lon="6.40136">
        <ele>2098.6000976562</ele>
        <time>2016-07-18T09:44:25.000Z</time>
      </trkpt>
      <trkpt lat="44.38878" lon="6.40132">
        <ele>2099.6000976562</ele>
        <time>2016-07-18T09:44:36.000Z</time>
      </trkpt>
      <trkpt lat="44.3889" lon="6.4013">
        <ele>2100.1999511719</ele>
        <time>2016-07-18T09:44:45.000Z</time>
      </trkpt>
      <trkpt lat="44.38904" lon="6.40125">
        <ele>2101.1999511719</ele>
        <time>2016-07-18T09:44:55.000Z</time>
      </trkpt>
      <trkpt lat="44.38907" lon="6.40124">
        <ele>2101.6000976562</ele>
        <time>2016-07-18T09:44:58.000Z</time>
      </trkpt>
      <trkpt lat="44.38911" lon="6.40124">
        <ele>2101.6000976562</ele>
        <time>2016-07-18T09:45:01.000Z</time>
      </trkpt>
      <trkpt lat="44.38918" lon="6.4012">
        <ele>2102.3999023438</ele>
        <time>2016-07-18T09:45:06.000Z</time>
      </trkpt>
      <trkpt lat="44.38919" lon="6.4012">
        <ele>2102.3999023438</ele>
        <time>2016-07-18T09:45:07.000Z</time>
      </trkpt>
      <trkpt lat="44.38926" lon="6.40118">
        <ele>2102.6000976562</ele>
        <time>2016-07-18T09:45:13.000Z</time>
      </trkpt>
      <trkpt lat="44.38935" lon="6.40117">
        <ele>2102.8000488281</ele>
        <time>2016-07-18T09:45:20.000Z</time>
      </trkpt>
      <trkpt lat="44.38941" lon="6.40118">
        <ele>2102.6000976562</ele>
        <time>2016-07-18T09:45:25.000Z</time>
      </trkpt>
      <trkpt lat="44.38947" lon="6.40117">
        <ele>2102.8000488281</ele>
        <time>2016-07-18T09:45:30.000Z</time>
      </trkpt>
      <trkpt lat="44.3895" lon="6.40116">
        <ele>2103</ele>
        <time>2016-07-18T09:45:32.000Z</time>
      </trkpt>
      <trkpt lat="44.3896" lon="6.40113">
        <ele>2104.3999023438</ele>
        <time>2016-07-18T09:45:40.000Z</time>
      </trkpt>
      <trkpt lat="44.3897" lon="6.40111">
        <ele>2105.1999511719</ele>
        <time>2016-07-18T09:45:47.000Z</time>
      </trkpt>
      <trkpt lat="44.38991" lon="6.40121">
        <ele>2105.8000488281</ele>
        <time>2016-07-18T09:46:03.000Z</time>
      </trkpt>
      <trkpt lat="44.38998" lon="6.40127">
        <ele>2105.8000488281</ele>
        <time>2016-07-18T09:46:09.000Z</time>
      </trkpt>
      <trkpt lat="44.39002" lon="6.40137">
        <ele>2104.8000488281</ele>
        <time>2016-07-18T09:46:15.000Z</time>
      </trkpt>
      <trkpt lat="44.39006" lon="6.40145">
        <ele>2104.3999023438</ele>
        <time>2016-07-18T09:46:21.000Z</time>
      </trkpt>
      <trkpt lat="44.39007" lon="6.40146">
        <ele>2104.1999511719</ele>
        <time>2016-07-18T09:46:22.000Z</time>
      </trkpt>
      <trkpt lat="44.39017" lon="6.4015">
        <ele>2104.6000976562</ele>
        <time>2016-07-18T09:46:30.000Z</time>
      </trkpt>
      <trkpt lat="44.39027" lon="6.40145">
        <ele>2106</ele>
        <time>2016-07-18T09:46:38.000Z</time>
      </trkpt>
      <trkpt lat="44.39035" lon="6.40139">
        <ele>2107.8000488281</ele>
        <time>2016-07-18T09:46:45.000Z</time>
      </trkpt>
      <trkpt lat="44.39045" lon="6.40129">
        <ele>2110.8000488281</ele>
        <time>2016-07-18T09:46:54.000Z</time>
      </trkpt>
      <trkpt lat="44.39055" lon="6.40121">
        <ele>2113.8000488281</ele>
        <time>2016-07-18T09:47:03.000Z</time>
      </trkpt>
      <trkpt lat="44.39063" lon="6.40115">
        <ele>2115.8000488281</ele>
        <time>2016-07-18T09:47:10.000Z</time>
      </trkpt>
      <trkpt lat="44.39071" lon="6.40112">
        <ele>2117.3999023438</ele>
        <time>2016-07-18T09:47:17.000Z</time>
      </trkpt>
      <trkpt lat="44.39083" lon="6.40108">
        <ele>2119.6000976562</ele>
        <time>2016-07-18T09:47:26.000Z</time>
      </trkpt>
      <trkpt lat="44.39094" lon="6.40108">
        <ele>2121.1999511719</ele>
        <time>2016-07-18T09:47:35.000Z</time>
      </trkpt>
      <trkpt lat="44.39101" lon="6.40115">
        <ele>2121.1999511719</ele>
        <time>2016-07-18T09:47:42.000Z</time>
      </trkpt>
      <trkpt lat="44.39102" lon="6.40117">
        <ele>2121</ele>
        <time>2016-07-18T09:47:43.000Z</time>
      </trkpt>
      <trkpt lat="44.39108" lon="6.40126">
        <ele>2120.3999023438</ele>
        <time>2016-07-18T09:47:51.000Z</time>
      </trkpt>
      <trkpt lat="44.39118" lon="6.40131">
        <ele>2120.8000488281</ele>
        <time>2016-07-18T09:48:00.000Z</time>
      </trkpt>
      <trkpt lat="44.39126" lon="6.40132">
        <ele>2121.1999511719</ele>
        <time>2016-07-18T09:48:07.000Z</time>
      </trkpt>
      <trkpt lat="44.39134" lon="6.40133">
        <ele>2121.6000976562</ele>
        <time>2016-07-18T09:48:14.000Z</time>
      </trkpt>
      <trkpt lat="44.39144" lon="6.40132">
        <ele>2122.3999023438</ele>
        <time>2016-07-18T09:48:22.000Z</time>
      </trkpt>
      <trkpt lat="44.39154" lon="6.40128">
        <ele>2123.6000976562</ele>
        <time>2016-07-18T09:48:30.000Z</time>
      </trkpt>
      <trkpt lat="44.39163" lon="6.40122">
        <ele>2125</ele>
        <time>2016-07-18T09:48:38.000Z</time>
      </trkpt>
      <trkpt lat="44.39172" lon="6.40113">
        <ele>2126</ele>
        <time>2016-07-18T09:48:46.000Z</time>
      </trkpt>
      <trkpt lat="44.39178" lon="6.401">
        <ele>2126.6000976562</ele>
        <time>2016-07-18T09:48:54.000Z</time>
      </trkpt>
      <trkpt lat="44.39174" lon="6.40088">
        <ele>2127.3999023438</ele>
        <time>2016-07-18T09:49:01.000Z</time>
      </trkpt>
      <trkpt lat="44.39169" lon="6.40072">
        <ele>2128.6000976562</ele>
        <time>2016-07-18T09:49:10.000Z</time>
      </trkpt>
      <trkpt lat="44.39168" lon="6.40056">
        <ele>2130.6000976562</ele>
        <time>2016-07-18T09:49:19.000Z</time>
      </trkpt>
      <trkpt lat="44.39164" lon="6.40046">
        <ele>2132.3999023438</ele>
        <time>2016-07-18T09:49:27.000Z</time>
      </trkpt>
      <trkpt lat="44.39166" lon="6.40032">
        <ele>2134.6000976562</ele>
        <time>2016-07-18T09:49:34.000Z</time>
      </trkpt>
      <trkpt lat="44.39167" lon="6.40031">
        <ele>2134.6000976562</ele>
        <time>2016-07-18T09:49:35.000Z</time>
      </trkpt>
      <trkpt lat="44.39173" lon="6.40023">
        <ele>2133.6000976562</ele>
        <time>2016-07-18T09:49:42.000Z</time>
      </trkpt>
      <trkpt lat="44.39179" lon="6.40017">
        <ele>2132.6000976562</ele>
        <time>2016-07-18T09:49:49.000Z</time>
      </trkpt>
      <trkpt lat="44.39184" lon="6.40015">
        <ele>2131.8000488281</ele>
        <time>2016-07-18T09:49:54.000Z</time>
      </trkpt>
      <trkpt lat="44.39196" lon="6.40004">
        <ele>2130</ele>
        <time>2016-07-18T09:50:08.000Z</time>
      </trkpt>
      <trkpt lat="44.39197" lon="6.40001">
        <ele>2129.8000488281</ele>
        <time>2016-07-18T09:50:10.000Z</time>
      </trkpt>
      <trkpt lat="44.39197" lon="6.39998">
        <ele>2129.8000488281</ele>
        <time>2016-07-18T09:50:12.000Z</time>
      </trkpt>
      <trkpt lat="44.39199" lon="6.39987">
        <ele>2129.6000976562</ele>
        <time>2016-07-18T09:50:19.000Z</time>
      </trkpt>
      <trkpt lat="44.39203" lon="6.39984">
        <ele>2129</ele>
        <time>2016-07-18T09:50:22.000Z</time>
      </trkpt>
      <trkpt lat="44.39215" lon="6.39985">
        <ele>2126.1999511719</ele>
        <time>2016-07-18T09:50:30.000Z</time>
      </trkpt>
      <trkpt lat="44.39226" lon="6.39987">
        <ele>2123.6000976562</ele>
        <time>2016-07-18T09:50:38.000Z</time>
      </trkpt>
      <trkpt lat="44.39237" lon="6.39979">
        <ele>2121</ele>
        <time>2016-07-18T09:50:45.000Z</time>
      </trkpt>
      <trkpt lat="44.39248" lon="6.39961">
        <ele>2117.3999023438</ele>
        <time>2016-07-18T09:50:52.000Z</time>
      </trkpt>
      <trkpt lat="44.39256" lon="6.39948">
        <ele>2115.8000488281</ele>
        <time>2016-07-18T09:50:59.000Z</time>
      </trkpt>
      <trkpt lat="44.39268" lon="6.39946">
        <ele>2114.6000976562</ele>
        <time>2016-07-18T09:51:06.000Z</time>
      </trkpt>
      <trkpt lat="44.39282" lon="6.39948">
        <ele>2113</ele>
        <time>2016-07-18T09:51:14.000Z</time>
      </trkpt>
      <trkpt lat="44.39296" lon="6.3995">
        <ele>2111.3999023438</ele>
        <time>2016-07-18T09:51:23.000Z</time>
      </trkpt>
      <trkpt lat="44.39312" lon="6.39953">
        <ele>2109.8000488281</ele>
        <time>2016-07-18T09:51:34.000Z</time>
      </trkpt>
      <trkpt lat="44.39326" lon="6.39953">
        <ele>2108.3999023438</ele>
        <time>2016-07-18T09:51:43.000Z</time>
      </trkpt>
      <trkpt lat="44.39332" lon="6.39955">
        <ele>2107.8000488281</ele>
        <time>2016-07-18T09:51:48.000Z</time>
      </trkpt>
      <trkpt lat="44.39341" lon="6.39957">
        <ele>2106.8000488281</ele>
        <time>2016-07-18T09:51:55.000Z</time>
      </trkpt>
      <trkpt lat="44.39354" lon="6.39961">
        <ele>2105.8000488281</ele>
        <time>2016-07-18T09:52:04.000Z</time>
      </trkpt>
      <trkpt lat="44.39363" lon="6.39965">
        <ele>2104.8000488281</ele>
        <time>2016-07-18T09:52:10.000Z</time>
      </trkpt>
      <trkpt lat="44.39373" lon="6.39967">
        <ele>2104</ele>
        <time>2016-07-18T09:52:17.000Z</time>
      </trkpt>
      <trkpt lat="44.39377" lon="6.39968">
        <ele>2103.8000488281</ele>
        <time>2016-07-18T09:52:20.000Z</time>
      </trkpt>
      <trkpt lat="44.39385" lon="6.39964">
        <ele>2103.8000488281</ele>
        <time>2016-07-18T09:52:27.000Z</time>
      </trkpt>
      <trkpt lat="44.39398" lon="6.39964">
        <ele>2103</ele>
        <time>2016-07-18T09:52:36.000Z</time>
      </trkpt>
      <trkpt lat="44.39412" lon="6.39965">
        <ele>2102</ele>
        <time>2016-07-18T09:52:42.000Z</time>
      </trkpt>
      <trkpt lat="44.39429" lon="6.3997">
        <ele>2100.3999023438</ele>
        <time>2016-07-18T09:52:48.000Z</time>
      </trkpt>
      <trkpt lat="44.39447" lon="6.39976">
        <ele>2098.6000976562</ele>
        <time>2016-07-18T09:52:54.000Z</time>
      </trkpt>
      <trkpt lat="44.39466" lon="6.39987">
        <ele>2097.1999511719</ele>
        <time>2016-07-18T09:53:01.000Z</time>
      </trkpt>
      <trkpt lat="44.39477" lon="6.39998">
        <ele>2095</ele>
        <time>2016-07-18T09:53:08.000Z</time>
      </trkpt>
      <trkpt lat="44.39488" lon="6.40009">
        <ele>2092.6000976562</ele>
        <time>2016-07-18T09:53:17.000Z</time>
      </trkpt>
      <trkpt lat="44.39496" lon="6.40017">
        <ele>2091.1999511719</ele>
        <time>2016-07-18T09:53:24.000Z</time>
      </trkpt>
      <trkpt lat="44.39499" lon="6.40018">
        <ele>2090.8000488281</ele>
        <time>2016-07-18T09:53:26.000Z</time>
      </trkpt>
      <trkpt lat="44.39504" lon="6.40016">
        <ele>2091.6000976562</ele>
        <time>2016-07-18T09:53:30.000Z</time>
      </trkpt>
      <trkpt lat="44.39506" lon="6.40014">
        <ele>2092</ele>
        <time>2016-07-18T09:53:32.000Z</time>
      </trkpt>
      <trkpt lat="44.39509" lon="6.40019">
        <ele>2091</ele>
        <time>2016-07-18T09:53:37.000Z</time>
      </trkpt>
      <trkpt lat="44.39509" lon="6.40022">
        <ele>2090.3999023438</ele>
        <time>2016-07-18T09:53:39.000Z</time>
      </trkpt>
      <trkpt lat="44.39507" lon="6.40026">
        <ele>2089.1999511719</ele>
        <time>2016-07-18T09:53:42.000Z</time>
      </trkpt>
      <trkpt lat="44.39506" lon="6.40031">
        <ele>2088.1999511719</ele>
        <time>2016-07-18T09:53:49.000Z</time>
      </trkpt>
      <trkpt lat="44.39509" lon="6.40036">
        <ele>2087.1999511719</ele>
        <time>2016-07-18T09:53:54.000Z</time>
      </trkpt>
      <trkpt lat="44.39512" lon="6.40039">
        <ele>2086.6000976562</ele>
        <time>2016-07-18T09:53:58.000Z</time>
      </trkpt>
      <trkpt lat="44.39518" lon="6.40041">
        <ele>2086</ele>
        <time>2016-07-18T09:54:04.000Z</time>
      </trkpt>
      <trkpt lat="44.3952" lon="6.40045">
        <ele>2085.1999511719</ele>
        <time>2016-07-18T09:54:08.000Z</time>
      </trkpt>
      <trkpt lat="44.39526" lon="6.40051">
        <ele>2084</ele>
        <time>2016-07-18T09:54:15.000Z</time>
      </trkpt>
      <trkpt lat="44.3953" lon="6.40059">
        <ele>2082.3999023438</ele>
        <time>2016-07-18T09:54:22.000Z</time>
      </trkpt>
      <trkpt lat="44.39537" lon="6.40069">
        <ele>2080.1999511719</ele>
        <time>2016-07-18T09:54:32.000Z</time>
      </trkpt>
      <trkpt lat="44.39542" lon="6.40076">
        <ele>2078.6000976562</ele>
        <time>2016-07-18T09:54:39.000Z</time>
      </trkpt>
      <trkpt lat="44.39546" lon="6.40084">
        <ele>2076.6000976562</ele>
        <time>2016-07-18T09:54:47.000Z</time>
      </trkpt>
      <trkpt lat="44.3955" lon="6.40087">
        <ele>2075.8000488281</ele>
        <time>2016-07-18T09:54:51.000Z</time>
      </trkpt>
      <trkpt lat="44.39558" lon="6.40096">
        <ele>2073.8000488281</ele>
        <time>2016-07-18T09:55:00.000Z</time>
      </trkpt>
      <trkpt lat="44.39566" lon="6.40102">
        <ele>2072.6000976562</ele>
        <time>2016-07-18T09:55:07.000Z</time>
      </trkpt>
      <trkpt lat="44.39574" lon="6.40107">
        <ele>2071.3999023438</ele>
        <time>2016-07-18T09:55:14.000Z</time>
      </trkpt>
      <trkpt lat="44.3958" lon="6.40109">
        <ele>2071.1999511719</ele>
        <time>2016-07-18T09:55:20.000Z</time>
      </trkpt>
      <trkpt lat="44.39581" lon="6.40109">
        <ele>2071</ele>
        <time>2016-07-18T09:55:21.000Z</time>
      </trkpt>
      <trkpt lat="44.39587" lon="6.40112">
        <ele>2070.6000976562</ele>
        <time>2016-07-18T09:55:26.000Z</time>
      </trkpt>
      <trkpt lat="44.39597" lon="6.40121">
        <ele>2068.6000976562</ele>
        <time>2016-07-18T09:55:35.000Z</time>
      </trkpt>
      <trkpt lat="44.39606" lon="6.4013">
        <ele>2066.6000976562</ele>
        <time>2016-07-18T09:55:43.000Z</time>
      </trkpt>
      <trkpt lat="44.3961" lon="6.40132">
        <ele>2066.3999023438</ele>
        <time>2016-07-18T09:55:48.000Z</time>
      </trkpt>
      <trkpt lat="44.39613" lon="6.40134">
        <ele>2066</ele>
        <time>2016-07-18T09:55:53.000Z</time>
      </trkpt>
      <trkpt lat="44.39619" lon="6.40141">
        <ele>2064.1999511719</ele>
        <time>2016-07-18T09:55:59.000Z</time>
      </trkpt>
      <trkpt lat="44.39621" lon="6.40142">
        <ele>2064</ele>
        <time>2016-07-18T09:56:01.000Z</time>
      </trkpt>
      <trkpt lat="44.39625" lon="6.40148">
        <ele>2062.3999023438</ele>
        <time>2016-07-18T09:56:06.000Z</time>
      </trkpt>
      <trkpt lat="44.39626" lon="6.40149">
        <ele>2062.1999511719</ele>
        <time>2016-07-18T09:56:07.000Z</time>
      </trkpt>
      <trkpt lat="44.39635" lon="6.40154">
        <ele>2061.8000488281</ele>
        <time>2016-07-18T09:56:14.000Z</time>
      </trkpt>
      <trkpt lat="44.39641" lon="6.40158">
        <ele>2061.1999511719</ele>
        <time>2016-07-18T09:56:20.000Z</time>
      </trkpt>
      <trkpt lat="44.39644" lon="6.4016">
        <ele>2061</ele>
        <time>2016-07-18T09:56:22.000Z</time>
      </trkpt>
      <trkpt lat="44.3965" lon="6.40164">
        <ele>2060.6000976562</ele>
        <time>2016-07-18T09:56:27.000Z</time>
      </trkpt>
      <trkpt lat="44.39656" lon="6.4017">
        <ele>2059.8000488281</ele>
        <time>2016-07-18T09:56:33.000Z</time>
      </trkpt>
      <trkpt lat="44.39665" lon="6.40179">
        <ele>2058.8000488281</ele>
        <time>2016-07-18T09:56:41.000Z</time>
      </trkpt>
      <trkpt lat="44.39673" lon="6.40185">
        <ele>2058.1999511719</ele>
        <time>2016-07-18T09:56:48.000Z</time>
      </trkpt>
      <trkpt lat="44.39682" lon="6.40189">
        <ele>2057.8000488281</ele>
        <time>2016-07-18T09:56:55.000Z</time>
      </trkpt>
      <trkpt lat="44.3969" lon="6.4019">
        <ele>2057.8000488281</ele>
        <time>2016-07-18T09:57:01.000Z</time>
      </trkpt>
      <trkpt lat="44.39692" lon="6.40191">
        <ele>2057.8000488281</ele>
        <time>2016-07-18T09:57:02.000Z</time>
      </trkpt>
      <trkpt lat="44.39696" lon="6.40192">
        <ele>2057.6000976562</ele>
        <time>2016-07-18T09:57:09.000Z</time>
      </trkpt>
      <trkpt lat="44.39697" lon="6.40193">
        <ele>2057.6000976562</ele>
        <time>2016-07-18T09:57:11.000Z</time>
      </trkpt>
      <trkpt lat="44.39705" lon="6.40199">
        <ele>2056.1999511719</ele>
        <time>2016-07-18T09:57:18.000Z</time>
      </trkpt>
      <trkpt lat="44.39706" lon="6.402">
        <ele>2056</ele>
        <time>2016-07-18T09:57:19.000Z</time>
      </trkpt>
      <trkpt lat="44.39713" lon="6.402">
        <ele>2055.3999023438</ele>
        <time>2016-07-18T09:57:26.000Z</time>
      </trkpt>
      <trkpt lat="44.39717" lon="6.402">
        <ele>2055.1999511719</ele>
        <time>2016-07-18T09:57:30.000Z</time>
      </trkpt>
      <trkpt lat="44.39724" lon="6.40199">
        <ele>2054.8000488281</ele>
        <time>2016-07-18T09:57:36.000Z</time>
      </trkpt>
      <trkpt lat="44.3973" lon="6.40195">
        <ele>2055</ele>
        <time>2016-07-18T09:57:43.000Z</time>
      </trkpt>
      <trkpt lat="44.39732" lon="6.40189">
        <ele>2055.8000488281</ele>
        <time>2016-07-18T09:57:49.000Z</time>
      </trkpt>
      <trkpt lat="44.39734" lon="6.40186">
        <ele>2056</ele>
        <time>2016-07-18T09:57:52.000Z</time>
      </trkpt>
      <trkpt lat="44.3974" lon="6.40171">
        <ele>2056.3999023438</ele>
        <time>2016-07-18T09:58:01.000Z</time>
      </trkpt>
      <trkpt lat="44.39745" lon="6.40173">
        <ele>2055.6000976562</ele>
        <time>2016-07-18T09:58:05.000Z</time>
      </trkpt>
      <trkpt lat="44.39753" lon="6.40183">
        <ele>2053.6000976562</ele>
        <time>2016-07-18T09:58:13.000Z</time>
      </trkpt>
      <trkpt lat="44.39754" lon="6.40184">
        <ele>2053.3999023438</ele>
        <time>2016-07-18T09:58:15.000Z</time>
      </trkpt>
      <trkpt lat="44.39753" lon="6.40187">
        <ele>2053.3999023438</ele>
        <time>2016-07-18T09:58:28.000Z</time>
      </trkpt>
      <trkpt lat="44.39753" lon="6.40193">
        <ele>2053</ele>
        <time>2016-07-18T09:58:45.000Z</time>
      </trkpt>
      <trkpt lat="44.39754" lon="6.40198">
        <ele>2052.3999023438</ele>
        <time>2016-07-18T09:58:49.000Z</time>
      </trkpt>
      <trkpt lat="44.39759" lon="6.40206">
        <ele>2051.1999511719</ele>
        <time>2016-07-18T09:58:54.000Z</time>
      </trkpt>
      <trkpt lat="44.39762" lon="6.40204">
        <ele>2050.8000488281</ele>
        <time>2016-07-18T09:58:59.000Z</time>
      </trkpt>
      <trkpt lat="44.39763" lon="6.40202">
        <ele>2050.8000488281</ele>
        <time>2016-07-18T09:59:00.000Z</time>
      </trkpt>
      <trkpt lat="44.39766" lon="6.40198">
        <ele>2050.8000488281</ele>
        <time>2016-07-18T09:59:06.000Z</time>
      </trkpt>
      <trkpt lat="44.39764" lon="6.402">
        <ele>2050.8000488281</ele>
        <time>2016-07-18T09:59:09.000Z</time>
      </trkpt>
      <trkpt lat="44.39766" lon="6.40198">
        <ele>2050.8000488281</ele>
        <time>2016-07-18T09:59:16.000Z</time>
      </trkpt>
      <trkpt lat="44.39767" lon="6.40191">
        <ele>2051.1999511719</ele>
        <time>2016-07-18T09:59:20.000Z</time>
      </trkpt>
      <trkpt lat="44.39769" lon="6.40176">
        <ele>2051.8000488281</ele>
        <time>2016-07-18T09:59:28.000Z</time>
      </trkpt>
      <trkpt lat="44.39774" lon="6.4016">
        <ele>2052.1999511719</ele>
        <time>2016-07-18T09:59:37.000Z</time>
      </trkpt>
      <trkpt lat="44.3978" lon="6.40151">
        <ele>2052</ele>
        <time>2016-07-18T09:59:44.000Z</time>
      </trkpt>
      <trkpt lat="44.39793" lon="6.40146">
        <ele>2052.8000488281</ele>
        <time>2016-07-18T09:59:54.000Z</time>
      </trkpt>
      <trkpt lat="44.39804" lon="6.40141">
        <ele>2053.6000976562</ele>
        <time>2016-07-18T10:00:02.000Z</time>
      </trkpt>
      <trkpt lat="44.39815" lon="6.40134">
        <ele>2054.3999023438</ele>
        <time>2016-07-18T10:00:10.000Z</time>
      </trkpt>
      <trkpt lat="44.39823" lon="6.40124">
        <ele>2055</ele>
        <time>2016-07-18T10:00:18.000Z</time>
      </trkpt>
      <trkpt lat="44.39825" lon="6.40122">
        <ele>2055.1999511719</ele>
        <time>2016-07-18T10:00:20.000Z</time>
      </trkpt>
      <trkpt lat="44.39838" lon="6.40117">
        <ele>2056</ele>
        <time>2016-07-18T10:00:29.000Z</time>
      </trkpt>
      <trkpt lat="44.39847" lon="6.40113">
        <ele>2056.1999511719</ele>
        <time>2016-07-18T10:00:36.000Z</time>
      </trkpt>
      <trkpt lat="44.39856" lon="6.40109">
        <ele>2056.1999511719</ele>
        <time>2016-07-18T10:00:42.000Z</time>
      </trkpt>
      <trkpt lat="44.39878" lon="6.401">
        <ele>2056.8000488281</ele>
        <time>2016-07-18T10:00:59.000Z</time>
      </trkpt>
      <trkpt lat="44.39895" lon="6.40095">
        <ele>2057.3999023438</ele>
        <time>2016-07-18T10:01:12.000Z</time>
      </trkpt>
      <trkpt lat="44.39906" lon="6.40094">
        <ele>2058.6000976562</ele>
        <time>2016-07-18T10:01:20.000Z</time>
      </trkpt>
      <trkpt lat="44.39913" lon="6.40101">
        <ele>2059</ele>
        <time>2016-07-18T10:01:27.000Z</time>
      </trkpt>
      <trkpt lat="44.39925" lon="6.40111">
        <ele>2059.8000488281</ele>
        <time>2016-07-18T10:01:36.000Z</time>
      </trkpt>
      <trkpt lat="44.39935" lon="6.40121">
        <ele>2060.1999511719</ele>
        <time>2016-07-18T10:01:45.000Z</time>
      </trkpt>
      <trkpt lat="44.3994" lon="6.40136">
        <ele>2059.8000488281</ele>
        <time>2016-07-18T10:01:53.000Z</time>
      </trkpt>
      <trkpt lat="44.39941" lon="6.40143">
        <ele>2059.6000976562</ele>
        <time>2016-07-18T10:01:57.000Z</time>
      </trkpt>
      <trkpt lat="44.3994" lon="6.40148">
        <ele>2059.6000976562</ele>
        <time>2016-07-18T10:02:00.000Z</time>
      </trkpt>
      <trkpt lat="44.3994" lon="6.40151">
        <ele>2059.3999023438</ele>
        <time>2016-07-18T10:02:08.000Z</time>
      </trkpt>
      <trkpt lat="44.39945" lon="6.40153">
        <ele>2059</ele>
        <time>2016-07-18T10:02:18.000Z</time>
      </trkpt>
      <trkpt lat="44.39947" lon="6.40155">
        <ele>2058.6000976562</ele>
        <time>2016-07-18T10:02:21.000Z</time>
      </trkpt>
      <trkpt lat="44.39951" lon="6.40155">
        <ele>2059</ele>
        <time>2016-07-18T10:02:25.000Z</time>
      </trkpt>
      <trkpt lat="44.39951" lon="6.40153">
        <ele>2059.3999023438</ele>
        <time>2016-07-18T10:02:35.000Z</time>
      </trkpt>
      <trkpt lat="44.3995" lon="6.40154">
        <ele>2059</ele>
        <time>2016-07-18T10:02:52.000Z</time>
      </trkpt>
      <trkpt lat="44.39948" lon="6.40157">
        <ele>2058.3999023438</ele>
        <time>2016-07-18T10:03:14.000Z</time>
      </trkpt>
      <trkpt lat="44.39945" lon="6.40159">
        <ele>2058</ele>
        <time>2016-07-18T10:03:41.000Z</time>
      </trkpt>
      <trkpt lat="44.39941" lon="6.4016">
        <ele>2057.6000976562</ele>
        <time>2016-07-18T10:03:49.000Z</time>
      </trkpt>
      <trkpt lat="44.39946" lon="6.40157">
        <ele>2058.1999511719</ele>
        <time>2016-07-18T10:05:30.000Z</time>
      </trkpt>
      <trkpt lat="44.39949" lon="6.40153">
        <ele>2059.1999511719</ele>
        <time>2016-07-18T10:05:37.000Z</time>
      </trkpt>
      <trkpt lat="44.39951" lon="6.4015">
        <ele>2059.8000488281</ele>
        <time>2016-07-18T10:05:45.000Z</time>
      </trkpt>
      <trkpt lat="44.39951" lon="6.40148">
        <ele>2060.1999511719</ele>
        <time>2016-07-18T10:05:54.000Z</time>
      </trkpt>
      <trkpt lat="44.39958" lon="6.40149">
        <ele>2060.6000976562</ele>
        <time>2016-07-18T10:06:00.000Z</time>
      </trkpt>
      <trkpt lat="44.39968" lon="6.40154">
        <ele>2060.3999023438</ele>
        <time>2016-07-18T10:06:08.000Z</time>
      </trkpt>
      <trkpt lat="44.39978" lon="6.40154">
        <ele>2061.1999511719</ele>
        <time>2016-07-18T10:06:15.000Z</time>
      </trkpt>
      <trkpt lat="44.39987" lon="6.40148">
        <ele>2062.8000488281</ele>
        <time>2016-07-18T10:06:22.000Z</time>
      </trkpt>
      <trkpt lat="44.39995" lon="6.40144">
        <ele>2063.6000976562</ele>
        <time>2016-07-18T10:06:29.000Z</time>
      </trkpt>
      <trkpt lat="44.40001" lon="6.40143">
        <ele>2064.1999511719</ele>
        <time>2016-07-18T10:06:34.000Z</time>
      </trkpt>
      <trkpt lat="44.40008" lon="6.40138">
        <ele>2065</ele>
        <time>2016-07-18T10:06:40.000Z</time>
      </trkpt>
      <trkpt lat="44.40013" lon="6.40139">
        <ele>2065.1999511719</ele>
        <time>2016-07-18T10:06:44.000Z</time>
      </trkpt>
      <trkpt lat="44.40019" lon="6.40141">
        <ele>2065.6000976562</ele>
        <time>2016-07-18T10:06:49.000Z</time>
      </trkpt>
      <trkpt lat="44.4003" lon="6.40145">
        <ele>2066</ele>
        <time>2016-07-18T10:06:57.000Z</time>
      </trkpt>
      <trkpt lat="44.4004" lon="6.4015">
        <ele>2066.1999511719</ele>
        <time>2016-07-18T10:07:05.000Z</time>
      </trkpt>
      <trkpt lat="44.40041" lon="6.4015">
        <ele>2066.1999511719</ele>
        <time>2016-07-18T10:07:06.000Z</time>
      </trkpt>
      <trkpt lat="44.40049" lon="6.40157">
        <ele>2066</ele>
        <time>2016-07-18T10:07:14.000Z</time>
      </trkpt>
      <trkpt lat="44.40056" lon="6.40162">
        <ele>2065.8000488281</ele>
        <time>2016-07-18T10:07:20.000Z</time>
      </trkpt>
      <trkpt lat="44.40063" lon="6.40166">
        <ele>2065.8000488281</ele>
        <time>2016-07-18T10:07:27.000Z</time>
      </trkpt>
      <trkpt lat="44.40067" lon="6.40169">
        <ele>2065.8000488281</ele>
        <time>2016-07-18T10:07:31.000Z</time>
      </trkpt>
      <trkpt lat="44.40072" lon="6.40171">
        <ele>2065.8000488281</ele>
        <time>2016-07-18T10:07:35.000Z</time>
      </trkpt>
      <trkpt lat="44.4008" lon="6.40173">
        <ele>2066</ele>
        <time>2016-07-18T10:07:42.000Z</time>
      </trkpt>
      <trkpt lat="44.40085" lon="6.40175">
        <ele>2066</ele>
        <time>2016-07-18T10:07:46.000Z</time>
      </trkpt>
      <trkpt lat="44.4009" lon="6.40177">
        <ele>2066</ele>
        <time>2016-07-18T10:07:50.000Z</time>
      </trkpt>
      <trkpt lat="44.40092" lon="6.40179">
        <ele>2066</ele>
        <time>2016-07-18T10:07:52.000Z</time>
      </trkpt>
      <trkpt lat="44.40098" lon="6.40187">
        <ele>2065.6000976562</ele>
        <time>2016-07-18T10:07:58.000Z</time>
      </trkpt>
      <trkpt lat="44.40099" lon="6.40195">
        <ele>2065</ele>
        <time>2016-07-18T10:08:04.000Z</time>
      </trkpt>
      <trkpt lat="44.401" lon="6.40196">
        <ele>2065</ele>
        <time>2016-07-18T10:08:05.000Z</time>
      </trkpt>
      <trkpt lat="44.40103" lon="6.40194">
        <ele>2065.1999511719</ele>
        <time>2016-07-18T10:08:10.000Z</time>
      </trkpt>
      <trkpt lat="44.40105" lon="6.40191">
        <ele>2065.6000976562</ele>
        <time>2016-07-18T10:08:12.000Z</time>
      </trkpt>
      <trkpt lat="44.40109" lon="6.40193">
        <ele>2065.6000976562</ele>
        <time>2016-07-18T10:08:18.000Z</time>
      </trkpt>
      <trkpt lat="44.40109" lon="6.40194">
        <ele>2065.3999023438</ele>
        <time>2016-07-18T10:08:19.000Z</time>
      </trkpt>
      <trkpt lat="44.4011" lon="6.40205">
        <ele>2064.8000488281</ele>
        <time>2016-07-18T10:08:26.000Z</time>
      </trkpt>
      <trkpt lat="44.4011" lon="6.40208">
        <ele>2064.6000976562</ele>
        <time>2016-07-18T10:08:28.000Z</time>
      </trkpt>
      <trkpt lat="44.40109" lon="6.40213">
        <ele>2064.1999511719</ele>
        <time>2016-07-18T10:08:32.000Z</time>
      </trkpt>
      <trkpt lat="44.40113" lon="6.40219">
        <ele>2063.8000488281</ele>
        <time>2016-07-18T10:08:38.000Z</time>
      </trkpt>
      <trkpt lat="44.40114" lon="6.40221">
        <ele>2063.8000488281</ele>
        <time>2016-07-18T10:08:40.000Z</time>
      </trkpt>
      <trkpt lat="44.40115" lon="6.40222">
        <ele>2063.8000488281</ele>
        <time>2016-07-18T10:08:44.000Z</time>
      </trkpt>
      <trkpt lat="44.40114" lon="6.40221">
        <ele>2063.8000488281</ele>
        <time>2016-07-18T10:08:47.000Z</time>
      </trkpt>
      <trkpt lat="44.40096" lon="6.40171">
        <ele>2066.6000976562</ele>
        <time>2016-07-18T11:26:47.000Z</time>
      </trkpt>
      <trkpt lat="44.40094" lon="6.40169">
        <ele>2066.8000488281</ele>
        <time>2016-07-18T11:26:49.000Z</time>
      </trkpt>
      <trkpt lat="44.40092" lon="6.40161">
        <ele>2067.1999511719</ele>
        <time>2016-07-18T11:26:54.000Z</time>
      </trkpt>
      <trkpt lat="44.40088" lon="6.40152">
        <ele>2067.8000488281</ele>
        <time>2016-07-18T11:27:01.000Z</time>
      </trkpt>
      <trkpt lat="44.40083" lon="6.40142">
        <ele>2067.8000488281</ele>
        <time>2016-07-18T11:27:09.000Z</time>
      </trkpt>
      <trkpt lat="44.40076" lon="6.4013">
        <ele>2067.6000976562</ele>
        <time>2016-07-18T11:27:20.000Z</time>
      </trkpt>
      <trkpt lat="44.40071" lon="6.40118">
        <ele>2067.3999023438</ele>
        <time>2016-07-18T11:27:28.000Z</time>
      </trkpt>
      <trkpt lat="44.40066" lon="6.40105">
        <ele>2067.1999511719</ele>
        <time>2016-07-18T11:27:37.000Z</time>
      </trkpt>
      <trkpt lat="44.40064" lon="6.40101">
        <ele>2067.1999511719</ele>
        <time>2016-07-18T11:27:40.000Z</time>
      </trkpt>
      <trkpt lat="44.40062" lon="6.40096">
        <ele>2067</ele>
        <time>2016-07-18T11:27:44.000Z</time>
      </trkpt>
      <trkpt lat="44.40062" lon="6.40098">
        <ele>2067</ele>
        <time>2016-07-18T11:27:50.000Z</time>
      </trkpt>
      <trkpt lat="44.40056" lon="6.40072">
        <ele>2065.8000488281</ele>
        <time>2016-07-18T11:28:06.000Z</time>
      </trkpt>
      <trkpt lat="44.40051" lon="6.40055">
        <ele>2066.1999511719</ele>
        <time>2016-07-18T11:28:15.000Z</time>
      </trkpt>
      <trkpt lat="44.40049" lon="6.40047">
        <ele>2066.6000976562</ele>
        <time>2016-07-18T11:28:19.000Z</time>
      </trkpt>
      <trkpt lat="44.40051" lon="6.40022">
        <ele>2068.1999511719</ele>
        <time>2016-07-18T11:28:30.000Z</time>
      </trkpt>
      <trkpt lat="44.40053" lon="6.40002">
        <ele>2069.1999511719</ele>
        <time>2016-07-18T11:28:39.000Z</time>
      </trkpt>
      <trkpt lat="44.40058" lon="6.39987">
        <ele>2068.3999023438</ele>
        <time>2016-07-18T11:28:47.000Z</time>
      </trkpt>
      <trkpt lat="44.40071" lon="6.39964">
        <ele>2069.1999511719</ele>
        <time>2016-07-18T11:29:01.000Z</time>
      </trkpt>
      <trkpt lat="44.40073" lon="6.39945">
        <ele>2071.3999023438</ele>
        <time>2016-07-18T11:29:10.000Z</time>
      </trkpt>
      <trkpt lat="44.40074" lon="6.39924">
        <ele>2073</ele>
        <time>2016-07-18T11:29:20.000Z</time>
      </trkpt>
      <trkpt lat="44.40075" lon="6.39911">
        <ele>2073.8000488281</ele>
        <time>2016-07-18T11:29:27.000Z</time>
      </trkpt>
      <trkpt lat="44.40076" lon="6.3991">
        <ele>2073.6000976562</ele>
        <time>2016-07-18T11:29:28.000Z</time>
      </trkpt>
      <trkpt lat="44.40079" lon="6.39905">
        <ele>2073.3999023438</ele>
        <time>2016-07-18T11:29:33.000Z</time>
      </trkpt>
      <trkpt lat="44.40082" lon="6.39911">
        <ele>2072.8000488281</ele>
        <time>2016-07-18T11:29:38.000Z</time>
      </trkpt>
      <trkpt lat="44.4008" lon="6.39905">
        <ele>2073.3999023438</ele>
        <time>2016-07-18T11:29:43.000Z</time>
      </trkpt>
      <trkpt lat="44.4008" lon="6.39902">
        <ele>2073.6000976562</ele>
        <time>2016-07-18T11:29:44.000Z</time>
      </trkpt>
      <trkpt lat="44.40074" lon="6.39898">
        <ele>2074.8000488281</ele>
        <time>2016-07-18T11:29:50.000Z</time>
      </trkpt>
      <trkpt lat="44.40071" lon="6.39891">
        <ele>2075.8000488281</ele>
        <time>2016-07-18T11:29:54.000Z</time>
      </trkpt>
      <trkpt lat="44.40071" lon="6.39887">
        <ele>2076.1999511719</ele>
        <time>2016-07-18T11:29:56.000Z</time>
      </trkpt>
      <trkpt lat="44.40071" lon="6.39885">
        <ele>2076.1999511719</ele>
        <time>2016-07-18T11:29:57.000Z</time>
      </trkpt>
      <trkpt lat="44.40072" lon="6.39865">
        <ele>2077.1999511719</ele>
        <time>2016-07-18T11:30:07.000Z</time>
      </trkpt>
      <trkpt lat="44.40074" lon="6.39856">
        <ele>2077.6000976562</ele>
        <time>2016-07-18T11:30:12.000Z</time>
      </trkpt>
      <trkpt lat="44.40074" lon="6.3985">
        <ele>2078.6000976562</ele>
        <time>2016-07-18T11:30:16.000Z</time>
      </trkpt>
      <trkpt lat="44.4007" lon="6.39844">
        <ele>2079.8000488281</ele>
        <time>2016-07-18T11:30:21.000Z</time>
      </trkpt>
      <trkpt lat="44.40071" lon="6.3983">
        <ele>2082.1999511719</ele>
        <time>2016-07-18T11:30:29.000Z</time>
      </trkpt>
      <trkpt lat="44.40071" lon="6.39815">
        <ele>2084.6000976562</ele>
        <time>2016-07-18T11:30:37.000Z</time>
      </trkpt>
      <trkpt lat="44.4007" lon="6.39798">
        <ele>2086.1999511719</ele>
        <time>2016-07-18T11:30:46.000Z</time>
      </trkpt>
      <trkpt lat="44.40067" lon="6.3978">
        <ele>2087.8000488281</ele>
        <time>2016-07-18T11:30:55.000Z</time>
      </trkpt>
      <trkpt lat="44.40066" lon="6.39773">
        <ele>2088.3999023438</ele>
        <time>2016-07-18T11:31:00.000Z</time>
      </trkpt>
      <trkpt lat="44.40066" lon="6.39771">
        <ele>2088.6000976562</ele>
        <time>2016-07-18T11:31:01.000Z</time>
      </trkpt>
      <trkpt lat="44.40067" lon="6.39758">
        <ele>2089.8000488281</ele>
        <time>2016-07-18T11:31:08.000Z</time>
      </trkpt>
      <trkpt lat="44.40065" lon="6.39741">
        <ele>2091.6000976562</ele>
        <time>2016-07-18T11:31:17.000Z</time>
      </trkpt>
      <trkpt lat="44.40063" lon="6.39723">
        <ele>2093.8000488281</ele>
        <time>2016-07-18T11:31:26.000Z</time>
      </trkpt>
      <trkpt lat="44.40065" lon="6.39711">
        <ele>2095.8000488281</ele>
        <time>2016-07-18T11:31:33.000Z</time>
      </trkpt>
      <trkpt lat="44.40066" lon="6.39695">
        <ele>2098.1999511719</ele>
        <time>2016-07-18T11:31:42.000Z</time>
      </trkpt>
      <trkpt lat="44.4007" lon="6.39679">
        <ele>2100</ele>
        <time>2016-07-18T11:31:51.000Z</time>
      </trkpt>
      <trkpt lat="44.40074" lon="6.39664">
        <ele>2101.1999511719</ele>
        <time>2016-07-18T11:32:00.000Z</time>
      </trkpt>
      <trkpt lat="44.40081" lon="6.39646">
        <ele>2102.6000976562</ele>
        <time>2016-07-18T11:32:10.000Z</time>
      </trkpt>
      <trkpt lat="44.40088" lon="6.39637">
        <ele>2103.3999023438</ele>
        <time>2016-07-18T11:32:17.000Z</time>
      </trkpt>
      <trkpt lat="44.40094" lon="6.39625">
        <ele>2104.8000488281</ele>
        <time>2016-07-18T11:32:24.000Z</time>
      </trkpt>
      <trkpt lat="44.40097" lon="6.39613">
        <ele>2106.3999023438</ele>
        <time>2016-07-18T11:32:30.000Z</time>
      </trkpt>
      <trkpt lat="44.401" lon="6.39602">
        <ele>2107.8000488281</ele>
        <time>2016-07-18T11:32:36.000Z</time>
      </trkpt>
      <trkpt lat="44.40101" lon="6.39584">
        <ele>2110.3999023438</ele>
        <time>2016-07-18T11:32:45.000Z</time>
      </trkpt>
      <trkpt lat="44.40101" lon="6.39567">
        <ele>2113.1999511719</ele>
        <time>2016-07-18T11:32:54.000Z</time>
      </trkpt>
      <trkpt lat="44.40099" lon="6.39548">
        <ele>2115.8000488281</ele>
        <time>2016-07-18T11:33:01.000Z</time>
      </trkpt>
      <trkpt lat="44.40097" lon="6.39529">
        <ele>2118.8000488281</ele>
        <time>2016-07-18T11:33:06.000Z</time>
      </trkpt>
      <trkpt lat="44.40098" lon="6.39518">
        <ele>2120.1999511719</ele>
        <time>2016-07-18T11:33:11.000Z</time>
      </trkpt>
      <trkpt lat="44.40103" lon="6.39503">
        <ele>2122.3999023438</ele>
        <time>2016-07-18T11:33:20.000Z</time>
      </trkpt>
      <trkpt lat="44.40108" lon="6.39485">
        <ele>2125</ele>
        <time>2016-07-18T11:33:30.000Z</time>
      </trkpt>
      <trkpt lat="44.40109" lon="6.39474">
        <ele>2125.6000976562</ele>
        <time>2016-07-18T11:33:36.000Z</time>
      </trkpt>
      <trkpt lat="44.40108" lon="6.39457">
        <ele>2128.1999511719</ele>
        <time>2016-07-18T11:33:43.000Z</time>
      </trkpt>
      <trkpt lat="44.40105" lon="6.3945">
        <ele>2128.8000488281</ele>
        <time>2016-07-18T11:33:47.000Z</time>
      </trkpt>
      <trkpt lat="44.40103" lon="6.39437">
        <ele>2130.6000976562</ele>
        <time>2016-07-18T11:33:54.000Z</time>
      </trkpt>
      <trkpt lat="44.40095" lon="6.39427">
        <ele>2131.3999023438</ele>
        <time>2016-07-18T11:34:01.000Z</time>
      </trkpt>
      <trkpt lat="44.40089" lon="6.39416">
        <ele>2132.3999023438</ele>
        <time>2016-07-18T11:34:08.000Z</time>
      </trkpt>
      <trkpt lat="44.4008" lon="6.39405">
        <ele>2133.1999511719</ele>
        <time>2016-07-18T11:34:17.000Z</time>
      </trkpt>
      <trkpt lat="44.40073" lon="6.39397">
        <ele>2133.6000976562</ele>
        <time>2016-07-18T11:34:25.000Z</time>
      </trkpt>
      <trkpt lat="44.40072" lon="6.39397">
        <ele>2133.3999023438</ele>
        <time>2016-07-18T11:34:42.000Z</time>
      </trkpt>
      <trkpt lat="44.40071" lon="6.39397">
        <ele>2133.3999023438</ele>
        <time>2016-07-18T11:34:52.000Z</time>
      </trkpt>
      <trkpt lat="44.40069" lon="6.39398">
        <ele>2133</ele>
        <time>2016-07-18T11:35:06.000Z</time>
      </trkpt>
      <trkpt lat="44.40066" lon="6.3939">
        <ele>2133.1999511719</ele>
        <time>2016-07-18T11:35:12.000Z</time>
      </trkpt>
      <trkpt lat="44.40065" lon="6.3939">
        <ele>2133.1999511719</ele>
        <time>2016-07-18T11:35:14.000Z</time>
      </trkpt>
      <trkpt lat="44.4006" lon="6.39396">
        <ele>2132.1999511719</ele>
        <time>2016-07-18T11:35:19.000Z</time>
      </trkpt>
      <trkpt lat="44.40054" lon="6.39406">
        <ele>2130.1999511719</ele>
        <time>2016-07-18T11:35:26.000Z</time>
      </trkpt>
      <trkpt lat="44.40051" lon="6.3941">
        <ele>2129.3999023438</ele>
        <time>2016-07-18T11:35:28.000Z</time>
      </trkpt>
      <trkpt lat="44.40042" lon="6.39418">
        <ele>2128.6000976562</ele>
        <time>2016-07-18T11:35:35.000Z</time>
      </trkpt>
      <trkpt lat="44.40033" lon="6.3942">
        <ele>2129.1999511719</ele>
        <time>2016-07-18T11:35:42.000Z</time>
      </trkpt>
      <trkpt lat="44.40025" lon="6.39428">
        <ele>2129.3999023438</ele>
        <time>2016-07-18T11:35:48.000Z</time>
      </trkpt>
      <trkpt lat="44.40015" lon="6.39438">
        <ele>2129.6000976562</ele>
        <time>2016-07-18T11:35:56.000Z</time>
      </trkpt>
      <trkpt lat="44.40003" lon="6.39446">
        <ele>2130</ele>
        <time>2016-07-18T11:36:05.000Z</time>
      </trkpt>
      <trkpt lat="44.39992" lon="6.39458">
        <ele>2130</ele>
        <time>2016-07-18T11:36:14.000Z</time>
      </trkpt>
      <trkpt lat="44.3998" lon="6.39474">
        <ele>2130</ele>
        <time>2016-07-18T11:36:25.000Z</time>
      </trkpt>
      <trkpt lat="44.3997" lon="6.39489">
        <ele>2129.1999511719</ele>
        <time>2016-07-18T11:36:35.000Z</time>
      </trkpt>
      <trkpt lat="44.39968" lon="6.39493">
        <ele>2128.8000488281</ele>
        <time>2016-07-18T11:36:41.000Z</time>
      </trkpt>
      <trkpt lat="44.39968" lon="6.39496">
        <ele>2128.3999023438</ele>
        <time>2016-07-18T11:37:09.000Z</time>
      </trkpt>
      <trkpt lat="44.39968" lon="6.39497">
        <ele>2128.3999023438</ele>
        <time>2016-07-18T11:37:20.000Z</time>
      </trkpt>
      <trkpt lat="44.39967" lon="6.39495">
        <ele>2128.6000976562</ele>
        <time>2016-07-18T11:38:05.000Z</time>
      </trkpt>
      <trkpt lat="44.39964" lon="6.39498">
        <ele>2128.1999511719</ele>
        <time>2016-07-18T11:38:19.000Z</time>
      </trkpt>
      <trkpt lat="44.39957" lon="6.39512">
        <ele>2126.1999511719</ele>
        <time>2016-07-18T11:38:26.000Z</time>
      </trkpt>
      <trkpt lat="44.3994" lon="6.39529">
        <ele>2126</ele>
        <time>2016-07-18T11:38:39.000Z</time>
      </trkpt>
      <trkpt lat="44.39932" lon="6.39536">
        <ele>2127.3999023438</ele>
        <time>2016-07-18T11:38:46.000Z</time>
      </trkpt>
      <trkpt lat="44.39921" lon="6.3955">
        <ele>2127.8000488281</ele>
        <time>2016-07-18T11:38:55.000Z</time>
      </trkpt>
      <trkpt lat="44.39907" lon="6.39556">
        <ele>2129.1999511719</ele>
        <time>2016-07-18T11:39:03.000Z</time>
      </trkpt>
      <trkpt lat="44.399" lon="6.39563">
        <ele>2129.3999023438</ele>
        <time>2016-07-18T11:39:08.000Z</time>
      </trkpt>
      <trkpt lat="44.39897" lon="6.39566">
        <ele>2129.1999511719</ele>
        <time>2016-07-18T11:39:10.000Z</time>
      </trkpt>
      <trkpt lat="44.39888" lon="6.39571">
        <ele>2130.3999023438</ele>
        <time>2016-07-18T11:39:17.000Z</time>
      </trkpt>
      <trkpt lat="44.39881" lon="6.39575">
        <ele>2131.1999511719</ele>
        <time>2016-07-18T11:39:24.000Z</time>
      </trkpt>
      <trkpt lat="44.39879" lon="6.39578">
        <ele>2131.1999511719</ele>
        <time>2016-07-18T11:39:27.000Z</time>
      </trkpt>
      <trkpt lat="44.39879" lon="6.39577">
        <ele>2131.1999511719</ele>
        <time>2016-07-18T11:39:35.000Z</time>
      </trkpt>
      <trkpt lat="44.3988" lon="6.39576">
        <ele>2131.1999511719</ele>
        <time>2016-07-18T11:39:36.000Z</time>
      </trkpt>
      <trkpt lat="44.39886" lon="6.39572">
        <ele>2130.6000976562</ele>
        <time>2016-07-18T11:39:41.000Z</time>
      </trkpt>
      <trkpt lat="44.39894" lon="6.39567">
        <ele>2130</ele>
        <time>2016-07-18T11:39:47.000Z</time>
      </trkpt>
      <trkpt lat="44.39897" lon="6.39566">
        <ele>2129.3999023438</ele>
        <time>2016-07-18T11:39:51.000Z</time>
      </trkpt>
      <trkpt lat="44.39904" lon="6.39557">
        <ele>2129.6000976562</ele>
        <time>2016-07-18T11:39:59.000Z</time>
      </trkpt>
      <trkpt lat="44.39915" lon="6.39551">
        <ele>2128.6000976562</ele>
        <time>2016-07-18T11:40:09.000Z</time>
      </trkpt>
      <trkpt lat="44.39923" lon="6.39547">
        <ele>2127.8000488281</ele>
        <time>2016-07-18T11:40:15.000Z</time>
      </trkpt>
      <trkpt lat="44.39932" lon="6.3955">
        <ele>2125.3999023438</ele>
        <time>2016-07-18T11:40:21.000Z</time>
      </trkpt>
      <trkpt lat="44.39942" lon="6.3956">
        <ele>2121.1999511719</ele>
        <time>2016-07-18T11:40:30.000Z</time>
      </trkpt>
      <trkpt lat="44.3995" lon="6.39574">
        <ele>2117.6000976562</ele>
        <time>2016-07-18T11:40:38.000Z</time>
      </trkpt>
      <trkpt lat="44.39957" lon="6.39609">
        <ele>2112.1999511719</ele>
        <time>2016-07-18T11:40:55.000Z</time>
      </trkpt>
      <trkpt lat="44.39955" lon="6.39621">
        <ele>2110.1999511719</ele>
        <time>2016-07-18T11:41:01.000Z</time>
      </trkpt>
      <trkpt lat="44.39951" lon="6.39635">
        <ele>2108.1999511719</ele>
        <time>2016-07-18T11:41:07.000Z</time>
      </trkpt>
      <trkpt lat="44.3995" lon="6.39651">
        <ele>2105.6000976562</ele>
        <time>2016-07-18T11:41:14.000Z</time>
      </trkpt>
      <trkpt lat="44.39951" lon="6.39668">
        <ele>2103.6000976562</ele>
        <time>2016-07-18T11:41:22.000Z</time>
      </trkpt>
      <trkpt lat="44.39955" lon="6.39681">
        <ele>2102</ele>
        <time>2016-07-18T11:41:29.000Z</time>
      </trkpt>
      <trkpt lat="44.39955" lon="6.39682">
        <ele>2101.8000488281</ele>
        <time>2016-07-18T11:41:30.000Z</time>
      </trkpt>
      <trkpt lat="44.39958" lon="6.39701">
        <ele>2099.3999023438</ele>
        <time>2016-07-18T11:41:39.000Z</time>
      </trkpt>
      <trkpt lat="44.39959" lon="6.39717">
        <ele>2097.6000976562</ele>
        <time>2016-07-18T11:41:46.000Z</time>
      </trkpt>
      <trkpt lat="44.39954" lon="6.39737">
        <ele>2095.3999023438</ele>
        <time>2016-07-18T11:41:55.000Z</time>
      </trkpt>
      <trkpt lat="44.39948" lon="6.39757">
        <ele>2094.1999511719</ele>
        <time>2016-07-18T11:42:05.000Z</time>
      </trkpt>
      <trkpt lat="44.39947" lon="6.39777">
        <ele>2092.8000488281</ele>
        <time>2016-07-18T11:42:10.000Z</time>
      </trkpt>
      <trkpt lat="44.39945" lon="6.39805">
        <ele>2090.8000488281</ele>
        <time>2016-07-18T11:42:14.000Z</time>
      </trkpt>
      <trkpt lat="44.39944" lon="6.39811">
        <ele>2090.3999023438</ele>
        <time>2016-07-18T11:42:15.000Z</time>
      </trkpt>
      <trkpt lat="44.39941" lon="6.39823">
        <ele>2089.8000488281</ele>
        <time>2016-07-18T11:42:17.000Z</time>
      </trkpt>
      <trkpt lat="44.39926" lon="6.39848">
        <ele>2088.6000976562</ele>
        <time>2016-07-18T11:42:22.000Z</time>
      </trkpt>
      <trkpt lat="44.39918" lon="6.39858">
        <ele>2088.3999023438</ele>
        <time>2016-07-18T11:42:26.000Z</time>
      </trkpt>
      <trkpt lat="44.39908" lon="6.3987">
        <ele>2086.8000488281</ele>
        <time>2016-07-18T11:42:34.000Z</time>
      </trkpt>
      <trkpt lat="44.39898" lon="6.39881">
        <ele>2084.6000976562</ele>
        <time>2016-07-18T11:42:41.000Z</time>
      </trkpt>
      <trkpt lat="44.39889" lon="6.39894">
        <ele>2082.3999023438</ele>
        <time>2016-07-18T11:42:48.000Z</time>
      </trkpt>
      <trkpt lat="44.39884" lon="6.39924">
        <ele>2076.6000976562</ele>
        <time>2016-07-18T11:43:01.000Z</time>
      </trkpt>
      <trkpt lat="44.39885" lon="6.39943">
        <ele>2073.1999511719</ele>
        <time>2016-07-18T11:43:09.000Z</time>
      </trkpt>
      <trkpt lat="44.39887" lon="6.39963">
        <ele>2069.3999023438</ele>
        <time>2016-07-18T11:43:18.000Z</time>
      </trkpt>
      <trkpt lat="44.39891" lon="6.39978">
        <ele>2067</ele>
        <time>2016-07-18T11:43:25.000Z</time>
      </trkpt>
      <trkpt lat="44.39895" lon="6.39995">
        <ele>2065.6000976562</ele>
        <time>2016-07-18T11:43:33.000Z</time>
      </trkpt>
      <trkpt lat="44.399" lon="6.40014">
        <ele>2064.6000976562</ele>
        <time>2016-07-18T11:43:41.000Z</time>
      </trkpt>
      <trkpt lat="44.39901" lon="6.40039">
        <ele>2062.3999023438</ele>
        <time>2016-07-18T11:43:47.000Z</time>
      </trkpt>
      <trkpt lat="44.39901" lon="6.40064">
        <ele>2060</ele>
        <time>2016-07-18T11:43:51.000Z</time>
      </trkpt>
      <trkpt lat="44.39901" lon="6.4008">
        <ele>2059</ele>
        <time>2016-07-18T11:43:53.000Z</time>
      </trkpt>
      <trkpt lat="44.39894" lon="6.40102">
        <ele>2057.3999023438</ele>
        <time>2016-07-18T11:43:58.000Z</time>
      </trkpt>
      <trkpt lat="44.39887" lon="6.40105">
        <ele>2057.1999511719</ele>
        <time>2016-07-18T11:44:03.000Z</time>
      </trkpt>
      <trkpt lat="44.39871" lon="6.4011">
        <ele>2056.8000488281</ele>
        <time>2016-07-18T11:44:14.000Z</time>
      </trkpt>
      <trkpt lat="44.39858" lon="6.40115">
        <ele>2056.3999023438</ele>
        <time>2016-07-18T11:44:21.000Z</time>
      </trkpt>
      <trkpt lat="44.39839" lon="6.40122">
        <ele>2056</ele>
        <time>2016-07-18T11:44:31.000Z</time>
      </trkpt>
      <trkpt lat="44.39825" lon="6.40133">
        <ele>2055</ele>
        <time>2016-07-18T11:44:40.000Z</time>
      </trkpt>
      <trkpt lat="44.3981" lon="6.40144">
        <ele>2053.8000488281</ele>
        <time>2016-07-18T11:44:50.000Z</time>
      </trkpt>
      <trkpt lat="44.39797" lon="6.40147">
        <ele>2053</ele>
        <time>2016-07-18T11:44:58.000Z</time>
      </trkpt>
      <trkpt lat="44.39785" lon="6.40151">
        <ele>2051.8000488281</ele>
        <time>2016-07-18T11:45:06.000Z</time>
      </trkpt>
      <trkpt lat="44.39777" lon="6.40162">
        <ele>2051.8000488281</ele>
        <time>2016-07-18T11:45:14.000Z</time>
      </trkpt>
      <trkpt lat="44.39774" lon="6.40168">
        <ele>2051.6000976562</ele>
        <time>2016-07-18T11:45:17.000Z</time>
      </trkpt>
      <trkpt lat="44.39768" lon="6.40174">
        <ele>2052.1999511719</ele>
        <time>2016-07-18T11:45:23.000Z</time>
      </trkpt>
      <trkpt lat="44.39761" lon="6.40173">
        <ele>2053.1999511719</ele>
        <time>2016-07-18T11:45:28.000Z</time>
      </trkpt>
      <trkpt lat="44.3976" lon="6.40173">
        <ele>2053.3999023438</ele>
        <time>2016-07-18T11:45:38.000Z</time>
      </trkpt>
      <trkpt lat="44.39752" lon="6.40173">
        <ele>2054.3999023438</ele>
        <time>2016-07-18T11:46:17.000Z</time>
      </trkpt>
      <trkpt lat="44.39742" lon="6.40176">
        <ele>2055.6000976562</ele>
        <time>2016-07-18T11:46:24.000Z</time>
      </trkpt>
      <trkpt lat="44.39736" lon="6.40189">
        <ele>2055.3999023438</ele>
        <time>2016-07-18T11:46:27.000Z</time>
      </trkpt>
      <trkpt lat="44.39731" lon="6.40201">
        <ele>2054</ele>
        <time>2016-07-18T11:46:33.000Z</time>
      </trkpt>
      <trkpt lat="44.39723" lon="6.40204">
        <ele>2054.1999511719</ele>
        <time>2016-07-18T11:46:40.000Z</time>
      </trkpt>
      <trkpt lat="44.3971" lon="6.40205">
        <ele>2055</ele>
        <time>2016-07-18T11:46:49.000Z</time>
      </trkpt>
      <trkpt lat="44.39695" lon="6.40197">
        <ele>2056.8000488281</ele>
        <time>2016-07-18T11:46:55.000Z</time>
      </trkpt>
      <trkpt lat="44.3968" lon="6.4019">
        <ele>2057.6000976562</ele>
        <time>2016-07-18T11:47:02.000Z</time>
      </trkpt>
      <trkpt lat="44.39669" lon="6.40184">
        <ele>2058.1999511719</ele>
        <time>2016-07-18T11:47:10.000Z</time>
      </trkpt>
      <trkpt lat="44.3966" lon="6.40177">
        <ele>2059</ele>
        <time>2016-07-18T11:47:17.000Z</time>
      </trkpt>
      <trkpt lat="44.39651" lon="6.40169">
        <ele>2059.8000488281</ele>
        <time>2016-07-18T11:47:24.000Z</time>
      </trkpt>
      <trkpt lat="44.39639" lon="6.4016">
        <ele>2061</ele>
        <time>2016-07-18T11:47:32.000Z</time>
      </trkpt>
      <trkpt lat="44.3963" lon="6.40153">
        <ele>2061.6000976562</ele>
        <time>2016-07-18T11:47:39.000Z</time>
      </trkpt>
      <trkpt lat="44.3962" lon="6.40146">
        <ele>2062.8000488281</ele>
        <time>2016-07-18T11:47:48.000Z</time>
      </trkpt>
      <trkpt lat="44.39612" lon="6.4014">
        <ele>2064</ele>
        <time>2016-07-18T11:47:54.000Z</time>
      </trkpt>
      <trkpt lat="44.39602" lon="6.40133">
        <ele>2065.3999023438</ele>
        <time>2016-07-18T11:48:02.000Z</time>
      </trkpt>
      <trkpt lat="44.39594" lon="6.40126">
        <ele>2067.1999511719</ele>
        <time>2016-07-18T11:48:08.000Z</time>
      </trkpt>
      <trkpt lat="44.39581" lon="6.40115">
        <ele>2069.3999023438</ele>
        <time>2016-07-18T11:48:20.000Z</time>
      </trkpt>
      <trkpt lat="44.39569" lon="6.4011">
        <ele>2070.6000976562</ele>
        <time>2016-07-18T11:48:30.000Z</time>
      </trkpt>
      <trkpt lat="44.39559" lon="6.401">
        <ele>2072.8000488281</ele>
        <time>2016-07-18T11:48:38.000Z</time>
      </trkpt>
      <trkpt lat="44.39551" lon="6.40091">
        <ele>2075</ele>
        <time>2016-07-18T11:48:45.000Z</time>
      </trkpt>
      <trkpt lat="44.39546" lon="6.40084">
        <ele>2076.3999023438</ele>
        <time>2016-07-18T11:48:50.000Z</time>
      </trkpt>
      <trkpt lat="44.3954" lon="6.40075">
        <ele>2078.6000976562</ele>
        <time>2016-07-18T11:48:56.000Z</time>
      </trkpt>
      <trkpt lat="44.39533" lon="6.40063">
        <ele>2081.3999023438</ele>
        <time>2016-07-18T11:49:05.000Z</time>
      </trkpt>
      <trkpt lat="44.39525" lon="6.40051">
        <ele>2084</ele>
        <time>2016-07-18T11:49:14.000Z</time>
      </trkpt>
      <trkpt lat="44.39515" lon="6.40039">
        <ele>2086.3999023438</ele>
        <time>2016-07-18T11:49:25.000Z</time>
      </trkpt>
      <trkpt lat="44.3951" lon="6.40033">
        <ele>2087.8000488281</ele>
        <time>2016-07-18T11:49:30.000Z</time>
      </trkpt>
      <trkpt lat="44.39502" lon="6.40025">
        <ele>2089.3999023438</ele>
        <time>2016-07-18T11:49:39.000Z</time>
      </trkpt>
      <trkpt lat="44.39493" lon="6.40017">
        <ele>2091</ele>
        <time>2016-07-18T11:49:47.000Z</time>
      </trkpt>
      <trkpt lat="44.39482" lon="6.40007">
        <ele>2093.1999511719</ele>
        <time>2016-07-18T11:49:56.000Z</time>
      </trkpt>
      <trkpt lat="44.39471" lon="6.39995">
        <ele>2095.6000976562</ele>
        <time>2016-07-18T11:50:05.000Z</time>
      </trkpt>
      <trkpt lat="44.39459" lon="6.39987">
        <ele>2097</ele>
        <time>2016-07-18T11:50:14.000Z</time>
      </trkpt>
      <trkpt lat="44.39444" lon="6.3998">
        <ele>2098.3999023438</ele>
        <time>2016-07-18T11:50:25.000Z</time>
      </trkpt>
      <trkpt lat="44.39417" lon="6.3997">
        <ele>2101.1999511719</ele>
        <time>2016-07-18T11:50:44.000Z</time>
      </trkpt>
      <trkpt lat="44.39402" lon="6.39964">
        <ele>2102.6000976562</ele>
        <time>2016-07-18T11:50:54.000Z</time>
      </trkpt>
      <trkpt lat="44.39387" lon="6.3996">
        <ele>2104</ele>
        <time>2016-07-18T11:51:04.000Z</time>
      </trkpt>
      <trkpt lat="44.39374" lon="6.39957">
        <ele>2105</ele>
        <time>2016-07-18T11:51:13.000Z</time>
      </trkpt>
      <trkpt lat="44.39362" lon="6.39953">
        <ele>2106.1999511719</ele>
        <time>2016-07-18T11:51:20.000Z</time>
      </trkpt>
      <trkpt lat="44.39349" lon="6.39949">
        <ele>2107.3999023438</ele>
        <time>2016-07-18T11:51:30.000Z</time>
      </trkpt>
      <trkpt lat="44.39336" lon="6.39945">
        <ele>2108.3999023438</ele>
        <time>2016-07-18T11:51:39.000Z</time>
      </trkpt>
      <trkpt lat="44.39334" lon="6.39945">
        <ele>2108.3999023438</ele>
        <time>2016-07-18T11:51:40.000Z</time>
      </trkpt>
      <trkpt lat="44.39315" lon="6.39936">
        <ele>2110.3999023438</ele>
        <time>2016-07-18T11:51:53.000Z</time>
      </trkpt>
      <trkpt lat="44.39313" lon="6.39936">
        <ele>2110.8000488281</ele>
        <time>2016-07-18T11:51:54.000Z</time>
      </trkpt>
      <trkpt lat="44.39299" lon="6.39932">
        <ele>2112.1999511719</ele>
        <time>2016-07-18T11:52:04.000Z</time>
      </trkpt>
      <trkpt lat="44.39287" lon="6.39926">
        <ele>2113.8000488281</ele>
        <time>2016-07-18T11:52:13.000Z</time>
      </trkpt>
      <trkpt lat="44.39274" lon="6.39913">
        <ele>2116</ele>
        <time>2016-07-18T11:52:24.000Z</time>
      </trkpt>
      <trkpt lat="44.39266" lon="6.39905">
        <ele>2117.1999511719</ele>
        <time>2016-07-18T11:52:31.000Z</time>
      </trkpt>
      <trkpt lat="44.39258" lon="6.39892">
        <ele>2118.3999023438</ele>
        <time>2016-07-18T11:52:40.000Z</time>
      </trkpt>
      <trkpt lat="44.39245" lon="6.39872">
        <ele>2119</ele>
        <time>2016-07-18T11:52:53.000Z</time>
      </trkpt>
      <trkpt lat="44.39238" lon="6.39862">
        <ele>2119.3999023438</ele>
        <time>2016-07-18T11:53:00.000Z</time>
      </trkpt>
      <trkpt lat="44.3923" lon="6.39851">
        <ele>2119.8000488281</ele>
        <time>2016-07-18T11:53:06.000Z</time>
      </trkpt>
      <trkpt lat="44.39221" lon="6.39838">
        <ele>2120.3999023438</ele>
        <time>2016-07-18T11:53:15.000Z</time>
      </trkpt>
      <trkpt lat="44.39213" lon="6.39826">
        <ele>2121.1999511719</ele>
        <time>2016-07-18T11:53:23.000Z</time>
      </trkpt>
      <trkpt lat="44.39201" lon="6.39814">
        <ele>2122.1999511719</ele>
        <time>2016-07-18T11:53:30.000Z</time>
      </trkpt>
      <trkpt lat="44.392" lon="6.39811">
        <ele>2122.3999023438</ele>
        <time>2016-07-18T11:53:32.000Z</time>
      </trkpt>
      <trkpt lat="44.39199" lon="6.398">
        <ele>2124</ele>
        <time>2016-07-18T11:53:38.000Z</time>
      </trkpt>
      <trkpt lat="44.39199" lon="6.39798">
        <ele>2124.1999511719</ele>
        <time>2016-07-18T11:53:39.000Z</time>
      </trkpt>
      <trkpt lat="44.39197" lon="6.39786">
        <ele>2126</ele>
        <time>2016-07-18T11:53:45.000Z</time>
      </trkpt>
      <trkpt lat="44.3919" lon="6.39773">
        <ele>2128.3999023438</ele>
        <time>2016-07-18T11:53:54.000Z</time>
      </trkpt>
      <trkpt lat="44.39188" lon="6.39759">
        <ele>2130.3999023438</ele>
        <time>2016-07-18T11:54:00.000Z</time>
      </trkpt>
      <trkpt lat="44.39184" lon="6.39743">
        <ele>2133</ele>
        <time>2016-07-18T11:54:10.000Z</time>
      </trkpt>
      <trkpt lat="44.39181" lon="6.39739">
        <ele>2133.8000488281</ele>
        <time>2016-07-18T11:54:13.000Z</time>
      </trkpt>
      <trkpt lat="44.39176" lon="6.39735">
        <ele>2135</ele>
        <time>2016-07-18T11:54:17.000Z</time>
      </trkpt>
      <trkpt lat="44.39171" lon="6.39729">
        <ele>2136.1999511719</ele>
        <time>2016-07-18T11:54:22.000Z</time>
      </trkpt>
      <trkpt lat="44.39164" lon="6.39728">
        <ele>2137</ele>
        <time>2016-07-18T11:54:25.000Z</time>
      </trkpt>
      <trkpt lat="44.39144" lon="6.39722">
        <ele>2139.6000976562</ele>
        <time>2016-07-18T11:54:37.000Z</time>
      </trkpt>
      <trkpt lat="44.39115" lon="6.39715">
        <ele>2143.3999023438</ele>
        <time>2016-07-18T11:54:55.000Z</time>
      </trkpt>
      <trkpt lat="44.39104" lon="6.39706">
        <ele>2145.6000976562</ele>
        <time>2016-07-18T11:55:05.000Z</time>
      </trkpt>
      <trkpt lat="44.39095" lon="6.39697">
        <ele>2147.6000976562</ele>
        <time>2016-07-18T11:55:13.000Z</time>
      </trkpt>
      <trkpt lat="44.39087" lon="6.39688">
        <ele>2149.3999023438</ele>
        <time>2016-07-18T11:55:20.000Z</time>
      </trkpt>
      <trkpt lat="44.3908" lon="6.39673">
        <ele>2151.6000976562</ele>
        <time>2016-07-18T11:55:28.000Z</time>
      </trkpt>
      <trkpt lat="44.39073" lon="6.39656">
        <ele>2153.8000488281</ele>
        <time>2016-07-18T11:55:38.000Z</time>
      </trkpt>
      <trkpt lat="44.39068" lon="6.39642">
        <ele>2155.3999023438</ele>
        <time>2016-07-18T11:55:46.000Z</time>
      </trkpt>
      <trkpt lat="44.39062" lon="6.39627">
        <ele>2156.6000976562</ele>
        <time>2016-07-18T11:55:54.000Z</time>
      </trkpt>
      <trkpt lat="44.39058" lon="6.39609">
        <ele>2158</ele>
        <time>2016-07-18T11:56:05.000Z</time>
      </trkpt>
      <trkpt lat="44.39054" lon="6.39589">
        <ele>2159.1999511719</ele>
        <time>2016-07-18T11:56:14.000Z</time>
      </trkpt>
      <trkpt lat="44.39052" lon="6.39572">
        <ele>2159.6000976562</ele>
        <time>2016-07-18T11:56:23.000Z</time>
      </trkpt>
      <trkpt lat="44.39052" lon="6.39555">
        <ele>2161</ele>
        <time>2016-07-18T11:56:30.000Z</time>
      </trkpt>
      <trkpt lat="44.3905" lon="6.39531">
        <ele>2164.1999511719</ele>
        <time>2016-07-18T11:56:42.000Z</time>
      </trkpt>
      <trkpt lat="44.3905" lon="6.39515">
        <ele>2166</ele>
        <time>2016-07-18T11:56:49.000Z</time>
      </trkpt>
      <trkpt lat="44.39051" lon="6.39511">
        <ele>2166.3999023438</ele>
        <time>2016-07-18T11:56:52.000Z</time>
      </trkpt>
      <trkpt lat="44.3905" lon="6.39499">
        <ele>2167.8000488281</ele>
        <time>2016-07-18T11:56:57.000Z</time>
      </trkpt>
      <trkpt lat="44.39052" lon="6.39486">
        <ele>2168.8000488281</ele>
        <time>2016-07-18T11:57:04.000Z</time>
      </trkpt>
      <trkpt lat="44.39052" lon="6.39483">
        <ele>2169.1999511719</ele>
        <time>2016-07-18T11:57:05.000Z</time>
      </trkpt>
      <trkpt lat="44.39045" lon="6.39479">
        <ele>2171</ele>
        <time>2016-07-18T11:57:10.000Z</time>
      </trkpt>
      <trkpt lat="44.39041" lon="6.39474">
        <ele>2172.1999511719</ele>
        <time>2016-07-18T11:57:14.000Z</time>
      </trkpt>
      <trkpt lat="44.39034" lon="6.39455">
        <ele>2176</ele>
        <time>2016-07-18T11:57:20.000Z</time>
      </trkpt>
      <trkpt lat="44.3903" lon="6.39442">
        <ele>2178</ele>
        <time>2016-07-18T11:57:29.000Z</time>
      </trkpt>
      <trkpt lat="44.39023" lon="6.39439">
        <ele>2178</ele>
        <time>2016-07-18T11:57:35.000Z</time>
      </trkpt>
      <trkpt lat="44.3902" lon="6.39439">
        <ele>2178</ele>
        <time>2016-07-18T11:57:37.000Z</time>
      </trkpt>
      <trkpt lat="44.39014" lon="6.39435">
        <ele>2178.1999511719</ele>
        <time>2016-07-18T11:57:42.000Z</time>
      </trkpt>
      <trkpt lat="44.38996" lon="6.39426">
        <ele>2178.1999511719</ele>
        <time>2016-07-18T11:57:55.000Z</time>
      </trkpt>
      <trkpt lat="44.38985" lon="6.39422">
        <ele>2178</ele>
        <time>2016-07-18T11:58:04.000Z</time>
      </trkpt>
      <trkpt lat="44.38974" lon="6.39416">
        <ele>2178.1999511719</ele>
        <time>2016-07-18T11:58:12.000Z</time>
      </trkpt>
      <trkpt lat="44.38966" lon="6.39413">
        <ele>2178.1999511719</ele>
        <time>2016-07-18T11:58:18.000Z</time>
      </trkpt>
      <trkpt lat="44.38953" lon="6.39408">
        <ele>2178.8000488281</ele>
        <time>2016-07-18T11:58:26.000Z</time>
      </trkpt>
      <trkpt lat="44.3894" lon="6.39406">
        <ele>2175.6000976562</ele>
        <time>2016-07-18T11:58:35.000Z</time>
      </trkpt>
      <trkpt lat="44.38924" lon="6.39399">
        <ele>2168.3999023438</ele>
        <time>2016-07-18T11:58:47.000Z</time>
      </trkpt>
      <trkpt lat="44.38916" lon="6.39399">
        <ele>2165</ele>
        <time>2016-07-18T11:58:52.000Z</time>
      </trkpt>
      <trkpt lat="44.38907" lon="6.3941">
        <ele>2161.3999023438</ele>
        <time>2016-07-18T11:59:02.000Z</time>
      </trkpt>
      <trkpt lat="44.38903" lon="6.39425">
        <ele>2160</ele>
        <time>2016-07-18T11:59:10.000Z</time>
      </trkpt>
      <trkpt lat="44.38905" lon="6.3944">
        <ele>2162</ele>
        <time>2016-07-18T11:59:17.000Z</time>
      </trkpt>
      <trkpt lat="44.38906" lon="6.39458">
        <ele>2167.1999511719</ele>
        <time>2016-07-18T11:59:25.000Z</time>
      </trkpt>
      <trkpt lat="44.38909" lon="6.3947">
        <ele>2171</ele>
        <time>2016-07-18T11:59:32.000Z</time>
      </trkpt>
      <trkpt lat="44.38914" lon="6.39485">
        <ele>2175.1999511719</ele>
        <time>2016-07-18T11:59:40.000Z</time>
      </trkpt>
      <trkpt lat="44.38921" lon="6.39502">
        <ele>2177</ele>
        <time>2016-07-18T11:59:50.000Z</time>
      </trkpt>
      <trkpt lat="44.38925" lon="6.3951">
        <ele>2178.1999511719</ele>
        <time>2016-07-18T11:59:55.000Z</time>
      </trkpt>
      <trkpt lat="44.38935" lon="6.39513">
        <ele>2180.3999023438</ele>
        <time>2016-07-18T12:00:02.000Z</time>
      </trkpt>
      <trkpt lat="44.38937" lon="6.39514">
        <ele>2180.8000488281</ele>
        <time>2016-07-18T12:00:04.000Z</time>
      </trkpt>
      <trkpt lat="44.38944" lon="6.39521">
        <ele>2182.3999023438</ele>
        <time>2016-07-18T12:00:10.000Z</time>
      </trkpt>
      <trkpt lat="44.38952" lon="6.39526">
        <ele>2182.6000976562</ele>
        <time>2016-07-18T12:00:17.000Z</time>
      </trkpt>
      <trkpt lat="44.38953" lon="6.39526">
        <ele>2182.1999511719</ele>
        <time>2016-07-18T12:00:18.000Z</time>
      </trkpt>
      <trkpt lat="44.38963" lon="6.39521">
        <ele>2179.6000976562</ele>
        <time>2016-07-18T12:00:25.000Z</time>
      </trkpt>
      <trkpt lat="44.38966" lon="6.39519">
        <ele>2179</ele>
        <time>2016-07-18T12:00:29.000Z</time>
      </trkpt>
      <trkpt lat="44.38973" lon="6.39518">
        <ele>2177.1999511719</ele>
        <time>2016-07-18T12:00:34.000Z</time>
      </trkpt>
      <trkpt lat="44.38983" lon="6.39515">
        <ele>2174.8000488281</ele>
        <time>2016-07-18T12:00:42.000Z</time>
      </trkpt>
      <trkpt lat="44.38991" lon="6.39514">
        <ele>2174</ele>
        <time>2016-07-18T12:00:48.000Z</time>
      </trkpt>
      <trkpt lat="44.39001" lon="6.39509">
        <ele>2173.3999023438</ele>
        <time>2016-07-18T12:00:55.000Z</time>
      </trkpt>
      <trkpt lat="44.39004" lon="6.39509">
        <ele>2173</ele>
        <time>2016-07-18T12:01:00.000Z</time>
      </trkpt>
      <trkpt lat="44.39008" lon="6.39509">
        <ele>2172.6000976562</ele>
        <time>2016-07-18T12:01:05.000Z</time>
      </trkpt>
      <trkpt lat="44.39015" lon="6.39508">
        <ele>2171.8000488281</ele>
        <time>2016-07-18T12:01:12.000Z</time>
      </trkpt>
      <trkpt lat="44.39018" lon="6.3951">
        <ele>2171.1999511719</ele>
        <time>2016-07-18T12:01:14.000Z</time>
      </trkpt>
      <trkpt lat="44.39025" lon="6.39509">
        <ele>2170.6000976562</ele>
        <time>2016-07-18T12:01:20.000Z</time>
      </trkpt>
      <trkpt lat="44.3903" lon="6.3951">
        <ele>2169.8000488281</ele>
        <time>2016-07-18T12:01:25.000Z</time>
      </trkpt>
      <trkpt lat="44.39041" lon="6.39512">
        <ele>2167.8000488281</ele>
        <time>2016-07-18T12:01:32.000Z</time>
      </trkpt>
      <trkpt lat="44.39049" lon="6.39528">
        <ele>2164.6000976562</ele>
        <time>2016-07-18T12:01:42.000Z</time>
      </trkpt>
      <trkpt lat="44.39055" lon="6.39544">
        <ele>2161.8000488281</ele>
        <time>2016-07-18T12:01:50.000Z</time>
      </trkpt>
      <trkpt lat="44.39056" lon="6.39561">
        <ele>2159.6000976562</ele>
        <time>2016-07-18T12:01:59.000Z</time>
      </trkpt>
      <trkpt lat="44.39057" lon="6.39575">
        <ele>2158.8000488281</ele>
        <time>2016-07-18T12:02:05.000Z</time>
      </trkpt>
      <trkpt lat="44.39059" lon="6.39587">
        <ele>2158.3999023438</ele>
        <time>2016-07-18T12:02:12.000Z</time>
      </trkpt>
      <trkpt lat="44.39059" lon="6.39593">
        <ele>2158.3999023438</ele>
        <time>2016-07-18T12:02:15.000Z</time>
      </trkpt>
      <trkpt lat="44.39061" lon="6.39608">
        <ele>2157.6000976562</ele>
        <time>2016-07-18T12:02:23.000Z</time>
      </trkpt>
      <trkpt lat="44.39063" lon="6.39625">
        <ele>2156.6000976562</ele>
        <time>2016-07-18T12:02:32.000Z</time>
      </trkpt>
      <trkpt lat="44.39068" lon="6.39641">
        <ele>2155.6000976562</ele>
        <time>2016-07-18T12:02:40.000Z</time>
      </trkpt>
      <trkpt lat="44.39072" lon="6.39656">
        <ele>2154</ele>
        <time>2016-07-18T12:02:48.000Z</time>
      </trkpt>
      <trkpt lat="44.39075" lon="6.39672">
        <ele>2152.1999511719</ele>
        <time>2016-07-18T12:02:56.000Z</time>
      </trkpt>
      <trkpt lat="44.3908" lon="6.39687">
        <ele>2150.3999023438</ele>
        <time>2016-07-18T12:03:04.000Z</time>
      </trkpt>
      <trkpt lat="44.39084" lon="6.397">
        <ele>2148.8000488281</ele>
        <time>2016-07-18T12:03:11.000Z</time>
      </trkpt>
      <trkpt lat="44.39087" lon="6.39718">
        <ele>2148.1999511719</ele>
        <time>2016-07-18T12:03:20.000Z</time>
      </trkpt>
      <trkpt lat="44.39091" lon="6.39734">
        <ele>2148</ele>
        <time>2016-07-18T12:03:28.000Z</time>
      </trkpt>
      <trkpt lat="44.39104" lon="6.39758">
        <ele>2145.6000976562</ele>
        <time>2016-07-18T12:03:44.000Z</time>
      </trkpt>
      <trkpt lat="44.39112" lon="6.3977">
        <ele>2144</ele>
        <time>2016-07-18T12:03:52.000Z</time>
      </trkpt>
      <trkpt lat="44.39121" lon="6.39778">
        <ele>2141.8000488281</ele>
        <time>2016-07-18T12:04:00.000Z</time>
      </trkpt>
      <trkpt lat="44.39133" lon="6.39784">
        <ele>2138.8000488281</ele>
        <time>2016-07-18T12:04:09.000Z</time>
      </trkpt>
      <trkpt lat="44.39144" lon="6.39794">
        <ele>2136.3999023438</ele>
        <time>2016-07-18T12:04:18.000Z</time>
      </trkpt>
      <trkpt lat="44.39152" lon="6.398">
        <ele>2134.1999511719</ele>
        <time>2016-07-18T12:04:25.000Z</time>
      </trkpt>
      <trkpt lat="44.39161" lon="6.39806">
        <ele>2132</ele>
        <time>2016-07-18T12:04:32.000Z</time>
      </trkpt>
      <trkpt lat="44.39172" lon="6.39813">
        <ele>2129.3999023438</ele>
        <time>2016-07-18T12:04:41.000Z</time>
      </trkpt>
      <trkpt lat="44.39179" lon="6.3983">
        <ele>2127.8000488281</ele>
        <time>2016-07-18T12:04:52.000Z</time>
      </trkpt>
      <trkpt lat="44.3918" lon="6.39834">
        <ele>2127.8000488281</ele>
        <time>2016-07-18T12:04:54.000Z</time>
      </trkpt>
      <trkpt lat="44.39184" lon="6.39848">
        <ele>2127.1999511719</ele>
        <time>2016-07-18T12:05:03.000Z</time>
      </trkpt>
      <trkpt lat="44.39191" lon="6.39854">
        <ele>2125.6000976562</ele>
        <time>2016-07-18T12:05:09.000Z</time>
      </trkpt>
      <trkpt lat="44.39193" lon="6.39864">
        <ele>2125.1999511719</ele>
        <time>2016-07-18T12:05:14.000Z</time>
      </trkpt>
      <trkpt lat="44.39193" lon="6.3988">
        <ele>2125.8000488281</ele>
        <time>2016-07-18T12:05:23.000Z</time>
      </trkpt>
      <trkpt lat="44.39195" lon="6.39889">
        <ele>2125.3999023438</ele>
        <time>2016-07-18T12:05:28.000Z</time>
      </trkpt>
      <trkpt lat="44.392" lon="6.399">
        <ele>2124.8000488281</ele>
        <time>2016-07-18T12:05:34.000Z</time>
      </trkpt>
      <trkpt lat="44.392" lon="6.39901">
        <ele>2124.8000488281</ele>
        <time>2016-07-18T12:05:35.000Z</time>
      </trkpt>
      <trkpt lat="44.39204" lon="6.39911">
        <ele>2124.6000976562</ele>
        <time>2016-07-18T12:05:41.000Z</time>
      </trkpt>
      <trkpt lat="44.39207" lon="6.39924">
        <ele>2124.6000976562</ele>
        <time>2016-07-18T12:05:49.000Z</time>
      </trkpt>
      <trkpt lat="44.39207" lon="6.39926">
        <ele>2124.6000976562</ele>
        <time>2016-07-18T12:05:50.000Z</time>
      </trkpt>
      <trkpt lat="44.39209" lon="6.39928">
        <ele>2124.1999511719</ele>
        <time>2016-07-18T12:05:52.000Z</time>
      </trkpt>
      <trkpt lat="44.39212" lon="6.39926">
        <ele>2123.6000976562</ele>
        <time>2016-07-18T12:05:57.000Z</time>
      </trkpt>
      <trkpt lat="44.39212" lon="6.39925">
        <ele>2123.6000976562</ele>
        <time>2016-07-18T12:06:02.000Z</time>
      </trkpt>
      <trkpt lat="44.39211" lon="6.39927">
        <ele>2123.8000488281</ele>
        <time>2016-07-18T12:06:06.000Z</time>
      </trkpt>
      <trkpt lat="44.39215" lon="6.39929">
        <ele>2123</ele>
        <time>2016-07-18T12:06:12.000Z</time>
      </trkpt>
      <trkpt lat="44.39223" lon="6.39939">
        <ele>2121.8000488281</ele>
        <time>2016-07-18T12:06:18.000Z</time>
      </trkpt>
      <trkpt lat="44.39227" lon="6.39955">
        <ele>2121.8000488281</ele>
        <time>2016-07-18T12:06:26.000Z</time>
      </trkpt>
      <trkpt lat="44.39226" lon="6.3997">
        <ele>2123</ele>
        <time>2016-07-18T12:06:33.000Z</time>
      </trkpt>
      <trkpt lat="44.39219" lon="6.39981">
        <ele>2125.1999511719</ele>
        <time>2016-07-18T12:06:41.000Z</time>
      </trkpt>
      <trkpt lat="44.3921" lon="6.39987">
        <ele>2127.1999511719</ele>
        <time>2016-07-18T12:06:48.000Z</time>
      </trkpt>
      <trkpt lat="44.39204" lon="6.39993">
        <ele>2128.6000976562</ele>
        <time>2016-07-18T12:06:54.000Z</time>
      </trkpt>
      <trkpt lat="44.39199" lon="6.40006">
        <ele>2129.1999511719</ele>
        <time>2016-07-18T12:07:02.000Z</time>
      </trkpt>
      <trkpt lat="44.39197" lon="6.40011">
        <ele>2129.6000976562</ele>
        <time>2016-07-18T12:07:06.000Z</time>
      </trkpt>
      <trkpt lat="44.39188" lon="6.40016">
        <ele>2131</ele>
        <time>2016-07-18T12:07:13.000Z</time>
      </trkpt>
      <trkpt lat="44.39187" lon="6.40017">
        <ele>2131.1999511719</ele>
        <time>2016-07-18T12:07:14.000Z</time>
      </trkpt>
      <trkpt lat="44.39178" lon="6.40024">
        <ele>2132.6000976562</ele>
        <time>2016-07-18T12:07:22.000Z</time>
      </trkpt>
      <trkpt lat="44.3917" lon="6.40037">
        <ele>2133.6000976562</ele>
        <time>2016-07-18T12:07:32.000Z</time>
      </trkpt>
      <trkpt lat="44.39169" lon="6.40055">
        <ele>2130.6000976562</ele>
        <time>2016-07-18T12:07:42.000Z</time>
      </trkpt>
      <trkpt lat="44.39172" lon="6.40071">
        <ele>2128.6000976562</ele>
        <time>2016-07-18T12:07:50.000Z</time>
      </trkpt>
      <trkpt lat="44.39165" lon="6.40075">
        <ele>2128.6000976562</ele>
        <time>2016-07-18T12:07:57.000Z</time>
      </trkpt>
      <trkpt lat="44.39159" lon="6.40075">
        <ele>2128.8000488281</ele>
        <time>2016-07-18T12:08:02.000Z</time>
      </trkpt>
      <trkpt lat="44.3915" lon="6.40077">
        <ele>2129</ele>
        <time>2016-07-18T12:08:08.000Z</time>
      </trkpt>
      <trkpt lat="44.39143" lon="6.40079">
        <ele>2129.1999511719</ele>
        <time>2016-07-18T12:08:15.000Z</time>
      </trkpt>
      <trkpt lat="44.39141" lon="6.40079">
        <ele>2129.1999511719</ele>
        <time>2016-07-18T12:08:16.000Z</time>
      </trkpt>
      <trkpt lat="44.39134" lon="6.40073">
        <ele>2129.8000488281</ele>
        <time>2016-07-18T12:08:23.000Z</time>
      </trkpt>
      <trkpt lat="44.39131" lon="6.40073">
        <ele>2130</ele>
        <time>2016-07-18T12:08:28.000Z</time>
      </trkpt>
      <trkpt lat="44.39127" lon="6.40077">
        <ele>2129.8000488281</ele>
        <time>2016-07-18T12:08:34.000Z</time>
      </trkpt>
      <trkpt lat="44.39119" lon="6.40084">
        <ele>2128.1999511719</ele>
        <time>2016-07-18T12:08:43.000Z</time>
      </trkpt>
      <trkpt lat="44.39112" lon="6.40082">
        <ele>2128</ele>
        <time>2016-07-18T12:08:49.000Z</time>
      </trkpt>
      <trkpt lat="44.391" lon="6.40081">
        <ele>2126.3999023438</ele>
        <time>2016-07-18T12:08:58.000Z</time>
      </trkpt>
      <trkpt lat="44.39093" lon="6.40079">
        <ele>2125.6000976562</ele>
        <time>2016-07-18T12:09:05.000Z</time>
      </trkpt>
      <trkpt lat="44.39089" lon="6.40082">
        <ele>2124.6000976562</ele>
        <time>2016-07-18T12:09:09.000Z</time>
      </trkpt>
      <trkpt lat="44.39087" lon="6.40084">
        <ele>2124.1999511719</ele>
        <time>2016-07-18T12:09:11.000Z</time>
      </trkpt>
      <trkpt lat="44.39084" lon="6.40086">
        <ele>2123.1999511719</ele>
        <time>2016-07-18T12:09:14.000Z</time>
      </trkpt>
      <trkpt lat="44.39073" lon="6.40087">
        <ele>2121.3999023438</ele>
        <time>2016-07-18T12:09:23.000Z</time>
      </trkpt>
      <trkpt lat="44.39071" lon="6.40087">
        <ele>2121.3999023438</ele>
        <time>2016-07-18T12:09:24.000Z</time>
      </trkpt>
      <trkpt lat="44.39067" lon="6.40087">
        <ele>2120.6000976562</ele>
        <time>2016-07-18T12:09:28.000Z</time>
      </trkpt>
      <trkpt lat="44.39066" lon="6.40085">
        <ele>2120.8000488281</ele>
        <time>2016-07-18T12:09:30.000Z</time>
      </trkpt>
      <trkpt lat="44.3906" lon="6.40084">
        <ele>2120.1999511719</ele>
        <time>2016-07-18T12:09:34.000Z</time>
      </trkpt>
      <trkpt lat="44.39059" lon="6.40084">
        <ele>2120</ele>
        <time>2016-07-18T12:09:35.000Z</time>
      </trkpt>
      <trkpt lat="44.39055" lon="6.4008">
        <ele>2120</ele>
        <time>2016-07-18T12:09:41.000Z</time>
      </trkpt>
      <trkpt lat="44.39049" lon="6.4008">
        <ele>2119.1999511719</ele>
        <time>2016-07-18T12:09:48.000Z</time>
      </trkpt>
      <trkpt lat="44.39045" lon="6.40075">
        <ele>2119.1999511719</ele>
        <time>2016-07-18T12:09:53.000Z</time>
      </trkpt>
      <trkpt lat="44.39043" lon="6.4007">
        <ele>2119.8000488281</ele>
        <time>2016-07-18T12:09:57.000Z</time>
      </trkpt>
      <trkpt lat="44.39037" lon="6.40065">
        <ele>2119.8000488281</ele>
        <time>2016-07-18T12:10:03.000Z</time>
      </trkpt>
      <trkpt lat="44.39035" lon="6.40064">
        <ele>2119.8000488281</ele>
        <time>2016-07-18T12:10:05.000Z</time>
      </trkpt>
      <trkpt lat="44.39025" lon="6.4006">
        <ele>2119.1999511719</ele>
        <time>2016-07-18T12:10:13.000Z</time>
      </trkpt>
      <trkpt lat="44.39022" lon="6.40061">
        <ele>2118.8000488281</ele>
        <time>2016-07-18T12:10:15.000Z</time>
      </trkpt>
      <trkpt lat="44.39012" lon="6.40059">
        <ele>2117.8000488281</ele>
        <time>2016-07-18T12:10:22.000Z</time>
      </trkpt>
      <trkpt lat="44.39011" lon="6.40059">
        <ele>2117.8000488281</ele>
        <time>2016-07-18T12:10:23.000Z</time>
      </trkpt>
      <trkpt lat="44.39002" lon="6.40054">
        <ele>2117.6000976562</ele>
        <time>2016-07-18T12:10:31.000Z</time>
      </trkpt>
      <trkpt lat="44.38979" lon="6.40046">
        <ele>2116.6000976562</ele>
        <time>2016-07-18T12:10:50.000Z</time>
      </trkpt>
      <trkpt lat="44.38974" lon="6.40042">
        <ele>2116.8000488281</ele>
        <time>2016-07-18T12:10:54.000Z</time>
      </trkpt>
      <trkpt lat="44.38969" lon="6.40041">
        <ele>2116.3999023438</ele>
        <time>2016-07-18T12:10:59.000Z</time>
      </trkpt>
      <trkpt lat="44.38962" lon="6.40031">
        <ele>2117.6000976562</ele>
        <time>2016-07-18T12:11:07.000Z</time>
      </trkpt>
      <trkpt lat="44.38954" lon="6.40023">
        <ele>2118.1999511719</ele>
        <time>2016-07-18T12:11:14.000Z</time>
      </trkpt>
      <trkpt lat="44.38953" lon="6.40022">
        <ele>2118.3999023438</ele>
        <time>2016-07-18T12:11:15.000Z</time>
      </trkpt>
      <trkpt lat="44.38948" lon="6.40014">
        <ele>2119.6000976562</ele>
        <time>2016-07-18T12:11:21.000Z</time>
      </trkpt>
      <trkpt lat="44.38941" lon="6.40005">
        <ele>2121</ele>
        <time>2016-07-18T12:11:28.000Z</time>
      </trkpt>
      <trkpt lat="44.38934" lon="6.39999">
        <ele>2122.1999511719</ele>
        <time>2016-07-18T12:11:34.000Z</time>
      </trkpt>
      <trkpt lat="44.38927" lon="6.39994">
        <ele>2123</ele>
        <time>2016-07-18T12:11:40.000Z</time>
      </trkpt>
      <trkpt lat="44.38925" lon="6.39991">
        <ele>2123.3999023438</ele>
        <time>2016-07-18T12:11:42.000Z</time>
      </trkpt>
      <trkpt lat="44.38923" lon="6.39991">
        <ele>2123.6000976562</ele>
        <time>2016-07-18T12:11:44.000Z</time>
      </trkpt>
      <trkpt lat="44.38918" lon="6.39985">
        <ele>2124.6000976562</ele>
        <time>2016-07-18T12:11:48.000Z</time>
      </trkpt>
      <trkpt lat="44.38912" lon="6.39982">
        <ele>2125</ele>
        <time>2016-07-18T12:11:56.000Z</time>
      </trkpt>
      <trkpt lat="44.38909" lon="6.39981">
        <ele>2125.1999511719</ele>
        <time>2016-07-18T12:12:03.000Z</time>
      </trkpt>
      <trkpt lat="44.3891" lon="6.39981">
        <ele>2125.1999511719</ele>
        <time>2016-07-18T12:12:10.000Z</time>
      </trkpt>
      <trkpt lat="44.38907" lon="6.39982">
        <ele>2125</ele>
        <time>2016-07-18T12:12:40.000Z</time>
      </trkpt>
      <trkpt lat="44.38898" lon="6.39985">
        <ele>2124</ele>
        <time>2016-07-18T12:12:51.000Z</time>
      </trkpt>
      <trkpt lat="44.38888" lon="6.39987">
        <ele>2123.3999023438</ele>
        <time>2016-07-18T12:12:59.000Z</time>
      </trkpt>
      <trkpt lat="44.38887" lon="6.39987">
        <ele>2123.3999023438</ele>
        <time>2016-07-18T12:13:00.000Z</time>
      </trkpt>
      <trkpt lat="44.38878" lon="6.39985">
        <ele>2123.6000976562</ele>
        <time>2016-07-18T12:13:07.000Z</time>
      </trkpt>
      <trkpt lat="44.3887" lon="6.39987">
        <ele>2123.1999511719</ele>
        <time>2016-07-18T12:13:13.000Z</time>
      </trkpt>
      <trkpt lat="44.38865" lon="6.39989">
        <ele>2122.8000488281</ele>
        <time>2016-07-18T12:13:17.000Z</time>
      </trkpt>
      <trkpt lat="44.38857" lon="6.39985">
        <ele>2122.8000488281</ele>
        <time>2016-07-18T12:13:23.000Z</time>
      </trkpt>
      <trkpt lat="44.38846" lon="6.39982">
        <ele>2122.3999023438</ele>
        <time>2016-07-18T12:13:32.000Z</time>
      </trkpt>
      <trkpt lat="44.38832" lon="6.39979">
        <ele>2122</ele>
        <time>2016-07-18T12:13:44.000Z</time>
      </trkpt>
      <trkpt lat="44.38824" lon="6.3998">
        <ele>2121</ele>
        <time>2016-07-18T12:13:52.000Z</time>
      </trkpt>
      <trkpt lat="44.38822" lon="6.3998">
        <ele>2121</ele>
        <time>2016-07-18T12:13:54.000Z</time>
      </trkpt>
      <trkpt lat="44.38814" lon="6.39982">
        <ele>2119.8000488281</ele>
        <time>2016-07-18T12:14:02.000Z</time>
      </trkpt>
      <trkpt lat="44.38812" lon="6.39982">
        <ele>2119.6000976562</ele>
        <time>2016-07-18T12:14:04.000Z</time>
      </trkpt>
      <trkpt lat="44.3881" lon="6.39987">
        <ele>2118.3999023438</ele>
        <time>2016-07-18T12:14:10.000Z</time>
      </trkpt>
      <trkpt lat="44.38806" lon="6.39991">
        <ele>2117.3999023438</ele>
        <time>2016-07-18T12:14:14.000Z</time>
      </trkpt>
      <trkpt lat="44.38799" lon="6.39991">
        <ele>2116.8000488281</ele>
        <time>2016-07-18T12:14:20.000Z</time>
      </trkpt>
      <trkpt lat="44.38795" lon="6.39992">
        <ele>2116.1999511719</ele>
        <time>2016-07-18T12:14:24.000Z</time>
      </trkpt>
      <trkpt lat="44.38793" lon="6.39992">
        <ele>2116</ele>
        <time>2016-07-18T12:14:26.000Z</time>
      </trkpt>
      <trkpt lat="44.38789" lon="6.3999">
        <ele>2116.1999511719</ele>
        <time>2016-07-18T12:14:30.000Z</time>
      </trkpt>
      <trkpt lat="44.38778" lon="6.39986">
        <ele>2116.3999023438</ele>
        <time>2016-07-18T12:14:42.000Z</time>
      </trkpt>
      <trkpt lat="44.38768" lon="6.39988">
        <ele>2116.1999511719</ele>
        <time>2016-07-18T12:14:51.000Z</time>
      </trkpt>
      <trkpt lat="44.38764" lon="6.39988">
        <ele>2116</ele>
        <time>2016-07-18T12:14:55.000Z</time>
      </trkpt>
      <trkpt lat="44.38757" lon="6.3999">
        <ele>2115.8000488281</ele>
        <time>2016-07-18T12:15:01.000Z</time>
      </trkpt>
      <trkpt lat="44.3875" lon="6.39994">
        <ele>2115.1999511719</ele>
        <time>2016-07-18T12:15:09.000Z</time>
      </trkpt>
      <trkpt lat="44.38749" lon="6.39995">
        <ele>2115.1999511719</ele>
        <time>2016-07-18T12:15:10.000Z</time>
      </trkpt>
      <trkpt lat="44.38743" lon="6.39997">
        <ele>2114.8000488281</ele>
        <time>2016-07-18T12:15:16.000Z</time>
      </trkpt>
      <trkpt lat="44.38742" lon="6.39997">
        <ele>2114.8000488281</ele>
        <time>2016-07-18T12:15:17.000Z</time>
      </trkpt>
      <trkpt lat="44.38731" lon="6.4">
        <ele>2114.3999023438</ele>
        <time>2016-07-18T12:15:26.000Z</time>
      </trkpt>
      <trkpt lat="44.38722" lon="6.40003">
        <ele>2114</ele>
        <time>2016-07-18T12:15:33.000Z</time>
      </trkpt>
      <trkpt lat="44.38713" lon="6.40007">
        <ele>2113.8000488281</ele>
        <time>2016-07-18T12:15:40.000Z</time>
      </trkpt>
      <trkpt lat="44.38701" lon="6.40013">
        <ele>2113.6000976562</ele>
        <time>2016-07-18T12:15:50.000Z</time>
      </trkpt>
      <trkpt lat="44.38689" lon="6.40017">
        <ele>2113.6000976562</ele>
        <time>2016-07-18T12:15:59.000Z</time>
      </trkpt>
      <trkpt lat="44.38679" lon="6.40021">
        <ele>2113.8000488281</ele>
        <time>2016-07-18T12:16:07.000Z</time>
      </trkpt>
      <trkpt lat="44.38671" lon="6.40023">
        <ele>2113.8000488281</ele>
        <time>2016-07-18T12:16:16.000Z</time>
      </trkpt>
      <trkpt lat="44.38671" lon="6.40024">
        <ele>2113.8000488281</ele>
        <time>2016-07-18T12:16:17.000Z</time>
      </trkpt>
      <trkpt lat="44.38672" lon="6.40023">
        <ele>2113.8000488281</ele>
        <time>2016-07-18T12:16:25.000Z</time>
      </trkpt>
      <trkpt lat="44.38672" lon="6.40024">
        <ele>2113.6000976562</ele>
        <time>2016-07-18T12:16:30.000Z</time>
      </trkpt>
      <trkpt lat="44.38657" lon="6.40037">
        <ele>2112.8000488281</ele>
        <time>2016-07-18T12:16:42.000Z</time>
      </trkpt>
      <trkpt lat="44.38644" lon="6.40051">
        <ele>2111.6000976562</ele>
        <time>2016-07-18T12:16:53.000Z</time>
      </trkpt>
      <trkpt lat="44.38634" lon="6.40059">
        <ele>2111</ele>
        <time>2016-07-18T12:17:01.000Z</time>
      </trkpt>
      <trkpt lat="44.38622" lon="6.4007">
        <ele>2110</ele>
        <time>2016-07-18T12:17:10.000Z</time>
      </trkpt>
      <trkpt lat="44.38611" lon="6.40088">
        <ele>2109.8000488281</ele>
        <time>2016-07-18T12:17:21.000Z</time>
      </trkpt>
      <trkpt lat="44.38597" lon="6.40102">
        <ele>2109.1999511719</ele>
        <time>2016-07-18T12:17:33.000Z</time>
      </trkpt>
      <trkpt lat="44.38584" lon="6.40107">
        <ele>2109</ele>
        <time>2016-07-18T12:17:42.000Z</time>
      </trkpt>
      <trkpt lat="44.3857" lon="6.40104">
        <ele>2109.1999511719</ele>
        <time>2016-07-18T12:17:52.000Z</time>
      </trkpt>
      <trkpt lat="44.38563" lon="6.40094">
        <ele>2109.6000976562</ele>
        <time>2016-07-18T12:17:59.000Z</time>
      </trkpt>
      <trkpt lat="44.38552" lon="6.40079">
        <ele>2110.3999023438</ele>
        <time>2016-07-18T12:18:10.000Z</time>
      </trkpt>
      <trkpt lat="44.38543" lon="6.40062">
        <ele>2111</ele>
        <time>2016-07-18T12:18:21.000Z</time>
      </trkpt>
      <trkpt lat="44.38534" lon="6.40051">
        <ele>2111.1999511719</ele>
        <time>2016-07-18T12:18:30.000Z</time>
      </trkpt>
      <trkpt lat="44.38522" lon="6.40037">
        <ele>2111.1999511719</ele>
        <time>2016-07-18T12:18:40.000Z</time>
      </trkpt>
      <trkpt lat="44.38511" lon="6.40031">
        <ele>2111</ele>
        <time>2016-07-18T12:18:49.000Z</time>
      </trkpt>
      <trkpt lat="44.38499" lon="6.40024">
        <ele>2110.8000488281</ele>
        <time>2016-07-18T12:18:58.000Z</time>
      </trkpt>
      <trkpt lat="44.38484" lon="6.40008">
        <ele>2110.6000976562</ele>
        <time>2016-07-18T12:19:10.000Z</time>
      </trkpt>
      <trkpt lat="44.38472" lon="6.39997">
        <ele>2110.3999023438</ele>
        <time>2016-07-18T12:19:19.000Z</time>
      </trkpt>
      <trkpt lat="44.38456" lon="6.39985">
        <ele>2110.1999511719</ele>
        <time>2016-07-18T12:19:31.000Z</time>
      </trkpt>
      <trkpt lat="44.38438" lon="6.39977">
        <ele>2109.8000488281</ele>
        <time>2016-07-18T12:19:43.000Z</time>
      </trkpt>
      <trkpt lat="44.38422" lon="6.3997">
        <ele>2109.3999023438</ele>
        <time>2016-07-18T12:19:54.000Z</time>
      </trkpt>
      <trkpt lat="44.3841" lon="6.39965">
        <ele>2109.1999511719</ele>
        <time>2016-07-18T12:20:02.000Z</time>
      </trkpt>
      <trkpt lat="44.38394" lon="6.39957">
        <ele>2108.8000488281</ele>
        <time>2016-07-18T12:20:13.000Z</time>
      </trkpt>
      <trkpt lat="44.38383" lon="6.39948">
        <ele>2108.3999023438</ele>
        <time>2016-07-18T12:20:21.000Z</time>
      </trkpt>
      <trkpt lat="44.38372" lon="6.39939">
        <ele>2108</ele>
        <time>2016-07-18T12:20:29.000Z</time>
      </trkpt>
      <trkpt lat="44.3836" lon="6.3993">
        <ele>2107.8000488281</ele>
        <time>2016-07-18T12:20:37.000Z</time>
      </trkpt>
      <trkpt lat="44.38351" lon="6.39925">
        <ele>2107.6000976562</ele>
        <time>2016-07-18T12:20:43.000Z</time>
      </trkpt>
      <trkpt lat="44.38341" lon="6.39913">
        <ele>2107.3999023438</ele>
        <time>2016-07-18T12:20:52.000Z</time>
      </trkpt>
      <trkpt lat="44.38328" lon="6.39903">
        <ele>2107.1999511719</ele>
        <time>2016-07-18T12:21:01.000Z</time>
      </trkpt>
      <trkpt lat="44.3832" lon="6.39899">
        <ele>2107</ele>
        <time>2016-07-18T12:21:09.000Z</time>
      </trkpt>
      <trkpt lat="44.38319" lon="6.39898">
        <ele>2106.8000488281</ele>
        <time>2016-07-18T12:21:18.000Z</time>
      </trkpt>
      <trkpt lat="44.38318" lon="6.39899">
        <ele>2107</ele>
        <time>2016-07-18T12:21:43.000Z</time>
      </trkpt>
      <trkpt lat="44.38317" lon="6.399">
        <ele>2107</ele>
        <time>2016-07-18T12:22:15.000Z</time>
      </trkpt>
      <trkpt lat="44.38318" lon="6.39899">
        <ele>2107</ele>
        <time>2016-07-18T12:23:28.000Z</time>
      </trkpt>
      <trkpt lat="44.38317" lon="6.39899">
        <ele>2107</ele>
        <time>2016-07-18T12:23:33.000Z</time>
      </trkpt>
      <trkpt lat="44.38315" lon="6.39897">
        <ele>2106.8000488281</ele>
        <time>2016-07-18T12:23:45.000Z</time>
      </trkpt>
      <trkpt lat="44.38312" lon="6.39896">
        <ele>2106.3999023438</ele>
        <time>2016-07-18T12:24:12.000Z</time>
      </trkpt>
      <trkpt lat="44.38313" lon="6.39896">
        <ele>2106.3999023438</ele>
        <time>2016-07-18T12:24:24.000Z</time>
      </trkpt>
      <trkpt lat="44.38312" lon="6.39896">
        <ele>2106.3999023438</ele>
        <time>2016-07-18T12:24:25.000Z</time>
      </trkpt>
      <trkpt lat="44.38304" lon="6.39894">
        <ele>2106</ele>
        <time>2016-07-18T12:24:32.000Z</time>
      </trkpt>
      <trkpt lat="44.38292" lon="6.39894">
        <ele>2106</ele>
        <time>2016-07-18T12:24:39.000Z</time>
      </trkpt>
      <trkpt lat="44.38281" lon="6.39893">
        <ele>2105.6000976562</ele>
        <time>2016-07-18T12:24:47.000Z</time>
      </trkpt>
      <trkpt lat="44.38273" lon="6.39895">
        <ele>2105.8000488281</ele>
        <time>2016-07-18T12:24:53.000Z</time>
      </trkpt>
      <trkpt lat="44.38266" lon="6.39896">
        <ele>2105.8000488281</ele>
        <time>2016-07-18T12:24:58.000Z</time>
      </trkpt>
      <trkpt lat="44.38258" lon="6.39897">
        <ele>2106</ele>
        <time>2016-07-18T12:25:04.000Z</time>
      </trkpt>
      <trkpt lat="44.38249" lon="6.39898">
        <ele>2106.1999511719</ele>
        <time>2016-07-18T12:25:10.000Z</time>
      </trkpt>
      <trkpt lat="44.38237" lon="6.399">
        <ele>2106.1999511719</ele>
        <time>2016-07-18T12:25:18.000Z</time>
      </trkpt>
      <trkpt lat="44.38229" lon="6.39902">
        <ele>2106.1999511719</ele>
        <time>2016-07-18T12:25:23.000Z</time>
      </trkpt>
      <trkpt lat="44.38215" lon="6.39906">
        <ele>2106.3999023438</ele>
        <time>2016-07-18T12:25:32.000Z</time>
      </trkpt>
      <trkpt lat="44.38207" lon="6.39909">
        <ele>2106.8000488281</ele>
        <time>2016-07-18T12:25:37.000Z</time>
      </trkpt>
      <trkpt lat="44.38191" lon="6.39907">
        <ele>2109.6000976562</ele>
        <time>2016-07-18T12:25:46.000Z</time>
      </trkpt>
      <trkpt lat="44.3818" lon="6.39904">
        <ele>2111.6000976562</ele>
        <time>2016-07-18T12:25:54.000Z</time>
      </trkpt>
      <trkpt lat="44.38178" lon="6.39903">
        <ele>2112</ele>
        <time>2016-07-18T12:25:56.000Z</time>
      </trkpt>
      <trkpt lat="44.38168" lon="6.39896">
        <ele>2112</ele>
        <time>2016-07-18T12:26:02.000Z</time>
      </trkpt>
      <trkpt lat="44.38159" lon="6.39889">
        <ele>2111.1999511719</ele>
        <time>2016-07-18T12:26:09.000Z</time>
      </trkpt>
      <trkpt lat="44.38151" lon="6.39883">
        <ele>2110.3999023438</ele>
        <time>2016-07-18T12:26:15.000Z</time>
      </trkpt>
      <trkpt lat="44.38141" lon="6.39874">
        <ele>2109</ele>
        <time>2016-07-18T12:26:24.000Z</time>
      </trkpt>
      <trkpt lat="44.38131" lon="6.3987">
        <ele>2109.3999023438</ele>
        <time>2016-07-18T12:26:31.000Z</time>
      </trkpt>
      <trkpt lat="44.38121" lon="6.39864">
        <ele>2109.1999511719</ele>
        <time>2016-07-18T12:26:39.000Z</time>
      </trkpt>
      <trkpt lat="44.38111" lon="6.39854">
        <ele>2107.3999023438</ele>
        <time>2016-07-18T12:26:47.000Z</time>
      </trkpt>
      <trkpt lat="44.38103" lon="6.39844">
        <ele>2105.3999023438</ele>
        <time>2016-07-18T12:26:55.000Z</time>
      </trkpt>
      <trkpt lat="44.38096" lon="6.39838">
        <ele>2104.3999023438</ele>
        <time>2016-07-18T12:27:01.000Z</time>
      </trkpt>
      <trkpt lat="44.38087" lon="6.3983">
        <ele>2104</ele>
        <time>2016-07-18T12:27:09.000Z</time>
      </trkpt>
      <trkpt lat="44.38078" lon="6.39825">
        <ele>2104.3999023438</ele>
        <time>2016-07-18T12:27:15.000Z</time>
      </trkpt>
      <trkpt lat="44.38069" lon="6.3982">
        <ele>2105.3999023438</ele>
        <time>2016-07-18T12:27:22.000Z</time>
      </trkpt>
      <trkpt lat="44.38058" lon="6.39815">
        <ele>2106.6000976562</ele>
        <time>2016-07-18T12:27:30.000Z</time>
      </trkpt>
      <trkpt lat="44.38051" lon="6.3981">
        <ele>2105.3999023438</ele>
        <time>2016-07-18T12:27:36.000Z</time>
      </trkpt>
      <trkpt lat="44.38042" lon="6.398">
        <ele>2102.1999511719</ele>
        <time>2016-07-18T12:27:45.000Z</time>
      </trkpt>
      <trkpt lat="44.38039" lon="6.39797">
        <ele>2101.6000976562</ele>
        <time>2016-07-18T12:27:47.000Z</time>
      </trkpt>
      <trkpt lat="44.38033" lon="6.39794">
        <ele>2101.1999511719</ele>
        <time>2016-07-18T12:27:51.000Z</time>
      </trkpt>
      <trkpt lat="44.3802" lon="6.39785">
        <ele>2099.3999023438</ele>
        <time>2016-07-18T12:28:01.000Z</time>
      </trkpt>
      <trkpt lat="44.38011" lon="6.39777">
        <ele>2096.8000488281</ele>
        <time>2016-07-18T12:28:08.000Z</time>
      </trkpt>
      <trkpt lat="44.38002" lon="6.39773">
        <ele>2096.6000976562</ele>
        <time>2016-07-18T12:28:15.000Z</time>
      </trkpt>
      <trkpt lat="44.37995" lon="6.39769">
        <ele>2095.8000488281</ele>
        <time>2016-07-18T12:28:20.000Z</time>
      </trkpt>
      <trkpt lat="44.37993" lon="6.39767">
        <ele>2095.6000976562</ele>
        <time>2016-07-18T12:28:22.000Z</time>
      </trkpt>
      <trkpt lat="44.37982" lon="6.39758">
        <ele>2092.6000976562</ele>
        <time>2016-07-18T12:28:31.000Z</time>
      </trkpt>
      <trkpt lat="44.37961" lon="6.39742">
        <ele>2087.8000488281</ele>
        <time>2016-07-18T12:28:48.000Z</time>
      </trkpt>
      <trkpt lat="44.37951" lon="6.39729">
        <ele>2082.8000488281</ele>
        <time>2016-07-18T12:28:58.000Z</time>
      </trkpt>
      <trkpt lat="44.3794" lon="6.39722">
        <ele>2081</ele>
        <time>2016-07-18T12:29:07.000Z</time>
      </trkpt>
      <trkpt lat="44.37931" lon="6.39717">
        <ele>2079.3999023438</ele>
        <time>2016-07-18T12:29:14.000Z</time>
      </trkpt>
      <trkpt lat="44.37924" lon="6.39716">
        <ele>2079.1999511719</ele>
        <time>2016-07-18T12:29:20.000Z</time>
      </trkpt>
      <trkpt lat="44.37912" lon="6.39716">
        <ele>2079.3999023438</ele>
        <time>2016-07-18T12:29:29.000Z</time>
      </trkpt>
      <trkpt lat="44.37903" lon="6.39713">
        <ele>2078.1999511719</ele>
        <time>2016-07-18T12:29:36.000Z</time>
      </trkpt>
      <trkpt lat="44.37893" lon="6.39704">
        <ele>2074.8000488281</ele>
        <time>2016-07-18T12:29:45.000Z</time>
      </trkpt>
      <trkpt lat="44.37883" lon="6.39701">
        <ele>2073.6000976562</ele>
        <time>2016-07-18T12:29:54.000Z</time>
      </trkpt>
      <trkpt lat="44.37874" lon="6.39699">
        <ele>2072.8000488281</ele>
        <time>2016-07-18T12:30:01.000Z</time>
      </trkpt>
      <trkpt lat="44.37867" lon="6.39694">
        <ele>2071</ele>
        <time>2016-07-18T12:30:07.000Z</time>
      </trkpt>
      <trkpt lat="44.3786" lon="6.39685">
        <ele>2066.3999023438</ele>
        <time>2016-07-18T12:30:14.000Z</time>
      </trkpt>
      <trkpt lat="44.37853" lon="6.39677">
        <ele>2061.6000976562</ele>
        <time>2016-07-18T12:30:22.000Z</time>
      </trkpt>
      <trkpt lat="44.37847" lon="6.39671">
        <ele>2057.8000488281</ele>
        <time>2016-07-18T12:30:28.000Z</time>
      </trkpt>
      <trkpt lat="44.37843" lon="6.39663">
        <ele>2053.8000488281</ele>
        <time>2016-07-18T12:30:34.000Z</time>
      </trkpt>
      <trkpt lat="44.37837" lon="6.39652">
        <ele>2048</ele>
        <time>2016-07-18T12:30:43.000Z</time>
      </trkpt>
      <trkpt lat="44.3783" lon="6.39646">
        <ele>2044.1999511719</ele>
        <time>2016-07-18T12:30:50.000Z</time>
      </trkpt>
      <trkpt lat="44.3782" lon="6.39642">
        <ele>2041.1999511719</ele>
        <time>2016-07-18T12:30:58.000Z</time>
      </trkpt>
      <trkpt lat="44.3781" lon="6.39638">
        <ele>2038</ele>
        <time>2016-07-18T12:31:06.000Z</time>
      </trkpt>
      <trkpt lat="44.37803" lon="6.39634">
        <ele>2035.1999511719</ele>
        <time>2016-07-18T12:31:14.000Z</time>
      </trkpt>
      <trkpt lat="44.37802" lon="6.39634">
        <ele>2035.1999511719</ele>
        <time>2016-07-18T12:31:15.000Z</time>
      </trkpt>
      <trkpt lat="44.37796" lon="6.39639">
        <ele>2035.1999511719</ele>
        <time>2016-07-18T12:31:22.000Z</time>
      </trkpt>
      <trkpt lat="44.37795" lon="6.3964">
        <ele>2035.5999755859</ele>
        <time>2016-07-18T12:31:23.000Z</time>
      </trkpt>
      <trkpt lat="44.3779" lon="6.39647">
        <ele>2036.4000244141</ele>
        <time>2016-07-18T12:31:29.000Z</time>
      </trkpt>
      <trkpt lat="44.37784" lon="6.39651">
        <ele>2036.5999755859</ele>
        <time>2016-07-18T12:31:34.000Z</time>
      </trkpt>
      <trkpt lat="44.37781" lon="6.39658">
        <ele>2039</ele>
        <time>2016-07-18T12:31:40.000Z</time>
      </trkpt>
      <trkpt lat="44.3778" lon="6.39659">
        <ele>2039.4000244141</ele>
        <time>2016-07-18T12:31:41.000Z</time>
      </trkpt>
      <trkpt lat="44.37777" lon="6.39664">
        <ele>2041.4000244141</ele>
        <time>2016-07-18T12:31:46.000Z</time>
      </trkpt>
      <trkpt lat="44.37776" lon="6.39664">
        <ele>2041.8000488281</ele>
        <time>2016-07-18T12:31:47.000Z</time>
      </trkpt>
      <trkpt lat="44.37772" lon="6.39677">
        <ele>2046.8000488281</ele>
        <time>2016-07-18T12:31:54.000Z</time>
      </trkpt>
      <trkpt lat="44.37764" lon="6.39687">
        <ele>2051.1999511719</ele>
        <time>2016-07-18T12:32:00.000Z</time>
      </trkpt>
      <trkpt lat="44.37763" lon="6.39688">
        <ele>2051.3999023438</ele>
        <time>2016-07-18T12:32:01.000Z</time>
      </trkpt>
      <trkpt lat="44.37751" lon="6.39691">
        <ele>2052.8000488281</ele>
        <time>2016-07-18T12:32:09.000Z</time>
      </trkpt>
      <trkpt lat="44.3774" lon="6.39689">
        <ele>2052.1999511719</ele>
        <time>2016-07-18T12:32:16.000Z</time>
      </trkpt>
      <trkpt lat="44.3773" lon="6.39688">
        <ele>2051.1999511719</ele>
        <time>2016-07-18T12:32:23.000Z</time>
      </trkpt>
      <trkpt lat="44.3772" lon="6.39686">
        <ele>2050</ele>
        <time>2016-07-18T12:32:30.000Z</time>
      </trkpt>
      <trkpt lat="44.37708" lon="6.39682">
        <ele>2048.1999511719</ele>
        <time>2016-07-18T12:32:39.000Z</time>
      </trkpt>
      <trkpt lat="44.37702" lon="6.3968">
        <ele>2046.8000488281</ele>
        <time>2016-07-18T12:32:44.000Z</time>
      </trkpt>
      <trkpt lat="44.37697" lon="6.39678">
        <ele>2045.8000488281</ele>
        <time>2016-07-18T12:32:47.000Z</time>
      </trkpt>
      <trkpt lat="44.37688" lon="6.39671">
        <ele>2042.1999511719</ele>
        <time>2016-07-18T12:32:54.000Z</time>
      </trkpt>
      <trkpt lat="44.3768" lon="6.39665">
        <ele>2039.1999511719</ele>
        <time>2016-07-18T12:33:01.000Z</time>
      </trkpt>
      <trkpt lat="44.37671" lon="6.39661">
        <ele>2036.5999755859</ele>
        <time>2016-07-18T12:33:08.000Z</time>
      </trkpt>
      <trkpt lat="44.37662" lon="6.3966">
        <ele>2035.4000244141</ele>
        <time>2016-07-18T12:33:15.000Z</time>
      </trkpt>
      <trkpt lat="44.37652" lon="6.39659">
        <ele>2034.1999511719</ele>
        <time>2016-07-18T12:33:22.000Z</time>
      </trkpt>
      <trkpt lat="44.37645" lon="6.3966">
        <ele>2033.5999755859</ele>
        <time>2016-07-18T12:33:27.000Z</time>
      </trkpt>
      <trkpt lat="44.37631" lon="6.39664">
        <ele>2033.5999755859</ele>
        <time>2016-07-18T12:33:37.000Z</time>
      </trkpt>
      <trkpt lat="44.37614" lon="6.39668">
        <ele>2031.4000244141</ele>
        <time>2016-07-18T12:33:51.000Z</time>
      </trkpt>
      <trkpt lat="44.37605" lon="6.39674">
        <ele>2031.1999511719</ele>
        <time>2016-07-18T12:33:58.000Z</time>
      </trkpt>
      <trkpt lat="44.37598" lon="6.39675">
        <ele>2030</ele>
        <time>2016-07-18T12:34:03.000Z</time>
      </trkpt>
      <trkpt lat="44.37589" lon="6.39676">
        <ele>2028.5999755859</ele>
        <time>2016-07-18T12:34:09.000Z</time>
      </trkpt>
      <trkpt lat="44.37582" lon="6.39677">
        <ele>2027.1999511719</ele>
        <time>2016-07-18T12:34:15.000Z</time>
      </trkpt>
      <trkpt lat="44.37574" lon="6.3968">
        <ele>2026.4000244141</ele>
        <time>2016-07-18T12:34:21.000Z</time>
      </trkpt>
      <trkpt lat="44.37565" lon="6.39684">
        <ele>2025.4000244141</ele>
        <time>2016-07-18T12:34:28.000Z</time>
      </trkpt>
      <trkpt lat="44.37563" lon="6.39684">
        <ele>2025</ele>
        <time>2016-07-18T12:34:29.000Z</time>
      </trkpt>
      <trkpt lat="44.37548" lon="6.3969">
        <ele>2023.1999511719</ele>
        <time>2016-07-18T12:34:42.000Z</time>
      </trkpt>
      <trkpt lat="44.37536" lon="6.39691">
        <ele>2020.8000488281</ele>
        <time>2016-07-18T12:34:50.000Z</time>
      </trkpt>
      <trkpt lat="44.3753" lon="6.39692">
        <ele>2019.8000488281</ele>
        <time>2016-07-18T12:34:54.000Z</time>
      </trkpt>
      <trkpt lat="44.37528" lon="6.39692">
        <ele>2019.4000244141</ele>
        <time>2016-07-18T12:34:56.000Z</time>
      </trkpt>
      <trkpt lat="44.37519" lon="6.39696">
        <ele>2018.4000244141</ele>
        <time>2016-07-18T12:35:02.000Z</time>
      </trkpt>
      <trkpt lat="44.37513" lon="6.39699">
        <ele>2018</ele>
        <time>2016-07-18T12:35:07.000Z</time>
      </trkpt>
      <trkpt lat="44.37506" lon="6.39705">
        <ele>2017.8000488281</ele>
        <time>2016-07-18T12:35:13.000Z</time>
      </trkpt>
      <trkpt lat="44.37499" lon="6.39707">
        <ele>2016.5999755859</ele>
        <time>2016-07-18T12:35:18.000Z</time>
      </trkpt>
      <trkpt lat="44.37491" lon="6.39706">
        <ele>2014.1999511719</ele>
        <time>2016-07-18T12:35:24.000Z</time>
      </trkpt>
      <trkpt lat="44.3748" lon="6.39704">
        <ele>2011</ele>
        <time>2016-07-18T12:35:32.000Z</time>
      </trkpt>
      <trkpt lat="44.37476" lon="6.39705">
        <ele>2010.4000244141</ele>
        <time>2016-07-18T12:35:36.000Z</time>
      </trkpt>
      <trkpt lat="44.37476" lon="6.39706">
        <ele>2010.4000244141</ele>
        <time>2016-07-18T12:35:41.000Z</time>
      </trkpt>
      <trkpt lat="44.37476" lon="6.39705">
        <ele>2010.1999511719</ele>
        <time>2016-07-18T12:35:47.000Z</time>
      </trkpt>
      <trkpt lat="44.37476" lon="6.39703">
        <ele>2010</ele>
        <time>2016-07-18T12:36:18.000Z</time>
      </trkpt>
      <trkpt lat="44.37477" lon="6.39705">
        <ele>2010.8000488281</ele>
        <time>2016-07-18T12:36:38.000Z</time>
      </trkpt>
      <trkpt lat="44.37477" lon="6.39708">
        <ele>2011.1999511719</ele>
        <time>2016-07-18T12:36:43.000Z</time>
      </trkpt>
      <trkpt lat="44.37477" lon="6.39705">
        <ele>2010.5999755859</ele>
        <time>2016-07-18T12:37:15.000Z</time>
      </trkpt>
      <trkpt lat="44.37475" lon="6.39703">
        <ele>2009.8000488281</ele>
        <time>2016-07-18T12:37:28.000Z</time>
      </trkpt>
      <trkpt lat="44.3747" lon="6.397">
        <ele>2007.5999755859</ele>
        <time>2016-07-18T12:38:16.000Z</time>
      </trkpt>
      <trkpt lat="44.37471" lon="6.39695">
        <ele>2006.5999755859</ele>
        <time>2016-07-18T12:38:22.000Z</time>
      </trkpt>
      <trkpt lat="44.3747" lon="6.39699">
        <ele>2007.1999511719</ele>
        <time>2016-07-18T12:40:13.000Z</time>
      </trkpt>
      <trkpt lat="44.37469" lon="6.39698">
        <ele>2007</ele>
        <time>2016-07-18T12:40:24.000Z</time>
      </trkpt>
      <trkpt lat="44.37469" lon="6.397">
        <ele>2007.1999511719</ele>
        <time>2016-07-18T12:40:29.000Z</time>
      </trkpt>
      <trkpt lat="44.37471" lon="6.397">
        <ele>2007.5999755859</ele>
        <time>2016-07-18T12:40:34.000Z</time>
      </trkpt>
      <trkpt lat="44.37471" lon="6.39699">
        <ele>2007.8000488281</ele>
        <time>2016-07-18T12:40:38.000Z</time>
      </trkpt>
      <trkpt lat="44.37465" lon="6.39699">
        <ele>2006</ele>
        <time>2016-07-18T12:40:47.000Z</time>
      </trkpt>
      <trkpt lat="44.37457" lon="6.39701">
        <ele>2004.5999755859</ele>
        <time>2016-07-18T12:40:53.000Z</time>
      </trkpt>
      <trkpt lat="44.37451" lon="6.39706">
        <ele>2004.4000244141</ele>
        <time>2016-07-18T12:40:58.000Z</time>
      </trkpt>
      <trkpt lat="44.37443" lon="6.39712">
        <ele>2003</ele>
        <time>2016-07-18T12:41:05.000Z</time>
      </trkpt>
      <trkpt lat="44.37438" lon="6.39715">
        <ele>2001.4000244141</ele>
        <time>2016-07-18T12:41:10.000Z</time>
      </trkpt>
      <trkpt lat="44.37437" lon="6.39717">
        <ele>2001.4000244141</ele>
        <time>2016-07-18T12:41:11.000Z</time>
      </trkpt>
      <trkpt lat="44.37429" lon="6.39722">
        <ele>2000.5999755859</ele>
        <time>2016-07-18T12:41:19.000Z</time>
      </trkpt>
      <trkpt lat="44.37428" lon="6.39723">
        <ele>2000.4000244141</ele>
        <time>2016-07-18T12:41:20.000Z</time>
      </trkpt>
      <trkpt lat="44.37427" lon="6.39724">
        <ele>2000.5999755859</ele>
        <time>2016-07-18T12:41:21.000Z</time>
      </trkpt>
      <trkpt lat="44.37423" lon="6.39729">
        <ele>2001</ele>
        <time>2016-07-18T12:41:27.000Z</time>
      </trkpt>
      <trkpt lat="44.37418" lon="6.39731">
        <ele>2000.4000244141</ele>
        <time>2016-07-18T12:41:30.000Z</time>
      </trkpt>
      <trkpt lat="44.37417" lon="6.39732">
        <ele>2000.4000244141</ele>
        <time>2016-07-18T12:41:31.000Z</time>
      </trkpt>
      <trkpt lat="44.37416" lon="6.39732">
        <ele>2000.4000244141</ele>
        <time>2016-07-18T12:41:32.000Z</time>
      </trkpt>
      <trkpt lat="44.37408" lon="6.39738">
        <ele>1999.8000488281</ele>
        <time>2016-07-18T12:41:39.000Z</time>
      </trkpt>
      <trkpt lat="44.37405" lon="6.39734">
        <ele>1997.5999755859</ele>
        <time>2016-07-18T12:41:43.000Z</time>
      </trkpt>
      <trkpt lat="44.37406" lon="6.39733">
        <ele>1997.1999511719</ele>
        <time>2016-07-18T12:41:44.000Z</time>
      </trkpt>
      <trkpt lat="44.37413" lon="6.39717">
        <ele>1993.8000488281</ele>
        <time>2016-07-18T12:41:54.000Z</time>
      </trkpt>
      <trkpt lat="44.37418" lon="6.39706">
        <ele>1991</ele>
        <time>2016-07-18T12:42:01.000Z</time>
      </trkpt>
      <trkpt lat="44.37421" lon="6.39696">
        <ele>1989.1999511719</ele>
        <time>2016-07-18T12:42:08.000Z</time>
      </trkpt>
      <trkpt lat="44.37422" lon="6.39685">
        <ele>1987.1999511719</ele>
        <time>2016-07-18T12:42:14.000Z</time>
      </trkpt>
      <trkpt lat="44.37426" lon="6.39674">
        <ele>1985.8000488281</ele>
        <time>2016-07-18T12:42:21.000Z</time>
      </trkpt>
      <trkpt lat="44.3743" lon="6.39662">
        <ele>1984.5999755859</ele>
        <time>2016-07-18T12:42:29.000Z</time>
      </trkpt>
      <trkpt lat="44.37433" lon="6.39657">
        <ele>1984.5999755859</ele>
        <time>2016-07-18T12:42:33.000Z</time>
      </trkpt>
      <trkpt lat="44.37436" lon="6.39649">
        <ele>1983.8000488281</ele>
        <time>2016-07-18T12:42:38.000Z</time>
      </trkpt>
      <trkpt lat="44.37439" lon="6.39642">
        <ele>1983.4000244141</ele>
        <time>2016-07-18T12:42:43.000Z</time>
      </trkpt>
      <trkpt lat="44.37441" lon="6.39639">
        <ele>1983.4000244141</ele>
        <time>2016-07-18T12:42:47.000Z</time>
      </trkpt>
      <trkpt lat="44.37438" lon="6.39639">
        <ele>1982.1999511719</ele>
        <time>2016-07-18T12:42:51.000Z</time>
      </trkpt>
      <trkpt lat="44.37432" lon="6.39638">
        <ele>1979.5999755859</ele>
        <time>2016-07-18T12:42:57.000Z</time>
      </trkpt>
      <trkpt lat="44.37426" lon="6.39641">
        <ele>1977.8000488281</ele>
        <time>2016-07-18T12:43:04.000Z</time>
      </trkpt>
      <trkpt lat="44.37424" lon="6.39641">
        <ele>1976.8000488281</ele>
        <time>2016-07-18T12:43:06.000Z</time>
      </trkpt>
      <trkpt lat="44.37419" lon="6.39642">
        <ele>1975</ele>
        <time>2016-07-18T12:43:10.000Z</time>
      </trkpt>
      <trkpt lat="44.37412" lon="6.39643">
        <ele>1972.1999511719</ele>
        <time>2016-07-18T12:43:17.000Z</time>
      </trkpt>
      <trkpt lat="44.3741" lon="6.39644">
        <ele>1971.4000244141</ele>
        <time>2016-07-18T12:43:19.000Z</time>
      </trkpt>
      <trkpt lat="44.37403" lon="6.39649">
        <ele>1970</ele>
        <time>2016-07-18T12:43:26.000Z</time>
      </trkpt>
      <trkpt lat="44.37402" lon="6.39651">
        <ele>1970</ele>
        <time>2016-07-18T12:43:28.000Z</time>
      </trkpt>
      <trkpt lat="44.37396" lon="6.39654">
        <ele>1967.8000488281</ele>
        <time>2016-07-18T12:43:35.000Z</time>
      </trkpt>
      <trkpt lat="44.37393" lon="6.39656">
        <ele>1967.1999511719</ele>
        <time>2016-07-18T12:43:38.000Z</time>
      </trkpt>
      <trkpt lat="44.37382" lon="6.39659">
        <ele>1963.1999511719</ele>
        <time>2016-07-18T12:43:47.000Z</time>
      </trkpt>
      <trkpt lat="44.37372" lon="6.39667">
        <ele>1962.1999511719</ele>
        <time>2016-07-18T12:43:55.000Z</time>
      </trkpt>
      <trkpt lat="44.37363" lon="6.39671">
        <ele>1960.8000488281</ele>
        <time>2016-07-18T12:44:03.000Z</time>
      </trkpt>
      <trkpt lat="44.37356" lon="6.39675">
        <ele>1961</ele>
        <time>2016-07-18T12:44:09.000Z</time>
      </trkpt>
      <trkpt lat="44.37348" lon="6.39681">
        <ele>1961</ele>
        <time>2016-07-18T12:44:17.000Z</time>
      </trkpt>
      <trkpt lat="44.37341" lon="6.39683">
        <ele>1960.1999511719</ele>
        <time>2016-07-18T12:44:22.000Z</time>
      </trkpt>
      <trkpt lat="44.37336" lon="6.39685">
        <ele>1959.4000244141</ele>
        <time>2016-07-18T12:44:27.000Z</time>
      </trkpt>
      <trkpt lat="44.37331" lon="6.39685">
        <ele>1958.1999511719</ele>
        <time>2016-07-18T12:44:35.000Z</time>
      </trkpt>
      <trkpt lat="44.37328" lon="6.39684">
        <ele>1957.1999511719</ele>
        <time>2016-07-18T12:44:37.000Z</time>
      </trkpt>
      <trkpt lat="44.37323" lon="6.39679">
        <ele>1954</ele>
        <time>2016-07-18T12:44:41.000Z</time>
      </trkpt>
      <trkpt lat="44.3732" lon="6.39678">
        <ele>1952.5999755859</ele>
        <time>2016-07-18T12:44:44.000Z</time>
      </trkpt>
      <trkpt lat="44.37314" lon="6.39682">
        <ele>1953</ele>
        <time>2016-07-18T12:44:50.000Z</time>
      </trkpt>
      <trkpt lat="44.37309" lon="6.39685">
        <ele>1953</ele>
        <time>2016-07-18T12:44:54.000Z</time>
      </trkpt>
      <trkpt lat="44.37308" lon="6.39686">
        <ele>1952.8000488281</ele>
        <time>2016-07-18T12:44:55.000Z</time>
      </trkpt>
      <trkpt lat="44.37306" lon="6.39686">
        <ele>1952.5999755859</ele>
        <time>2016-07-18T12:44:56.000Z</time>
      </trkpt>
      <trkpt lat="44.37298" lon="6.3968">
        <ele>1948.5999755859</ele>
        <time>2016-07-18T12:45:04.000Z</time>
      </trkpt>
      <trkpt lat="44.37294" lon="6.39676">
        <ele>1946</ele>
        <time>2016-07-18T12:45:08.000Z</time>
      </trkpt>
      <trkpt lat="44.3729" lon="6.39673">
        <ele>1943.5999755859</ele>
        <time>2016-07-18T12:45:13.000Z</time>
      </trkpt>
      <trkpt lat="44.37287" lon="6.3967">
        <ele>1942</ele>
        <time>2016-07-18T12:45:17.000Z</time>
      </trkpt>
      <trkpt lat="44.37281" lon="6.39673">
        <ele>1941.5999755859</ele>
        <time>2016-07-18T12:45:24.000Z</time>
      </trkpt>
      <trkpt lat="44.37277" lon="6.39676">
        <ele>1941.5999755859</ele>
        <time>2016-07-18T12:45:28.000Z</time>
      </trkpt>
      <trkpt lat="44.37268" lon="6.39681">
        <ele>1941.1999511719</ele>
        <time>2016-07-18T12:45:36.000Z</time>
      </trkpt>
      <trkpt lat="44.37264" lon="6.39682">
        <ele>1940</ele>
        <time>2016-07-18T12:45:39.000Z</time>
      </trkpt>
      <trkpt lat="44.37255" lon="6.39674">
        <ele>1934.4000244141</ele>
        <time>2016-07-18T12:45:47.000Z</time>
      </trkpt>
      <trkpt lat="44.37253" lon="6.39673">
        <ele>1933.1999511719</ele>
        <time>2016-07-18T12:45:49.000Z</time>
      </trkpt>
      <trkpt lat="44.3725" lon="6.39669">
        <ele>1931</ele>
        <time>2016-07-18T12:45:53.000Z</time>
      </trkpt>
      <trkpt lat="44.37248" lon="6.39669">
        <ele>1930.4000244141</ele>
        <time>2016-07-18T12:45:55.000Z</time>
      </trkpt>
      <trkpt lat="44.37242" lon="6.39672">
        <ele>1929.4000244141</ele>
        <time>2016-07-18T12:46:02.000Z</time>
      </trkpt>
      <trkpt lat="44.37236" lon="6.39672">
        <ele>1928</ele>
        <time>2016-07-18T12:46:06.000Z</time>
      </trkpt>
      <trkpt lat="44.37234" lon="6.39672">
        <ele>1927.1999511719</ele>
        <time>2016-07-18T12:46:08.000Z</time>
      </trkpt>
      <trkpt lat="44.37228" lon="6.39673">
        <ele>1925.8000488281</ele>
        <time>2016-07-18T12:46:13.000Z</time>
      </trkpt>
      <trkpt lat="44.37227" lon="6.39673">
        <ele>1925.5999755859</ele>
        <time>2016-07-18T12:46:15.000Z</time>
      </trkpt>
      <trkpt lat="44.37219" lon="6.39669">
        <ele>1921.5999755859</ele>
        <time>2016-07-18T12:46:23.000Z</time>
      </trkpt>
      <trkpt lat="44.37215" lon="6.3967">
        <ele>1920.5999755859</ele>
        <time>2016-07-18T12:46:27.000Z</time>
      </trkpt>
      <trkpt lat="44.37213" lon="6.39672">
        <ele>1920.4000244141</ele>
        <time>2016-07-18T12:46:30.000Z</time>
      </trkpt>
      <trkpt lat="44.37211" lon="6.39671">
        <ele>1919.4000244141</ele>
        <time>2016-07-18T12:46:33.000Z</time>
      </trkpt>
      <trkpt lat="44.37207" lon="6.39674">
        <ele>1919.4000244141</ele>
        <time>2016-07-18T12:46:37.000Z</time>
      </trkpt>
      <trkpt lat="44.37207" lon="6.39682">
        <ele>1922.4000244141</ele>
        <time>2016-07-18T12:46:56.000Z</time>
      </trkpt>
      <trkpt lat="44.37208" lon="6.39687">
        <ele>1924.1999511719</ele>
        <time>2016-07-18T12:47:03.000Z</time>
      </trkpt>
      <trkpt lat="44.37207" lon="6.39691">
        <ele>1925.4000244141</ele>
        <time>2016-07-18T12:47:06.000Z</time>
      </trkpt>
      <trkpt lat="44.37202" lon="6.39696">
        <ele>1925.4000244141</ele>
        <time>2016-07-18T12:47:11.000Z</time>
      </trkpt>
      <trkpt lat="44.37196" lon="6.39701">
        <ele>1925.1999511719</ele>
        <time>2016-07-18T12:47:18.000Z</time>
      </trkpt>
      <trkpt lat="44.37194" lon="6.39701">
        <ele>1924.5999755859</ele>
        <time>2016-07-18T12:47:21.000Z</time>
      </trkpt>
      <trkpt lat="44.37193" lon="6.39698">
        <ele>1923.4000244141</ele>
        <time>2016-07-18T12:47:32.000Z</time>
      </trkpt>
      <trkpt lat="44.37189" lon="6.39698">
        <ele>1922</ele>
        <time>2016-07-18T12:47:37.000Z</time>
      </trkpt>
      <trkpt lat="44.37188" lon="6.39698">
        <ele>1921.5999755859</ele>
        <time>2016-07-18T12:47:38.000Z</time>
      </trkpt>
      <trkpt lat="44.37179" lon="6.39699">
        <ele>1919.4000244141</ele>
        <time>2016-07-18T12:47:46.000Z</time>
      </trkpt>
      <trkpt lat="44.37171" lon="6.39695">
        <ele>1915.5999755859</ele>
        <time>2016-07-18T12:47:52.000Z</time>
      </trkpt>
      <trkpt lat="44.37162" lon="6.39692">
        <ele>1911.5999755859</ele>
        <time>2016-07-18T12:48:00.000Z</time>
      </trkpt>
      <trkpt lat="44.37155" lon="6.3969">
        <ele>1909</ele>
        <time>2016-07-18T12:48:06.000Z</time>
      </trkpt>
      <trkpt lat="44.37152" lon="6.39691">
        <ele>1908.1999511719</ele>
        <time>2016-07-18T12:48:09.000Z</time>
      </trkpt>
      <trkpt lat="44.37149" lon="6.39694">
        <ele>1908.8000488281</ele>
        <time>2016-07-18T12:48:13.000Z</time>
      </trkpt>
      <trkpt lat="44.37145" lon="6.397">
        <ele>1909.8000488281</ele>
        <time>2016-07-18T12:48:17.000Z</time>
      </trkpt>
      <trkpt lat="44.37142" lon="6.39701">
        <ele>1909.5999755859</ele>
        <time>2016-07-18T12:48:19.000Z</time>
      </trkpt>
      <trkpt lat="44.37135" lon="6.39701">
        <ele>1907.5999755859</ele>
        <time>2016-07-18T12:48:24.000Z</time>
      </trkpt>
      <trkpt lat="44.37128" lon="6.39694">
        <ele>1902.8000488281</ele>
        <time>2016-07-18T12:48:31.000Z</time>
      </trkpt>
      <trkpt lat="44.37122" lon="6.39686">
        <ele>1897.8000488281</ele>
        <time>2016-07-18T12:48:39.000Z</time>
      </trkpt>
      <trkpt lat="44.37116" lon="6.39688">
        <ele>1897.1999511719</ele>
        <time>2016-07-18T12:48:46.000Z</time>
      </trkpt>
      <trkpt lat="44.37114" lon="6.39688">
        <ele>1896.8000488281</ele>
        <time>2016-07-18T12:48:48.000Z</time>
      </trkpt>
      <trkpt lat="44.37112" lon="6.39688">
        <ele>1895.8000488281</ele>
        <time>2016-07-18T12:48:50.000Z</time>
      </trkpt>
      <trkpt lat="44.37108" lon="6.39685">
        <ele>1893.1999511719</ele>
        <time>2016-07-18T12:48:55.000Z</time>
      </trkpt>
      <trkpt lat="44.37101" lon="6.39681">
        <ele>1889.4000244141</ele>
        <time>2016-07-18T12:49:02.000Z</time>
      </trkpt>
      <trkpt lat="44.37095" lon="6.39683">
        <ele>1888.1999511719</ele>
        <time>2016-07-18T12:49:08.000Z</time>
      </trkpt>
      <trkpt lat="44.37094" lon="6.39685">
        <ele>1888.4000244141</ele>
        <time>2016-07-18T12:49:10.000Z</time>
      </trkpt>
      <trkpt lat="44.37092" lon="6.39686">
        <ele>1888.1999511719</ele>
        <time>2016-07-18T12:49:12.000Z</time>
      </trkpt>
      <trkpt lat="44.37086" lon="6.39685">
        <ele>1885.5999755859</ele>
        <time>2016-07-18T12:49:17.000Z</time>
      </trkpt>
      <trkpt lat="44.37084" lon="6.39683">
        <ele>1884.1999511719</ele>
        <time>2016-07-18T12:49:20.000Z</time>
      </trkpt>
      <trkpt lat="44.37075" lon="6.39687">
        <ele>1882.8000488281</ele>
        <time>2016-07-18T12:49:29.000Z</time>
      </trkpt>
      <trkpt lat="44.37074" lon="6.39689">
        <ele>1883</ele>
        <time>2016-07-18T12:49:30.000Z</time>
      </trkpt>
      <trkpt lat="44.37071" lon="6.39692">
        <ele>1882.8000488281</ele>
        <time>2016-07-18T12:49:33.000Z</time>
      </trkpt>
      <trkpt lat="44.37063" lon="6.39695">
        <ele>1880</ele>
        <time>2016-07-18T12:49:40.000Z</time>
      </trkpt>
      <trkpt lat="44.37055" lon="6.39698">
        <ele>1877.5999755859</ele>
        <time>2016-07-18T12:49:46.000Z</time>
      </trkpt>
      <trkpt lat="44.37052" lon="6.39702">
        <ele>1877.1999511719</ele>
        <time>2016-07-18T12:49:50.000Z</time>
      </trkpt>
      <trkpt lat="44.37048" lon="6.39705">
        <ele>1876.8000488281</ele>
        <time>2016-07-18T12:49:54.000Z</time>
      </trkpt>
      <trkpt lat="44.37043" lon="6.39708">
        <ele>1875.1999511719</ele>
        <time>2016-07-18T12:50:00.000Z</time>
      </trkpt>
      <trkpt lat="44.37038" lon="6.39706">
        <ele>1872.4000244141</ele>
        <time>2016-07-18T12:50:05.000Z</time>
      </trkpt>
      <trkpt lat="44.37036" lon="6.39705">
        <ele>1871.4000244141</ele>
        <time>2016-07-18T12:50:07.000Z</time>
      </trkpt>
      <trkpt lat="44.37027" lon="6.39705">
        <ele>1868</ele>
        <time>2016-07-18T12:50:15.000Z</time>
      </trkpt>
      <trkpt lat="44.37023" lon="6.39705">
        <ele>1866.8000488281</ele>
        <time>2016-07-18T12:50:19.000Z</time>
      </trkpt>
      <trkpt lat="44.37018" lon="6.39711">
        <ele>1867.1999511719</ele>
        <time>2016-07-18T12:50:25.000Z</time>
      </trkpt>
      <trkpt lat="44.37013" lon="6.39719">
        <ele>1868</ele>
        <time>2016-07-18T12:50:31.000Z</time>
      </trkpt>
      <trkpt lat="44.37011" lon="6.39724">
        <ele>1868.4000244141</ele>
        <time>2016-07-18T12:50:34.000Z</time>
      </trkpt>
      <trkpt lat="44.37009" lon="6.39726">
        <ele>1868.4000244141</ele>
        <time>2016-07-18T12:50:36.000Z</time>
      </trkpt>
      <trkpt lat="44.37003" lon="6.39731">
        <ele>1867.8000488281</ele>
        <time>2016-07-18T12:50:42.000Z</time>
      </trkpt>
      <trkpt lat="44.37002" lon="6.39731">
        <ele>1867.4000244141</ele>
        <time>2016-07-18T12:50:43.000Z</time>
      </trkpt>
      <trkpt lat="44.37001" lon="6.39732">
        <ele>1867.4000244141</ele>
        <time>2016-07-18T12:50:44.000Z</time>
      </trkpt>
      <trkpt lat="44.36994" lon="6.39737">
        <ele>1867</ele>
        <time>2016-07-18T12:50:51.000Z</time>
      </trkpt>
      <trkpt lat="44.36994" lon="6.39738">
        <ele>1867.1999511719</ele>
        <time>2016-07-18T12:50:52.000Z</time>
      </trkpt>
      <trkpt lat="44.36992" lon="6.3974">
        <ele>1867.5999755859</ele>
        <time>2016-07-18T12:50:54.000Z</time>
      </trkpt>
      <trkpt lat="44.36985" lon="6.39748">
        <ele>1868.1999511719</ele>
        <time>2016-07-18T12:51:00.000Z</time>
      </trkpt>
      <trkpt lat="44.36977" lon="6.39747">
        <ele>1865.4000244141</ele>
        <time>2016-07-18T12:51:07.000Z</time>
      </trkpt>
      <trkpt lat="44.36972" lon="6.39747">
        <ele>1863.4000244141</ele>
        <time>2016-07-18T12:51:12.000Z</time>
      </trkpt>
      <trkpt lat="44.36968" lon="6.39745">
        <ele>1861.4000244141</ele>
        <time>2016-07-18T12:51:17.000Z</time>
      </trkpt>
      <trkpt lat="44.36959" lon="6.39745">
        <ele>1858.5999755859</ele>
        <time>2016-07-18T12:51:26.000Z</time>
      </trkpt>
      <trkpt lat="44.36954" lon="6.39747">
        <ele>1857</ele>
        <time>2016-07-18T12:51:31.000Z</time>
      </trkpt>
      <trkpt lat="44.3695" lon="6.3975">
        <ele>1856.4000244141</ele>
        <time>2016-07-18T12:51:36.000Z</time>
      </trkpt>
      <trkpt lat="44.36946" lon="6.39752">
        <ele>1855.5999755859</ele>
        <time>2016-07-18T12:51:40.000Z</time>
      </trkpt>
      <trkpt lat="44.36941" lon="6.39756">
        <ele>1856</ele>
        <time>2016-07-18T12:51:45.000Z</time>
      </trkpt>
      <trkpt lat="44.36939" lon="6.39758">
        <ele>1856</ele>
        <time>2016-07-18T12:51:47.000Z</time>
      </trkpt>
      <trkpt lat="44.36934" lon="6.39761">
        <ele>1856</ele>
        <time>2016-07-18T12:51:52.000Z</time>
      </trkpt>
      <trkpt lat="44.3693" lon="6.39767">
        <ele>1857</ele>
        <time>2016-07-18T12:51:58.000Z</time>
      </trkpt>
      <trkpt lat="44.36925" lon="6.39769">
        <ele>1857</ele>
        <time>2016-07-18T12:52:02.000Z</time>
      </trkpt>
      <trkpt lat="44.36918" lon="6.39768">
        <ele>1855</ele>
        <time>2016-07-18T12:52:08.000Z</time>
      </trkpt>
      <trkpt lat="44.36912" lon="6.39762">
        <ele>1852.1999511719</ele>
        <time>2016-07-18T12:52:14.000Z</time>
      </trkpt>
      <trkpt lat="44.36911" lon="6.39761">
        <ele>1851.8000488281</ele>
        <time>2016-07-18T12:52:15.000Z</time>
      </trkpt>
      <trkpt lat="44.3691" lon="6.39758">
        <ele>1850.4000244141</ele>
        <time>2016-07-18T12:52:18.000Z</time>
      </trkpt>
      <trkpt lat="44.36906" lon="6.39753">
        <ele>1848.4000244141</ele>
        <time>2016-07-18T12:52:24.000Z</time>
      </trkpt>
      <trkpt lat="44.36904" lon="6.39748">
        <ele>1846.4000244141</ele>
        <time>2016-07-18T12:52:29.000Z</time>
      </trkpt>
      <trkpt lat="44.36903" lon="6.39747">
        <ele>1846</ele>
        <time>2016-07-18T12:52:30.000Z</time>
      </trkpt>
      <trkpt lat="44.36895" lon="6.39749">
        <ele>1845</ele>
        <time>2016-07-18T12:52:40.000Z</time>
      </trkpt>
      <trkpt lat="44.3689" lon="6.3975">
        <ele>1844.4000244141</ele>
        <time>2016-07-18T12:52:44.000Z</time>
      </trkpt>
      <trkpt lat="44.36881" lon="6.39753">
        <ele>1843.1999511719</ele>
        <time>2016-07-18T12:52:52.000Z</time>
      </trkpt>
      <trkpt lat="44.36874" lon="6.39756">
        <ele>1842</ele>
        <time>2016-07-18T12:53:01.000Z</time>
      </trkpt>
      <trkpt lat="44.36872" lon="6.39756">
        <ele>1841.4000244141</ele>
        <time>2016-07-18T12:53:03.000Z</time>
      </trkpt>
      <trkpt lat="44.36865" lon="6.39762">
        <ele>1841.1999511719</ele>
        <time>2016-07-18T12:53:11.000Z</time>
      </trkpt>
      <trkpt lat="44.3686" lon="6.3976">
        <ele>1840</ele>
        <time>2016-07-18T12:53:17.000Z</time>
      </trkpt>
      <trkpt lat="44.36855" lon="6.39758">
        <ele>1839.1999511719</ele>
        <time>2016-07-18T12:53:23.000Z</time>
      </trkpt>
      <trkpt lat="44.36852" lon="6.39757">
        <ele>1838.8000488281</ele>
        <time>2016-07-18T12:53:26.000Z</time>
      </trkpt>
      <trkpt lat="44.36846" lon="6.39754">
        <ele>1837.8000488281</ele>
        <time>2016-07-18T12:53:33.000Z</time>
      </trkpt>
      <trkpt lat="44.36845" lon="6.39754">
        <ele>1837.5999755859</ele>
        <time>2016-07-18T12:53:34.000Z</time>
      </trkpt>
      <trkpt lat="44.36839" lon="6.3975">
        <ele>1836.4000244141</ele>
        <time>2016-07-18T12:53:40.000Z</time>
      </trkpt>
      <trkpt lat="44.36839" lon="6.39749">
        <ele>1836.1999511719</ele>
        <time>2016-07-18T12:53:41.000Z</time>
      </trkpt>
      <trkpt lat="44.3683" lon="6.39749">
        <ele>1835.4000244141</ele>
        <time>2016-07-18T12:53:48.000Z</time>
      </trkpt>
      <trkpt lat="44.36829" lon="6.39748">
        <ele>1835.1999511719</ele>
        <time>2016-07-18T12:53:49.000Z</time>
      </trkpt>
      <trkpt lat="44.36823" lon="6.39738">
        <ele>1832.4000244141</ele>
        <time>2016-07-18T12:53:58.000Z</time>
      </trkpt>
      <trkpt lat="44.36819" lon="6.39733">
        <ele>1831</ele>
        <time>2016-07-18T12:54:03.000Z</time>
      </trkpt>
      <trkpt lat="44.36812" lon="6.39724">
        <ele>1829</ele>
        <time>2016-07-18T12:54:11.000Z</time>
      </trkpt>
      <trkpt lat="44.36807" lon="6.3972">
        <ele>1827.8000488281</ele>
        <time>2016-07-18T12:54:17.000Z</time>
      </trkpt>
      <trkpt lat="44.36805" lon="6.39719">
        <ele>1827.5999755859</ele>
        <time>2016-07-18T12:54:19.000Z</time>
      </trkpt>
      <trkpt lat="44.36798" lon="6.39719">
        <ele>1826.8000488281</ele>
        <time>2016-07-18T12:54:26.000Z</time>
      </trkpt>
      <trkpt lat="44.36797" lon="6.39719">
        <ele>1826.8000488281</ele>
        <time>2016-07-18T12:54:42.000Z</time>
      </trkpt>
      <trkpt lat="44.36793" lon="6.39714">
        <ele>1825.8000488281</ele>
        <time>2016-07-18T12:54:48.000Z</time>
      </trkpt>
      <trkpt lat="44.36786" lon="6.39708">
        <ele>1824.1999511719</ele>
        <time>2016-07-18T12:54:55.000Z</time>
      </trkpt>
      <trkpt lat="44.36782" lon="6.39706">
        <ele>1823.5999755859</ele>
        <time>2016-07-18T12:55:01.000Z</time>
      </trkpt>
      <trkpt lat="44.36778" lon="6.39701">
        <ele>1822.4000244141</ele>
        <time>2016-07-18T12:55:06.000Z</time>
      </trkpt>
      <trkpt lat="44.36777" lon="6.397">
        <ele>1822.1999511719</ele>
        <time>2016-07-18T12:55:08.000Z</time>
      </trkpt>
      <trkpt lat="44.36772" lon="6.39692">
        <ele>1820.4000244141</ele>
        <time>2016-07-18T12:55:16.000Z</time>
      </trkpt>
      <trkpt lat="44.3677" lon="6.39682">
        <ele>1818.5999755859</ele>
        <time>2016-07-18T12:55:24.000Z</time>
      </trkpt>
      <trkpt lat="44.36769" lon="6.39678">
        <ele>1818</ele>
        <time>2016-07-18T12:55:27.000Z</time>
      </trkpt>
      <trkpt lat="44.36767" lon="6.39672">
        <ele>1816.8000488281</ele>
        <time>2016-07-18T12:55:32.000Z</time>
      </trkpt>
      <trkpt lat="44.36766" lon="6.3967">
        <ele>1816.4000244141</ele>
        <time>2016-07-18T12:55:34.000Z</time>
      </trkpt>
      <trkpt lat="44.36764" lon="6.39667">
        <ele>1815.8000488281</ele>
        <time>2016-07-18T12:55:38.000Z</time>
      </trkpt>
      <trkpt lat="44.36761" lon="6.3966">
        <ele>1814.4000244141</ele>
        <time>2016-07-18T12:55:44.000Z</time>
      </trkpt>
      <trkpt lat="44.36756" lon="6.39651">
        <ele>1812.5999755859</ele>
        <time>2016-07-18T12:55:52.000Z</time>
      </trkpt>
      <trkpt lat="44.36751" lon="6.39642">
        <ele>1810.5999755859</ele>
        <time>2016-07-18T12:55:59.000Z</time>
      </trkpt>
      <trkpt lat="44.36748" lon="6.39634">
        <ele>1809</ele>
        <time>2016-07-18T12:56:05.000Z</time>
      </trkpt>
      <trkpt lat="44.36745" lon="6.39626">
        <ele>1807.1999511719</ele>
        <time>2016-07-18T12:56:10.000Z</time>
      </trkpt>
      <trkpt lat="44.36741" lon="6.39618">
        <ele>1805.4000244141</ele>
        <time>2016-07-18T12:56:17.000Z</time>
      </trkpt>
      <trkpt lat="44.3674" lon="6.39613">
        <ele>1804.1999511719</ele>
        <time>2016-07-18T12:56:22.000Z</time>
      </trkpt>
      <trkpt lat="44.36738" lon="6.39607">
        <ele>1803</ele>
        <time>2016-07-18T12:56:27.000Z</time>
      </trkpt>
      <trkpt lat="44.36736" lon="6.39598">
        <ele>1801</ele>
        <time>2016-07-18T12:56:33.000Z</time>
      </trkpt>
      <trkpt lat="44.36732" lon="6.39586">
        <ele>1798</ele>
        <time>2016-07-18T12:56:42.000Z</time>
      </trkpt>
      <trkpt lat="44.36729" lon="6.39577">
        <ele>1796</ele>
        <time>2016-07-18T12:56:49.000Z</time>
      </trkpt>
      <trkpt lat="44.36724" lon="6.39567">
        <ele>1793.4000244141</ele>
        <time>2016-07-18T12:56:57.000Z</time>
      </trkpt>
      <trkpt lat="44.36717" lon="6.39557">
        <ele>1791.1999511719</ele>
        <time>2016-07-18T12:57:05.000Z</time>
      </trkpt>
      <trkpt lat="44.3671" lon="6.39547">
        <ele>1788.8000488281</ele>
        <time>2016-07-18T12:57:14.000Z</time>
      </trkpt>
      <trkpt lat="44.36703" lon="6.39538">
        <ele>1787</ele>
        <time>2016-07-18T12:57:22.000Z</time>
      </trkpt>
      <trkpt lat="44.36699" lon="6.39534">
        <ele>1785.8000488281</ele>
        <time>2016-07-18T12:57:28.000Z</time>
      </trkpt>
      <trkpt lat="44.36693" lon="6.39529">
        <ele>1784.4000244141</ele>
        <time>2016-07-18T12:57:34.000Z</time>
      </trkpt>
      <trkpt lat="44.36685" lon="6.39524">
        <ele>1782</ele>
        <time>2016-07-18T12:57:43.000Z</time>
      </trkpt>
      <trkpt lat="44.36679" lon="6.39523">
        <ele>1781</ele>
        <time>2016-07-18T12:57:49.000Z</time>
      </trkpt>
      <trkpt lat="44.36672" lon="6.39521">
        <ele>1779.5999755859</ele>
        <time>2016-07-18T12:57:57.000Z</time>
      </trkpt>
      <trkpt lat="44.3667" lon="6.39522">
        <ele>1779.5999755859</ele>
        <time>2016-07-18T12:57:59.000Z</time>
      </trkpt>
      <trkpt lat="44.36665" lon="6.39528">
        <ele>1780.1999511719</ele>
        <time>2016-07-18T12:58:05.000Z</time>
      </trkpt>
      <trkpt lat="44.36659" lon="6.39533">
        <ele>1780.4000244141</ele>
        <time>2016-07-18T12:58:12.000Z</time>
      </trkpt>
      <trkpt lat="44.36656" lon="6.39536">
        <ele>1780.5999755859</ele>
        <time>2016-07-18T12:58:16.000Z</time>
      </trkpt>
      <trkpt lat="44.36653" lon="6.39536">
        <ele>1780.4000244141</ele>
        <time>2016-07-18T12:58:19.000Z</time>
      </trkpt>
      <trkpt lat="44.36648" lon="6.39533">
        <ele>1779</ele>
        <time>2016-07-18T12:58:26.000Z</time>
      </trkpt>
      <trkpt lat="44.36646" lon="6.39528">
        <ele>1777.5999755859</ele>
        <time>2016-07-18T12:58:38.000Z</time>
      </trkpt>
      <trkpt lat="44.36644" lon="6.39514">
        <ele>1774.1999511719</ele>
        <time>2016-07-18T12:58:47.000Z</time>
      </trkpt>
      <trkpt lat="44.36643" lon="6.39514">
        <ele>1774</ele>
        <time>2016-07-18T12:58:48.000Z</time>
      </trkpt>
      <trkpt lat="44.36643" lon="6.3951">
        <ele>1773.1999511719</ele>
        <time>2016-07-18T12:58:55.000Z</time>
      </trkpt>
      <trkpt lat="44.36643" lon="6.39516">
        <ele>1774.4000244141</ele>
        <time>2016-07-18T12:59:01.000Z</time>
      </trkpt>
      <trkpt lat="44.36642" lon="6.39518">
        <ele>1774.8000488281</ele>
        <time>2016-07-18T12:59:02.000Z</time>
      </trkpt>
      <trkpt lat="44.3664" lon="6.39526">
        <ele>1776.1999511719</ele>
        <time>2016-07-18T12:59:07.000Z</time>
      </trkpt>
      <trkpt lat="44.36637" lon="6.39534">
        <ele>1777.5999755859</ele>
        <time>2016-07-18T12:59:12.000Z</time>
      </trkpt>
      <trkpt lat="44.3664" lon="6.39547">
        <ele>1781</ele>
        <time>2016-07-18T12:59:20.000Z</time>
      </trkpt>
      <trkpt lat="44.36641" lon="6.39549">
        <ele>1781.4000244141</ele>
        <time>2016-07-18T12:59:21.000Z</time>
      </trkpt>
      <trkpt lat="44.36641" lon="6.39555">
        <ele>1782.5999755859</ele>
        <time>2016-07-18T12:59:25.000Z</time>
      </trkpt>
      <trkpt lat="44.36641" lon="6.39558">
        <ele>1783.4000244141</ele>
        <time>2016-07-18T12:59:32.000Z</time>
      </trkpt>
      <trkpt lat="44.36642" lon="6.39561">
        <ele>1784</ele>
        <time>2016-07-18T12:59:40.000Z</time>
      </trkpt>
      <trkpt lat="44.36642" lon="6.39563">
        <ele>1784.4000244141</ele>
        <time>2016-07-18T12:59:53.000Z</time>
      </trkpt>
      <trkpt lat="44.36642" lon="6.39561">
        <ele>1784.1999511719</ele>
        <time>2016-07-18T13:00:17.000Z</time>
      </trkpt>
      <trkpt lat="44.36641" lon="6.39562">
        <ele>1784.4000244141</ele>
        <time>2016-07-18T13:00:25.000Z</time>
      </trkpt>
      <trkpt lat="44.3664" lon="6.39568">
        <ele>1785.1999511719</ele>
        <time>2016-07-18T13:00:30.000Z</time>
      </trkpt>
      <trkpt lat="44.36631" lon="6.39579">
        <ele>1786.1999511719</ele>
        <time>2016-07-18T13:00:39.000Z</time>
      </trkpt>
      <trkpt lat="44.3662" lon="6.39592">
        <ele>1787.4000244141</ele>
        <time>2016-07-18T13:00:51.000Z</time>
      </trkpt>
      <trkpt lat="44.36608" lon="6.39591">
        <ele>1788.1999511719</ele>
        <time>2016-07-18T13:00:57.000Z</time>
      </trkpt>
      <trkpt lat="44.36605" lon="6.39592">
        <ele>1789</ele>
        <time>2016-07-18T13:00:59.000Z</time>
      </trkpt>
      <trkpt lat="44.36598" lon="6.39595">
        <ele>1791</ele>
        <time>2016-07-18T13:01:04.000Z</time>
      </trkpt>
      <trkpt lat="44.36592" lon="6.39601">
        <ele>1794</ele>
        <time>2016-07-18T13:01:10.000Z</time>
      </trkpt>
      <trkpt lat="44.36589" lon="6.39605">
        <ele>1795.5999755859</ele>
        <time>2016-07-18T13:01:13.000Z</time>
      </trkpt>
      <trkpt lat="44.36585" lon="6.39615">
        <ele>1798.4000244141</ele>
        <time>2016-07-18T13:01:19.000Z</time>
      </trkpt>
      <trkpt lat="44.36582" lon="6.39618">
        <ele>1799.8000488281</ele>
        <time>2016-07-18T13:01:22.000Z</time>
      </trkpt>
      <trkpt lat="44.36579" lon="6.39627">
        <ele>1802.1999511719</ele>
        <time>2016-07-18T13:01:27.000Z</time>
      </trkpt>
      <trkpt lat="44.36577" lon="6.39641">
        <ele>1805.5999755859</ele>
        <time>2016-07-18T13:01:34.000Z</time>
      </trkpt>
      <trkpt lat="44.36576" lon="6.39646">
        <ele>1806.8000488281</ele>
        <time>2016-07-18T13:01:37.000Z</time>
      </trkpt>
      <trkpt lat="44.36573" lon="6.39657">
        <ele>1810</ele>
        <time>2016-07-18T13:01:43.000Z</time>
      </trkpt>
      <trkpt lat="44.3657" lon="6.39669">
        <ele>1813.8000488281</ele>
        <time>2016-07-18T13:01:50.000Z</time>
      </trkpt>
      <trkpt lat="44.36569" lon="6.39671">
        <ele>1814.4000244141</ele>
        <time>2016-07-18T13:01:51.000Z</time>
      </trkpt>
      <trkpt lat="44.36568" lon="6.39674">
        <ele>1815.5999755859</ele>
        <time>2016-07-18T13:01:57.000Z</time>
      </trkpt>
      <trkpt lat="44.36566" lon="6.39678">
        <ele>1817.1999511719</ele>
        <time>2016-07-18T13:02:04.000Z</time>
      </trkpt>
      <trkpt lat="44.36561" lon="6.3969">
        <ele>1819.5999755859</ele>
        <time>2016-07-18T13:02:11.000Z</time>
      </trkpt>
      <trkpt lat="44.36556" lon="6.39701">
        <ele>1821.5999755859</ele>
        <time>2016-07-18T13:02:17.000Z</time>
      </trkpt>
      <trkpt lat="44.36555" lon="6.39702">
        <ele>1821.8000488281</ele>
        <time>2016-07-18T13:02:18.000Z</time>
      </trkpt>
      <trkpt lat="44.36548" lon="6.39704">
        <ele>1822.5999755859</ele>
        <time>2016-07-18T13:02:25.000Z</time>
      </trkpt>
      <trkpt lat="44.36542" lon="6.39703">
        <ele>1823.1999511719</ele>
        <time>2016-07-18T13:02:30.000Z</time>
      </trkpt>
      <trkpt lat="44.36541" lon="6.39703">
        <ele>1823.1999511719</ele>
        <time>2016-07-18T13:02:31.000Z</time>
      </trkpt>
      <trkpt lat="44.36539" lon="6.39704">
        <ele>1823.5999755859</ele>
        <time>2016-07-18T13:02:37.000Z</time>
      </trkpt>
      <trkpt lat="44.36535" lon="6.39705">
        <ele>1824</ele>
        <time>2016-07-18T13:02:44.000Z</time>
      </trkpt>
      <trkpt lat="44.3653" lon="6.397">
        <ele>1824.1999511719</ele>
        <time>2016-07-18T13:02:50.000Z</time>
      </trkpt>
      <trkpt lat="44.36525" lon="6.39696">
        <ele>1825.8000488281</ele>
        <time>2016-07-18T13:02:54.000Z</time>
      </trkpt>
      <trkpt lat="44.3652" lon="6.39687">
        <ele>1827.1999511719</ele>
        <time>2016-07-18T13:02:59.000Z</time>
      </trkpt>
      <trkpt lat="44.36513" lon="6.3967">
        <ele>1827.8000488281</ele>
        <time>2016-07-18T13:03:08.000Z</time>
      </trkpt>
      <trkpt lat="44.36511" lon="6.39665">
        <ele>1828</ele>
        <time>2016-07-18T13:03:11.000Z</time>
      </trkpt>
      <trkpt lat="44.36506" lon="6.39657">
        <ele>1829</ele>
        <time>2016-07-18T13:03:18.000Z</time>
      </trkpt>
      <trkpt lat="44.36501" lon="6.39649">
        <ele>1830.5999755859</ele>
        <time>2016-07-18T13:03:25.000Z</time>
      </trkpt>
      <trkpt lat="44.36497" lon="6.39641">
        <ele>1830.4000244141</ele>
        <time>2016-07-18T13:03:31.000Z</time>
      </trkpt>
      <trkpt lat="44.36491" lon="6.39632">
        <ele>1831</ele>
        <time>2016-07-18T13:03:37.000Z</time>
      </trkpt>
      <trkpt lat="44.36484" lon="6.39623">
        <ele>1832</ele>
        <time>2016-07-18T13:03:44.000Z</time>
      </trkpt>
      <trkpt lat="44.36478" lon="6.39613">
        <ele>1832.1999511719</ele>
        <time>2016-07-18T13:03:51.000Z</time>
      </trkpt>
      <trkpt lat="44.36477" lon="6.39611">
        <ele>1832</ele>
        <time>2016-07-18T13:03:52.000Z</time>
      </trkpt>
      <trkpt lat="44.36473" lon="6.39606">
        <ele>1832.4000244141</ele>
        <time>2016-07-18T13:03:56.000Z</time>
      </trkpt>
      <trkpt lat="44.36465" lon="6.39595">
        <ele>1833.4000244141</ele>
        <time>2016-07-18T13:04:04.000Z</time>
      </trkpt>
      <trkpt lat="44.36459" lon="6.39587">
        <ele>1834.5999755859</ele>
        <time>2016-07-18T13:04:10.000Z</time>
      </trkpt>
      <trkpt lat="44.36448" lon="6.39577">
        <ele>1836.8000488281</ele>
        <time>2016-07-18T13:04:18.000Z</time>
      </trkpt>
      <trkpt lat="44.36441" lon="6.39569">
        <ele>1835.1999511719</ele>
        <time>2016-07-18T13:04:25.000Z</time>
      </trkpt>
      <trkpt lat="44.36434" lon="6.39564">
        <ele>1833.8000488281</ele>
        <time>2016-07-18T13:04:31.000Z</time>
      </trkpt>
      <trkpt lat="44.36428" lon="6.3956">
        <ele>1832</ele>
        <time>2016-07-18T13:04:36.000Z</time>
      </trkpt>
      <trkpt lat="44.36423" lon="6.39558">
        <ele>1831.4000244141</ele>
        <time>2016-07-18T13:04:40.000Z</time>
      </trkpt>
      <trkpt lat="44.36416" lon="6.39554">
        <ele>1829.8000488281</ele>
        <time>2016-07-18T13:04:47.000Z</time>
      </trkpt>
      <trkpt lat="44.36406" lon="6.3955">
        <ele>1828</ele>
        <time>2016-07-18T13:04:55.000Z</time>
      </trkpt>
      <trkpt lat="44.36405" lon="6.39549">
        <ele>1827.8000488281</ele>
        <time>2016-07-18T13:04:56.000Z</time>
      </trkpt>
      <trkpt lat="44.364" lon="6.39549">
        <ele>1827.8000488281</ele>
        <time>2016-07-18T13:05:01.000Z</time>
      </trkpt>
      <trkpt lat="44.36395" lon="6.39553">
        <ele>1829.4000244141</ele>
        <time>2016-07-18T13:05:06.000Z</time>
      </trkpt>
      <trkpt lat="44.36394" lon="6.39554">
        <ele>1829.8000488281</ele>
        <time>2016-07-18T13:05:07.000Z</time>
      </trkpt>
      <trkpt lat="44.36389" lon="6.39557">
        <ele>1831.1999511719</ele>
        <time>2016-07-18T13:05:12.000Z</time>
      </trkpt>
      <trkpt lat="44.36382" lon="6.39559">
        <ele>1832</ele>
        <time>2016-07-18T13:05:18.000Z</time>
      </trkpt>
      <trkpt lat="44.36377" lon="6.3956">
        <ele>1832.8000488281</ele>
        <time>2016-07-18T13:05:22.000Z</time>
      </trkpt>
      <trkpt lat="44.36369" lon="6.39561">
        <ele>1833.4000244141</ele>
        <time>2016-07-18T13:05:29.000Z</time>
      </trkpt>
      <trkpt lat="44.36365" lon="6.39561">
        <ele>1833.4000244141</ele>
        <time>2016-07-18T13:05:32.000Z</time>
      </trkpt>
      <trkpt lat="44.3635" lon="6.39556">
        <ele>1828.1999511719</ele>
        <time>2016-07-18T13:05:42.000Z</time>
      </trkpt>
      <trkpt lat="44.36338" lon="6.39552">
        <ele>1823.4000244141</ele>
        <time>2016-07-18T13:05:50.000Z</time>
      </trkpt>
      <trkpt lat="44.36326" lon="6.39545">
        <ele>1817.8000488281</ele>
        <time>2016-07-18T13:05:58.000Z</time>
      </trkpt>
      <trkpt lat="44.36318" lon="6.39538">
        <ele>1813</ele>
        <time>2016-07-18T13:06:05.000Z</time>
      </trkpt>
      <trkpt lat="44.36313" lon="6.39536">
        <ele>1811</ele>
        <time>2016-07-18T13:06:11.000Z</time>
      </trkpt>
      <trkpt lat="44.36311" lon="6.39536">
        <ele>1810.5999755859</ele>
        <time>2016-07-18T13:06:28.000Z</time>
      </trkpt>
      <trkpt lat="44.36314" lon="6.39538">
        <ele>1812</ele>
        <time>2016-07-18T13:07:07.000Z</time>
      </trkpt>
      <trkpt lat="44.36321" lon="6.39541">
        <ele>1815.1999511719</ele>
        <time>2016-07-18T13:07:13.000Z</time>
      </trkpt>
      <trkpt lat="44.36324" lon="6.39544">
        <ele>1816.5999755859</ele>
        <time>2016-07-18T13:07:15.000Z</time>
      </trkpt>
      <trkpt lat="44.36322" lon="6.39552">
        <ele>1819.4000244141</ele>
        <time>2016-07-18T13:07:21.000Z</time>
      </trkpt>
      <trkpt lat="44.36318" lon="6.39553">
        <ele>1818.8000488281</ele>
        <time>2016-07-18T13:07:27.000Z</time>
      </trkpt>
      <trkpt lat="44.36317" lon="6.39551">
        <ele>1817.8000488281</ele>
        <time>2016-07-18T13:07:55.000Z</time>
      </trkpt>
      <trkpt lat="44.36318" lon="6.39552">
        <ele>1818</ele>
        <time>2016-07-18T13:08:05.000Z</time>
      </trkpt>
      <trkpt lat="44.36321" lon="6.39549">
        <ele>1818</ele>
        <time>2016-07-18T13:08:15.000Z</time>
      </trkpt>
      <trkpt lat="44.36322" lon="6.39547">
        <ele>1817.1999511719</ele>
        <time>2016-07-18T13:08:17.000Z</time>
      </trkpt>
      <trkpt lat="44.36322" lon="6.3954">
        <ele>1814.5999755859</ele>
        <time>2016-07-18T13:08:21.000Z</time>
      </trkpt>
      <trkpt lat="44.3632" lon="6.39539">
        <ele>1813.5999755859</ele>
        <time>2016-07-18T13:08:27.000Z</time>
      </trkpt>
      <trkpt lat="44.3631" lon="6.39534">
        <ele>1809.1999511719</ele>
        <time>2016-07-18T13:08:37.000Z</time>
      </trkpt>
      <trkpt lat="44.36297" lon="6.39532">
        <ele>1805.5999755859</ele>
        <time>2016-07-18T13:08:48.000Z</time>
      </trkpt>
      <trkpt lat="44.36295" lon="6.39533">
        <ele>1805.1999511719</ele>
        <time>2016-07-18T13:08:50.000Z</time>
      </trkpt>
      <trkpt lat="44.36289" lon="6.39535">
        <ele>1804.4000244141</ele>
        <time>2016-07-18T13:08:56.000Z</time>
      </trkpt>
      <trkpt lat="44.36288" lon="6.39535">
        <ele>1804.1999511719</ele>
        <time>2016-07-18T13:08:57.000Z</time>
      </trkpt>
      <trkpt lat="44.36277" lon="6.39536">
        <ele>1801.8000488281</ele>
        <time>2016-07-18T13:09:06.000Z</time>
      </trkpt>
      <trkpt lat="44.3627" lon="6.39538">
        <ele>1801</ele>
        <time>2016-07-18T13:09:12.000Z</time>
      </trkpt>
      <trkpt lat="44.36263" lon="6.39539">
        <ele>1799.5999755859</ele>
        <time>2016-07-18T13:09:17.000Z</time>
      </trkpt>
      <trkpt lat="44.36257" lon="6.39537">
        <ele>1797.1999511719</ele>
        <time>2016-07-18T13:09:22.000Z</time>
      </trkpt>
      <trkpt lat="44.36255" lon="6.39538">
        <ele>1797</ele>
        <time>2016-07-18T13:09:23.000Z</time>
      </trkpt>
      <trkpt lat="44.36251" lon="6.3954">
        <ele>1796.1999511719</ele>
        <time>2016-07-18T13:09:28.000Z</time>
      </trkpt>
      <trkpt lat="44.36244" lon="6.39541">
        <ele>1794.1999511719</ele>
        <time>2016-07-18T13:09:33.000Z</time>
      </trkpt>
      <trkpt lat="44.36243" lon="6.39542">
        <ele>1794</ele>
        <time>2016-07-18T13:09:34.000Z</time>
      </trkpt>
      <trkpt lat="44.36239" lon="6.39543">
        <ele>1793</ele>
        <time>2016-07-18T13:09:37.000Z</time>
      </trkpt>
      <trkpt lat="44.36232" lon="6.39547">
        <ele>1791.4000244141</ele>
        <time>2016-07-18T13:09:43.000Z</time>
      </trkpt>
      <trkpt lat="44.36221" lon="6.3955">
        <ele>1788</ele>
        <time>2016-07-18T13:09:51.000Z</time>
      </trkpt>
      <trkpt lat="44.36215" lon="6.39553">
        <ele>1787</ele>
        <time>2016-07-18T13:09:56.000Z</time>
      </trkpt>
      <trkpt lat="44.36209" lon="6.39552">
        <ele>1784.4000244141</ele>
        <time>2016-07-18T13:10:01.000Z</time>
      </trkpt>
      <trkpt lat="44.36207" lon="6.39554">
        <ele>1784.1999511719</ele>
        <time>2016-07-18T13:10:07.000Z</time>
      </trkpt>
      <trkpt lat="44.36207" lon="6.39553">
        <ele>1784</ele>
        <time>2016-07-18T13:10:12.000Z</time>
      </trkpt>
      <trkpt lat="44.36206" lon="6.39554">
        <ele>1783.8000488281</ele>
        <time>2016-07-18T13:10:17.000Z</time>
      </trkpt>
      <trkpt lat="44.36199" lon="6.39556">
        <ele>1782</ele>
        <time>2016-07-18T13:10:23.000Z</time>
      </trkpt>
      <trkpt lat="44.36193" lon="6.39557">
        <ele>1780.1999511719</ele>
        <time>2016-07-18T13:10:29.000Z</time>
      </trkpt>
      <trkpt lat="44.36186" lon="6.39562">
        <ele>1779</ele>
        <time>2016-07-18T13:10:34.000Z</time>
      </trkpt>
      <trkpt lat="44.3617" lon="6.39575">
        <ele>1775.1999511719</ele>
        <time>2016-07-18T13:10:47.000Z</time>
      </trkpt>
      <trkpt lat="44.36159" lon="6.39584">
        <ele>1772.1999511719</ele>
        <time>2016-07-18T13:10:55.000Z</time>
      </trkpt>
      <trkpt lat="44.3615" lon="6.39596">
        <ele>1771</ele>
        <time>2016-07-18T13:11:04.000Z</time>
      </trkpt>
      <trkpt lat="44.36147" lon="6.39608">
        <ele>1772</ele>
        <time>2016-07-18T13:11:10.000Z</time>
      </trkpt>
      <trkpt lat="44.36141" lon="6.3962">
        <ele>1771.8000488281</ele>
        <time>2016-07-18T13:11:17.000Z</time>
      </trkpt>
      <trkpt lat="44.36136" lon="6.39633">
        <ele>1772.1999511719</ele>
        <time>2016-07-18T13:11:24.000Z</time>
      </trkpt>
      <trkpt lat="44.36129" lon="6.39648">
        <ele>1772.4000244141</ele>
        <time>2016-07-18T13:11:32.000Z</time>
      </trkpt>
      <trkpt lat="44.3612" lon="6.39662">
        <ele>1770</ele>
        <time>2016-07-18T13:11:41.000Z</time>
      </trkpt>
      <trkpt lat="44.36115" lon="6.39674">
        <ele>1768</ele>
        <time>2016-07-18T13:11:48.000Z</time>
      </trkpt>
      <trkpt lat="44.36112" lon="6.39682">
        <ele>1766.8000488281</ele>
        <time>2016-07-18T13:11:54.000Z</time>
      </trkpt>
      <trkpt lat="44.36111" lon="6.39683">
        <ele>1766.5999755859</ele>
        <time>2016-07-18T13:11:55.000Z</time>
      </trkpt>
      <trkpt lat="44.36103" lon="6.39693">
        <ele>1764.1999511719</ele>
        <time>2016-07-18T13:12:02.000Z</time>
      </trkpt>
      <trkpt lat="44.36099" lon="6.39698">
        <ele>1762.8000488281</ele>
        <time>2016-07-18T13:12:06.000Z</time>
      </trkpt>
      <trkpt lat="44.36097" lon="6.39702">
        <ele>1762.4000244141</ele>
        <time>2016-07-18T13:12:08.000Z</time>
      </trkpt>
      <trkpt lat="44.36092" lon="6.39714">
        <ele>1760.5999755859</ele>
        <time>2016-07-18T13:12:16.000Z</time>
      </trkpt>
      <trkpt lat="44.36091" lon="6.39726">
        <ele>1759.5999755859</ele>
        <time>2016-07-18T13:12:22.000Z</time>
      </trkpt>
      <trkpt lat="44.3609" lon="6.39732">
        <ele>1759.1999511719</ele>
        <time>2016-07-18T13:12:25.000Z</time>
      </trkpt>
      <trkpt lat="44.36091" lon="6.39742">
        <ele>1759.1999511719</ele>
        <time>2016-07-18T13:12:30.000Z</time>
      </trkpt>
      <trkpt lat="44.36095" lon="6.39761">
        <ele>1760.4000244141</ele>
        <time>2016-07-18T13:12:39.000Z</time>
      </trkpt>
      <trkpt lat="44.36096" lon="6.39772">
        <ele>1760.5999755859</ele>
        <time>2016-07-18T13:12:44.000Z</time>
      </trkpt>
      <trkpt lat="44.36095" lon="6.39776">
        <ele>1760</ele>
        <time>2016-07-18T13:12:46.000Z</time>
      </trkpt>
      <trkpt lat="44.36087" lon="6.39782">
        <ele>1756.5999755859</ele>
        <time>2016-07-18T13:12:52.000Z</time>
      </trkpt>
      <trkpt lat="44.36076" lon="6.39779">
        <ele>1751.8000488281</ele>
        <time>2016-07-18T13:12:59.000Z</time>
      </trkpt>
      <trkpt lat="44.36064" lon="6.3977">
        <ele>1746.8000488281</ele>
        <time>2016-07-18T13:13:08.000Z</time>
      </trkpt>
      <trkpt lat="44.36053" lon="6.3976">
        <ele>1742.4000244141</ele>
        <time>2016-07-18T13:13:16.000Z</time>
      </trkpt>
      <trkpt lat="44.36043" lon="6.39752">
        <ele>1738</ele>
        <time>2016-07-18T13:13:23.000Z</time>
      </trkpt>
      <trkpt lat="44.36031" lon="6.39744">
        <ele>1733.1999511719</ele>
        <time>2016-07-18T13:13:31.000Z</time>
      </trkpt>
      <trkpt lat="44.36024" lon="6.3973">
        <ele>1731.5999755859</ele>
        <time>2016-07-18T13:13:40.000Z</time>
      </trkpt>
      <trkpt lat="44.36015" lon="6.39715">
        <ele>1728.5999755859</ele>
        <time>2016-07-18T13:13:49.000Z</time>
      </trkpt>
      <trkpt lat="44.3601" lon="6.39702">
        <ele>1726.5999755859</ele>
        <time>2016-07-18T13:13:56.000Z</time>
      </trkpt>
      <trkpt lat="44.36007" lon="6.39696">
        <ele>1725.5999755859</ele>
        <time>2016-07-18T13:14:00.000Z</time>
      </trkpt>
      <trkpt lat="44.36001" lon="6.39684">
        <ele>1723.5999755859</ele>
        <time>2016-07-18T13:14:07.000Z</time>
      </trkpt>
      <trkpt lat="44.36" lon="6.3968">
        <ele>1723.1999511719</ele>
        <time>2016-07-18T13:14:09.000Z</time>
      </trkpt>
      <trkpt lat="44.35999" lon="6.39676">
        <ele>1723</ele>
        <time>2016-07-18T13:14:11.000Z</time>
      </trkpt>
      <trkpt lat="44.35998" lon="6.39668">
        <ele>1722.5999755859</ele>
        <time>2016-07-18T13:14:15.000Z</time>
      </trkpt>
      <trkpt lat="44.35994" lon="6.39653">
        <ele>1721.5999755859</ele>
        <time>2016-07-18T13:14:22.000Z</time>
      </trkpt>
      <trkpt lat="44.35994" lon="6.39636">
        <ele>1721.1999511719</ele>
        <time>2016-07-18T13:14:30.000Z</time>
      </trkpt>
      <trkpt lat="44.35997" lon="6.39623">
        <ele>1722.1999511719</ele>
        <time>2016-07-18T13:14:37.000Z</time>
      </trkpt>
      <trkpt lat="44.35999" lon="6.39612">
        <ele>1722</ele>
        <time>2016-07-18T13:14:43.000Z</time>
      </trkpt>
      <trkpt lat="44.36006" lon="6.39595">
        <ele>1722.5999755859</ele>
        <time>2016-07-18T13:14:53.000Z</time>
      </trkpt>
      <trkpt lat="44.36011" lon="6.39579">
        <ele>1722.5999755859</ele>
        <time>2016-07-18T13:15:01.000Z</time>
      </trkpt>
      <trkpt lat="44.36017" lon="6.39563">
        <ele>1722.5999755859</ele>
        <time>2016-07-18T13:15:09.000Z</time>
      </trkpt>
      <trkpt lat="44.36019" lon="6.39552">
        <ele>1722.1999511719</ele>
        <time>2016-07-18T13:15:15.000Z</time>
      </trkpt>
      <trkpt lat="44.36023" lon="6.39539">
        <ele>1721</ele>
        <time>2016-07-18T13:15:22.000Z</time>
      </trkpt>
      <trkpt lat="44.36029" lon="6.39526">
        <ele>1720.4000244141</ele>
        <time>2016-07-18T13:15:30.000Z</time>
      </trkpt>
      <trkpt lat="44.36034" lon="6.39509">
        <ele>1718.8000488281</ele>
        <time>2016-07-18T13:15:39.000Z</time>
      </trkpt>
      <trkpt lat="44.36041" lon="6.39494">
        <ele>1718</ele>
        <time>2016-07-18T13:15:48.000Z</time>
      </trkpt>
      <trkpt lat="44.36045" lon="6.39483">
        <ele>1716.4000244141</ele>
        <time>2016-07-18T13:15:54.000Z</time>
      </trkpt>
      <trkpt lat="44.36051" lon="6.39469">
        <ele>1715.4000244141</ele>
        <time>2016-07-18T13:16:02.000Z</time>
      </trkpt>
      <trkpt lat="44.36057" lon="6.39456">
        <ele>1714.5999755859</ele>
        <time>2016-07-18T13:16:09.000Z</time>
      </trkpt>
      <trkpt lat="44.36062" lon="6.39446">
        <ele>1714.1999511719</ele>
        <time>2016-07-18T13:16:15.000Z</time>
      </trkpt>
      <trkpt lat="44.36062" lon="6.39445">
        <ele>1714</ele>
        <time>2016-07-18T13:16:16.000Z</time>
      </trkpt>
      <trkpt lat="44.36063" lon="6.39433">
        <ele>1712.1999511719</ele>
        <time>2016-07-18T13:16:22.000Z</time>
      </trkpt>
      <trkpt lat="44.36064" lon="6.39432">
        <ele>1712.1999511719</ele>
        <time>2016-07-18T13:16:23.000Z</time>
      </trkpt>
      <trkpt lat="44.3607" lon="6.39423">
        <ele>1711</ele>
        <time>2016-07-18T13:16:30.000Z</time>
      </trkpt>
      <trkpt lat="44.36072" lon="6.3942">
        <ele>1710.8000488281</ele>
        <time>2016-07-18T13:16:33.000Z</time>
      </trkpt>
      <trkpt lat="44.36078" lon="6.39406">
        <ele>1708.5999755859</ele>
        <time>2016-07-18T13:16:42.000Z</time>
      </trkpt>
      <trkpt lat="44.36082" lon="6.39399">
        <ele>1707.5999755859</ele>
        <time>2016-07-18T13:16:47.000Z</time>
      </trkpt>
      <trkpt lat="44.36083" lon="6.39398">
        <ele>1707.5999755859</ele>
        <time>2016-07-18T13:16:48.000Z</time>
      </trkpt>
      <trkpt lat="44.36085" lon="6.39391">
        <ele>1706.8000488281</ele>
        <time>2016-07-18T13:16:53.000Z</time>
      </trkpt>
      <trkpt lat="44.36086" lon="6.39389">
        <ele>1706.5999755859</ele>
        <time>2016-07-18T13:16:54.000Z</time>
      </trkpt>
      <trkpt lat="44.3609" lon="6.3938">
        <ele>1705.5999755859</ele>
        <time>2016-07-18T13:16:59.000Z</time>
      </trkpt>
      <trkpt lat="44.36092" lon="6.39375">
        <ele>1705</ele>
        <time>2016-07-18T13:17:02.000Z</time>
      </trkpt>
      <trkpt lat="44.36094" lon="6.39368">
        <ele>1703.8000488281</ele>
        <time>2016-07-18T13:17:07.000Z</time>
      </trkpt>
      <trkpt lat="44.36097" lon="6.39362">
        <ele>1702.5999755859</ele>
        <time>2016-07-18T13:17:11.000Z</time>
      </trkpt>
      <trkpt lat="44.36097" lon="6.3936">
        <ele>1702.1999511719</ele>
        <time>2016-07-18T13:17:12.000Z</time>
      </trkpt>
      <trkpt lat="44.36097" lon="6.39359">
        <ele>1702</ele>
        <time>2016-07-18T13:17:13.000Z</time>
      </trkpt>
      <trkpt lat="44.36095" lon="6.39355">
        <ele>1700.8000488281</ele>
        <time>2016-07-18T13:17:17.000Z</time>
      </trkpt>
      <trkpt lat="44.3609" lon="6.39358">
        <ele>1701</ele>
        <time>2016-07-18T13:17:22.000Z</time>
      </trkpt>
      <trkpt lat="44.3608" lon="6.39359">
        <ele>1700</ele>
        <time>2016-07-18T13:17:31.000Z</time>
      </trkpt>
      <trkpt lat="44.36076" lon="6.39362">
        <ele>1700</ele>
        <time>2016-07-18T13:17:34.000Z</time>
      </trkpt>
      <trkpt lat="44.36074" lon="6.39361">
        <ele>1699.5999755859</ele>
        <time>2016-07-18T13:17:39.000Z</time>
      </trkpt>
      <trkpt lat="44.3607" lon="6.39363">
        <ele>1699.1999511719</ele>
        <time>2016-07-18T13:17:42.000Z</time>
      </trkpt>
      <trkpt lat="44.36066" lon="6.39362">
        <ele>1698.4000244141</ele>
        <time>2016-07-18T13:17:46.000Z</time>
      </trkpt>
      <trkpt lat="44.3606" lon="6.39363">
        <ele>1697.5999755859</ele>
        <time>2016-07-18T13:17:51.000Z</time>
      </trkpt>
      <trkpt lat="44.36056" lon="6.39363">
        <ele>1696.8000488281</ele>
        <time>2016-07-18T13:17:55.000Z</time>
      </trkpt>
      <trkpt lat="44.36055" lon="6.39363">
        <ele>1696.5999755859</ele>
        <time>2016-07-18T13:17:56.000Z</time>
      </trkpt>
      <trkpt lat="44.36047" lon="6.39363">
        <ele>1695.4000244141</ele>
        <time>2016-07-18T13:18:02.000Z</time>
      </trkpt>
      <trkpt lat="44.36041" lon="6.39364">
        <ele>1694.4000244141</ele>
        <time>2016-07-18T13:18:07.000Z</time>
      </trkpt>
      <trkpt lat="44.3604" lon="6.39364">
        <ele>1694.4000244141</ele>
        <time>2016-07-18T13:18:08.000Z</time>
      </trkpt>
      <trkpt lat="44.36038" lon="6.39365">
        <ele>1694.1999511719</ele>
        <time>2016-07-18T13:18:09.000Z</time>
      </trkpt>
      <trkpt lat="44.36032" lon="6.39363">
        <ele>1693</ele>
        <time>2016-07-18T13:18:13.000Z</time>
      </trkpt>
      <trkpt lat="44.36021" lon="6.39364">
        <ele>1689.4000244141</ele>
        <time>2016-07-18T13:18:20.000Z</time>
      </trkpt>
      <trkpt lat="44.36015" lon="6.39364">
        <ele>1687</ele>
        <time>2016-07-18T13:18:25.000Z</time>
      </trkpt>
      <trkpt lat="44.36008" lon="6.39366">
        <ele>1684.8000488281</ele>
        <time>2016-07-18T13:18:30.000Z</time>
      </trkpt>
      <trkpt lat="44.36006" lon="6.39367">
        <ele>1684.4000244141</ele>
        <time>2016-07-18T13:18:31.000Z</time>
      </trkpt>
      <trkpt lat="44.35997" lon="6.39372">
        <ele>1682.4000244141</ele>
        <time>2016-07-18T13:18:37.000Z</time>
      </trkpt>
      <trkpt lat="44.35995" lon="6.39376">
        <ele>1682.1999511719</ele>
        <time>2016-07-18T13:18:40.000Z</time>
      </trkpt>
      <trkpt lat="44.35989" lon="6.39383">
        <ele>1681.5999755859</ele>
        <time>2016-07-18T13:18:44.000Z</time>
      </trkpt>
      <trkpt lat="44.35981" lon="6.39397">
        <ele>1681.1999511719</ele>
        <time>2016-07-18T13:18:53.000Z</time>
      </trkpt>
      <trkpt lat="44.35979" lon="6.394">
        <ele>1681</ele>
        <time>2016-07-18T13:18:55.000Z</time>
      </trkpt>
      <trkpt lat="44.35976" lon="6.3941">
        <ele>1681.8000488281</ele>
        <time>2016-07-18T13:19:01.000Z</time>
      </trkpt>
      <trkpt lat="44.35974" lon="6.39414">
        <ele>1681.8000488281</ele>
        <time>2016-07-18T13:19:03.000Z</time>
      </trkpt>
      <trkpt lat="44.35973" lon="6.39417">
        <ele>1681.8000488281</ele>
        <time>2016-07-18T13:19:05.000Z</time>
      </trkpt>
      <trkpt lat="44.35969" lon="6.39422">
        <ele>1681.5999755859</ele>
        <time>2016-07-18T13:19:09.000Z</time>
      </trkpt>
      <trkpt lat="44.35964" lon="6.39428">
        <ele>1681.8000488281</ele>
        <time>2016-07-18T13:19:14.000Z</time>
      </trkpt>
      <trkpt lat="44.35956" lon="6.39434">
        <ele>1680.8000488281</ele>
        <time>2016-07-18T13:19:21.000Z</time>
      </trkpt>
      <trkpt lat="44.3595" lon="6.3944">
        <ele>1680.5999755859</ele>
        <time>2016-07-18T13:19:26.000Z</time>
      </trkpt>
      <trkpt lat="44.35946" lon="6.39446">
        <ele>1681</ele>
        <time>2016-07-18T13:19:30.000Z</time>
      </trkpt>
      <trkpt lat="44.35939" lon="6.39453">
        <ele>1681.4000244141</ele>
        <time>2016-07-18T13:19:37.000Z</time>
      </trkpt>
      <trkpt lat="44.35932" lon="6.3946">
        <ele>1681.5999755859</ele>
        <time>2016-07-18T13:19:44.000Z</time>
      </trkpt>
      <trkpt lat="44.3593" lon="6.3946">
        <ele>1681.1999511719</ele>
        <time>2016-07-18T13:19:50.000Z</time>
      </trkpt>
      <trkpt lat="44.35927" lon="6.39461">
        <ele>1680.8000488281</ele>
        <time>2016-07-18T13:19:56.000Z</time>
      </trkpt>
      <trkpt lat="44.35921" lon="6.39465">
        <ele>1679.4000244141</ele>
        <time>2016-07-18T13:20:01.000Z</time>
      </trkpt>
      <trkpt lat="44.35917" lon="6.39468">
        <ele>1678.1999511719</ele>
        <time>2016-07-18T13:20:05.000Z</time>
      </trkpt>
      <trkpt lat="44.35909" lon="6.39476">
        <ele>1676.4000244141</ele>
        <time>2016-07-18T13:20:12.000Z</time>
      </trkpt>
      <trkpt lat="44.35907" lon="6.39477">
        <ele>1675.8000488281</ele>
        <time>2016-07-18T13:20:13.000Z</time>
      </trkpt>
      <trkpt lat="44.35899" lon="6.39482">
        <ele>1673.8000488281</ele>
        <time>2016-07-18T13:20:19.000Z</time>
      </trkpt>
      <trkpt lat="44.35898" lon="6.39482">
        <ele>1673.4000244141</ele>
        <time>2016-07-18T13:20:20.000Z</time>
      </trkpt>
      <trkpt lat="44.35893" lon="6.39483">
        <ele>1671.5999755859</ele>
        <time>2016-07-18T13:20:25.000Z</time>
      </trkpt>
      <trkpt lat="44.35892" lon="6.39482">
        <ele>1671.4000244141</ele>
        <time>2016-07-18T13:20:26.000Z</time>
      </trkpt>
      <trkpt lat="44.35877" lon="6.39483">
        <ele>1666.4000244141</ele>
        <time>2016-07-18T13:20:43.000Z</time>
      </trkpt>
      <trkpt lat="44.35875" lon="6.39483">
        <ele>1665.5999755859</ele>
        <time>2016-07-18T13:20:45.000Z</time>
      </trkpt>
      <trkpt lat="44.35875" lon="6.3948">
        <ele>1665.4000244141</ele>
        <time>2016-07-18T13:20:51.000Z</time>
      </trkpt>
      <trkpt lat="44.35876" lon="6.39479">
        <ele>1665.5999755859</ele>
        <time>2016-07-18T13:20:52.000Z</time>
      </trkpt>
      <trkpt lat="44.35881" lon="6.39473">
        <ele>1666.5999755859</ele>
        <time>2016-07-18T13:20:58.000Z</time>
      </trkpt>
      <trkpt lat="44.35883" lon="6.3947">
        <ele>1667</ele>
        <time>2016-07-18T13:21:01.000Z</time>
      </trkpt>
      <trkpt lat="44.35885" lon="6.39466">
        <ele>1667.1999511719</ele>
        <time>2016-07-18T13:21:05.000Z</time>
      </trkpt>
      <trkpt lat="44.35889" lon="6.39462">
        <ele>1668.1999511719</ele>
        <time>2016-07-18T13:21:09.000Z</time>
      </trkpt>
      <trkpt lat="44.3589" lon="6.39461">
        <ele>1668.5999755859</ele>
        <time>2016-07-18T13:21:11.000Z</time>
      </trkpt>
      <trkpt lat="44.3589" lon="6.39453">
        <ele>1667.5999755859</ele>
        <time>2016-07-18T13:21:16.000Z</time>
      </trkpt>
      <trkpt lat="44.35889" lon="6.39452">
        <ele>1667</ele>
        <time>2016-07-18T13:21:17.000Z</time>
      </trkpt>
      <trkpt lat="44.35886" lon="6.39451">
        <ele>1665.8000488281</ele>
        <time>2016-07-18T13:21:20.000Z</time>
      </trkpt>
      <trkpt lat="44.35881" lon="6.39451">
        <ele>1664.1999511719</ele>
        <time>2016-07-18T13:21:25.000Z</time>
      </trkpt>
      <trkpt lat="44.35879" lon="6.3945">
        <ele>1663.5999755859</ele>
        <time>2016-07-18T13:21:26.000Z</time>
      </trkpt>
      <trkpt lat="44.35868" lon="6.39445">
        <ele>1659.1999511719</ele>
        <time>2016-07-18T13:21:34.000Z</time>
      </trkpt>
      <trkpt lat="44.35858" lon="6.39441">
        <ele>1656</ele>
        <time>2016-07-18T13:21:41.000Z</time>
      </trkpt>
      <trkpt lat="44.35849" lon="6.39439">
        <ele>1653.5999755859</ele>
        <time>2016-07-18T13:21:48.000Z</time>
      </trkpt>
      <trkpt lat="44.35848" lon="6.39439">
        <ele>1653.4000244141</ele>
        <time>2016-07-18T13:21:49.000Z</time>
      </trkpt>
      <trkpt lat="44.35838" lon="6.39439">
        <ele>1651.1999511719</ele>
        <time>2016-07-18T13:21:57.000Z</time>
      </trkpt>
      <trkpt lat="44.3583" lon="6.39436">
        <ele>1648.8000488281</ele>
        <time>2016-07-18T13:22:05.000Z</time>
      </trkpt>
      <trkpt lat="44.35829" lon="6.39435">
        <ele>1648.4000244141</ele>
        <time>2016-07-18T13:22:06.000Z</time>
      </trkpt>
      <trkpt lat="44.35827" lon="6.39428">
        <ele>1647.1999511719</ele>
        <time>2016-07-18T13:22:11.000Z</time>
      </trkpt>
      <trkpt lat="44.35827" lon="6.39425">
        <ele>1647</ele>
        <time>2016-07-18T13:22:13.000Z</time>
      </trkpt>
      <trkpt lat="44.35831" lon="6.39419">
        <ele>1647.4000244141</ele>
        <time>2016-07-18T13:22:18.000Z</time>
      </trkpt>
      <trkpt lat="44.35836" lon="6.39413">
        <ele>1647.8000488281</ele>
        <time>2016-07-18T13:22:24.000Z</time>
      </trkpt>
      <trkpt lat="44.35841" lon="6.39409">
        <ele>1648.4000244141</ele>
        <time>2016-07-18T13:22:30.000Z</time>
      </trkpt>
      <trkpt lat="44.35861" lon="6.39399">
        <ele>1652.1999511719</ele>
        <time>2016-07-18T13:22:46.000Z</time>
      </trkpt>
      <trkpt lat="44.35867" lon="6.39396">
        <ele>1653</ele>
        <time>2016-07-18T13:22:52.000Z</time>
      </trkpt>
      <trkpt lat="44.35873" lon="6.39393">
        <ele>1653.8000488281</ele>
        <time>2016-07-18T13:22:59.000Z</time>
      </trkpt>
      <trkpt lat="44.3588" lon="6.3939">
        <ele>1654.8000488281</ele>
        <time>2016-07-18T13:23:05.000Z</time>
      </trkpt>
      <trkpt lat="44.35884" lon="6.39386">
        <ele>1654.8000488281</ele>
        <time>2016-07-18T13:23:10.000Z</time>
      </trkpt>
      <trkpt lat="44.35885" lon="6.39384">
        <ele>1655</ele>
        <time>2016-07-18T13:23:11.000Z</time>
      </trkpt>
      <trkpt lat="44.35895" lon="6.3938">
        <ele>1656.1999511719</ele>
        <time>2016-07-18T13:23:18.000Z</time>
      </trkpt>
      <trkpt lat="44.35895" lon="6.39379">
        <ele>1656</ele>
        <time>2016-07-18T13:23:19.000Z</time>
      </trkpt>
      <trkpt lat="44.35897" lon="6.39375">
        <ele>1655.8000488281</ele>
        <time>2016-07-18T13:23:22.000Z</time>
      </trkpt>
      <trkpt lat="44.35899" lon="6.39372">
        <ele>1655.5999755859</ele>
        <time>2016-07-18T13:23:24.000Z</time>
      </trkpt>
      <trkpt lat="44.35902" lon="6.39364">
        <ele>1654.8000488281</ele>
        <time>2016-07-18T13:23:29.000Z</time>
      </trkpt>
      <trkpt lat="44.35902" lon="6.39361">
        <ele>1654.4000244141</ele>
        <time>2016-07-18T13:23:30.000Z</time>
      </trkpt>
      <trkpt lat="44.35902" lon="6.39358">
        <ele>1654</ele>
        <time>2016-07-18T13:23:32.000Z</time>
      </trkpt>
      <trkpt lat="44.35901" lon="6.39349">
        <ele>1652.1999511719</ele>
        <time>2016-07-18T13:23:37.000Z</time>
      </trkpt>
      <trkpt lat="44.35901" lon="6.39338">
        <ele>1649.8000488281</ele>
        <time>2016-07-18T13:23:44.000Z</time>
      </trkpt>
      <trkpt lat="44.359" lon="6.39336">
        <ele>1649.5999755859</ele>
        <time>2016-07-18T13:23:45.000Z</time>
      </trkpt>
      <trkpt lat="44.359" lon="6.39331">
        <ele>1648.5999755859</ele>
        <time>2016-07-18T13:23:49.000Z</time>
      </trkpt>
      <trkpt lat="44.359" lon="6.39324">
        <ele>1647</ele>
        <time>2016-07-18T13:23:53.000Z</time>
      </trkpt>
      <trkpt lat="44.35898" lon="6.39316">
        <ele>1645.1999511719</ele>
        <time>2016-07-18T13:23:57.000Z</time>
      </trkpt>
      <trkpt lat="44.35895" lon="6.39308">
        <ele>1643.4000244141</ele>
        <time>2016-07-18T13:24:02.000Z</time>
      </trkpt>
      <trkpt lat="44.35893" lon="6.393">
        <ele>1641.4000244141</ele>
        <time>2016-07-18T13:24:08.000Z</time>
      </trkpt>
      <trkpt lat="44.35891" lon="6.39299">
        <ele>1640.5999755859</ele>
        <time>2016-07-18T13:24:10.000Z</time>
      </trkpt>
      <trkpt lat="44.35888" lon="6.39299">
        <ele>1640.1999511719</ele>
        <time>2016-07-18T13:24:12.000Z</time>
      </trkpt>
      <trkpt lat="44.35885" lon="6.39304">
        <ele>1640.5999755859</ele>
        <time>2016-07-18T13:24:17.000Z</time>
      </trkpt>
      <trkpt lat="44.3588" lon="6.39303">
        <ele>1639.5999755859</ele>
        <time>2016-07-18T13:24:22.000Z</time>
      </trkpt>
      <trkpt lat="44.35879" lon="6.39301">
        <ele>1639</ele>
        <time>2016-07-18T13:24:27.000Z</time>
      </trkpt>
      <trkpt lat="44.35873" lon="6.39302">
        <ele>1638</ele>
        <time>2016-07-18T13:24:33.000Z</time>
      </trkpt>
      <trkpt lat="44.35867" lon="6.39299">
        <ele>1636.4000244141</ele>
        <time>2016-07-18T13:24:38.000Z</time>
      </trkpt>
      <trkpt lat="44.35866" lon="6.39297">
        <ele>1636</ele>
        <time>2016-07-18T13:24:39.000Z</time>
      </trkpt>
      <trkpt lat="44.35866" lon="6.39295">
        <ele>1635.5999755859</ele>
        <time>2016-07-18T13:24:41.000Z</time>
      </trkpt>
      <trkpt lat="44.35868" lon="6.39293">
        <ele>1635.4000244141</ele>
        <time>2016-07-18T13:24:47.000Z</time>
      </trkpt>
      <trkpt lat="44.35867" lon="6.39293">
        <ele>1635.4000244141</ele>
        <time>2016-07-18T13:24:54.000Z</time>
      </trkpt>
      <trkpt lat="44.35867" lon="6.39292">
        <ele>1635</ele>
        <time>2016-07-18T13:24:55.000Z</time>
      </trkpt>
      <trkpt lat="44.35865" lon="6.39285">
        <ele>1633.4000244141</ele>
        <time>2016-07-18T13:25:00.000Z</time>
      </trkpt>
      <trkpt lat="44.35866" lon="6.39277">
        <ele>1632</ele>
        <time>2016-07-18T13:25:05.000Z</time>
      </trkpt>
      <trkpt lat="44.35866" lon="6.39276">
        <ele>1631.5999755859</ele>
        <time>2016-07-18T13:25:06.000Z</time>
      </trkpt>
      <trkpt lat="44.35865" lon="6.39267">
        <ele>1630</ele>
        <time>2016-07-18T13:25:12.000Z</time>
      </trkpt>
      <trkpt lat="44.35865" lon="6.39266">
        <ele>1629.8000488281</ele>
        <time>2016-07-18T13:25:13.000Z</time>
      </trkpt>
      <trkpt lat="44.35868" lon="6.39258">
        <ele>1628.8000488281</ele>
        <time>2016-07-18T13:25:19.000Z</time>
      </trkpt>
      <trkpt lat="44.35869" lon="6.39249">
        <ele>1627.1999511719</ele>
        <time>2016-07-18T13:25:25.000Z</time>
      </trkpt>
      <trkpt lat="44.35868" lon="6.39245">
        <ele>1626</ele>
        <time>2016-07-18T13:25:29.000Z</time>
      </trkpt>
      <trkpt lat="44.35867" lon="6.39244">
        <ele>1625.8000488281</ele>
        <time>2016-07-18T13:25:30.000Z</time>
      </trkpt>
      <trkpt lat="44.35859" lon="6.3924">
        <ele>1623.5999755859</ele>
        <time>2016-07-18T13:25:38.000Z</time>
      </trkpt>
      <trkpt lat="44.35858" lon="6.3924">
        <ele>1623.1999511719</ele>
        <time>2016-07-18T13:25:39.000Z</time>
      </trkpt>
      <trkpt lat="44.35857" lon="6.39239">
        <ele>1622.8000488281</ele>
        <time>2016-07-18T13:25:40.000Z</time>
      </trkpt>
      <trkpt lat="44.35851" lon="6.39236">
        <ele>1620.8000488281</ele>
        <time>2016-07-18T13:25:47.000Z</time>
      </trkpt>
      <trkpt lat="44.35853" lon="6.39228">
        <ele>1620</ele>
        <time>2016-07-18T13:25:54.000Z</time>
      </trkpt>
      <trkpt lat="44.35858" lon="6.39221">
        <ele>1620.1999511719</ele>
        <time>2016-07-18T13:26:00.000Z</time>
      </trkpt>
      <trkpt lat="44.35862" lon="6.39212">
        <ele>1619</ele>
        <time>2016-07-18T13:26:07.000Z</time>
      </trkpt>
      <trkpt lat="44.35863" lon="6.39203">
        <ele>1617.1999511719</ele>
        <time>2016-07-18T13:26:12.000Z</time>
      </trkpt>
      <trkpt lat="44.35862" lon="6.39199">
        <ele>1616.4000244141</ele>
        <time>2016-07-18T13:26:14.000Z</time>
      </trkpt>
      <trkpt lat="44.35862" lon="6.39196">
        <ele>1615.8000488281</ele>
        <time>2016-07-18T13:26:17.000Z</time>
      </trkpt>
      <trkpt lat="44.35863" lon="6.3919">
        <ele>1614.8000488281</ele>
        <time>2016-07-18T13:26:21.000Z</time>
      </trkpt>
      <trkpt lat="44.35864" lon="6.3918">
        <ele>1613</ele>
        <time>2016-07-18T13:26:28.000Z</time>
      </trkpt>
      <trkpt lat="44.35866" lon="6.39176">
        <ele>1612.5999755859</ele>
        <time>2016-07-18T13:26:31.000Z</time>
      </trkpt>
      <trkpt lat="44.3587" lon="6.39169">
        <ele>1611.8000488281</ele>
        <time>2016-07-18T13:26:37.000Z</time>
      </trkpt>
      <trkpt lat="44.35874" lon="6.39164">
        <ele>1611.5999755859</ele>
        <time>2016-07-18T13:26:42.000Z</time>
      </trkpt>
      <trkpt lat="44.35877" lon="6.39158">
        <ele>1611</ele>
        <time>2016-07-18T13:26:47.000Z</time>
      </trkpt>
      <trkpt lat="44.35878" lon="6.39154">
        <ele>1610.4000244141</ele>
        <time>2016-07-18T13:26:50.000Z</time>
      </trkpt>
      <trkpt lat="44.3588" lon="6.39148">
        <ele>1609.4000244141</ele>
        <time>2016-07-18T13:26:55.000Z</time>
      </trkpt>
      <trkpt lat="44.35878" lon="6.39143">
        <ele>1608.5999755859</ele>
        <time>2016-07-18T13:27:01.000Z</time>
      </trkpt>
      <trkpt lat="44.35873" lon="6.3914">
        <ele>1607.5999755859</ele>
        <time>2016-07-18T13:27:07.000Z</time>
      </trkpt>
      <trkpt lat="44.35872" lon="6.39139">
        <ele>1607.4000244141</ele>
        <time>2016-07-18T13:27:08.000Z</time>
      </trkpt>
      <trkpt lat="44.35868" lon="6.39131">
        <ele>1606</ele>
        <time>2016-07-18T13:27:15.000Z</time>
      </trkpt>
      <trkpt lat="44.35867" lon="6.3913">
        <ele>1605.8000488281</ele>
        <time>2016-07-18T13:27:16.000Z</time>
      </trkpt>
      <trkpt lat="44.35863" lon="6.39126">
        <ele>1605</ele>
        <time>2016-07-18T13:27:21.000Z</time>
      </trkpt>
      <trkpt lat="44.35859" lon="6.39123">
        <ele>1604</ele>
        <time>2016-07-18T13:27:27.000Z</time>
      </trkpt>
      <trkpt lat="44.35857" lon="6.39121">
        <ele>1603.5999755859</ele>
        <time>2016-07-18T13:27:29.000Z</time>
      </trkpt>
      <trkpt lat="44.35856" lon="6.39118">
        <ele>1603.1999511719</ele>
        <time>2016-07-18T13:27:32.000Z</time>
      </trkpt>
      <trkpt lat="44.35853" lon="6.39113">
        <ele>1602.4000244141</ele>
        <time>2016-07-18T13:27:36.000Z</time>
      </trkpt>
      <trkpt lat="44.35851" lon="6.39116">
        <ele>1602.1999511719</ele>
        <time>2016-07-18T13:27:44.000Z</time>
      </trkpt>
      <trkpt lat="44.3585" lon="6.39117">
        <ele>1602.1999511719</ele>
        <time>2016-07-18T13:27:45.000Z</time>
      </trkpt>
      <trkpt lat="44.35845" lon="6.39123">
        <ele>1601.8000488281</ele>
        <time>2016-07-18T13:27:50.000Z</time>
      </trkpt>
      <trkpt lat="44.35842" lon="6.39125">
        <ele>1601.5999755859</ele>
        <time>2016-07-18T13:27:53.000Z</time>
      </trkpt>
      <trkpt lat="44.35831" lon="6.39131">
        <ele>1600.5999755859</ele>
        <time>2016-07-18T13:28:02.000Z</time>
      </trkpt>
      <trkpt lat="44.35828" lon="6.39132">
        <ele>1600.4000244141</ele>
        <time>2016-07-18T13:28:05.000Z</time>
      </trkpt>
      <trkpt lat="44.35826" lon="6.39132">
        <ele>1600.1999511719</ele>
        <time>2016-07-18T13:28:07.000Z</time>
      </trkpt>
      <trkpt lat="44.35823" lon="6.39132">
        <ele>1599.8000488281</ele>
        <time>2016-07-18T13:28:11.000Z</time>
      </trkpt>
      <trkpt lat="44.35819" lon="6.39135">
        <ele>1599.5999755859</ele>
        <time>2016-07-18T13:28:14.000Z</time>
      </trkpt>
      <trkpt lat="44.35814" lon="6.39144">
        <ele>1599.8000488281</ele>
        <time>2016-07-18T13:28:21.000Z</time>
      </trkpt>
      <trkpt lat="44.35813" lon="6.39145">
        <ele>1600</ele>
        <time>2016-07-18T13:28:22.000Z</time>
      </trkpt>
      <trkpt lat="44.35809" lon="6.39157">
        <ele>1601.4000244141</ele>
        <time>2016-07-18T13:28:30.000Z</time>
      </trkpt>
      <trkpt lat="44.35808" lon="6.39158">
        <ele>1601.4000244141</ele>
        <time>2016-07-18T13:28:31.000Z</time>
      </trkpt>
      <trkpt lat="44.35806" lon="6.39162">
        <ele>1602</ele>
        <time>2016-07-18T13:28:34.000Z</time>
      </trkpt>
      <trkpt lat="44.35805" lon="6.39165">
        <ele>1602.4000244141</ele>
        <time>2016-07-18T13:28:42.000Z</time>
      </trkpt>
      <trkpt lat="44.358" lon="6.39167">
        <ele>1602.1999511719</ele>
        <time>2016-07-18T13:29:23.000Z</time>
      </trkpt>
      <trkpt lat="44.35797" lon="6.39164">
        <ele>1601</ele>
        <time>2016-07-18T13:30:37.000Z</time>
      </trkpt>
      <trkpt lat="44.35796" lon="6.39162">
        <ele>1600.5999755859</ele>
        <time>2016-07-18T13:30:55.000Z</time>
      </trkpt>
      <trkpt lat="44.35794" lon="6.39165">
        <ele>1600.5999755859</ele>
        <time>2016-07-18T13:31:05.000Z</time>
      </trkpt>
      <trkpt lat="44.35797" lon="6.39164">
        <ele>1601.1999511719</ele>
        <time>2016-07-18T13:31:56.000Z</time>
      </trkpt>
      <trkpt lat="44.35797" lon="6.39165">
        <ele>1601.1999511719</ele>
        <time>2016-07-18T13:32:06.000Z</time>
      </trkpt>
      <trkpt lat="44.35795" lon="6.39167">
        <ele>1601</ele>
        <time>2016-07-18T13:33:14.000Z</time>
      </trkpt>
      <trkpt lat="44.35799" lon="6.39159">
        <ele>1600.4000244141</ele>
        <time>2016-07-18T13:33:57.000Z</time>
      </trkpt>
      <trkpt lat="44.35795" lon="6.3916">
        <ele>1600.1999511719</ele>
        <time>2016-07-18T13:34:08.000Z</time>
      </trkpt>
      <trkpt lat="44.35795" lon="6.39162">
        <ele>1600.4000244141</ele>
        <time>2016-07-18T13:34:09.000Z</time>
      </trkpt>
      <trkpt lat="44.35793" lon="6.39164">
        <ele>1600.1999511719</ele>
        <time>2016-07-18T13:34:12.000Z</time>
      </trkpt>
      <trkpt lat="44.35788" lon="6.39166">
        <ele>1599.1999511719</ele>
        <time>2016-07-18T13:34:16.000Z</time>
      </trkpt>
      <trkpt lat="44.35779" lon="6.39166">
        <ele>1597.4000244141</ele>
        <time>2016-07-18T13:34:23.000Z</time>
      </trkpt>
      <trkpt lat="44.35777" lon="6.39167">
        <ele>1596.8000488281</ele>
        <time>2016-07-18T13:34:25.000Z</time>
      </trkpt>
      <trkpt lat="44.35771" lon="6.39167">
        <ele>1595.5999755859</ele>
        <time>2016-07-18T13:34:30.000Z</time>
      </trkpt>
      <trkpt lat="44.35764" lon="6.39168">
        <ele>1594.4000244141</ele>
        <time>2016-07-18T13:34:35.000Z</time>
      </trkpt>
      <trkpt lat="44.35756" lon="6.39165">
        <ele>1592.1999511719</ele>
        <time>2016-07-18T13:34:41.000Z</time>
      </trkpt>
      <trkpt lat="44.3575" lon="6.39165">
        <ele>1590.8000488281</ele>
        <time>2016-07-18T13:34:45.000Z</time>
      </trkpt>
      <trkpt lat="44.35748" lon="6.39164">
        <ele>1590.5999755859</ele>
        <time>2016-07-18T13:34:46.000Z</time>
      </trkpt>
      <trkpt lat="44.35741" lon="6.39164">
        <ele>1588.8000488281</ele>
        <time>2016-07-18T13:34:52.000Z</time>
      </trkpt>
      <trkpt lat="44.35739" lon="6.39163">
        <ele>1588.4000244141</ele>
        <time>2016-07-18T13:34:53.000Z</time>
      </trkpt>
      <trkpt lat="44.35736" lon="6.39163">
        <ele>1587.5999755859</ele>
        <time>2016-07-18T13:34:55.000Z</time>
      </trkpt>
      <trkpt lat="44.35726" lon="6.39168">
        <ele>1585.8000488281</ele>
        <time>2016-07-18T13:35:02.000Z</time>
      </trkpt>
      <trkpt lat="44.35717" lon="6.39177">
        <ele>1585</ele>
        <time>2016-07-18T13:35:10.000Z</time>
      </trkpt>
      <trkpt lat="44.35716" lon="6.39178">
        <ele>1584.8000488281</ele>
        <time>2016-07-18T13:35:11.000Z</time>
      </trkpt>
      <trkpt lat="44.35713" lon="6.3918">
        <ele>1584.4000244141</ele>
        <time>2016-07-18T13:35:14.000Z</time>
      </trkpt>
      <trkpt lat="44.35706" lon="6.39188">
        <ele>1583.8000488281</ele>
        <time>2016-07-18T13:35:21.000Z</time>
      </trkpt>
      <trkpt lat="44.35701" lon="6.39196">
        <ele>1583.1999511719</ele>
        <time>2016-07-18T13:35:27.000Z</time>
      </trkpt>
      <trkpt lat="44.35698" lon="6.39201">
        <ele>1583.1999511719</ele>
        <time>2016-07-18T13:35:31.000Z</time>
      </trkpt>
      <trkpt lat="44.35688" lon="6.39212">
        <ele>1582</ele>
        <time>2016-07-18T13:35:40.000Z</time>
      </trkpt>
      <trkpt lat="44.35687" lon="6.39213">
        <ele>1582</ele>
        <time>2016-07-18T13:35:41.000Z</time>
      </trkpt>
      <trkpt lat="44.35671" lon="6.39206">
        <ele>1577.8000488281</ele>
        <time>2016-07-18T13:35:53.000Z</time>
      </trkpt>
      <trkpt lat="44.35661" lon="6.392">
        <ele>1575.4000244141</ele>
        <time>2016-07-18T13:36:00.000Z</time>
      </trkpt>
      <trkpt lat="44.35652" lon="6.39192">
        <ele>1572.5999755859</ele>
        <time>2016-07-18T13:36:07.000Z</time>
      </trkpt>
      <trkpt lat="44.35642" lon="6.39185">
        <ele>1570</ele>
        <time>2016-07-18T13:36:14.000Z</time>
      </trkpt>
      <trkpt lat="44.35633" lon="6.39182">
        <ele>1568</ele>
        <time>2016-07-18T13:36:22.000Z</time>
      </trkpt>
      <trkpt lat="44.35622" lon="6.39186">
        <ele>1566.5999755859</ele>
        <time>2016-07-18T13:36:30.000Z</time>
      </trkpt>
      <trkpt lat="44.3561" lon="6.39188">
        <ele>1564.8000488281</ele>
        <time>2016-07-18T13:36:38.000Z</time>
      </trkpt>
      <trkpt lat="44.35599" lon="6.39187">
        <ele>1562.4000244141</ele>
        <time>2016-07-18T13:36:45.000Z</time>
      </trkpt>
      <trkpt lat="44.3559" lon="6.3919">
        <ele>1560.8000488281</ele>
        <time>2016-07-18T13:36:51.000Z</time>
      </trkpt>
      <trkpt lat="44.35588" lon="6.39199">
        <ele>1561.5999755859</ele>
        <time>2016-07-18T13:36:56.000Z</time>
      </trkpt>
      <trkpt lat="44.35588" lon="6.39218">
        <ele>1564.5999755859</ele>
        <time>2016-07-18T13:37:05.000Z</time>
      </trkpt>
      <trkpt lat="44.3559" lon="6.39233">
        <ele>1567.1999511719</ele>
        <time>2016-07-18T13:37:12.000Z</time>
      </trkpt>
      <trkpt lat="44.35588" lon="6.39247">
        <ele>1569</ele>
        <time>2016-07-18T13:37:19.000Z</time>
      </trkpt>
      <trkpt lat="44.35582" lon="6.39262">
        <ele>1569.8000488281</ele>
        <time>2016-07-18T13:37:27.000Z</time>
      </trkpt>
      <trkpt lat="44.35559" lon="6.39267">
        <ele>1566.1999511719</ele>
        <time>2016-07-18T13:37:48.000Z</time>
      </trkpt>
      <trkpt lat="44.35557" lon="6.39266">
        <ele>1566</ele>
        <time>2016-07-18T13:37:49.000Z</time>
      </trkpt>
      <trkpt lat="44.35544" lon="6.39262">
        <ele>1563.4000244141</ele>
        <time>2016-07-18T13:37:59.000Z</time>
      </trkpt>
      <trkpt lat="44.35535" lon="6.39263">
        <ele>1562.5999755859</ele>
        <time>2016-07-18T13:38:05.000Z</time>
      </trkpt>
      <trkpt lat="44.35521" lon="6.3927">
        <ele>1561.4000244141</ele>
        <time>2016-07-18T13:38:16.000Z</time>
      </trkpt>
      <trkpt lat="44.35513" lon="6.39282">
        <ele>1562.4000244141</ele>
        <time>2016-07-18T13:38:24.000Z</time>
      </trkpt>
      <trkpt lat="44.35507" lon="6.39297">
        <ele>1564.4000244141</ele>
        <time>2016-07-18T13:38:33.000Z</time>
      </trkpt>
      <trkpt lat="44.35502" lon="6.39306">
        <ele>1565.5999755859</ele>
        <time>2016-07-18T13:38:39.000Z</time>
      </trkpt>
      <trkpt lat="44.35486" lon="6.39318">
        <ele>1564.1999511719</ele>
        <time>2016-07-18T13:38:53.000Z</time>
      </trkpt>
      <trkpt lat="44.35475" lon="6.39323">
        <ele>1562.5999755859</ele>
        <time>2016-07-18T13:39:02.000Z</time>
      </trkpt>
      <trkpt lat="44.35467" lon="6.39328">
        <ele>1562</ele>
        <time>2016-07-18T13:39:08.000Z</time>
      </trkpt>
      <trkpt lat="44.35456" lon="6.39339">
        <ele>1561.5999755859</ele>
        <time>2016-07-18T13:39:17.000Z</time>
      </trkpt>
      <trkpt lat="44.35443" lon="6.39348">
        <ele>1560.5999755859</ele>
        <time>2016-07-18T13:39:27.000Z</time>
      </trkpt>
      <trkpt lat="44.35431" lon="6.3936">
        <ele>1560</ele>
        <time>2016-07-18T13:39:36.000Z</time>
      </trkpt>
      <trkpt lat="44.35418" lon="6.39374">
        <ele>1559.1999511719</ele>
        <time>2016-07-18T13:39:47.000Z</time>
      </trkpt>
      <trkpt lat="44.35411" lon="6.39384">
        <ele>1558.1999511719</ele>
        <time>2016-07-18T13:39:56.000Z</time>
      </trkpt>
      <trkpt lat="44.35407" lon="6.39389">
        <ele>1557.5999755859</ele>
        <time>2016-07-18T13:40:04.000Z</time>
      </trkpt>
      <trkpt lat="44.35399" lon="6.39392">
        <ele>1555.5999755859</ele>
        <time>2016-07-18T13:40:10.000Z</time>
      </trkpt>
      <trkpt lat="44.35391" lon="6.39395">
        <ele>1553.1999511719</ele>
        <time>2016-07-18T13:40:17.000Z</time>
      </trkpt>
      <trkpt lat="44.35387" lon="6.394">
        <ele>1552.1999511719</ele>
        <time>2016-07-18T13:40:22.000Z</time>
      </trkpt>
      <trkpt lat="44.35382" lon="6.39404">
        <ele>1550.8000488281</ele>
        <time>2016-07-18T13:40:26.000Z</time>
      </trkpt>
      <trkpt lat="44.35376" lon="6.39408">
        <ele>1548.8000488281</ele>
        <time>2016-07-18T13:40:31.000Z</time>
      </trkpt>
      <trkpt lat="44.35372" lon="6.39415">
        <ele>1547.4000244141</ele>
        <time>2016-07-18T13:40:37.000Z</time>
      </trkpt>
      <trkpt lat="44.35369" lon="6.39418">
        <ele>1546.5999755859</ele>
        <time>2016-07-18T13:40:40.000Z</time>
      </trkpt>
      <trkpt lat="44.35356" lon="6.39429">
        <ele>1543</ele>
        <time>2016-07-18T13:40:51.000Z</time>
      </trkpt>
      <trkpt lat="44.35356" lon="6.39428">
        <ele>1542.8000488281</ele>
        <time>2016-07-18T13:40:52.000Z</time>
      </trkpt>
      <trkpt lat="44.35355" lon="6.39429">
        <ele>1542.8000488281</ele>
        <time>2016-07-18T13:40:53.000Z</time>
      </trkpt>
      <trkpt lat="44.35352" lon="6.39433">
        <ele>1541.8000488281</ele>
        <time>2016-07-18T13:40:58.000Z</time>
      </trkpt>
      <trkpt lat="44.35351" lon="6.39436">
        <ele>1541.4000244141</ele>
        <time>2016-07-18T13:41:00.000Z</time>
      </trkpt>
      <trkpt lat="44.35349" lon="6.39439">
        <ele>1540.8000488281</ele>
        <time>2016-07-18T13:41:07.000Z</time>
      </trkpt>
      <trkpt lat="44.35346" lon="6.39443">
        <ele>1540</ele>
        <time>2016-07-18T13:41:12.000Z</time>
      </trkpt>
      <trkpt lat="44.35341" lon="6.39449">
        <ele>1538.5999755859</ele>
        <time>2016-07-18T13:41:17.000Z</time>
      </trkpt>
      <trkpt lat="44.35336" lon="6.39455">
        <ele>1537.4000244141</ele>
        <time>2016-07-18T13:41:22.000Z</time>
      </trkpt>
      <trkpt lat="44.35332" lon="6.39459">
        <ele>1536.4000244141</ele>
        <time>2016-07-18T13:41:27.000Z</time>
      </trkpt>
      <trkpt lat="44.35331" lon="6.3946">
        <ele>1536.1999511719</ele>
        <time>2016-07-18T13:41:28.000Z</time>
      </trkpt>
      <trkpt lat="44.35329" lon="6.39463">
        <ele>1535.8000488281</ele>
        <time>2016-07-18T13:41:30.000Z</time>
      </trkpt>
      <trkpt lat="44.35324" lon="6.39468">
        <ele>1534.8000488281</ele>
        <time>2016-07-18T13:41:35.000Z</time>
      </trkpt>
      <trkpt lat="44.35319" lon="6.39479">
        <ele>1534</ele>
        <time>2016-07-18T13:41:42.000Z</time>
      </trkpt>
      <trkpt lat="44.35318" lon="6.39481">
        <ele>1533.8000488281</ele>
        <time>2016-07-18T13:41:43.000Z</time>
      </trkpt>
      <trkpt lat="44.35312" lon="6.39486">
        <ele>1531.4000244141</ele>
        <time>2016-07-18T13:41:49.000Z</time>
      </trkpt>
      <trkpt lat="44.35305" lon="6.39489">
        <ele>1528.8000488281</ele>
        <time>2016-07-18T13:41:55.000Z</time>
      </trkpt>
      <trkpt lat="44.35299" lon="6.39491">
        <ele>1527</ele>
        <time>2016-07-18T13:41:59.000Z</time>
      </trkpt>
      <trkpt lat="44.35292" lon="6.3949">
        <ele>1525.1999511719</ele>
        <time>2016-07-18T13:42:04.000Z</time>
      </trkpt>
      <trkpt lat="44.35286" lon="6.39488">
        <ele>1524.1999511719</ele>
        <time>2016-07-18T13:42:08.000Z</time>
      </trkpt>
      <trkpt lat="44.35279" lon="6.39484">
        <ele>1523.1999511719</ele>
        <time>2016-07-18T13:42:15.000Z</time>
      </trkpt>
      <trkpt lat="44.35272" lon="6.39476">
        <ele>1522</ele>
        <time>2016-07-18T13:42:23.000Z</time>
      </trkpt>
      <trkpt lat="44.35269" lon="6.39472">
        <ele>1521.5999755859</ele>
        <time>2016-07-18T13:42:26.000Z</time>
      </trkpt>
      <trkpt lat="44.35265" lon="6.39464">
        <ele>1520.5999755859</ele>
        <time>2016-07-18T13:42:32.000Z</time>
      </trkpt>
      <trkpt lat="44.35265" lon="6.39463">
        <ele>1520.5999755859</ele>
        <time>2016-07-18T13:42:34.000Z</time>
      </trkpt>
      <trkpt lat="44.3526" lon="6.39454">
        <ele>1519.4000244141</ele>
        <time>2016-07-18T13:42:52.000Z</time>
      </trkpt>
      <trkpt lat="44.35257" lon="6.39444">
        <ele>1518.4000244141</ele>
        <time>2016-07-18T13:42:58.000Z</time>
      </trkpt>
      <trkpt lat="44.35256" lon="6.39441">
        <ele>1518.1999511719</ele>
        <time>2016-07-18T13:43:00.000Z</time>
      </trkpt>
      <trkpt lat="44.35252" lon="6.39434">
        <ele>1517.1999511719</ele>
        <time>2016-07-18T13:43:06.000Z</time>
      </trkpt>
      <trkpt lat="44.35247" lon="6.39428">
        <ele>1516.1999511719</ele>
        <time>2016-07-18T13:43:11.000Z</time>
      </trkpt>
      <trkpt lat="44.35241" lon="6.39422">
        <ele>1515</ele>
        <time>2016-07-18T13:43:17.000Z</time>
      </trkpt>
      <trkpt lat="44.35235" lon="6.39415">
        <ele>1513.5999755859</ele>
        <time>2016-07-18T13:43:24.000Z</time>
      </trkpt>
      <trkpt lat="44.3523" lon="6.3941">
        <ele>1512.5999755859</ele>
        <time>2016-07-18T13:43:29.000Z</time>
      </trkpt>
      <trkpt lat="44.35229" lon="6.39409">
        <ele>1512.4000244141</ele>
        <time>2016-07-18T13:43:30.000Z</time>
      </trkpt>
      <trkpt lat="44.35225" lon="6.39406">
        <ele>1511.8000488281</ele>
        <time>2016-07-18T13:43:33.000Z</time>
      </trkpt>
      <trkpt lat="44.35218" lon="6.39402">
        <ele>1510.4000244141</ele>
        <time>2016-07-18T13:43:40.000Z</time>
      </trkpt>
      <trkpt lat="44.35211" lon="6.394">
        <ele>1509.1999511719</ele>
        <time>2016-07-18T13:43:46.000Z</time>
      </trkpt>
      <trkpt lat="44.35208" lon="6.39398">
        <ele>1508.5999755859</ele>
        <time>2016-07-18T13:43:48.000Z</time>
      </trkpt>
      <trkpt lat="44.35203" lon="6.39396">
        <ele>1507.5999755859</ele>
        <time>2016-07-18T13:43:53.000Z</time>
      </trkpt>
      <trkpt lat="44.35202" lon="6.39396">
        <ele>1507.4000244141</ele>
        <time>2016-07-18T13:43:54.000Z</time>
      </trkpt>
      <trkpt lat="44.35196" lon="6.39392">
        <ele>1505.8000488281</ele>
        <time>2016-07-18T13:44:00.000Z</time>
      </trkpt>
      <trkpt lat="44.35195" lon="6.39392">
        <ele>1505.5999755859</ele>
        <time>2016-07-18T13:44:01.000Z</time>
      </trkpt>
      <trkpt lat="44.35192" lon="6.3939">
        <ele>1504.8000488281</ele>
        <time>2016-07-18T13:44:04.000Z</time>
      </trkpt>
      <trkpt lat="44.35188" lon="6.39389">
        <ele>1503.5999755859</ele>
        <time>2016-07-18T13:44:08.000Z</time>
      </trkpt>
      <trkpt lat="44.35186" lon="6.39389">
        <ele>1503</ele>
        <time>2016-07-18T13:44:10.000Z</time>
      </trkpt>
      <trkpt lat="44.35179" lon="6.39391">
        <ele>1501</ele>
        <time>2016-07-18T13:44:16.000Z</time>
      </trkpt>
      <trkpt lat="44.35172" lon="6.39392">
        <ele>1499</ele>
        <time>2016-07-18T13:44:21.000Z</time>
      </trkpt>
      <trkpt lat="44.35162" lon="6.39389">
        <ele>1495.8000488281</ele>
        <time>2016-07-18T13:44:28.000Z</time>
      </trkpt>
      <trkpt lat="44.3516" lon="6.39388">
        <ele>1495.1999511719</ele>
        <time>2016-07-18T13:44:30.000Z</time>
      </trkpt>
      <trkpt lat="44.3515" lon="6.39386">
        <ele>1492</ele>
        <time>2016-07-18T13:44:37.000Z</time>
      </trkpt>
      <trkpt lat="44.35135" lon="6.39391">
        <ele>1487.5999755859</ele>
        <time>2016-07-18T13:44:49.000Z</time>
      </trkpt>
      <trkpt lat="44.35131" lon="6.39389">
        <ele>1486.5999755859</ele>
        <time>2016-07-18T13:44:52.000Z</time>
      </trkpt>
      <trkpt lat="44.35127" lon="6.3938">
        <ele>1484.8000488281</ele>
        <time>2016-07-18T13:44:59.000Z</time>
      </trkpt>
      <trkpt lat="44.35125" lon="6.39373">
        <ele>1483.5999755859</ele>
        <time>2016-07-18T13:45:05.000Z</time>
      </trkpt>
      <trkpt lat="44.35121" lon="6.39363">
        <ele>1482</ele>
        <time>2016-07-18T13:45:12.000Z</time>
      </trkpt>
      <trkpt lat="44.35118" lon="6.39353">
        <ele>1480.5999755859</ele>
        <time>2016-07-18T13:45:18.000Z</time>
      </trkpt>
      <trkpt lat="44.35116" lon="6.39344">
        <ele>1479.1999511719</ele>
        <time>2016-07-18T13:45:24.000Z</time>
      </trkpt>
      <trkpt lat="44.35115" lon="6.39341">
        <ele>1478.8000488281</ele>
        <time>2016-07-18T13:45:26.000Z</time>
      </trkpt>
      <trkpt lat="44.35112" lon="6.39332">
        <ele>1477.1999511719</ele>
        <time>2016-07-18T13:45:32.000Z</time>
      </trkpt>
      <trkpt lat="44.35108" lon="6.39319">
        <ele>1475.1999511719</ele>
        <time>2016-07-18T13:45:40.000Z</time>
      </trkpt>
      <trkpt lat="44.35104" lon="6.39306">
        <ele>1473</ele>
        <time>2016-07-18T13:45:49.000Z</time>
      </trkpt>
      <trkpt lat="44.35102" lon="6.39294">
        <ele>1471.1999511719</ele>
        <time>2016-07-18T13:45:56.000Z</time>
      </trkpt>
      <trkpt lat="44.35103" lon="6.39277">
        <ele>1469.5999755859</ele>
        <time>2016-07-18T13:46:06.000Z</time>
      </trkpt>
      <trkpt lat="44.35104" lon="6.39274">
        <ele>1469.4000244141</ele>
        <time>2016-07-18T13:46:08.000Z</time>
      </trkpt>
      <trkpt lat="44.35107" lon="6.39266">
        <ele>1469.5999755859</ele>
        <time>2016-07-18T13:46:14.000Z</time>
      </trkpt>
      <trkpt lat="44.35108" lon="6.39265">
        <ele>1469.5999755859</ele>
        <time>2016-07-18T13:46:15.000Z</time>
      </trkpt>
      <trkpt lat="44.35112" lon="6.39255">
        <ele>1470</ele>
        <time>2016-07-18T13:46:22.000Z</time>
      </trkpt>
      <trkpt lat="44.35113" lon="6.39254">
        <ele>1470</ele>
        <time>2016-07-18T13:46:23.000Z</time>
      </trkpt>
      <trkpt lat="44.35109" lon="6.39251">
        <ele>1468.5999755859</ele>
        <time>2016-07-18T13:46:28.000Z</time>
      </trkpt>
      <trkpt lat="44.35108" lon="6.39251">
        <ele>1468.1999511719</ele>
        <time>2016-07-18T13:46:29.000Z</time>
      </trkpt>
      <trkpt lat="44.35091" lon="6.39267">
        <ele>1464.8000488281</ele>
        <time>2016-07-18T13:46:49.000Z</time>
      </trkpt>
      <trkpt lat="44.35087" lon="6.39279">
        <ele>1465</ele>
        <time>2016-07-18T13:46:57.000Z</time>
      </trkpt>
      <trkpt lat="44.35084" lon="6.39294">
        <ele>1465.4000244141</ele>
        <time>2016-07-18T13:47:06.000Z</time>
      </trkpt>
      <trkpt lat="44.3508" lon="6.39306">
        <ele>1465.1999511719</ele>
        <time>2016-07-18T13:47:14.000Z</time>
      </trkpt>
      <trkpt lat="44.35079" lon="6.39309">
        <ele>1465</ele>
        <time>2016-07-18T13:47:19.000Z</time>
      </trkpt>
      <trkpt lat="44.35077" lon="6.39315">
        <ele>1465</ele>
        <time>2016-07-18T13:47:25.000Z</time>
      </trkpt>
      <trkpt lat="44.35069" lon="6.39335">
        <ele>1463.5999755859</ele>
        <time>2016-07-18T13:47:39.000Z</time>
      </trkpt>
      <trkpt lat="44.35067" lon="6.39336">
        <ele>1463</ele>
        <time>2016-07-18T13:47:41.000Z</time>
      </trkpt>
      <trkpt lat="44.35067" lon="6.3933">
        <ele>1462.5999755859</ele>
        <time>2016-07-18T13:47:44.000Z</time>
      </trkpt>
      <trkpt lat="44.35063" lon="6.39318">
        <ele>1460.5999755859</ele>
        <time>2016-07-18T13:47:52.000Z</time>
      </trkpt>
      <trkpt lat="44.35062" lon="6.39314">
        <ele>1460.1999511719</ele>
        <time>2016-07-18T13:47:54.000Z</time>
      </trkpt>
      <trkpt lat="44.35062" lon="6.39301">
        <ele>1458.8000488281</ele>
        <time>2016-07-18T13:48:03.000Z</time>
      </trkpt>
      <trkpt lat="44.3506" lon="6.39289">
        <ele>1457.1999511719</ele>
        <time>2016-07-18T13:48:10.000Z</time>
      </trkpt>
      <trkpt lat="44.35059" lon="6.39286">
        <ele>1456.8000488281</ele>
        <time>2016-07-18T13:48:12.000Z</time>
      </trkpt>
      <trkpt lat="44.35059" lon="6.3928">
        <ele>1456</ele>
        <time>2016-07-18T13:48:16.000Z</time>
      </trkpt>
      <trkpt lat="44.35056" lon="6.39271">
        <ele>1454.4000244141</ele>
        <time>2016-07-18T13:48:23.000Z</time>
      </trkpt>
      <trkpt lat="44.35055" lon="6.39265">
        <ele>1453.4000244141</ele>
        <time>2016-07-18T13:48:28.000Z</time>
      </trkpt>
      <trkpt lat="44.35054" lon="6.39261">
        <ele>1453</ele>
        <time>2016-07-18T13:48:30.000Z</time>
      </trkpt>
      <trkpt lat="44.35049" lon="6.39251">
        <ele>1450.5999755859</ele>
        <time>2016-07-18T13:48:37.000Z</time>
      </trkpt>
      <trkpt lat="44.35046" lon="6.39241">
        <ele>1448.5999755859</ele>
        <time>2016-07-18T13:48:44.000Z</time>
      </trkpt>
      <trkpt lat="44.35044" lon="6.3923">
        <ele>1446.8000488281</ele>
        <time>2016-07-18T13:48:51.000Z</time>
      </trkpt>
      <trkpt lat="44.35045" lon="6.39216">
        <ele>1446.4000244141</ele>
        <time>2016-07-18T13:48:59.000Z</time>
      </trkpt>
      <trkpt lat="44.35047" lon="6.3921">
        <ele>1446.4000244141</ele>
        <time>2016-07-18T13:49:03.000Z</time>
      </trkpt>
      <trkpt lat="44.3505" lon="6.39199">
        <ele>1447</ele>
        <time>2016-07-18T13:49:10.000Z</time>
      </trkpt>
      <trkpt lat="44.35052" lon="6.3919">
        <ele>1447</ele>
        <time>2016-07-18T13:49:16.000Z</time>
      </trkpt>
      <trkpt lat="44.35054" lon="6.39184">
        <ele>1447.1999511719</ele>
        <time>2016-07-18T13:49:20.000Z</time>
      </trkpt>
      <trkpt lat="44.35058" lon="6.3918">
        <ele>1447.8000488281</ele>
        <time>2016-07-18T13:49:24.000Z</time>
      </trkpt>
      <trkpt lat="44.3506" lon="6.3917">
        <ele>1447.4000244141</ele>
        <time>2016-07-18T13:49:30.000Z</time>
      </trkpt>
      <trkpt lat="44.3506" lon="6.39168">
        <ele>1447.1999511719</ele>
        <time>2016-07-18T13:49:32.000Z</time>
      </trkpt>
      <trkpt lat="44.35057" lon="6.39165">
        <ele>1446</ele>
        <time>2016-07-18T13:49:35.000Z</time>
      </trkpt>
      <trkpt lat="44.35053" lon="6.39168">
        <ele>1445.4000244141</ele>
        <time>2016-07-18T13:49:40.000Z</time>
      </trkpt>
      <trkpt lat="44.35045" lon="6.39169">
        <ele>1443.5999755859</ele>
        <time>2016-07-18T13:49:48.000Z</time>
      </trkpt>
      <trkpt lat="44.35038" lon="6.39174">
        <ele>1441.5999755859</ele>
        <time>2016-07-18T13:49:56.000Z</time>
      </trkpt>
      <trkpt lat="44.35037" lon="6.39174">
        <ele>1441.4000244141</ele>
        <time>2016-07-18T13:49:57.000Z</time>
      </trkpt>
      <trkpt lat="44.35032" lon="6.39176">
        <ele>1440.1999511719</ele>
        <time>2016-07-18T13:50:02.000Z</time>
      </trkpt>
      <trkpt lat="44.35027" lon="6.39179">
        <ele>1438.8000488281</ele>
        <time>2016-07-18T13:50:08.000Z</time>
      </trkpt>
      <trkpt lat="44.35024" lon="6.39181">
        <ele>1438</ele>
        <time>2016-07-18T13:50:11.000Z</time>
      </trkpt>
      <trkpt lat="44.35018" lon="6.39187">
        <ele>1436</ele>
        <time>2016-07-18T13:50:19.000Z</time>
      </trkpt>
      <trkpt lat="44.35015" lon="6.39189">
        <ele>1435.4000244141</ele>
        <time>2016-07-18T13:50:21.000Z</time>
      </trkpt>
      <trkpt lat="44.35008" lon="6.39194">
        <ele>1433.4000244141</ele>
        <time>2016-07-18T13:50:28.000Z</time>
      </trkpt>
      <trkpt lat="44.35006" lon="6.39196">
        <ele>1432.8000488281</ele>
        <time>2016-07-18T13:50:30.000Z</time>
      </trkpt>
      <trkpt lat="44.35001" lon="6.39192">
        <ele>1431</ele>
        <time>2016-07-18T13:50:36.000Z</time>
      </trkpt>
      <trkpt lat="44.34998" lon="6.39189">
        <ele>1429.8000488281</ele>
        <time>2016-07-18T13:50:40.000Z</time>
      </trkpt>
      <trkpt lat="44.34996" lon="6.39183">
        <ele>1428.8000488281</ele>
        <time>2016-07-18T13:50:45.000Z</time>
      </trkpt>
      <trkpt lat="44.34992" lon="6.39176">
        <ele>1427</ele>
        <time>2016-07-18T13:50:52.000Z</time>
      </trkpt>
      <trkpt lat="44.3499" lon="6.39173">
        <ele>1426.1999511719</ele>
        <time>2016-07-18T13:50:55.000Z</time>
      </trkpt>
      <trkpt lat="44.34988" lon="6.39168">
        <ele>1425.4000244141</ele>
        <time>2016-07-18T13:51:00.000Z</time>
      </trkpt>
      <trkpt lat="44.34987" lon="6.39167">
        <ele>1425</ele>
        <time>2016-07-18T13:51:02.000Z</time>
      </trkpt>
      <trkpt lat="44.34982" lon="6.3916">
        <ele>1423</ele>
        <time>2016-07-18T13:51:09.000Z</time>
      </trkpt>
      <trkpt lat="44.34982" lon="6.39159">
        <ele>1422.5999755859</ele>
        <time>2016-07-18T13:51:10.000Z</time>
      </trkpt>
      <trkpt lat="44.34977" lon="6.39152">
        <ele>1420.8000488281</ele>
        <time>2016-07-18T13:51:16.000Z</time>
      </trkpt>
      <trkpt lat="44.34976" lon="6.3915">
        <ele>1420.4000244141</ele>
        <time>2016-07-18T13:51:17.000Z</time>
      </trkpt>
      <trkpt lat="44.34975" lon="6.39139">
        <ele>1419.5999755859</ele>
        <time>2016-07-18T13:51:24.000Z</time>
      </trkpt>
      <trkpt lat="44.34976" lon="6.39133">
        <ele>1419.4000244141</ele>
        <time>2016-07-18T13:51:28.000Z</time>
      </trkpt>
      <trkpt lat="44.34977" lon="6.39126">
        <ele>1419.4000244141</ele>
        <time>2016-07-18T13:51:32.000Z</time>
      </trkpt>
      <trkpt lat="44.34977" lon="6.39119">
        <ele>1419</ele>
        <time>2016-07-18T13:51:37.000Z</time>
      </trkpt>
      <trkpt lat="44.34977" lon="6.39113">
        <ele>1419</ele>
        <time>2016-07-18T13:51:41.000Z</time>
      </trkpt>
      <trkpt lat="44.34977" lon="6.391">
        <ele>1418</ele>
        <time>2016-07-18T13:51:49.000Z</time>
      </trkpt>
      <trkpt lat="44.34974" lon="6.39089">
        <ele>1416.5999755859</ele>
        <time>2016-07-18T13:51:56.000Z</time>
      </trkpt>
      <trkpt lat="44.34972" lon="6.39084">
        <ele>1415.5999755859</ele>
        <time>2016-07-18T13:51:59.000Z</time>
      </trkpt>
      <trkpt lat="44.34969" lon="6.39078">
        <ele>1414.1999511719</ele>
        <time>2016-07-18T13:52:03.000Z</time>
      </trkpt>
      <trkpt lat="44.34964" lon="6.39068">
        <ele>1412</ele>
        <time>2016-07-18T13:52:10.000Z</time>
      </trkpt>
      <trkpt lat="44.34963" lon="6.39053">
        <ele>1410.4000244141</ele>
        <time>2016-07-18T13:52:18.000Z</time>
      </trkpt>
      <trkpt lat="44.34965" lon="6.39039">
        <ele>1409.8000488281</ele>
        <time>2016-07-18T13:52:27.000Z</time>
      </trkpt>
      <trkpt lat="44.34965" lon="6.39038">
        <ele>1409.8000488281</ele>
        <time>2016-07-18T13:52:28.000Z</time>
      </trkpt>
      <trkpt lat="44.34965" lon="6.39027">
        <ele>1408.8000488281</ele>
        <time>2016-07-18T13:52:34.000Z</time>
      </trkpt>
      <trkpt lat="44.34968" lon="6.39013">
        <ele>1408.4000244141</ele>
        <time>2016-07-18T13:52:43.000Z</time>
      </trkpt>
      <trkpt lat="44.34971" lon="6.38999">
        <ele>1408</ele>
        <time>2016-07-18T13:52:51.000Z</time>
      </trkpt>
      <trkpt lat="44.34974" lon="6.38987">
        <ele>1407.8000488281</ele>
        <time>2016-07-18T13:52:58.000Z</time>
      </trkpt>
      <trkpt lat="44.34978" lon="6.38973">
        <ele>1406.4000244141</ele>
        <time>2016-07-18T13:53:07.000Z</time>
      </trkpt>
      <trkpt lat="44.34983" lon="6.38961">
        <ele>1405.1999511719</ele>
        <time>2016-07-18T13:53:15.000Z</time>
      </trkpt>
      <trkpt lat="44.34987" lon="6.38951">
        <ele>1404.1999511719</ele>
        <time>2016-07-18T13:53:22.000Z</time>
      </trkpt>
      <trkpt lat="44.34988" lon="6.3895">
        <ele>1404.1999511719</ele>
        <time>2016-07-18T13:53:23.000Z</time>
      </trkpt>
      <trkpt lat="44.3499" lon="6.38943">
        <ele>1403.1999511719</ele>
        <time>2016-07-18T13:53:28.000Z</time>
      </trkpt>
      <trkpt lat="44.34992" lon="6.38931">
        <ele>1401.1999511719</ele>
        <time>2016-07-18T13:53:35.000Z</time>
      </trkpt>
      <trkpt lat="44.34996" lon="6.3892">
        <ele>1399.5999755859</ele>
        <time>2016-07-18T13:53:42.000Z</time>
      </trkpt>
      <trkpt lat="44.35" lon="6.38906">
        <ele>1397.4000244141</ele>
        <time>2016-07-18T13:53:51.000Z</time>
      </trkpt>
      <trkpt lat="44.35003" lon="6.38897">
        <ele>1396.1999511719</ele>
        <time>2016-07-18T13:53:57.000Z</time>
      </trkpt>
      <trkpt lat="44.35007" lon="6.38889">
        <ele>1396.5999755859</ele>
        <time>2016-07-18T13:54:03.000Z</time>
      </trkpt>
      <trkpt lat="44.3501" lon="6.38881">
        <ele>1396.8000488281</ele>
        <time>2016-07-18T13:54:09.000Z</time>
      </trkpt>
      <trkpt lat="44.35014" lon="6.38871">
        <ele>1396.5999755859</ele>
        <time>2016-07-18T13:54:16.000Z</time>
      </trkpt>
      <trkpt lat="44.35015" lon="6.3887">
        <ele>1396.4000244141</ele>
        <time>2016-07-18T13:54:17.000Z</time>
      </trkpt>
      <trkpt lat="44.35017" lon="6.38867">
        <ele>1396.4000244141</ele>
        <time>2016-07-18T13:54:20.000Z</time>
      </trkpt>
      <trkpt lat="44.3502" lon="6.38858">
        <ele>1395.8000488281</ele>
        <time>2016-07-18T13:54:26.000Z</time>
      </trkpt>
      <trkpt lat="44.35024" lon="6.38851">
        <ele>1395.5999755859</ele>
        <time>2016-07-18T13:54:32.000Z</time>
      </trkpt>
      <trkpt lat="44.35029" lon="6.38842">
        <ele>1395.1999511719</ele>
        <time>2016-07-18T13:54:39.000Z</time>
      </trkpt>
      <trkpt lat="44.35031" lon="6.38834">
        <ele>1394.8000488281</ele>
        <time>2016-07-18T13:54:45.000Z</time>
      </trkpt>
      <trkpt lat="44.35033" lon="6.38828">
        <ele>1394.4000244141</ele>
        <time>2016-07-18T13:54:50.000Z</time>
      </trkpt>
      <trkpt lat="44.35034" lon="6.3882">
        <ele>1393.4000244141</ele>
        <time>2016-07-18T13:54:55.000Z</time>
      </trkpt>
      <trkpt lat="44.35035" lon="6.38808">
        <ele>1392.1999511719</ele>
        <time>2016-07-18T13:55:02.000Z</time>
      </trkpt>
      <trkpt lat="44.35035" lon="6.38806">
        <ele>1392.1999511719</ele>
        <time>2016-07-18T13:55:03.000Z</time>
      </trkpt>
      <trkpt lat="44.35036" lon="6.38798">
        <ele>1391.8000488281</ele>
        <time>2016-07-18T13:55:08.000Z</time>
      </trkpt>
      <trkpt lat="44.35036" lon="6.38788">
        <ele>1391.1999511719</ele>
        <time>2016-07-18T13:55:14.000Z</time>
      </trkpt>
      <trkpt lat="44.35036" lon="6.38786">
        <ele>1391</ele>
        <time>2016-07-18T13:55:15.000Z</time>
      </trkpt>
      <trkpt lat="44.35035" lon="6.38773">
        <ele>1389.8000488281</ele>
        <time>2016-07-18T13:55:22.000Z</time>
      </trkpt>
      <trkpt lat="44.35035" lon="6.38761">
        <ele>1389</ele>
        <time>2016-07-18T13:55:29.000Z</time>
      </trkpt>
      <trkpt lat="44.35035" lon="6.38752">
        <ele>1388.4000244141</ele>
        <time>2016-07-18T13:55:35.000Z</time>
      </trkpt>
      <trkpt lat="44.35034" lon="6.38736">
        <ele>1387</ele>
        <time>2016-07-18T13:55:44.000Z</time>
      </trkpt>
      <trkpt lat="44.35033" lon="6.38723">
        <ele>1386.1999511719</ele>
        <time>2016-07-18T13:55:51.000Z</time>
      </trkpt>
      <trkpt lat="44.35027" lon="6.38706">
        <ele>1384.8000488281</ele>
        <time>2016-07-18T13:56:01.000Z</time>
      </trkpt>
      <trkpt lat="44.3502" lon="6.38693">
        <ele>1383.4000244141</ele>
        <time>2016-07-18T13:56:10.000Z</time>
      </trkpt>
      <trkpt lat="44.35013" lon="6.3868">
        <ele>1382.1999511719</ele>
        <time>2016-07-18T13:56:18.000Z</time>
      </trkpt>
      <trkpt lat="44.35005" lon="6.38668">
        <ele>1380.5999755859</ele>
        <time>2016-07-18T13:56:27.000Z</time>
      </trkpt>
      <trkpt lat="44.34998" lon="6.38662">
        <ele>1379.5999755859</ele>
        <time>2016-07-18T13:56:33.000Z</time>
      </trkpt>
      <trkpt lat="44.34987" lon="6.38649">
        <ele>1377.5999755859</ele>
        <time>2016-07-18T13:56:44.000Z</time>
      </trkpt>
      <trkpt lat="44.3498" lon="6.38642">
        <ele>1376.5999755859</ele>
        <time>2016-07-18T13:56:51.000Z</time>
      </trkpt>
      <trkpt lat="44.34972" lon="6.38634">
        <ele>1375.1999511719</ele>
        <time>2016-07-18T13:56:59.000Z</time>
      </trkpt>
      <trkpt lat="44.34962" lon="6.38628">
        <ele>1373.5999755859</ele>
        <time>2016-07-18T13:57:08.000Z</time>
      </trkpt>
      <trkpt lat="44.3496" lon="6.38627">
        <ele>1373.4000244141</ele>
        <time>2016-07-18T13:57:09.000Z</time>
      </trkpt>
      <trkpt lat="44.34956" lon="6.38624">
        <ele>1372.5999755859</ele>
        <time>2016-07-18T13:57:13.000Z</time>
      </trkpt>
      <trkpt lat="44.34945" lon="6.38616">
        <ele>1371</ele>
        <time>2016-07-18T13:57:22.000Z</time>
      </trkpt>
      <trkpt lat="44.34936" lon="6.38609">
        <ele>1370</ele>
        <time>2016-07-18T13:57:30.000Z</time>
      </trkpt>
      <trkpt lat="44.34926" lon="6.38602">
        <ele>1368.8000488281</ele>
        <time>2016-07-18T13:57:39.000Z</time>
      </trkpt>
      <trkpt lat="44.34916" lon="6.38595">
        <ele>1367.5999755859</ele>
        <time>2016-07-18T13:57:48.000Z</time>
      </trkpt>
      <trkpt lat="44.34901" lon="6.38573">
        <ele>1365.8000488281</ele>
        <time>2016-07-18T13:58:05.000Z</time>
      </trkpt>
      <trkpt lat="44.34896" lon="6.3856">
        <ele>1364.8000488281</ele>
        <time>2016-07-18T13:58:14.000Z</time>
      </trkpt>
      <trkpt lat="44.3489" lon="6.3855">
        <ele>1363.5999755859</ele>
        <time>2016-07-18T13:58:22.000Z</time>
      </trkpt>
      <trkpt lat="44.34884" lon="6.3854">
        <ele>1362.4000244141</ele>
        <time>2016-07-18T13:58:30.000Z</time>
      </trkpt>
      <trkpt lat="44.34879" lon="6.38527">
        <ele>1361</ele>
        <time>2016-07-18T13:58:39.000Z</time>
      </trkpt>
      <trkpt lat="44.34873" lon="6.38515">
        <ele>1359.8000488281</ele>
        <time>2016-07-18T13:58:47.000Z</time>
      </trkpt>
      <trkpt lat="44.34868" lon="6.38502">
        <ele>1358.5999755859</ele>
        <time>2016-07-18T13:58:56.000Z</time>
      </trkpt>
      <trkpt lat="44.34863" lon="6.38493">
        <ele>1357.5999755859</ele>
        <time>2016-07-18T13:59:02.000Z</time>
      </trkpt>
      <trkpt lat="44.34862" lon="6.3848">
        <ele>1356.5999755859</ele>
        <time>2016-07-18T13:59:09.000Z</time>
      </trkpt>
      <trkpt lat="44.34862" lon="6.38477">
        <ele>1356.4000244141</ele>
        <time>2016-07-18T13:59:11.000Z</time>
      </trkpt>
      <trkpt lat="44.34862" lon="6.38474">
        <ele>1356.1999511719</ele>
        <time>2016-07-18T13:59:19.000Z</time>
      </trkpt>
      <trkpt lat="44.3486" lon="6.38462">
        <ele>1355.4000244141</ele>
        <time>2016-07-18T13:59:26.000Z</time>
      </trkpt>
      <trkpt lat="44.3486" lon="6.3846">
        <ele>1355.1999511719</ele>
        <time>2016-07-18T13:59:27.000Z</time>
      </trkpt>
      <trkpt lat="44.34861" lon="6.38457">
        <ele>1355.1999511719</ele>
        <time>2016-07-18T13:59:29.000Z</time>
      </trkpt>
      <trkpt lat="44.34863" lon="6.38448">
        <ele>1354.8000488281</ele>
        <time>2016-07-18T13:59:35.000Z</time>
      </trkpt>
      <trkpt lat="44.34863" lon="6.38446">
        <ele>1354.8000488281</ele>
        <time>2016-07-18T13:59:36.000Z</time>
      </trkpt>
      <trkpt lat="44.34865" lon="6.38441">
        <ele>1354.8000488281</ele>
        <time>2016-07-18T13:59:39.000Z</time>
      </trkpt>
      <trkpt lat="44.34872" lon="6.38428">
        <ele>1354.8000488281</ele>
        <time>2016-07-18T13:59:48.000Z</time>
      </trkpt>
      <trkpt lat="44.34873" lon="6.38426">
        <ele>1354.8000488281</ele>
        <time>2016-07-18T13:59:50.000Z</time>
      </trkpt>
      <trkpt lat="44.34872" lon="6.38425">
        <ele>1354.5999755859</ele>
        <time>2016-07-18T13:59:57.000Z</time>
      </trkpt>
      <trkpt lat="44.34873" lon="6.38422">
        <ele>1354.4000244141</ele>
        <time>2016-07-18T14:00:05.000Z</time>
      </trkpt>
      <trkpt lat="44.34874" lon="6.38417">
        <ele>1354.4000244141</ele>
        <time>2016-07-18T14:00:08.000Z</time>
      </trkpt>
      <trkpt lat="44.34877" lon="6.38414">
        <ele>1354.5999755859</ele>
        <time>2016-07-18T14:00:11.000Z</time>
      </trkpt>
      <trkpt lat="44.34883" lon="6.38401">
        <ele>1354.1999511719</ele>
        <time>2016-07-18T14:00:20.000Z</time>
      </trkpt>
      <trkpt lat="44.34884" lon="6.38399">
        <ele>1354.1999511719</ele>
        <time>2016-07-18T14:00:21.000Z</time>
      </trkpt>
      <trkpt lat="44.34887" lon="6.38396">
        <ele>1354.4000244141</ele>
        <time>2016-07-18T14:00:24.000Z</time>
      </trkpt>
      <trkpt lat="44.3489" lon="6.38393">
        <ele>1354.4000244141</ele>
        <time>2016-07-18T14:00:34.000Z</time>
      </trkpt>
      <trkpt lat="44.34891" lon="6.38394">
        <ele>1354.5999755859</ele>
        <time>2016-07-18T14:00:44.000Z</time>
      </trkpt>
      <trkpt lat="44.34892" lon="6.38393">
        <ele>1354.5999755859</ele>
        <time>2016-07-18T14:00:54.000Z</time>
      </trkpt>
      <trkpt lat="44.3489" lon="6.3839">
        <ele>1354.1999511719</ele>
        <time>2016-07-18T14:01:08.000Z</time>
      </trkpt>
      <trkpt lat="44.3489" lon="6.38389">
        <ele>1354.1999511719</ele>
        <time>2016-07-18T14:01:17.000Z</time>
      </trkpt>
      <trkpt lat="44.3489" lon="6.38391">
        <ele>1354.1999511719</ele>
        <time>2016-07-18T14:01:27.000Z</time>
      </trkpt>
      <trkpt lat="44.34891" lon="6.38387">
        <ele>1354.1999511719</ele>
        <time>2016-07-18T14:01:54.000Z</time>
      </trkpt>
      <trkpt lat="44.34893" lon="6.38387">
        <ele>1354.4000244141</ele>
        <time>2016-07-18T14:02:02.000Z</time>
      </trkpt>
      <trkpt lat="44.34893" lon="6.38386">
        <ele>1354.1999511719</ele>
        <time>2016-07-18T14:02:49.000Z</time>
      </trkpt>
      <trkpt lat="44.34894" lon="6.38385">
        <ele>1354.1999511719</ele>
        <time>2016-07-18T14:02:51.000Z</time>
      </trkpt>
      <trkpt lat="44.34898" lon="6.38372">
        <ele>1353.8000488281</ele>
        <time>2016-07-18T14:02:59.000Z</time>
      </trkpt>
      <trkpt lat="44.34902" lon="6.38363">
        <ele>1353.5999755859</ele>
        <time>2016-07-18T14:03:05.000Z</time>
      </trkpt>
      <trkpt lat="44.34906" lon="6.38351">
        <ele>1353.1999511719</ele>
        <time>2016-07-18T14:03:12.000Z</time>
      </trkpt>
      <trkpt lat="44.34909" lon="6.38339">
        <ele>1352.8000488281</ele>
        <time>2016-07-18T14:03:19.000Z</time>
      </trkpt>
      <trkpt lat="44.34911" lon="6.38327">
        <ele>1352.4000244141</ele>
        <time>2016-07-18T14:03:25.000Z</time>
      </trkpt>
      <trkpt lat="44.34917" lon="6.38308">
        <ele>1352.4000244141</ele>
        <time>2016-07-18T14:03:35.000Z</time>
      </trkpt>
      <trkpt lat="44.3492" lon="6.38293">
        <ele>1353</ele>
        <time>2016-07-18T14:03:42.000Z</time>
      </trkpt>
      <trkpt lat="44.34921" lon="6.38275">
        <ele>1352.5999755859</ele>
        <time>2016-07-18T14:03:50.000Z</time>
      </trkpt>
      <trkpt lat="44.34921" lon="6.3826">
        <ele>1352.1999511719</ele>
        <time>2016-07-18T14:03:57.000Z</time>
      </trkpt>
      <trkpt lat="44.34921" lon="6.38242">
        <ele>1351.5999755859</ele>
        <time>2016-07-18T14:04:05.000Z</time>
      </trkpt>
      <trkpt lat="44.34923" lon="6.38223">
        <ele>1351.4000244141</ele>
        <time>2016-07-18T14:04:14.000Z</time>
      </trkpt>
      <trkpt lat="44.34925" lon="6.38205">
        <ele>1351.5999755859</ele>
        <time>2016-07-18T14:04:23.000Z</time>
      </trkpt>
      <trkpt lat="44.34926" lon="6.3819">
        <ele>1351.8000488281</ele>
        <time>2016-07-18T14:04:30.000Z</time>
      </trkpt>
      <trkpt lat="44.34929" lon="6.38174">
        <ele>1351.8000488281</ele>
        <time>2016-07-18T14:04:38.000Z</time>
      </trkpt>
      <trkpt lat="44.34933" lon="6.38159">
        <ele>1352.1999511719</ele>
        <time>2016-07-18T14:04:46.000Z</time>
      </trkpt>
      <trkpt lat="44.34937" lon="6.38144">
        <ele>1352.1999511719</ele>
        <time>2016-07-18T14:04:54.000Z</time>
      </trkpt>
      <trkpt lat="44.34944" lon="6.38134">
        <ele>1353</ele>
        <time>2016-07-18T14:05:02.000Z</time>
      </trkpt>
      <trkpt lat="44.34945" lon="6.38131">
        <ele>1353.1999511719</ele>
        <time>2016-07-18T14:05:12.000Z</time>
      </trkpt>
      <trkpt lat="44.34953" lon="6.3812">
        <ele>1354</ele>
        <time>2016-07-18T14:05:19.000Z</time>
      </trkpt>
      <trkpt lat="44.34962" lon="6.38109">
        <ele>1354.8000488281</ele>
        <time>2016-07-18T14:05:27.000Z</time>
      </trkpt>
      <trkpt lat="44.34971" lon="6.38097">
        <ele>1355.5999755859</ele>
        <time>2016-07-18T14:05:35.000Z</time>
      </trkpt>
      <trkpt lat="44.34978" lon="6.38082">
        <ele>1356.1999511719</ele>
        <time>2016-07-18T14:05:44.000Z</time>
      </trkpt>
      <trkpt lat="44.34983" lon="6.3807">
        <ele>1356.5999755859</ele>
        <time>2016-07-18T14:05:51.000Z</time>
      </trkpt>
      <trkpt lat="44.34989" lon="6.38057">
        <ele>1356.8000488281</ele>
        <time>2016-07-18T14:05:59.000Z</time>
      </trkpt>
      <trkpt lat="44.34997" lon="6.38041">
        <ele>1356.5999755859</ele>
        <time>2016-07-18T14:06:09.000Z</time>
      </trkpt>
      <trkpt lat="44.35002" lon="6.38028">
        <ele>1356.1999511719</ele>
        <time>2016-07-18T14:06:17.000Z</time>
      </trkpt>
      <trkpt lat="44.35002" lon="6.38026">
        <ele>1356.1999511719</ele>
        <time>2016-07-18T14:06:18.000Z</time>
      </trkpt>
      <trkpt lat="44.35003" lon="6.38014">
        <ele>1355.8000488281</ele>
        <time>2016-07-18T14:06:26.000Z</time>
      </trkpt>
      <trkpt lat="44.35002" lon="6.3801">
        <ele>1355.5999755859</ele>
        <time>2016-07-18T14:06:29.000Z</time>
      </trkpt>
      <trkpt lat="44.35003" lon="6.38002">
        <ele>1355.4000244141</ele>
        <time>2016-07-18T14:06:34.000Z</time>
      </trkpt>
      <trkpt lat="44.35007" lon="6.37992">
        <ele>1355.1999511719</ele>
        <time>2016-07-18T14:06:41.000Z</time>
      </trkpt>
      <trkpt lat="44.35009" lon="6.37971">
        <ele>1353.8000488281</ele>
        <time>2016-07-18T14:06:51.000Z</time>
      </trkpt>
      <trkpt lat="44.35009" lon="6.37952">
        <ele>1352</ele>
        <time>2016-07-18T14:06:59.000Z</time>
      </trkpt>
      <trkpt lat="44.35012" lon="6.37937">
        <ele>1350.5999755859</ele>
        <time>2016-07-18T14:07:06.000Z</time>
      </trkpt>
      <trkpt lat="44.35015" lon="6.37918">
        <ele>1349</ele>
        <time>2016-07-18T14:07:15.000Z</time>
      </trkpt>
      <trkpt lat="44.35016" lon="6.3791">
        <ele>1348.1999511719</ele>
        <time>2016-07-18T14:07:21.000Z</time>
      </trkpt>
      <trkpt lat="44.35016" lon="6.37909">
        <ele>1348.1999511719</ele>
        <time>2016-07-18T14:07:22.000Z</time>
      </trkpt>
      <trkpt lat="44.35013" lon="6.3791">
        <ele>1348</ele>
        <time>2016-07-18T14:07:27.000Z</time>
      </trkpt>
      <trkpt lat="44.35013" lon="6.37911">
        <ele>1348.1999511719</ele>
        <time>2016-07-18T14:07:31.000Z</time>
      </trkpt>
      <trkpt lat="44.3501" lon="6.3791">
        <ele>1347.8000488281</ele>
        <time>2016-07-18T14:07:37.000Z</time>
      </trkpt>
      <trkpt lat="44.35009" lon="6.37911">
        <ele>1348</ele>
        <time>2016-07-18T14:07:43.000Z</time>
      </trkpt>
      <trkpt lat="44.35015" lon="6.37914">
        <ele>1348.5999755859</ele>
        <time>2016-07-18T14:08:26.000Z</time>
      </trkpt>
      <trkpt lat="44.35019" lon="6.3791">
        <ele>1348.4000244141</ele>
        <time>2016-07-18T14:08:36.000Z</time>
      </trkpt>
      <trkpt lat="44.35022" lon="6.37899">
        <ele>1347.5999755859</ele>
        <time>2016-07-18T14:08:42.000Z</time>
      </trkpt>
      <trkpt lat="44.35026" lon="6.37879">
        <ele>1347.1999511719</ele>
        <time>2016-07-18T14:08:52.000Z</time>
      </trkpt>
      <trkpt lat="44.35029" lon="6.37856">
        <ele>1346.8000488281</ele>
        <time>2016-07-18T14:09:03.000Z</time>
      </trkpt>
      <trkpt lat="44.35029" lon="6.37839">
        <ele>1346.4000244141</ele>
        <time>2016-07-18T14:09:11.000Z</time>
      </trkpt>
      <trkpt lat="44.35031" lon="6.37823">
        <ele>1346.1999511719</ele>
        <time>2016-07-18T14:09:19.000Z</time>
      </trkpt>
      <trkpt lat="44.35036" lon="6.3781">
        <ele>1346.4000244141</ele>
        <time>2016-07-18T14:09:26.000Z</time>
      </trkpt>
      <trkpt lat="44.35039" lon="6.37795">
        <ele>1346.4000244141</ele>
        <time>2016-07-18T14:09:33.000Z</time>
      </trkpt>
      <trkpt lat="44.35041" lon="6.3778">
        <ele>1346.5999755859</ele>
        <time>2016-07-18T14:09:40.000Z</time>
      </trkpt>
      <trkpt lat="44.35045" lon="6.37761">
        <ele>1346.8000488281</ele>
        <time>2016-07-18T14:09:49.000Z</time>
      </trkpt>
      <trkpt lat="44.35047" lon="6.37741">
        <ele>1346.8000488281</ele>
        <time>2016-07-18T14:09:59.000Z</time>
      </trkpt>
      <trkpt lat="44.35049" lon="6.37724">
        <ele>1346.5999755859</ele>
        <time>2016-07-18T14:10:07.000Z</time>
      </trkpt>
      <trkpt lat="44.35052" lon="6.37707">
        <ele>1346.8000488281</ele>
        <time>2016-07-18T14:10:15.000Z</time>
      </trkpt>
      <trkpt lat="44.35054" lon="6.37694">
        <ele>1346.8000488281</ele>
        <time>2016-07-18T14:10:21.000Z</time>
      </trkpt>
      <trkpt lat="44.35056" lon="6.37674">
        <ele>1347</ele>
        <time>2016-07-18T14:10:30.000Z</time>
      </trkpt>
      <trkpt lat="44.35059" lon="6.37645">
        <ele>1347</ele>
        <time>2016-07-18T14:10:43.000Z</time>
      </trkpt>
      <trkpt lat="44.35062" lon="6.3762">
        <ele>1346.8000488281</ele>
        <time>2016-07-18T14:10:54.000Z</time>
      </trkpt>
      <trkpt lat="44.35067" lon="6.37599">
        <ele>1346.5999755859</ele>
        <time>2016-07-18T14:11:04.000Z</time>
      </trkpt>
      <trkpt lat="44.35072" lon="6.37584">
        <ele>1346.1999511719</ele>
        <time>2016-07-18T14:11:12.000Z</time>
      </trkpt>
      <trkpt lat="44.35081" lon="6.37574">
        <ele>1346</ele>
        <time>2016-07-18T14:11:19.000Z</time>
      </trkpt>
      <trkpt lat="44.35094" lon="6.37564">
        <ele>1345.8000488281</ele>
        <time>2016-07-18T14:11:29.000Z</time>
      </trkpt>
      <trkpt lat="44.35104" lon="6.37554">
        <ele>1345.5999755859</ele>
        <time>2016-07-18T14:11:45.000Z</time>
      </trkpt>
      <trkpt lat="44.35101" lon="6.37555">
        <ele>1345.5999755859</ele>
        <time>2016-07-18T14:11:52.000Z</time>
      </trkpt>
      <trkpt lat="44.351" lon="6.37556">
        <ele>1345.5999755859</ele>
        <time>2016-07-18T14:12:52.000Z</time>
      </trkpt>
      <trkpt lat="44.351" lon="6.37557">
        <ele>1345.5999755859</ele>
        <time>2016-07-18T14:12:55.000Z</time>
      </trkpt>
      <trkpt lat="44.35101" lon="6.37555">
        <ele>1345.5999755859</ele>
        <time>2016-07-18T14:13:00.000Z</time>
      </trkpt>
      <trkpt lat="44.35101" lon="6.3755">
        <ele>1345.4000244141</ele>
        <time>2016-07-18T14:13:18.000Z</time>
      </trkpt>
      <trkpt lat="44.35101" lon="6.37553">
        <ele>1345.5999755859</ele>
        <time>2016-07-18T14:13:23.000Z</time>
      </trkpt>
      <trkpt lat="44.35101" lon="6.37554">
        <ele>1345.5999755859</ele>
        <time>2016-07-18T14:13:27.000Z</time>
      </trkpt>
      <trkpt lat="44.35101" lon="6.37552">
        <ele>1345.5999755859</ele>
        <time>2016-07-18T14:13:40.000Z</time>
      </trkpt>
      <trkpt lat="44.35101" lon="6.37547">
        <ele>1345.1999511719</ele>
        <time>2016-07-18T14:13:45.000Z</time>
      </trkpt>
      <trkpt lat="44.35101" lon="6.37545">
        <ele>1345.1999511719</ele>
        <time>2016-07-18T14:13:46.000Z</time>
      </trkpt>
      <trkpt lat="44.35101" lon="6.37535">
        <ele>1344.8000488281</ele>
        <time>2016-07-18T14:13:52.000Z</time>
      </trkpt>
      <trkpt lat="44.35101" lon="6.37533">
        <ele>1344.5999755859</ele>
        <time>2016-07-18T14:13:53.000Z</time>
      </trkpt>
      <trkpt lat="44.35104" lon="6.37525">
        <ele>1344.1999511719</ele>
        <time>2016-07-18T14:14:00.000Z</time>
      </trkpt>
      <trkpt lat="44.35104" lon="6.37523">
        <ele>1344.1999511719</ele>
        <time>2016-07-18T14:14:01.000Z</time>
      </trkpt>
      <trkpt lat="44.35105" lon="6.37518">
        <ele>1343.8000488281</ele>
        <time>2016-07-18T14:14:05.000Z</time>
      </trkpt>
      <trkpt lat="44.35104" lon="6.3751">
        <ele>1343.5999755859</ele>
        <time>2016-07-18T14:14:10.000Z</time>
      </trkpt>
      <trkpt lat="44.35104" lon="6.37509">
        <ele>1343.4000244141</ele>
        <time>2016-07-18T14:14:11.000Z</time>
      </trkpt>
      <trkpt lat="44.35102" lon="6.37501">
        <ele>1343</ele>
        <time>2016-07-18T14:14:16.000Z</time>
      </trkpt>
      <trkpt lat="44.35103" lon="6.37494">
        <ele>1342.8000488281</ele>
        <time>2016-07-18T14:14:21.000Z</time>
      </trkpt>
      <trkpt lat="44.35103" lon="6.37489">
        <ele>1342.5999755859</ele>
        <time>2016-07-18T14:14:25.000Z</time>
      </trkpt>
      <trkpt lat="44.35102" lon="6.37482">
        <ele>1342.1999511719</ele>
        <time>2016-07-18T14:14:29.000Z</time>
      </trkpt>
      <trkpt lat="44.35102" lon="6.37479">
        <ele>1342</ele>
        <time>2016-07-18T14:14:31.000Z</time>
      </trkpt>
      <trkpt lat="44.35102" lon="6.37473">
        <ele>1341.8000488281</ele>
        <time>2016-07-18T14:14:35.000Z</time>
      </trkpt>
      <trkpt lat="44.35103" lon="6.37464">
        <ele>1341.1999511719</ele>
        <time>2016-07-18T14:14:41.000Z</time>
      </trkpt>
      <trkpt lat="44.35103" lon="6.37462">
        <ele>1341.1999511719</ele>
        <time>2016-07-18T14:14:48.000Z</time>
      </trkpt>
      <trkpt lat="44.35103" lon="6.37459">
        <ele>1340.8000488281</ele>
        <time>2016-07-18T14:14:59.000Z</time>
      </trkpt>
      <trkpt lat="44.35103" lon="6.37456">
        <ele>1340.5999755859</ele>
        <time>2016-07-18T14:15:09.000Z</time>
      </trkpt>
      <trkpt lat="44.35103" lon="6.37454">
        <ele>1340.5999755859</ele>
        <time>2016-07-18T14:15:24.000Z</time>
      </trkpt>
      <trkpt lat="44.35102" lon="6.3745">
        <ele>1340.4000244141</ele>
        <time>2016-07-18T14:16:01.000Z</time>
      </trkpt>
      <trkpt lat="44.35103" lon="6.37452">
        <ele>1340.4000244141</ele>
        <time>2016-07-18T14:16:41.000Z</time>
      </trkpt>
      <trkpt lat="44.35103" lon="6.37453">
        <ele>1340.5999755859</ele>
        <time>2016-07-18T14:16:59.000Z</time>
      </trkpt>
      <trkpt lat="44.35102" lon="6.37454">
        <ele>1340.5999755859</ele>
        <time>2016-07-18T14:17:51.000Z</time>
      </trkpt>
      <trkpt lat="44.35101" lon="6.3745">
        <ele>1340.4000244141</ele>
        <time>2016-07-18T14:19:05.000Z</time>
      </trkpt>
      <trkpt lat="44.35103" lon="6.37452">
        <ele>1340.4000244141</ele>
        <time>2016-07-18T14:19:50.000Z</time>
      </trkpt>
      <trkpt lat="44.35104" lon="6.37455">
        <ele>1340.5999755859</ele>
        <time>2016-07-18T14:20:28.000Z</time>
      </trkpt>
      <trkpt lat="44.35103" lon="6.37454">
        <ele>1340.5999755859</ele>
        <time>2016-07-18T14:20:33.000Z</time>
      </trkpt>
      <trkpt lat="44.35104" lon="6.37455">
        <ele>1340.5999755859</ele>
        <time>2016-07-18T14:21:33.000Z</time>
      </trkpt>
      <trkpt lat="44.35103" lon="6.37451">
        <ele>1340.4000244141</ele>
        <time>2016-07-18T14:22:11.000Z</time>
      </trkpt>
      <trkpt lat="44.35102" lon="6.37453">
        <ele>1340.5999755859</ele>
        <time>2016-07-18T14:23:12.000Z</time>
      </trkpt>
      <trkpt lat="44.35103" lon="6.37454">
        <ele>1340.5999755859</ele>
        <time>2016-07-18T14:23:17.000Z</time>
      </trkpt>
      <trkpt lat="44.35102" lon="6.37454">
        <ele>1340.5999755859</ele>
        <time>2016-07-18T14:23:22.000Z</time>
      </trkpt>
      <trkpt lat="44.35103" lon="6.37453">
        <ele>1340.5999755859</ele>
        <time>2016-07-18T14:23:31.000Z</time>
      </trkpt>
      <trkpt lat="44.35102" lon="6.37453">
        <ele>1340.5999755859</ele>
        <time>2016-07-18T14:23:39.000Z</time>
      </trkpt>
      <trkpt lat="44.35104" lon="6.37456">
        <ele>1340.5999755859</ele>
        <time>2016-07-18T14:23:45.000Z</time>
      </trkpt>
      <trkpt lat="44.35104" lon="6.37457">
        <ele>1340.8000488281</ele>
        <time>2016-07-18T14:23:52.000Z</time>
      </trkpt>
      <trkpt lat="44.35104" lon="6.37458">
        <ele>1340.8000488281</ele>
        <time>2016-07-18T14:23:56.000Z</time>
      </trkpt>
      <trkpt lat="44.35103" lon="6.37459">
        <ele>1341</ele>
        <time>2016-07-18T14:24:02.000Z</time>
      </trkpt>
      <trkpt lat="44.35103" lon="6.37454">
        <ele>1340.5999755859</ele>
        <time>2016-07-18T14:24:23.000Z</time>
      </trkpt>
      <trkpt lat="44.35104" lon="6.37448">
        <ele>1340</ele>
        <time>2016-07-18T14:24:28.000Z</time>
      </trkpt>
      <trkpt lat="44.35105" lon="6.37442">
        <ele>1339.5999755859</ele>
        <time>2016-07-18T14:24:33.000Z</time>
      </trkpt>
      <trkpt lat="44.35105" lon="6.37441">
        <ele>1339.5999755859</ele>
        <time>2016-07-18T14:24:34.000Z</time>
      </trkpt>
      <trkpt lat="44.35107" lon="6.3743">
        <ele>1338.5999755859</ele>
        <time>2016-07-18T14:24:41.000Z</time>
      </trkpt>
      <trkpt lat="44.35107" lon="6.37429">
        <ele>1338.5999755859</ele>
        <time>2016-07-18T14:24:42.000Z</time>
      </trkpt>
      <trkpt lat="44.3511" lon="6.37424">
        <ele>1338</ele>
        <time>2016-07-18T14:24:46.000Z</time>
      </trkpt>
      <trkpt lat="44.35114" lon="6.37413">
        <ele>1337</ele>
        <time>2016-07-18T14:24:54.000Z</time>
      </trkpt>
      <trkpt lat="44.35113" lon="6.37412">
        <ele>1337</ele>
        <time>2016-07-18T14:24:55.000Z</time>
      </trkpt>
      <trkpt lat="44.35114" lon="6.37407">
        <ele>1336.5999755859</ele>
        <time>2016-07-18T14:24:58.000Z</time>
      </trkpt>
      <trkpt lat="44.35117" lon="6.37398">
        <ele>1336</ele>
        <time>2016-07-18T14:25:04.000Z</time>
      </trkpt>
      <trkpt lat="44.35117" lon="6.37397">
        <ele>1336</ele>
        <time>2016-07-18T14:25:05.000Z</time>
      </trkpt>
      <trkpt lat="44.35121" lon="6.3739">
        <ele>1335.5999755859</ele>
        <time>2016-07-18T14:25:15.000Z</time>
      </trkpt>
      <trkpt lat="44.35122" lon="6.37387">
        <ele>1335.5999755859</ele>
        <time>2016-07-18T14:25:17.000Z</time>
      </trkpt>
      <trkpt lat="44.35125" lon="6.37376">
        <ele>1335</ele>
        <time>2016-07-18T14:25:24.000Z</time>
      </trkpt>
      <trkpt lat="44.35126" lon="6.3737">
        <ele>1334.8000488281</ele>
        <time>2016-07-18T14:25:28.000Z</time>
      </trkpt>
      <trkpt lat="44.35126" lon="6.37361">
        <ele>1334.4000244141</ele>
        <time>2016-07-18T14:25:34.000Z</time>
      </trkpt>
      <trkpt lat="44.35126" lon="6.37359">
        <ele>1334.1999511719</ele>
        <time>2016-07-18T14:25:35.000Z</time>
      </trkpt>
      <trkpt lat="44.35125" lon="6.3735">
        <ele>1333.8000488281</ele>
        <time>2016-07-18T14:25:41.000Z</time>
      </trkpt>
      <trkpt lat="44.35123" lon="6.3734">
        <ele>1333.4000244141</ele>
        <time>2016-07-18T14:25:47.000Z</time>
      </trkpt>
      <trkpt lat="44.35123" lon="6.37336">
        <ele>1333.1999511719</ele>
        <time>2016-07-18T14:25:49.000Z</time>
      </trkpt>
      <trkpt lat="44.35122" lon="6.37327">
        <ele>1332.8000488281</ele>
        <time>2016-07-18T14:25:54.000Z</time>
      </trkpt>
      <trkpt lat="44.35122" lon="6.37321">
        <ele>1332.4000244141</ele>
        <time>2016-07-18T14:25:57.000Z</time>
      </trkpt>
      <trkpt lat="44.35123" lon="6.37318">
        <ele>1332</ele>
        <time>2016-07-18T14:25:59.000Z</time>
      </trkpt>
      <trkpt lat="44.35125" lon="6.37312">
        <ele>1331.8000488281</ele>
        <time>2016-07-18T14:26:04.000Z</time>
      </trkpt>
      <trkpt lat="44.35129" lon="6.37291">
        <ele>1331.4000244141</ele>
        <time>2016-07-18T14:26:17.000Z</time>
      </trkpt>
      <trkpt lat="44.3513" lon="6.37287">
        <ele>1331.1999511719</ele>
        <time>2016-07-18T14:26:19.000Z</time>
      </trkpt>
      <trkpt lat="44.35132" lon="6.37279">
        <ele>1331.1999511719</ele>
        <time>2016-07-18T14:26:25.000Z</time>
      </trkpt>
      <trkpt lat="44.35133" lon="6.3727">
        <ele>1331</ele>
        <time>2016-07-18T14:26:30.000Z</time>
      </trkpt>
      <trkpt lat="44.35133" lon="6.37268">
        <ele>1331</ele>
        <time>2016-07-18T14:26:31.000Z</time>
      </trkpt>
      <trkpt lat="44.35133" lon="6.37264">
        <ele>1331</ele>
        <time>2016-07-18T14:26:33.000Z</time>
      </trkpt>
      <trkpt lat="44.35135" lon="6.37256">
        <ele>1330.8000488281</ele>
        <time>2016-07-18T14:26:37.000Z</time>
      </trkpt>
      <trkpt lat="44.35135" lon="6.37255">
        <ele>1330.8000488281</ele>
        <time>2016-07-18T14:26:38.000Z</time>
      </trkpt>
      <trkpt lat="44.35136" lon="6.37254">
        <ele>1330.8000488281</ele>
        <time>2016-07-18T14:26:39.000Z</time>
      </trkpt>
      <trkpt lat="44.3514" lon="6.37243">
        <ele>1329</ele>
        <time>2016-07-18T14:26:47.000Z</time>
      </trkpt>
      <trkpt lat="44.35143" lon="6.37234">
        <ele>1327.5999755859</ele>
        <time>2016-07-18T14:26:52.000Z</time>
      </trkpt>
      <trkpt lat="44.35145" lon="6.3723">
        <ele>1327</ele>
        <time>2016-07-18T14:26:55.000Z</time>
      </trkpt>
      <trkpt lat="44.35146" lon="6.37228">
        <ele>1326.8000488281</ele>
        <time>2016-07-18T14:26:57.000Z</time>
      </trkpt>
      <trkpt lat="44.35145" lon="6.37226">
        <ele>1327</ele>
        <time>2016-07-18T14:27:02.000Z</time>
      </trkpt>
      <trkpt lat="44.35145" lon="6.37222">
        <ele>1326.8000488281</ele>
        <time>2016-07-18T14:27:09.000Z</time>
      </trkpt>
      <trkpt lat="44.35144" lon="6.37216">
        <ele>1327</ele>
        <time>2016-07-18T14:27:28.000Z</time>
      </trkpt>
      <trkpt lat="44.35143" lon="6.37215">
        <ele>1327</ele>
        <time>2016-07-18T14:27:42.000Z</time>
      </trkpt>
      <trkpt lat="44.35144" lon="6.37215">
        <ele>1327</ele>
        <time>2016-07-18T14:27:50.000Z</time>
      </trkpt>
      <trkpt lat="44.35144" lon="6.37213">
        <ele>1326.8000488281</ele>
        <time>2016-07-18T14:28:15.000Z</time>
      </trkpt>
      <trkpt lat="44.35145" lon="6.37209">
        <ele>1326.5999755859</ele>
        <time>2016-07-18T14:29:13.000Z</time>
      </trkpt>
      <trkpt lat="44.35145" lon="6.37208">
        <ele>1326.5999755859</ele>
        <time>2016-07-18T14:29:36.000Z</time>
      </trkpt>
      <trkpt lat="44.35143" lon="6.372">
        <ele>1326.8000488281</ele>
        <time>2016-07-18T14:31:01.000Z</time>
      </trkpt>
      <trkpt lat="44.35144" lon="6.37205">
        <ele>1326.8000488281</ele>
        <time>2016-07-18T14:31:07.000Z</time>
      </trkpt>
      <trkpt lat="44.35144" lon="6.37206">
        <ele>1326.8000488281</ele>
        <time>2016-07-18T14:31:13.000Z</time>
      </trkpt>
      <trkpt lat="44.35145" lon="6.37208">
        <ele>1326.5999755859</ele>
        <time>2016-07-18T14:31:32.000Z</time>
      </trkpt>
      <trkpt lat="44.35146" lon="6.37203">
        <ele>1326.4000244141</ele>
        <time>2016-07-18T14:31:50.000Z</time>
      </trkpt>
      <trkpt lat="44.35147" lon="6.37201">
        <ele>1326.1999511719</ele>
        <time>2016-07-18T14:31:52.000Z</time>
      </trkpt>
      <trkpt lat="44.35151" lon="6.37195">
        <ele>1325.8000488281</ele>
        <time>2016-07-18T14:31:57.000Z</time>
      </trkpt>
      <trkpt lat="44.35153" lon="6.37191">
        <ele>1325.4000244141</ele>
        <time>2016-07-18T14:32:00.000Z</time>
      </trkpt>
      <trkpt lat="44.35157" lon="6.37183">
        <ele>1324.5999755859</ele>
        <time>2016-07-18T14:32:06.000Z</time>
      </trkpt>
      <trkpt lat="44.35158" lon="6.37181">
        <ele>1324.4000244141</ele>
        <time>2016-07-18T14:32:07.000Z</time>
      </trkpt>
      <trkpt lat="44.35158" lon="6.37178">
        <ele>1324.1999511719</ele>
        <time>2016-07-18T14:32:09.000Z</time>
      </trkpt>
      <trkpt lat="44.3516" lon="6.37169">
        <ele>1323.5999755859</ele>
        <time>2016-07-18T14:32:14.000Z</time>
      </trkpt>
      <trkpt lat="44.35163" lon="6.37161">
        <ele>1323</ele>
        <time>2016-07-18T14:32:19.000Z</time>
      </trkpt>
      <trkpt lat="44.35166" lon="6.37153">
        <ele>1322.1999511719</ele>
        <time>2016-07-18T14:32:25.000Z</time>
      </trkpt>
      <trkpt lat="44.35166" lon="6.37151">
        <ele>1322</ele>
        <time>2016-07-18T14:32:26.000Z</time>
      </trkpt>
      <trkpt lat="44.35166" lon="6.3715">
        <ele>1322</ele>
        <time>2016-07-18T14:32:27.000Z</time>
      </trkpt>
      <trkpt lat="44.35168" lon="6.37145">
        <ele>1321.4000244141</ele>
        <time>2016-07-18T14:32:30.000Z</time>
      </trkpt>
      <trkpt lat="44.35169" lon="6.37141">
        <ele>1321.1999511719</ele>
        <time>2016-07-18T14:32:36.000Z</time>
      </trkpt>
      <trkpt lat="44.35171" lon="6.37139">
        <ele>1320.8000488281</ele>
        <time>2016-07-18T14:32:40.000Z</time>
      </trkpt>
      <trkpt lat="44.35175" lon="6.37136">
        <ele>1320.1999511719</ele>
        <time>2016-07-18T14:32:51.000Z</time>
      </trkpt>
      <trkpt lat="44.35177" lon="6.37134">
        <ele>1319.5999755859</ele>
        <time>2016-07-18T14:33:01.000Z</time>
      </trkpt>
      <trkpt lat="44.35178" lon="6.37132">
        <ele>1319.5999755859</ele>
        <time>2016-07-18T14:33:05.000Z</time>
      </trkpt>
      <trkpt lat="44.3518" lon="6.37124">
        <ele>1318.8000488281</ele>
        <time>2016-07-18T14:33:10.000Z</time>
      </trkpt>
      <trkpt lat="44.35181" lon="6.37121">
        <ele>1318.5999755859</ele>
        <time>2016-07-18T14:33:12.000Z</time>
      </trkpt>
      <trkpt lat="44.35183" lon="6.37111">
        <ele>1318</ele>
        <time>2016-07-18T14:33:18.000Z</time>
      </trkpt>
      <trkpt lat="44.35184" lon="6.37104">
        <ele>1317.5999755859</ele>
        <time>2016-07-18T14:33:23.000Z</time>
      </trkpt>
      <trkpt lat="44.35184" lon="6.37102">
        <ele>1317.5999755859</ele>
        <time>2016-07-18T14:33:24.000Z</time>
      </trkpt>
      <trkpt lat="44.35184" lon="6.37101">
        <ele>1317.4000244141</ele>
        <time>2016-07-18T14:33:25.000Z</time>
      </trkpt>
      <trkpt lat="44.35182" lon="6.37097">
        <ele>1317.5999755859</ele>
        <time>2016-07-18T14:33:36.000Z</time>
      </trkpt>
      <trkpt lat="44.35182" lon="6.37096">
        <ele>1317.5999755859</ele>
        <time>2016-07-18T14:33:40.000Z</time>
      </trkpt>
      <trkpt lat="44.35181" lon="6.37096">
        <ele>1317.5999755859</ele>
        <time>2016-07-18T14:33:48.000Z</time>
      </trkpt>
      <trkpt lat="44.35181" lon="6.37094">
        <ele>1317.8000488281</ele>
        <time>2016-07-18T14:34:01.000Z</time>
      </trkpt>
      <trkpt lat="44.35177" lon="6.37087">
        <ele>1318</ele>
        <time>2016-07-18T14:35:11.000Z</time>
      </trkpt>
      <trkpt lat="44.35178" lon="6.37087">
        <ele>1317.8000488281</ele>
        <time>2016-07-18T14:35:20.000Z</time>
      </trkpt>
      <trkpt lat="44.35178" lon="6.37088">
        <ele>1317.8000488281</ele>
        <time>2016-07-18T14:35:29.000Z</time>
      </trkpt>
      <trkpt lat="44.35178" lon="6.37089">
        <ele>1318</ele>
        <time>2016-07-18T14:35:31.000Z</time>
      </trkpt>
      <trkpt lat="44.35178" lon="6.37085">
        <ele>1317.8000488281</ele>
        <time>2016-07-18T14:35:36.000Z</time>
      </trkpt>
      <trkpt lat="44.35179" lon="6.37088">
        <ele>1317.8000488281</ele>
        <time>2016-07-18T14:35:42.000Z</time>
      </trkpt>
      <trkpt lat="44.3518" lon="6.37093">
        <ele>1317.8000488281</ele>
        <time>2016-07-18T14:36:17.000Z</time>
      </trkpt>
      <trkpt lat="44.35182" lon="6.37091">
        <ele>1317.4000244141</ele>
        <time>2016-07-18T14:36:50.000Z</time>
      </trkpt>
      <trkpt lat="44.35183" lon="6.3709">
        <ele>1317.1999511719</ele>
        <time>2016-07-18T14:36:54.000Z</time>
      </trkpt>
      <trkpt lat="44.35182" lon="6.37088">
        <ele>1317.1999511719</ele>
        <time>2016-07-18T14:36:55.000Z</time>
      </trkpt>
      <trkpt lat="44.35183" lon="6.37084">
        <ele>1317</ele>
        <time>2016-07-18T14:36:59.000Z</time>
      </trkpt>
      <trkpt lat="44.35186" lon="6.37078">
        <ele>1316.4000244141</ele>
        <time>2016-07-18T14:37:03.000Z</time>
      </trkpt>
      <trkpt lat="44.35187" lon="6.37073">
        <ele>1316</ele>
        <time>2016-07-18T14:37:06.000Z</time>
      </trkpt>
      <trkpt lat="44.35189" lon="6.37068">
        <ele>1315.5999755859</ele>
        <time>2016-07-18T14:37:09.000Z</time>
      </trkpt>
      <trkpt lat="44.35189" lon="6.37056">
        <ele>1314.4000244141</ele>
        <time>2016-07-18T14:37:16.000Z</time>
      </trkpt>
      <trkpt lat="44.3519" lon="6.37056">
        <ele>1314.4000244141</ele>
        <time>2016-07-18T14:37:17.000Z</time>
      </trkpt>
      <trkpt lat="44.35191" lon="6.37056">
        <ele>1314.1999511719</ele>
        <time>2016-07-18T14:37:19.000Z</time>
      </trkpt>
      <trkpt lat="44.35193" lon="6.3705">
        <ele>1313.5999755859</ele>
        <time>2016-07-18T14:37:24.000Z</time>
      </trkpt>
      <trkpt lat="44.35195" lon="6.3705">
        <ele>1313.4000244141</ele>
        <time>2016-07-18T14:37:26.000Z</time>
      </trkpt>
      <trkpt lat="44.35196" lon="6.37049">
        <ele>1313.1999511719</ele>
        <time>2016-07-18T14:37:28.000Z</time>
      </trkpt>
      <trkpt lat="44.35195" lon="6.37042">
        <ele>1313</ele>
        <time>2016-07-18T14:37:32.000Z</time>
      </trkpt>
      <trkpt lat="44.35192" lon="6.37036">
        <ele>1312.8000488281</ele>
        <time>2016-07-18T14:37:36.000Z</time>
      </trkpt>
      <trkpt lat="44.35195" lon="6.37032">
        <ele>1312.4000244141</ele>
        <time>2016-07-18T14:37:40.000Z</time>
      </trkpt>
      <trkpt lat="44.35195" lon="6.37029">
        <ele>1312</ele>
        <time>2016-07-18T14:37:42.000Z</time>
      </trkpt>
      <trkpt lat="44.35196" lon="6.37026">
        <ele>1311.8000488281</ele>
        <time>2016-07-18T14:37:44.000Z</time>
      </trkpt>
      <trkpt lat="44.35197" lon="6.37019">
        <ele>1311.4000244141</ele>
        <time>2016-07-18T14:37:48.000Z</time>
      </trkpt>
      <trkpt lat="44.35197" lon="6.37017">
        <ele>1311.1999511719</ele>
        <time>2016-07-18T14:37:49.000Z</time>
      </trkpt>
      <trkpt lat="44.35197" lon="6.37009">
        <ele>1310.8000488281</ele>
        <time>2016-07-18T14:37:55.000Z</time>
      </trkpt>
      <trkpt lat="44.35197" lon="6.37002">
        <ele>1310.1999511719</ele>
        <time>2016-07-18T14:37:59.000Z</time>
      </trkpt>
      <trkpt lat="44.35198" lon="6.36992">
        <ele>1309.5999755859</ele>
        <time>2016-07-18T14:38:05.000Z</time>
      </trkpt>
      <trkpt lat="44.35196" lon="6.36983">
        <ele>1309.1999511719</ele>
        <time>2016-07-18T14:38:10.000Z</time>
      </trkpt>
      <trkpt lat="44.35196" lon="6.36981">
        <ele>1309.1999511719</ele>
        <time>2016-07-18T14:38:12.000Z</time>
      </trkpt>
      <trkpt lat="44.35195" lon="6.36971">
        <ele>1308.1999511719</ele>
        <time>2016-07-18T14:38:16.000Z</time>
      </trkpt>
      <trkpt lat="44.35195" lon="6.36969">
        <ele>1308.1999511719</ele>
        <time>2016-07-18T14:38:17.000Z</time>
      </trkpt>
      <trkpt lat="44.35195" lon="6.36966">
        <ele>1307.8000488281</ele>
        <time>2016-07-18T14:38:19.000Z</time>
      </trkpt>
      <trkpt lat="44.35192" lon="6.36956">
        <ele>1307.1999511719</ele>
        <time>2016-07-18T14:38:24.000Z</time>
      </trkpt>
      <trkpt lat="44.35192" lon="6.36954">
        <ele>1307</ele>
        <time>2016-07-18T14:38:25.000Z</time>
      </trkpt>
      <trkpt lat="44.35192" lon="6.36951">
        <ele>1306.8000488281</ele>
        <time>2016-07-18T14:38:27.000Z</time>
      </trkpt>
      <trkpt lat="44.35192" lon="6.36947">
        <ele>1306.1999511719</ele>
        <time>2016-07-18T14:38:30.000Z</time>
      </trkpt>
      <trkpt lat="44.35192" lon="6.36937">
        <ele>1305.4000244141</ele>
        <time>2016-07-18T14:38:36.000Z</time>
      </trkpt>
      <trkpt lat="44.35192" lon="6.36923">
        <ele>1304</ele>
        <time>2016-07-18T14:38:45.000Z</time>
      </trkpt>
      <trkpt lat="44.35191" lon="6.36915">
        <ele>1303.4000244141</ele>
        <time>2016-07-18T14:38:51.000Z</time>
      </trkpt>
      <trkpt lat="44.35192" lon="6.36914">
        <ele>1303.1999511719</ele>
        <time>2016-07-18T14:38:53.000Z</time>
      </trkpt>
      <trkpt lat="44.35192" lon="6.36912">
        <ele>1303</ele>
        <time>2016-07-18T14:38:55.000Z</time>
      </trkpt>
      <trkpt lat="44.35189" lon="6.36901">
        <ele>1302.4000244141</ele>
        <time>2016-07-18T14:39:01.000Z</time>
      </trkpt>
      <trkpt lat="44.35187" lon="6.36894">
        <ele>1302</ele>
        <time>2016-07-18T14:39:05.000Z</time>
      </trkpt>
      <trkpt lat="44.35185" lon="6.36887">
        <ele>1301.8000488281</ele>
        <time>2016-07-18T14:39:10.000Z</time>
      </trkpt>
      <trkpt lat="44.35184" lon="6.36879">
        <ele>1301.4000244141</ele>
        <time>2016-07-18T14:39:15.000Z</time>
      </trkpt>
      <trkpt lat="44.35183" lon="6.36877">
        <ele>1301.1999511719</ele>
        <time>2016-07-18T14:39:17.000Z</time>
      </trkpt>
      <trkpt lat="44.35182" lon="6.36873">
        <ele>1301</ele>
        <time>2016-07-18T14:39:19.000Z</time>
      </trkpt>
      <trkpt lat="44.35182" lon="6.36861">
        <ele>1300.1999511719</ele>
        <time>2016-07-18T14:39:25.000Z</time>
      </trkpt>
      <trkpt lat="44.3518" lon="6.36855">
        <ele>1300</ele>
        <time>2016-07-18T14:39:28.000Z</time>
      </trkpt>
      <trkpt lat="44.3518" lon="6.36849">
        <ele>1299.4000244141</ele>
        <time>2016-07-18T14:39:31.000Z</time>
      </trkpt>
      <trkpt lat="44.35181" lon="6.36841">
        <ele>1298.5999755859</ele>
        <time>2016-07-18T14:39:36.000Z</time>
      </trkpt>
      <trkpt lat="44.35181" lon="6.3684">
        <ele>1298.4000244141</ele>
        <time>2016-07-18T14:39:37.000Z</time>
      </trkpt>
      <trkpt lat="44.35181" lon="6.36836">
        <ele>1298.1999511719</ele>
        <time>2016-07-18T14:39:40.000Z</time>
      </trkpt>
      <trkpt lat="44.35179" lon="6.36829">
        <ele>1297.8000488281</ele>
        <time>2016-07-18T14:39:43.000Z</time>
      </trkpt>
      <trkpt lat="44.35177" lon="6.36817">
        <ele>1297.1999511719</ele>
        <time>2016-07-18T14:39:49.000Z</time>
      </trkpt>
      <trkpt lat="44.35176" lon="6.36815">
        <ele>1297.1999511719</ele>
        <time>2016-07-18T14:39:50.000Z</time>
      </trkpt>
      <trkpt lat="44.35173" lon="6.36807">
        <ele>1297.1999511719</ele>
        <time>2016-07-18T14:39:55.000Z</time>
      </trkpt>
      <trkpt lat="44.35169" lon="6.36795">
        <ele>1297.4000244141</ele>
        <time>2016-07-18T14:40:01.000Z</time>
      </trkpt>
      <trkpt lat="44.35167" lon="6.36786">
        <ele>1297.4000244141</ele>
        <time>2016-07-18T14:40:06.000Z</time>
      </trkpt>
      <trkpt lat="44.35167" lon="6.36782">
        <ele>1297.1999511719</ele>
        <time>2016-07-18T14:40:09.000Z</time>
      </trkpt>
      <trkpt lat="44.35167" lon="6.36773">
        <ele>1295.8000488281</ele>
        <time>2016-07-18T14:40:15.000Z</time>
      </trkpt>
      <trkpt lat="44.35164" lon="6.3677">
        <ele>1296.1999511719</ele>
        <time>2016-07-18T14:40:26.000Z</time>
      </trkpt>
      <trkpt lat="44.35166" lon="6.36768">
        <ele>1295.5999755859</ele>
        <time>2016-07-18T14:40:31.000Z</time>
      </trkpt>
      <trkpt lat="44.35165" lon="6.36763">
        <ele>1295</ele>
        <time>2016-07-18T14:40:40.000Z</time>
      </trkpt>
      <trkpt lat="44.35165" lon="6.36758">
        <ele>1294.4000244141</ele>
        <time>2016-07-18T14:40:52.000Z</time>
      </trkpt>
      <trkpt lat="44.35165" lon="6.36756">
        <ele>1294.1999511719</ele>
        <time>2016-07-18T14:41:41.000Z</time>
      </trkpt>
      <trkpt lat="44.35166" lon="6.36758">
        <ele>1294.1999511719</ele>
        <time>2016-07-18T14:41:47.000Z</time>
      </trkpt>
      <trkpt lat="44.35166" lon="6.36756">
        <ele>1293.8000488281</ele>
        <time>2016-07-18T14:41:59.000Z</time>
      </trkpt>
      <trkpt lat="44.35164" lon="6.36751">
        <ele>1293.5999755859</ele>
        <time>2016-07-18T14:42:50.000Z</time>
      </trkpt>
      <trkpt lat="44.35166" lon="6.36751">
        <ele>1293.4000244141</ele>
        <time>2016-07-18T14:42:56.000Z</time>
      </trkpt>
      <trkpt lat="44.35165" lon="6.3675">
        <ele>1293.1999511719</ele>
        <time>2016-07-18T14:43:04.000Z</time>
      </trkpt>
      <trkpt lat="44.35166" lon="6.3675">
        <ele>1293.1999511719</ele>
        <time>2016-07-18T14:43:10.000Z</time>
      </trkpt>
      <trkpt lat="44.35165" lon="6.36751">
        <ele>1293.4000244141</ele>
        <time>2016-07-18T14:43:51.000Z</time>
      </trkpt>
      <trkpt lat="44.35166" lon="6.36749">
        <ele>1293</ele>
        <time>2016-07-18T14:44:07.000Z</time>
      </trkpt>
      <trkpt lat="44.35165" lon="6.36752">
        <ele>1293.5999755859</ele>
        <time>2016-07-18T14:45:20.000Z</time>
      </trkpt>
      <trkpt lat="44.35165" lon="6.3675">
        <ele>1293.4000244141</ele>
        <time>2016-07-18T14:45:25.000Z</time>
      </trkpt>
      <trkpt lat="44.35167" lon="6.3675">
        <ele>1292.8000488281</ele>
        <time>2016-07-18T14:45:37.000Z</time>
      </trkpt>
      <trkpt lat="44.3517" lon="6.36752">
        <ele>1292.1999511719</ele>
        <time>2016-07-18T14:46:07.000Z</time>
      </trkpt>
      <trkpt lat="44.35171" lon="6.36753">
        <ele>1292.1999511719</ele>
        <time>2016-07-18T14:46:13.000Z</time>
      </trkpt>
      <trkpt lat="44.3517" lon="6.36753">
        <ele>1292.5999755859</ele>
        <time>2016-07-18T14:46:20.000Z</time>
      </trkpt>
      <trkpt lat="44.3517" lon="6.36751">
        <ele>1292.4000244141</ele>
        <time>2016-07-18T14:46:30.000Z</time>
      </trkpt>
      <trkpt lat="44.35167" lon="6.36748">
        <ele>1292.5999755859</ele>
        <time>2016-07-18T14:46:35.000Z</time>
      </trkpt>
      <trkpt lat="44.35167" lon="6.36741">
        <ele>1291.5999755859</ele>
        <time>2016-07-18T14:46:40.000Z</time>
      </trkpt>
      <trkpt lat="44.35166" lon="6.36732">
        <ele>1290.5999755859</ele>
        <time>2016-07-18T14:46:47.000Z</time>
      </trkpt>
      <trkpt lat="44.35168" lon="6.36731">
        <ele>1290</ele>
        <time>2016-07-18T14:46:50.000Z</time>
      </trkpt>
      <trkpt lat="44.35169" lon="6.36725">
        <ele>1289</ele>
        <time>2016-07-18T14:46:54.000Z</time>
      </trkpt>
      <trkpt lat="44.3517" lon="6.36716">
        <ele>1287.1999511719</ele>
        <time>2016-07-18T14:47:00.000Z</time>
      </trkpt>
      <trkpt lat="44.35169" lon="6.36709">
        <ele>1286.4000244141</ele>
        <time>2016-07-18T14:47:05.000Z</time>
      </trkpt>
      <trkpt lat="44.35169" lon="6.36706">
        <ele>1286</ele>
        <time>2016-07-18T14:47:08.000Z</time>
      </trkpt>
      <trkpt lat="44.35168" lon="6.36702">
        <ele>1285.5999755859</ele>
        <time>2016-07-18T14:47:10.000Z</time>
      </trkpt>
      <trkpt lat="44.35169" lon="6.36694">
        <ele>1284</ele>
        <time>2016-07-18T14:47:15.000Z</time>
      </trkpt>
      <trkpt lat="44.35168" lon="6.36693">
        <ele>1284</ele>
        <time>2016-07-18T14:47:17.000Z</time>
      </trkpt>
      <trkpt lat="44.35167" lon="6.36689">
        <ele>1283.5999755859</ele>
        <time>2016-07-18T14:47:19.000Z</time>
      </trkpt>
      <trkpt lat="44.35163" lon="6.3668">
        <ele>1283</ele>
        <time>2016-07-18T14:47:25.000Z</time>
      </trkpt>
      <trkpt lat="44.35162" lon="6.36675">
        <ele>1282.5999755859</ele>
        <time>2016-07-18T14:47:29.000Z</time>
      </trkpt>
      <trkpt lat="44.3516" lon="6.3667">
        <ele>1282.1999511719</ele>
        <time>2016-07-18T14:47:40.000Z</time>
      </trkpt>
      <trkpt lat="44.35158" lon="6.3666">
        <ele>1281</ele>
        <time>2016-07-18T14:47:47.000Z</time>
      </trkpt>
      <trkpt lat="44.35158" lon="6.36657">
        <ele>1280.5999755859</ele>
        <time>2016-07-18T14:47:49.000Z</time>
      </trkpt>
      <trkpt lat="44.35157" lon="6.36654">
        <ele>1280.4000244141</ele>
        <time>2016-07-18T14:47:53.000Z</time>
      </trkpt>
      <trkpt lat="44.35159" lon="6.36647">
        <ele>1278.4000244141</ele>
        <time>2016-07-18T14:48:00.000Z</time>
      </trkpt>
      <trkpt lat="44.35158" lon="6.36641">
        <ele>1277</ele>
        <time>2016-07-18T14:48:04.000Z</time>
      </trkpt>
      <trkpt lat="44.35158" lon="6.3664">
        <ele>1276.5999755859</ele>
        <time>2016-07-18T14:48:05.000Z</time>
      </trkpt>
      <trkpt lat="44.35158" lon="6.36632">
        <ele>1274.4000244141</ele>
        <time>2016-07-18T14:48:10.000Z</time>
      </trkpt>
      <trkpt lat="44.35159" lon="6.36631">
        <ele>1273.8000488281</ele>
        <time>2016-07-18T14:48:12.000Z</time>
      </trkpt>
      <trkpt lat="44.35159" lon="6.36628">
        <ele>1272.8000488281</ele>
        <time>2016-07-18T14:48:14.000Z</time>
      </trkpt>
      <trkpt lat="44.3516" lon="6.36625">
        <ele>1272.1999511719</ele>
        <time>2016-07-18T14:48:15.000Z</time>
      </trkpt>
      <trkpt lat="44.35161" lon="6.36621">
        <ele>1270.5999755859</ele>
        <time>2016-07-18T14:48:20.000Z</time>
      </trkpt>
      <trkpt lat="44.35162" lon="6.36612">
        <ele>1267.8000488281</ele>
        <time>2016-07-18T14:48:28.000Z</time>
      </trkpt>
      <trkpt lat="44.35163" lon="6.36611">
        <ele>1267.1999511719</ele>
        <time>2016-07-18T14:48:29.000Z</time>
      </trkpt>
      <trkpt lat="44.35164" lon="6.3661">
        <ele>1266.5999755859</ele>
        <time>2016-07-18T14:48:30.000Z</time>
      </trkpt>
      <trkpt lat="44.3516" lon="6.36605">
        <ele>1266.1999511719</ele>
        <time>2016-07-18T14:48:35.000Z</time>
      </trkpt>
      <trkpt lat="44.35155" lon="6.36599">
        <ele>1265.5999755859</ele>
        <time>2016-07-18T14:48:42.000Z</time>
      </trkpt>
      <trkpt lat="44.35149" lon="6.36593">
        <ele>1265.4000244141</ele>
        <time>2016-07-18T14:48:49.000Z</time>
      </trkpt>
      <trkpt lat="44.35148" lon="6.36591">
        <ele>1265.1999511719</ele>
        <time>2016-07-18T14:48:50.000Z</time>
      </trkpt>
      <trkpt lat="44.35146" lon="6.36586">
        <ele>1264.1999511719</ele>
        <time>2016-07-18T14:48:55.000Z</time>
      </trkpt>
      <trkpt lat="44.35144" lon="6.36579">
        <ele>1262.8000488281</ele>
        <time>2016-07-18T14:49:00.000Z</time>
      </trkpt>
      <trkpt lat="44.35141" lon="6.36573">
        <ele>1261.5999755859</ele>
        <time>2016-07-18T14:49:07.000Z</time>
      </trkpt>
      <trkpt lat="44.35139" lon="6.36563">
        <ele>1259.4000244141</ele>
        <time>2016-07-18T14:49:13.000Z</time>
      </trkpt>
      <trkpt lat="44.35138" lon="6.36561">
        <ele>1259</ele>
        <time>2016-07-18T14:49:14.000Z</time>
      </trkpt>
      <trkpt lat="44.35135" lon="6.36553">
        <ele>1257</ele>
        <time>2016-07-18T14:49:20.000Z</time>
      </trkpt>
      <trkpt lat="44.3513" lon="6.36545">
        <ele>1255.5999755859</ele>
        <time>2016-07-18T14:49:24.000Z</time>
      </trkpt>
      <trkpt lat="44.35121" lon="6.36529">
        <ele>1252.8000488281</ele>
        <time>2016-07-18T14:49:32.000Z</time>
      </trkpt>
      <trkpt lat="44.35115" lon="6.36517">
        <ele>1250.5999755859</ele>
        <time>2016-07-18T14:49:41.000Z</time>
      </trkpt>
      <trkpt lat="44.35114" lon="6.3651">
        <ele>1248.4000244141</ele>
        <time>2016-07-18T14:49:49.000Z</time>
      </trkpt>
      <trkpt lat="44.35114" lon="6.36511">
        <ele>1248.8000488281</ele>
        <time>2016-07-18T14:49:53.000Z</time>
      </trkpt>
      <trkpt lat="44.35114" lon="6.36506">
        <ele>1247</ele>
        <time>2016-07-18T14:50:25.000Z</time>
      </trkpt>
      <trkpt lat="44.35112" lon="6.36505">
        <ele>1246.4000244141</ele>
        <time>2016-07-18T14:50:55.000Z</time>
      </trkpt>
      <trkpt lat="44.3511" lon="6.365">
        <ele>1244.8000488281</ele>
        <time>2016-07-18T14:50:59.000Z</time>
      </trkpt>
      <trkpt lat="44.35105" lon="6.36492">
        <ele>1241.4000244141</ele>
        <time>2016-07-18T14:51:05.000Z</time>
      </trkpt>
      <trkpt lat="44.35104" lon="6.3649">
        <ele>1240.5999755859</ele>
        <time>2016-07-18T14:51:07.000Z</time>
      </trkpt>
      <trkpt lat="44.351" lon="6.36485">
        <ele>1238.4000244141</ele>
        <time>2016-07-18T14:51:12.000Z</time>
      </trkpt>
      <trkpt lat="44.35096" lon="6.36478">
        <ele>1235.8000488281</ele>
        <time>2016-07-18T14:51:17.000Z</time>
      </trkpt>
      <trkpt lat="44.35091" lon="6.36469">
        <ele>1232.8000488281</ele>
        <time>2016-07-18T14:51:24.000Z</time>
      </trkpt>
      <trkpt lat="44.3509" lon="6.36467">
        <ele>1232.1999511719</ele>
        <time>2016-07-18T14:51:25.000Z</time>
      </trkpt>
      <trkpt lat="44.35088" lon="6.36465">
        <ele>1231.1999511719</ele>
        <time>2016-07-18T14:51:29.000Z</time>
      </trkpt>
      <trkpt lat="44.35086" lon="6.36458">
        <ele>1229.4000244141</ele>
        <time>2016-07-18T14:51:32.000Z</time>
      </trkpt>
      <trkpt lat="44.35084" lon="6.36454">
        <ele>1227.8000488281</ele>
        <time>2016-07-18T14:51:35.000Z</time>
      </trkpt>
      <trkpt lat="44.3508" lon="6.36447">
        <ele>1225.5999755859</ele>
        <time>2016-07-18T14:51:40.000Z</time>
      </trkpt>
      <trkpt lat="44.35077" lon="6.36444">
        <ele>1224.1999511719</ele>
        <time>2016-07-18T14:51:44.000Z</time>
      </trkpt>
      <trkpt lat="44.35075" lon="6.36443">
        <ele>1223.5999755859</ele>
        <time>2016-07-18T14:51:45.000Z</time>
      </trkpt>
      <trkpt lat="44.35071" lon="6.36438">
        <ele>1221.8000488281</ele>
        <time>2016-07-18T14:51:50.000Z</time>
      </trkpt>
      <trkpt lat="44.35063" lon="6.36433">
        <ele>1219.5999755859</ele>
        <time>2016-07-18T14:51:56.000Z</time>
      </trkpt>
      <trkpt lat="44.3506" lon="6.36431">
        <ele>1218.5999755859</ele>
        <time>2016-07-18T14:52:00.000Z</time>
      </trkpt>
      <trkpt lat="44.35055" lon="6.3643">
        <ele>1217.8000488281</ele>
        <time>2016-07-18T14:52:05.000Z</time>
      </trkpt>
      <trkpt lat="44.35047" lon="6.36429">
        <ele>1216.4000244141</ele>
        <time>2016-07-18T14:52:10.000Z</time>
      </trkpt>
      <trkpt lat="44.35043" lon="6.36425">
        <ele>1214.8000488281</ele>
        <time>2016-07-18T14:52:15.000Z</time>
      </trkpt>
      <trkpt lat="44.35044" lon="6.36421">
        <ele>1213.8000488281</ele>
        <time>2016-07-18T14:52:19.000Z</time>
      </trkpt>
      <trkpt lat="44.35047" lon="6.36415">
        <ele>1212.8000488281</ele>
        <time>2016-07-18T14:52:24.000Z</time>
      </trkpt>
      <trkpt lat="44.3505" lon="6.36411">
        <ele>1211.8000488281</ele>
        <time>2016-07-18T14:52:28.000Z</time>
      </trkpt>
      <trkpt lat="44.3505" lon="6.36409">
        <ele>1211.1999511719</ele>
        <time>2016-07-18T14:52:30.000Z</time>
      </trkpt>
      <trkpt lat="44.3505" lon="6.36403">
        <ele>1209.5999755859</ele>
        <time>2016-07-18T14:52:35.000Z</time>
      </trkpt>
      <trkpt lat="44.35049" lon="6.3639">
        <ele>1206.5999755859</ele>
        <time>2016-07-18T14:52:43.000Z</time>
      </trkpt>
      <trkpt lat="44.35047" lon="6.36386">
        <ele>1205.8000488281</ele>
        <time>2016-07-18T14:52:45.000Z</time>
      </trkpt>
      <trkpt lat="44.35046" lon="6.36384">
        <ele>1205.4000244141</ele>
        <time>2016-07-18T14:52:48.000Z</time>
      </trkpt>
      <trkpt lat="44.35045" lon="6.36383">
        <ele>1205</ele>
        <time>2016-07-18T14:53:05.000Z</time>
      </trkpt>
      <trkpt lat="44.35042" lon="6.3638">
        <ele>1204.1999511719</ele>
        <time>2016-07-18T14:54:20.000Z</time>
      </trkpt>
      <trkpt lat="44.35044" lon="6.36381">
        <ele>1204.4000244141</ele>
        <time>2016-07-18T14:54:35.000Z</time>
      </trkpt>
      <trkpt lat="44.35041" lon="6.36383">
        <ele>1204.5999755859</ele>
        <time>2016-07-18T14:54:43.000Z</time>
      </trkpt>
      <trkpt lat="44.3503" lon="6.36385">
        <ele>1203.5999755859</ele>
        <time>2016-07-18T14:54:52.000Z</time>
      </trkpt>
      <trkpt lat="44.3502" lon="6.36387">
        <ele>1203</ele>
        <time>2016-07-18T14:54:59.000Z</time>
      </trkpt>
      <trkpt lat="44.35019" lon="6.36387">
        <ele>1202.8000488281</ele>
        <time>2016-07-18T14:55:00.000Z</time>
      </trkpt>
      <trkpt lat="44.35015" lon="6.36387">
        <ele>1202</ele>
        <time>2016-07-18T14:55:04.000Z</time>
      </trkpt>
      <trkpt lat="44.35011" lon="6.36381">
        <ele>1200.5999755859</ele>
        <time>2016-07-18T14:55:08.000Z</time>
      </trkpt>
      <trkpt lat="44.35011" lon="6.36379">
        <ele>1200.4000244141</ele>
        <time>2016-07-18T14:55:10.000Z</time>
      </trkpt>
      <trkpt lat="44.3501" lon="6.36376">
        <ele>1199.8000488281</ele>
        <time>2016-07-18T14:55:12.000Z</time>
      </trkpt>
      <trkpt lat="44.35017" lon="6.36374">
        <ele>1200.1999511719</ele>
        <time>2016-07-18T14:55:17.000Z</time>
      </trkpt>
      <trkpt lat="44.3502" lon="6.36373">
        <ele>1200.4000244141</ele>
        <time>2016-07-18T14:55:20.000Z</time>
      </trkpt>
      <trkpt lat="44.35026" lon="6.36368">
        <ele>1200.4000244141</ele>
        <time>2016-07-18T14:55:26.000Z</time>
      </trkpt>
      <trkpt lat="44.35031" lon="6.36363">
        <ele>1200.1999511719</ele>
        <time>2016-07-18T14:55:37.000Z</time>
      </trkpt>
      <trkpt lat="44.35042" lon="6.36355">
        <ele>1200</ele>
        <time>2016-07-18T14:55:44.000Z</time>
      </trkpt>
      <trkpt lat="44.35048" lon="6.36349">
        <ele>1199.5999755859</ele>
        <time>2016-07-18T14:55:50.000Z</time>
      </trkpt>
      <trkpt lat="44.35057" lon="6.36339">
        <ele>1199</ele>
        <time>2016-07-18T14:55:58.000Z</time>
      </trkpt>
      <trkpt lat="44.35058" lon="6.36336">
        <ele>1198.5999755859</ele>
        <time>2016-07-18T14:56:00.000Z</time>
      </trkpt>
      <trkpt lat="44.35058" lon="6.36329">
        <ele>1197.8000488281</ele>
        <time>2016-07-18T14:56:02.000Z</time>
      </trkpt>
      <trkpt lat="44.3505" lon="6.3632">
        <ele>1195.4000244141</ele>
        <time>2016-07-18T14:56:10.000Z</time>
      </trkpt>
      <trkpt lat="44.3504" lon="6.3631">
        <ele>1192.8000488281</ele>
        <time>2016-07-18T14:56:19.000Z</time>
      </trkpt>
      <trkpt lat="44.35027" lon="6.363">
        <ele>1190.4000244141</ele>
        <time>2016-07-18T14:56:28.000Z</time>
      </trkpt>
      <trkpt lat="44.35016" lon="6.363">
        <ele>1189</ele>
        <time>2016-07-18T14:56:35.000Z</time>
      </trkpt>
      <trkpt lat="44.35005" lon="6.36304">
        <ele>1188</ele>
        <time>2016-07-18T14:56:43.000Z</time>
      </trkpt>
      <trkpt lat="44.34992" lon="6.36315">
        <ele>1187.1999511719</ele>
        <time>2016-07-18T14:56:52.000Z</time>
      </trkpt>
      <trkpt lat="44.34978" lon="6.36324">
        <ele>1187.1999511719</ele>
        <time>2016-07-18T14:57:02.000Z</time>
      </trkpt>
      <trkpt lat="44.34967" lon="6.36335">
        <ele>1187.8000488281</ele>
        <time>2016-07-18T14:57:10.000Z</time>
      </trkpt>
      <trkpt lat="44.34956" lon="6.36343">
        <ele>1186.8000488281</ele>
        <time>2016-07-18T14:57:19.000Z</time>
      </trkpt>
      <trkpt lat="44.34945" lon="6.36345">
        <ele>1185.4000244141</ele>
        <time>2016-07-18T14:57:25.000Z</time>
      </trkpt>
      <trkpt lat="44.34932" lon="6.36352">
        <ele>1184.4000244141</ele>
        <time>2016-07-18T14:57:35.000Z</time>
      </trkpt>
      <trkpt lat="44.34917" lon="6.36363">
        <ele>1183.8000488281</ele>
        <time>2016-07-18T14:57:47.000Z</time>
      </trkpt>
      <trkpt lat="44.34911" lon="6.36366">
        <ele>1182.8000488281</ele>
        <time>2016-07-18T14:57:52.000Z</time>
      </trkpt>
      <trkpt lat="44.34907" lon="6.36365">
        <ele>1182</ele>
        <time>2016-07-18T14:57:56.000Z</time>
      </trkpt>
      <trkpt lat="44.34899" lon="6.36354">
        <ele>1179.8000488281</ele>
        <time>2016-07-18T14:58:05.000Z</time>
      </trkpt>
      <trkpt lat="44.34901" lon="6.36342">
        <ele>1179.1999511719</ele>
        <time>2016-07-18T14:58:10.000Z</time>
      </trkpt>
      <trkpt lat="44.34911" lon="6.36329">
        <ele>1179</ele>
        <time>2016-07-18T14:58:20.000Z</time>
      </trkpt>
      <trkpt lat="44.3492" lon="6.36317">
        <ele>1178.5999755859</ele>
        <time>2016-07-18T14:58:28.000Z</time>
      </trkpt>
      <trkpt lat="44.34929" lon="6.36302">
        <ele>1178.8000488281</ele>
        <time>2016-07-18T14:58:37.000Z</time>
      </trkpt>
      <trkpt lat="44.34936" lon="6.36283">
        <ele>1178.1999511719</ele>
        <time>2016-07-18T14:58:47.000Z</time>
      </trkpt>
      <trkpt lat="44.34945" lon="6.36264">
        <ele>1177.5999755859</ele>
        <time>2016-07-18T14:58:58.000Z</time>
      </trkpt>
      <trkpt lat="44.34952" lon="6.36252">
        <ele>1177.1999511719</ele>
        <time>2016-07-18T14:59:05.000Z</time>
      </trkpt>
      <trkpt lat="44.34954" lon="6.3624">
        <ele>1176.5999755859</ele>
        <time>2016-07-18T14:59:12.000Z</time>
      </trkpt>
      <trkpt lat="44.34949" lon="6.36231">
        <ele>1175.1999511719</ele>
        <time>2016-07-18T14:59:18.000Z</time>
      </trkpt>
      <trkpt lat="44.34936" lon="6.36226">
        <ele>1173.8000488281</ele>
        <time>2016-07-18T14:59:26.000Z</time>
      </trkpt>
      <trkpt lat="44.34928" lon="6.36235">
        <ele>1173.4000244141</ele>
        <time>2016-07-18T14:59:34.000Z</time>
      </trkpt>
      <trkpt lat="44.34918" lon="6.36251">
        <ele>1173.8000488281</ele>
        <time>2016-07-18T14:59:44.000Z</time>
      </trkpt>
      <trkpt lat="44.3491" lon="6.36267">
        <ele>1174.4000244141</ele>
        <time>2016-07-18T14:59:54.000Z</time>
      </trkpt>
      <trkpt lat="44.34901" lon="6.3627">
        <ele>1173.8000488281</ele>
        <time>2016-07-18T15:00:00.000Z</time>
      </trkpt>
      <trkpt lat="44.34892" lon="6.36261">
        <ele>1172.1999511719</ele>
        <time>2016-07-18T15:00:07.000Z</time>
      </trkpt>
      <trkpt lat="44.34889" lon="6.36246">
        <ele>1170.5999755859</ele>
        <time>2016-07-18T15:00:13.000Z</time>
      </trkpt>
      <trkpt lat="44.34889" lon="6.36232">
        <ele>1169.5999755859</ele>
        <time>2016-07-18T15:00:20.000Z</time>
      </trkpt>
      <trkpt lat="44.3489" lon="6.36214">
        <ele>1169.4000244141</ele>
        <time>2016-07-18T15:00:29.000Z</time>
      </trkpt>
      <trkpt lat="44.34891" lon="6.36202">
        <ele>1169.1999511719</ele>
        <time>2016-07-18T15:00:35.000Z</time>
      </trkpt>
      <trkpt lat="44.34892" lon="6.36191">
        <ele>1169.1999511719</ele>
        <time>2016-07-18T15:00:40.000Z</time>
      </trkpt>
      <trkpt lat="44.34893" lon="6.3618">
        <ele>1169.1999511719</ele>
        <time>2016-07-18T15:00:45.000Z</time>
      </trkpt>
      <trkpt lat="44.34892" lon="6.36164">
        <ele>1168.8000488281</ele>
        <time>2016-07-18T15:00:53.000Z</time>
      </trkpt>
      <trkpt lat="44.34889" lon="6.36143">
        <ele>1168</ele>
        <time>2016-07-18T15:01:02.000Z</time>
      </trkpt>
      <trkpt lat="44.34881" lon="6.36129">
        <ele>1167.1999511719</ele>
        <time>2016-07-18T15:01:10.000Z</time>
      </trkpt>
      <trkpt lat="44.34874" lon="6.36114">
        <ele>1166.4000244141</ele>
        <time>2016-07-18T15:01:18.000Z</time>
      </trkpt>
      <trkpt lat="44.34864" lon="6.36099">
        <ele>1165.4000244141</ele>
        <time>2016-07-18T15:01:25.000Z</time>
      </trkpt>
      <trkpt lat="44.34857" lon="6.36088">
        <ele>1165</ele>
        <time>2016-07-18T15:01:33.000Z</time>
      </trkpt>
      <trkpt lat="44.34838" lon="6.36059">
        <ele>1163.8000488281</ele>
        <time>2016-07-18T15:01:50.000Z</time>
      </trkpt>
      <trkpt lat="44.3483" lon="6.36041">
        <ele>1163</ele>
        <time>2016-07-18T15:02:00.000Z</time>
      </trkpt>
      <trkpt lat="44.34829" lon="6.36034">
        <ele>1162.5999755859</ele>
        <time>2016-07-18T15:02:02.000Z</time>
      </trkpt>
      <trkpt lat="44.34828" lon="6.36022">
        <ele>1162.1999511719</ele>
        <time>2016-07-18T15:02:08.000Z</time>
      </trkpt>
      <trkpt lat="44.34829" lon="6.36004">
        <ele>1161.5999755859</ele>
        <time>2016-07-18T15:02:15.000Z</time>
      </trkpt>
      <trkpt lat="44.34831" lon="6.35986">
        <ele>1161</ele>
        <time>2016-07-18T15:02:23.000Z</time>
      </trkpt>
      <trkpt lat="44.34833" lon="6.35969">
        <ele>1160.1999511719</ele>
        <time>2016-07-18T15:02:30.000Z</time>
      </trkpt>
      <trkpt lat="44.34836" lon="6.35946">
        <ele>1159.5999755859</ele>
        <time>2016-07-18T15:02:40.000Z</time>
      </trkpt>
      <trkpt lat="44.34839" lon="6.35931">
        <ele>1159.8000488281</ele>
        <time>2016-07-18T15:02:49.000Z</time>
      </trkpt>
      <trkpt lat="44.34839" lon="6.35929">
        <ele>1160</ele>
        <time>2016-07-18T15:02:54.000Z</time>
      </trkpt>
      <trkpt lat="44.3484" lon="6.35926">
        <ele>1160</ele>
        <time>2016-07-18T15:02:59.000Z</time>
      </trkpt>
      <trkpt lat="44.34835" lon="6.35921">
        <ele>1159.5999755859</ele>
        <time>2016-07-18T15:03:07.000Z</time>
      </trkpt>
      <trkpt lat="44.34823" lon="6.35916">
        <ele>1158.5999755859</ele>
        <time>2016-07-18T15:03:15.000Z</time>
      </trkpt>
      <trkpt lat="44.34814" lon="6.35914">
        <ele>1157.8000488281</ele>
        <time>2016-07-18T15:03:22.000Z</time>
      </trkpt>
      <trkpt lat="44.34802" lon="6.3591">
        <ele>1156.8000488281</ele>
        <time>2016-07-18T15:03:30.000Z</time>
      </trkpt>
      <trkpt lat="44.3479" lon="6.35913">
        <ele>1156</ele>
        <time>2016-07-18T15:03:37.000Z</time>
      </trkpt>
      <trkpt lat="44.34781" lon="6.35913">
        <ele>1155.8000488281</ele>
        <time>2016-07-18T15:03:43.000Z</time>
      </trkpt>
      <trkpt lat="44.34771" lon="6.35915">
        <ele>1156</ele>
        <time>2016-07-18T15:03:50.000Z</time>
      </trkpt>
      <trkpt lat="44.3476" lon="6.35918">
        <ele>1156.1999511719</ele>
        <time>2016-07-18T15:03:56.000Z</time>
      </trkpt>
      <trkpt lat="44.34747" lon="6.35922">
        <ele>1156.5999755859</ele>
        <time>2016-07-18T15:04:05.000Z</time>
      </trkpt>
      <trkpt lat="44.34736" lon="6.35924">
        <ele>1156.8000488281</ele>
        <time>2016-07-18T15:04:13.000Z</time>
      </trkpt>
      <trkpt lat="44.34734" lon="6.35925">
        <ele>1156.8000488281</ele>
        <time>2016-07-18T15:04:14.000Z</time>
      </trkpt>
      <trkpt lat="44.34722" lon="6.35923">
        <ele>1156.8000488281</ele>
        <time>2016-07-18T15:04:20.000Z</time>
      </trkpt>
      <trkpt lat="44.34712" lon="6.35921">
        <ele>1156.5999755859</ele>
        <time>2016-07-18T15:04:27.000Z</time>
      </trkpt>
      <trkpt lat="44.34701" lon="6.35915">
        <ele>1156.1999511719</ele>
        <time>2016-07-18T15:04:34.000Z</time>
      </trkpt>
      <trkpt lat="44.34688" lon="6.35914">
        <ele>1156.1999511719</ele>
        <time>2016-07-18T15:04:42.000Z</time>
      </trkpt>
      <trkpt lat="44.34675" lon="6.35913">
        <ele>1156.1999511719</ele>
        <time>2016-07-18T15:04:50.000Z</time>
      </trkpt>
      <trkpt lat="44.34665" lon="6.35911">
        <ele>1156.1999511719</ele>
        <time>2016-07-18T15:04:57.000Z</time>
      </trkpt>
      <trkpt lat="44.34655" lon="6.35907">
        <ele>1156.1999511719</ele>
        <time>2016-07-18T15:05:04.000Z</time>
      </trkpt>
      <trkpt lat="44.34646" lon="6.35903">
        <ele>1156</ele>
        <time>2016-07-18T15:05:10.000Z</time>
      </trkpt>
      <trkpt lat="44.34637" lon="6.359">
        <ele>1156</ele>
        <time>2016-07-18T15:05:18.000Z</time>
      </trkpt>
      <trkpt lat="44.34629" lon="6.35897">
        <ele>1156</ele>
        <time>2016-07-18T15:05:24.000Z</time>
      </trkpt>
      <trkpt lat="44.34619" lon="6.35894">
        <ele>1156</ele>
        <time>2016-07-18T15:05:30.000Z</time>
      </trkpt>
      <trkpt lat="44.34604" lon="6.35887">
        <ele>1155.8000488281</ele>
        <time>2016-07-18T15:05:40.000Z</time>
      </trkpt>
      <trkpt lat="44.34593" lon="6.35886">
        <ele>1155.8000488281</ele>
        <time>2016-07-18T15:05:47.000Z</time>
      </trkpt>
      <trkpt lat="44.34582" lon="6.35885">
        <ele>1155.8000488281</ele>
        <time>2016-07-18T15:05:54.000Z</time>
      </trkpt>
      <trkpt lat="44.34566" lon="6.35886">
        <ele>1155.8000488281</ele>
        <time>2016-07-18T15:06:04.000Z</time>
      </trkpt>
      <trkpt lat="44.34554" lon="6.35887">
        <ele>1155.8000488281</ele>
        <time>2016-07-18T15:06:10.000Z</time>
      </trkpt>
      <trkpt lat="44.3454" lon="6.35888">
        <ele>1155.8000488281</ele>
        <time>2016-07-18T15:06:20.000Z</time>
      </trkpt>
      <trkpt lat="44.34524" lon="6.3589">
        <ele>1156</ele>
        <time>2016-07-18T15:06:30.000Z</time>
      </trkpt>
      <trkpt lat="44.34508" lon="6.35891">
        <ele>1156.5999755859</ele>
        <time>2016-07-18T15:06:40.000Z</time>
      </trkpt>
      <trkpt lat="44.34494" lon="6.35892">
        <ele>1157.1999511719</ele>
        <time>2016-07-18T15:06:49.000Z</time>
      </trkpt>
      <trkpt lat="44.34478" lon="6.35894">
        <ele>1157.8000488281</ele>
        <time>2016-07-18T15:06:59.000Z</time>
      </trkpt>
      <trkpt lat="44.34464" lon="6.35896">
        <ele>1158.4000244141</ele>
        <time>2016-07-18T15:07:08.000Z</time>
      </trkpt>
      <trkpt lat="44.34447" lon="6.35897">
        <ele>1159</ele>
        <time>2016-07-18T15:07:19.000Z</time>
      </trkpt>
      <trkpt lat="44.34434" lon="6.35895">
        <ele>1158.5999755859</ele>
        <time>2016-07-18T15:07:28.000Z</time>
      </trkpt>
      <trkpt lat="44.3442" lon="6.35889">
        <ele>1158.1999511719</ele>
        <time>2016-07-18T15:07:37.000Z</time>
      </trkpt>
      <trkpt lat="44.34405" lon="6.35878">
        <ele>1157.8000488281</ele>
        <time>2016-07-18T15:07:50.000Z</time>
      </trkpt>
      <trkpt lat="44.344" lon="6.35874">
        <ele>1157.5999755859</ele>
        <time>2016-07-18T15:07:54.000Z</time>
      </trkpt>
      <trkpt lat="44.34397" lon="6.35857">
        <ele>1157.4000244141</ele>
        <time>2016-07-18T15:08:03.000Z</time>
      </trkpt>
      <trkpt lat="44.34397" lon="6.35855">
        <ele>1157.1999511719</ele>
        <time>2016-07-18T15:08:04.000Z</time>
      </trkpt>
      <trkpt lat="44.34398" lon="6.35839">
        <ele>1156.8000488281</ele>
        <time>2016-07-18T15:08:12.000Z</time>
      </trkpt>
      <trkpt lat="44.34398" lon="6.35834">
        <ele>1156.8000488281</ele>
        <time>2016-07-18T15:08:14.000Z</time>
      </trkpt>
      <trkpt lat="44.34399" lon="6.35831">
        <ele>1156.5999755859</ele>
        <time>2016-07-18T15:08:16.000Z</time>
      </trkpt>
      <trkpt lat="44.344" lon="6.35814">
        <ele>1156</ele>
        <time>2016-07-18T15:08:24.000Z</time>
      </trkpt>
      <trkpt lat="44.34401" lon="6.35803">
        <ele>1155.5999755859</ele>
        <time>2016-07-18T15:08:30.000Z</time>
      </trkpt>
      <trkpt lat="44.34401" lon="6.35788">
        <ele>1155</ele>
        <time>2016-07-18T15:08:37.000Z</time>
      </trkpt>
      <trkpt lat="44.34402" lon="6.35772">
        <ele>1154.4000244141</ele>
        <time>2016-07-18T15:08:44.000Z</time>
      </trkpt>
      <trkpt lat="44.34403" lon="6.35758">
        <ele>1154.1999511719</ele>
        <time>2016-07-18T15:08:50.000Z</time>
      </trkpt>
      <trkpt lat="44.34403" lon="6.35749">
        <ele>1154.1999511719</ele>
        <time>2016-07-18T15:08:56.000Z</time>
      </trkpt>
      <trkpt lat="44.34403" lon="6.35744">
        <ele>1154</ele>
        <time>2016-07-18T15:08:58.000Z</time>
      </trkpt>
      <trkpt lat="44.34403" lon="6.35739">
        <ele>1154</ele>
        <time>2016-07-18T15:09:00.000Z</time>
      </trkpt>
      <trkpt lat="44.34406" lon="6.35728">
        <ele>1154</ele>
        <time>2016-07-18T15:09:07.000Z</time>
      </trkpt>
      <trkpt lat="44.34406" lon="6.3572">
        <ele>1153.8000488281</ele>
        <time>2016-07-18T15:09:12.000Z</time>
      </trkpt>
      <trkpt lat="44.34406" lon="6.35699">
        <ele>1153.1999511719</ele>
        <time>2016-07-18T15:09:22.000Z</time>
      </trkpt>
      <trkpt lat="44.34407" lon="6.3569">
        <ele>1153</ele>
        <time>2016-07-18T15:09:27.000Z</time>
      </trkpt>
      <trkpt lat="44.34406" lon="6.35672">
        <ele>1152.5999755859</ele>
        <time>2016-07-18T15:09:35.000Z</time>
      </trkpt>
      <trkpt lat="44.34406" lon="6.35656">
        <ele>1152.1999511719</ele>
        <time>2016-07-18T15:09:43.000Z</time>
      </trkpt>
      <trkpt lat="44.34405" lon="6.35634">
        <ele>1152</ele>
        <time>2016-07-18T15:09:53.000Z</time>
      </trkpt>
      <trkpt lat="44.34406" lon="6.35621">
        <ele>1152</ele>
        <time>2016-07-18T15:10:00.000Z</time>
      </trkpt>
      <trkpt lat="44.34406" lon="6.3562">
        <ele>1152</ele>
        <time>2016-07-18T15:10:01.000Z</time>
      </trkpt>
      <trkpt lat="44.34406" lon="6.35609">
        <ele>1152</ele>
        <time>2016-07-18T15:10:06.000Z</time>
      </trkpt>
      <trkpt lat="44.34407" lon="6.35603">
        <ele>1152</ele>
        <time>2016-07-18T15:10:09.000Z</time>
      </trkpt>
      <trkpt lat="44.34407" lon="6.35594">
        <ele>1152</ele>
        <time>2016-07-18T15:10:13.000Z</time>
      </trkpt>
      <trkpt lat="44.34408" lon="6.35592">
        <ele>1152</ele>
        <time>2016-07-18T15:10:14.000Z</time>
      </trkpt>
      <trkpt lat="44.34407" lon="6.35576">
        <ele>1152</ele>
        <time>2016-07-18T15:10:21.000Z</time>
      </trkpt>
      <trkpt lat="44.34408" lon="6.3557">
        <ele>1152</ele>
        <time>2016-07-18T15:10:24.000Z</time>
      </trkpt>
      <trkpt lat="44.3441" lon="6.35555">
        <ele>1151.5999755859</ele>
        <time>2016-07-18T15:10:31.000Z</time>
      </trkpt>
      <trkpt lat="44.3441" lon="6.35544">
        <ele>1151.1999511719</ele>
        <time>2016-07-18T15:10:35.000Z</time>
      </trkpt>
      <trkpt lat="44.34411" lon="6.35532">
        <ele>1150.5999755859</ele>
        <time>2016-07-18T15:10:42.000Z</time>
      </trkpt>
      <trkpt lat="44.34411" lon="6.3552">
        <ele>1150.4000244141</ele>
        <time>2016-07-18T15:10:48.000Z</time>
      </trkpt>
      <trkpt lat="44.34413" lon="6.35509">
        <ele>1150.5999755859</ele>
        <time>2016-07-18T15:10:54.000Z</time>
      </trkpt>
      <trkpt lat="44.34412" lon="6.35506">
        <ele>1150.4000244141</ele>
        <time>2016-07-18T15:10:55.000Z</time>
      </trkpt>
      <trkpt lat="44.34412" lon="6.35494">
        <ele>1150.4000244141</ele>
        <time>2016-07-18T15:11:01.000Z</time>
      </trkpt>
      <trkpt lat="44.34412" lon="6.35483">
        <ele>1150.4000244141</ele>
        <time>2016-07-18T15:11:06.000Z</time>
      </trkpt>
      <trkpt lat="44.34413" lon="6.35473">
        <ele>1150.5999755859</ele>
        <time>2016-07-18T15:11:11.000Z</time>
      </trkpt>
      <trkpt lat="44.34414" lon="6.35462">
        <ele>1150.8000488281</ele>
        <time>2016-07-18T15:11:15.000Z</time>
      </trkpt>
      <trkpt lat="44.34415" lon="6.3546">
        <ele>1151</ele>
        <time>2016-07-18T15:11:17.000Z</time>
      </trkpt>
      <trkpt lat="44.34418" lon="6.35456">
        <ele>1151.1999511719</ele>
        <time>2016-07-18T15:11:20.000Z</time>
      </trkpt>
      <trkpt lat="44.34424" lon="6.35451">
        <ele>1151.5999755859</ele>
        <time>2016-07-18T15:11:26.000Z</time>
      </trkpt>
      <trkpt lat="44.34431" lon="6.35447">
        <ele>1152</ele>
        <time>2016-07-18T15:11:31.000Z</time>
      </trkpt>
      <trkpt lat="44.34433" lon="6.35442">
        <ele>1152.1999511719</ele>
        <time>2016-07-18T15:11:33.000Z</time>
      </trkpt>
      <trkpt lat="44.34433" lon="6.35438">
        <ele>1152.1999511719</ele>
        <time>2016-07-18T15:11:35.000Z</time>
      </trkpt>
      <trkpt lat="44.34433" lon="6.35432">
        <ele>1152.1999511719</ele>
        <time>2016-07-18T15:11:38.000Z</time>
      </trkpt>
      <trkpt lat="44.34436" lon="6.35419">
        <ele>1152.4000244141</ele>
        <time>2016-07-18T15:11:46.000Z</time>
      </trkpt>
      <trkpt lat="44.34435" lon="6.35405">
        <ele>1152.1999511719</ele>
        <time>2016-07-18T15:11:53.000Z</time>
      </trkpt>
      <trkpt lat="44.34434" lon="6.35403">
        <ele>1152.1999511719</ele>
        <time>2016-07-18T15:11:54.000Z</time>
      </trkpt>
      <trkpt lat="44.34433" lon="6.35398">
        <ele>1152.1999511719</ele>
        <time>2016-07-18T15:11:57.000Z</time>
      </trkpt>
      <trkpt lat="44.34434" lon="6.3539">
        <ele>1152.1999511719</ele>
        <time>2016-07-18T15:12:01.000Z</time>
      </trkpt>
      <trkpt lat="44.34434" lon="6.35381">
        <ele>1152.1999511719</ele>
        <time>2016-07-18T15:12:04.000Z</time>
      </trkpt>
      <trkpt lat="44.34436" lon="6.35378">
        <ele>1152.1999511719</ele>
        <time>2016-07-18T15:12:05.000Z</time>
      </trkpt>
      <trkpt lat="44.34438" lon="6.35373">
        <ele>1152</ele>
        <time>2016-07-18T15:12:09.000Z</time>
      </trkpt>
      <trkpt lat="44.34439" lon="6.35367">
        <ele>1151.8000488281</ele>
        <time>2016-07-18T15:12:11.000Z</time>
      </trkpt>
      <trkpt lat="44.34443" lon="6.35366">
        <ele>1151.8000488281</ele>
        <time>2016-07-18T15:12:15.000Z</time>
      </trkpt>
      <trkpt lat="44.34444" lon="6.35363">
        <ele>1151.8000488281</ele>
        <time>2016-07-18T15:12:24.000Z</time>
      </trkpt>
      <trkpt lat="44.34439" lon="6.35357">
        <ele>1151.4000244141</ele>
        <time>2016-07-18T15:12:50.000Z</time>
      </trkpt>
      <trkpt lat="44.34438" lon="6.35352">
        <ele>1151.1999511719</ele>
        <time>2016-07-18T15:12:57.000Z</time>
      </trkpt>
      <trkpt lat="44.34432" lon="6.35346">
        <ele>1151</ele>
        <time>2016-07-18T15:13:02.000Z</time>
      </trkpt>
      <trkpt lat="44.34429" lon="6.35333">
        <ele>1150.4000244141</ele>
        <time>2016-07-18T15:13:10.000Z</time>
      </trkpt>
      <trkpt lat="44.34431" lon="6.35319">
        <ele>1150</ele>
        <time>2016-07-18T15:13:18.000Z</time>
      </trkpt>
      <trkpt lat="44.34432" lon="6.35318">
        <ele>1150</ele>
        <time>2016-07-18T15:13:19.000Z</time>
      </trkpt>
      <trkpt lat="44.34434" lon="6.35307">
        <ele>1149.8000488281</ele>
        <time>2016-07-18T15:13:24.000Z</time>
      </trkpt>
      <trkpt lat="44.34436" lon="6.35298">
        <ele>1149.5999755859</ele>
        <time>2016-07-18T15:13:29.000Z</time>
      </trkpt>
      <trkpt lat="44.34438" lon="6.35285">
        <ele>1149.5999755859</ele>
        <time>2016-07-18T15:13:35.000Z</time>
      </trkpt>
      <trkpt lat="44.3444" lon="6.35277">
        <ele>1149.4000244141</ele>
        <time>2016-07-18T15:13:41.000Z</time>
      </trkpt>
      <trkpt lat="44.3444" lon="6.35268">
        <ele>1149.4000244141</ele>
        <time>2016-07-18T15:13:49.000Z</time>
      </trkpt>
      <trkpt lat="44.34441" lon="6.35259">
        <ele>1149.1999511719</ele>
        <time>2016-07-18T15:13:55.000Z</time>
      </trkpt>
      <trkpt lat="44.34444" lon="6.35254">
        <ele>1149.1999511719</ele>
        <time>2016-07-18T15:13:59.000Z</time>
      </trkpt>
      <trkpt lat="44.34445" lon="6.35244">
        <ele>1149.1999511719</ele>
        <time>2016-07-18T15:14:05.000Z</time>
      </trkpt>
      <trkpt lat="44.34443" lon="6.35232">
        <ele>1149</ele>
        <time>2016-07-18T15:14:12.000Z</time>
      </trkpt>
      <trkpt lat="44.34442" lon="6.35225">
        <ele>1148.8000488281</ele>
        <time>2016-07-18T15:14:16.000Z</time>
      </trkpt>
      <trkpt lat="44.34447" lon="6.35209">
        <ele>1147.8000488281</ele>
        <time>2016-07-18T15:14:24.000Z</time>
      </trkpt>
      <trkpt lat="44.34453" lon="6.35198">
        <ele>1147</ele>
        <time>2016-07-18T15:14:31.000Z</time>
      </trkpt>
      <trkpt lat="44.34457" lon="6.35194">
        <ele>1146.8000488281</ele>
        <time>2016-07-18T15:14:35.000Z</time>
      </trkpt>
      <trkpt lat="44.34463" lon="6.3518">
        <ele>1146</ele>
        <time>2016-07-18T15:14:45.000Z</time>
      </trkpt>
      <trkpt lat="44.34465" lon="6.35176">
        <ele>1145.8000488281</ele>
        <time>2016-07-18T15:14:47.000Z</time>
      </trkpt>
      <trkpt lat="44.34468" lon="6.35169">
        <ele>1145.1999511719</ele>
        <time>2016-07-18T15:14:50.000Z</time>
      </trkpt>
      <trkpt lat="44.34473" lon="6.35162">
        <ele>1145.1999511719</ele>
        <time>2016-07-18T15:14:55.000Z</time>
      </trkpt>
      <trkpt lat="44.34476" lon="6.35156">
        <ele>1145</ele>
        <time>2016-07-18T15:14:59.000Z</time>
      </trkpt>
      <trkpt lat="44.3448" lon="6.35135">
        <ele>1144.4000244141</ele>
        <time>2016-07-18T15:15:08.000Z</time>
      </trkpt>
      <trkpt lat="44.3448" lon="6.35133">
        <ele>1144.1999511719</ele>
        <time>2016-07-18T15:15:09.000Z</time>
      </trkpt>
      <trkpt lat="44.34477" lon="6.35119">
        <ele>1143.5999755859</ele>
        <time>2016-07-18T15:15:16.000Z</time>
      </trkpt>
      <trkpt lat="44.34476" lon="6.35105">
        <ele>1143.1999511719</ele>
        <time>2016-07-18T15:15:22.000Z</time>
      </trkpt>
      <trkpt lat="44.34477" lon="6.35089">
        <ele>1142.5999755859</ele>
        <time>2016-07-18T15:15:29.000Z</time>
      </trkpt>
      <trkpt lat="44.34478" lon="6.35088">
        <ele>1142.5999755859</ele>
        <time>2016-07-18T15:15:30.000Z</time>
      </trkpt>
      <trkpt lat="44.34484" lon="6.35079">
        <ele>1142.4000244141</ele>
        <time>2016-07-18T15:15:35.000Z</time>
      </trkpt>
      <trkpt lat="44.34489" lon="6.35071">
        <ele>1142.1999511719</ele>
        <time>2016-07-18T15:15:40.000Z</time>
      </trkpt>
      <trkpt lat="44.34495" lon="6.35056">
        <ele>1142</ele>
        <time>2016-07-18T15:15:47.000Z</time>
      </trkpt>
      <trkpt lat="44.34495" lon="6.35055">
        <ele>1142</ele>
        <time>2016-07-18T15:15:48.000Z</time>
      </trkpt>
      <trkpt lat="44.34499" lon="6.35045">
        <ele>1141.8000488281</ele>
        <time>2016-07-18T15:15:53.000Z</time>
      </trkpt>
      <trkpt lat="44.34504" lon="6.35033">
        <ele>1141.5999755859</ele>
        <time>2016-07-18T15:15:59.000Z</time>
      </trkpt>
      <trkpt lat="44.34505" lon="6.35017">
        <ele>1141.4000244141</ele>
        <time>2016-07-18T15:16:07.000Z</time>
      </trkpt>
      <trkpt lat="44.34507" lon="6.34998">
        <ele>1141.4000244141</ele>
        <time>2016-07-18T15:16:15.000Z</time>
      </trkpt>
      <trkpt lat="44.34509" lon="6.34986">
        <ele>1141.1999511719</ele>
        <time>2016-07-18T15:16:22.000Z</time>
      </trkpt>
      <trkpt lat="44.34508" lon="6.34972">
        <ele>1141.1999511719</ele>
        <time>2016-07-18T15:16:28.000Z</time>
      </trkpt>
      <trkpt lat="44.3451" lon="6.34956">
        <ele>1141.4000244141</ele>
        <time>2016-07-18T15:16:35.000Z</time>
      </trkpt>
      <trkpt lat="44.34511" lon="6.34952">
        <ele>1141.4000244141</ele>
        <time>2016-07-18T15:16:38.000Z</time>
      </trkpt>
      <trkpt lat="44.34511" lon="6.34943">
        <ele>1141.8000488281</ele>
        <time>2016-07-18T15:16:43.000Z</time>
      </trkpt>
      <trkpt lat="44.34512" lon="6.34937">
        <ele>1142</ele>
        <time>2016-07-18T15:16:45.000Z</time>
      </trkpt>
      <trkpt lat="44.34514" lon="6.34931">
        <ele>1142.1999511719</ele>
        <time>2016-07-18T15:16:50.000Z</time>
      </trkpt>
      <trkpt lat="44.34515" lon="6.34927">
        <ele>1142.4000244141</ele>
        <time>2016-07-18T15:16:53.000Z</time>
      </trkpt>
      <trkpt lat="44.34518" lon="6.34915">
        <ele>1142.8000488281</ele>
        <time>2016-07-18T15:16:59.000Z</time>
      </trkpt>
      <trkpt lat="44.3452" lon="6.34903">
        <ele>1143.1999511719</ele>
        <time>2016-07-18T15:17:05.000Z</time>
      </trkpt>
      <trkpt lat="44.34522" lon="6.34888">
        <ele>1143.4000244141</ele>
        <time>2016-07-18T15:17:12.000Z</time>
      </trkpt>
      <trkpt lat="44.34523" lon="6.34885">
        <ele>1143.4000244141</ele>
        <time>2016-07-18T15:17:14.000Z</time>
      </trkpt>
      <trkpt lat="44.3452" lon="6.34871">
        <ele>1143</ele>
        <time>2016-07-18T15:17:22.000Z</time>
      </trkpt>
      <trkpt lat="44.34516" lon="6.34864">
        <ele>1142.5999755859</ele>
        <time>2016-07-18T15:17:27.000Z</time>
      </trkpt>
      <trkpt lat="44.34511" lon="6.34851">
        <ele>1142.1999511719</ele>
        <time>2016-07-18T15:17:34.000Z</time>
      </trkpt>
      <trkpt lat="44.34506" lon="6.34836">
        <ele>1141.8000488281</ele>
        <time>2016-07-18T15:17:42.000Z</time>
      </trkpt>
      <trkpt lat="44.34504" lon="6.34829">
        <ele>1141.5999755859</ele>
        <time>2016-07-18T15:17:47.000Z</time>
      </trkpt>
      <trkpt lat="44.34501" lon="6.34818">
        <ele>1141.1999511719</ele>
        <time>2016-07-18T15:17:53.000Z</time>
      </trkpt>
      <trkpt lat="44.34497" lon="6.34805">
        <ele>1141</ele>
        <time>2016-07-18T15:18:01.000Z</time>
      </trkpt>
      <trkpt lat="44.34496" lon="6.34791">
        <ele>1141</ele>
        <time>2016-07-18T15:18:07.000Z</time>
      </trkpt>
      <trkpt lat="44.34496" lon="6.34787">
        <ele>1140.8000488281</ele>
        <time>2016-07-18T15:18:09.000Z</time>
      </trkpt>
      <trkpt lat="44.34499" lon="6.3477">
        <ele>1140.5999755859</ele>
        <time>2016-07-18T15:18:15.000Z</time>
      </trkpt>
      <trkpt lat="44.34506" lon="6.34753">
        <ele>1140.1999511719</ele>
        <time>2016-07-18T15:18:23.000Z</time>
      </trkpt>
      <trkpt lat="44.34508" lon="6.34735">
        <ele>1139.5999755859</ele>
        <time>2016-07-18T15:18:30.000Z</time>
      </trkpt>
      <trkpt lat="44.34485" lon="6.34684">
        <ele>1139.4000244141</ele>
        <time>2016-07-18T15:18:55.000Z</time>
      </trkpt>
      <trkpt lat="44.34478" lon="6.34665">
        <ele>1139</ele>
        <time>2016-07-18T15:19:05.000Z</time>
      </trkpt>
      <trkpt lat="44.34472" lon="6.34647">
        <ele>1138.8000488281</ele>
        <time>2016-07-18T15:19:14.000Z</time>
      </trkpt>
      <trkpt lat="44.3447" lon="6.34645">
        <ele>1138.5999755859</ele>
        <time>2016-07-18T15:19:16.000Z</time>
      </trkpt>
      <trkpt lat="44.34472" lon="6.34631">
        <ele>1138.5999755859</ele>
        <time>2016-07-18T15:19:23.000Z</time>
      </trkpt>
      <trkpt lat="44.34481" lon="6.34621">
        <ele>1138.1999511719</ele>
        <time>2016-07-18T15:19:30.000Z</time>
      </trkpt>
      <trkpt lat="44.34494" lon="6.34618">
        <ele>1138</ele>
        <time>2016-07-18T15:19:39.000Z</time>
      </trkpt>
      <trkpt lat="44.34506" lon="6.34622">
        <ele>1138</ele>
        <time>2016-07-18T15:19:48.000Z</time>
      </trkpt>
      <trkpt lat="44.34508" lon="6.34622">
        <ele>1138</ele>
        <time>2016-07-18T15:19:50.000Z</time>
      </trkpt>
      <trkpt lat="44.34519" lon="6.34613">
        <ele>1138</ele>
        <time>2016-07-18T15:19:59.000Z</time>
      </trkpt>
      <trkpt lat="44.34521" lon="6.34608">
        <ele>1138</ele>
        <time>2016-07-18T15:20:02.000Z</time>
      </trkpt>
      <trkpt lat="44.34523" lon="6.34596">
        <ele>1138</ele>
        <time>2016-07-18T15:20:24.000Z</time>
      </trkpt>
      <trkpt lat="44.34526" lon="6.34581">
        <ele>1138</ele>
        <time>2016-07-18T15:20:32.000Z</time>
      </trkpt>
      <trkpt lat="44.34534" lon="6.34565">
        <ele>1138</ele>
        <time>2016-07-18T15:20:40.000Z</time>
      </trkpt>
      <trkpt lat="44.34539" lon="6.34558">
        <ele>1137.8000488281</ele>
        <time>2016-07-18T15:20:46.000Z</time>
      </trkpt>
      <trkpt lat="44.3454" lon="6.34557">
        <ele>1137.8000488281</ele>
        <time>2016-07-18T15:20:52.000Z</time>
      </trkpt>
      <trkpt lat="44.34542" lon="6.34555">
        <ele>1137.8000488281</ele>
        <time>2016-07-18T15:21:09.000Z</time>
      </trkpt>
      <trkpt lat="44.34552" lon="6.3456">
        <ele>1137.5999755859</ele>
        <time>2016-07-18T15:21:17.000Z</time>
      </trkpt>
      <trkpt lat="44.3456" lon="6.34563">
        <ele>1137.5999755859</ele>
        <time>2016-07-18T15:21:25.000Z</time>
      </trkpt>
      <trkpt lat="44.34567" lon="6.34559">
        <ele>1137.5999755859</ele>
        <time>2016-07-18T15:21:43.000Z</time>
      </trkpt>
      <trkpt lat="44.34577" lon="6.34558">
        <ele>1137.4000244141</ele>
        <time>2016-07-18T15:21:51.000Z</time>
      </trkpt>
      <trkpt lat="44.34584" lon="6.3456">
        <ele>1137.4000244141</ele>
        <time>2016-07-18T15:21:57.000Z</time>
      </trkpt>
      <trkpt lat="44.34593" lon="6.34563">
        <ele>1137.1999511719</ele>
        <time>2016-07-18T15:22:04.000Z</time>
      </trkpt>
      <trkpt lat="44.34597" lon="6.34563">
        <ele>1137.1999511719</ele>
        <time>2016-07-18T15:22:07.000Z</time>
      </trkpt>
      <trkpt lat="44.34601" lon="6.34558">
        <ele>1137</ele>
        <time>2016-07-18T15:22:12.000Z</time>
      </trkpt>
      <trkpt lat="44.34605" lon="6.34542">
        <ele>1136.5999755859</ele>
        <time>2016-07-18T15:22:21.000Z</time>
      </trkpt>
      <trkpt lat="44.34606" lon="6.34534">
        <ele>1136.4000244141</ele>
        <time>2016-07-18T15:22:28.000Z</time>
      </trkpt>
      <trkpt lat="44.34606" lon="6.34533">
        <ele>1136.4000244141</ele>
        <time>2016-07-18T15:22:32.000Z</time>
      </trkpt>
    </trkseg>
  </trk>
</gpx>